<?xml version="1.0" encoding="UTF-8" standalone="no" ?>
<gpx xmlns="http://www.topografix.com/GPX/1/1" xmlns:xsi="http://www.w3.org/2001/XMLSchema-instance" xsi:schemaLocation="http://www.topografix.com/GPX/1/1 http://www.topografix.com/GPX/1/1/gpx.xsd" version="1.1" creator="VisuGPX - https://www.visugpx.com">
  <metadata>
    <name>Balade sur les chemins autour de balaive et butz</name>
    <desc><![CDATA[Balade sur les chemins autour de balaive et butz]]></desc>
  </metadata>
  <wpt lat="49.67077" lon="4.71007">
    <ele>250.029</ele>
    <name><![CDATA[Prendre une photo: pic_2011_03_02_10_55_08.jpg]]></name>
  </wpt>
  <wpt lat="49.6544" lon="4.75289">
    <ele>202.57</ele>
    <name><![CDATA[Prendre une photo: pic_2011_03_02_11_41_01.jpg]]></name>
  </wpt>
  <trk>
    <name><![CDATA[LOG 02/03/11 12:05]]></name>
    <desc><![CDATA[Max. speed: 38.7km/h, avg. speed: 10.0km/h, distance: 19.210km, up: 842m, down: 837m, total time: 01:54:55]]></desc>
    <trkseg>
      <trkpt lat="49.69274" lon="4.76758">
        <ele>154.617</ele>
        <time>2011-03-02T09:10:22Z</time>
      </trkpt>
      <trkpt lat="49.69266" lon="4.76758">
        <ele>154.7</ele>
        <time>2011-03-02T09:10:24Z</time>
      </trkpt>
      <trkpt lat="49.69256" lon="4.7676">
        <ele>154.975</ele>
        <time>2011-03-02T09:10:26Z</time>
      </trkpt>
      <trkpt lat="49.69244" lon="4.76763">
        <ele>155.211</ele>
        <time>2011-03-02T09:10:28Z</time>
      </trkpt>
      <trkpt lat="49.69231" lon="4.76766">
        <ele>155.42</ele>
        <time>2011-03-02T09:10:30Z</time>
      </trkpt>
      <trkpt lat="49.69218" lon="4.7677">
        <ele>155.65</ele>
        <time>2011-03-02T09:10:32Z</time>
      </trkpt>
      <trkpt lat="49.69203" lon="4.76773">
        <ele>155.747</ele>
        <time>2011-03-02T09:10:34Z</time>
      </trkpt>
      <trkpt lat="49.6919" lon="4.76775">
        <ele>155.7</ele>
        <time>2011-03-02T09:10:36Z</time>
      </trkpt>
      <trkpt lat="49.69184" lon="4.76775">
        <ele>155.711</ele>
        <time>2011-03-02T09:10:37Z</time>
      </trkpt>
      <trkpt lat="49.69168" lon="4.76774">
        <ele>155.836</ele>
        <time>2011-03-02T09:10:39Z</time>
      </trkpt>
      <trkpt lat="49.69161" lon="4.76774">
        <ele>155.865</ele>
        <time>2011-03-02T09:10:40Z</time>
      </trkpt>
      <trkpt lat="49.69153" lon="4.76773">
        <ele>155.695</ele>
        <time>2011-03-02T09:10:41Z</time>
      </trkpt>
      <trkpt lat="49.69145" lon="4.76772">
        <ele>155.54</ele>
        <time>2011-03-02T09:10:42Z</time>
      </trkpt>
      <trkpt lat="49.69132" lon="4.76768">
        <ele>155.36</ele>
        <time>2011-03-02T09:10:44Z</time>
      </trkpt>
      <trkpt lat="49.69119" lon="4.7676">
        <ele>155.32</ele>
        <time>2011-03-02T09:10:46Z</time>
      </trkpt>
      <trkpt lat="49.69114" lon="4.76754">
        <ele>155.29</ele>
        <time>2011-03-02T09:10:47Z</time>
      </trkpt>
      <trkpt lat="49.69104" lon="4.76743">
        <ele>155.19</ele>
        <time>2011-03-02T09:10:49Z</time>
      </trkpt>
      <trkpt lat="49.69096" lon="4.76731">
        <ele>155.34</ele>
        <time>2011-03-02T09:10:51Z</time>
      </trkpt>
      <trkpt lat="49.69088" lon="4.7672">
        <ele>156.1</ele>
        <time>2011-03-02T09:10:53Z</time>
      </trkpt>
      <trkpt lat="49.69081" lon="4.76711">
        <ele>156.72</ele>
        <time>2011-03-02T09:10:55Z</time>
      </trkpt>
      <trkpt lat="49.69074" lon="4.76701">
        <ele>157.37</ele>
        <time>2011-03-02T09:10:57Z</time>
      </trkpt>
      <trkpt lat="49.69067" lon="4.7669">
        <ele>158.01</ele>
        <time>2011-03-02T09:10:59Z</time>
      </trkpt>
      <trkpt lat="49.69064" lon="4.76684">
        <ele>158.41</ele>
        <time>2011-03-02T09:11:00Z</time>
      </trkpt>
      <trkpt lat="49.69056" lon="4.76674">
        <ele>159.06</ele>
        <time>2011-03-02T09:11:02Z</time>
      </trkpt>
      <trkpt lat="49.69049" lon="4.76667">
        <ele>159.7</ele>
        <time>2011-03-02T09:11:04Z</time>
      </trkpt>
      <trkpt lat="49.69042" lon="4.76661">
        <ele>160.44</ele>
        <time>2011-03-02T09:11:06Z</time>
      </trkpt>
      <trkpt lat="49.6904" lon="4.76659">
        <ele>160.81</ele>
        <time>2011-03-02T09:11:07Z</time>
      </trkpt>
      <trkpt lat="49.69035" lon="4.76653">
        <ele>161.48</ele>
        <time>2011-03-02T09:11:09Z</time>
      </trkpt>
      <trkpt lat="49.6903" lon="4.76645">
        <ele>161.93</ele>
        <time>2011-03-02T09:11:11Z</time>
      </trkpt>
      <trkpt lat="49.69025" lon="4.76638">
        <ele>162.22</ele>
        <time>2011-03-02T09:11:13Z</time>
      </trkpt>
      <trkpt lat="49.69022" lon="4.76634">
        <ele>162.29</ele>
        <time>2011-03-02T09:11:14Z</time>
      </trkpt>
      <trkpt lat="49.69017" lon="4.76628">
        <ele>162.41</ele>
        <time>2011-03-02T09:11:16Z</time>
      </trkpt>
      <trkpt lat="49.69012" lon="4.76621">
        <ele>162.44</ele>
        <time>2011-03-02T09:11:18Z</time>
      </trkpt>
      <trkpt lat="49.69006" lon="4.76613">
        <ele>162.55</ele>
        <time>2011-03-02T09:11:20Z</time>
      </trkpt>
      <trkpt lat="49.69003" lon="4.76609">
        <ele>162.64</ele>
        <time>2011-03-02T09:11:21Z</time>
      </trkpt>
      <trkpt lat="49.69" lon="4.76605">
        <ele>162.71</ele>
        <time>2011-03-02T09:11:22Z</time>
      </trkpt>
      <trkpt lat="49.68995" lon="4.76598">
        <ele>162.95</ele>
        <time>2011-03-02T09:11:24Z</time>
      </trkpt>
      <trkpt lat="49.68992" lon="4.76595">
        <ele>163.1</ele>
        <time>2011-03-02T09:11:25Z</time>
      </trkpt>
      <trkpt lat="49.68986" lon="4.76587">
        <ele>163.54</ele>
        <time>2011-03-02T09:11:27Z</time>
      </trkpt>
      <trkpt lat="49.68981" lon="4.76579">
        <ele>164.17</ele>
        <time>2011-03-02T09:11:29Z</time>
      </trkpt>
      <trkpt lat="49.68975" lon="4.76572">
        <ele>164.68</ele>
        <time>2011-03-02T09:11:31Z</time>
      </trkpt>
      <trkpt lat="49.68973" lon="4.76569">
        <ele>164.95</ele>
        <time>2011-03-02T09:11:32Z</time>
      </trkpt>
      <trkpt lat="49.68971" lon="4.76566">
        <ele>165.16</ele>
        <time>2011-03-02T09:11:33Z</time>
      </trkpt>
      <trkpt lat="49.68966" lon="4.76559">
        <ele>165.51</ele>
        <time>2011-03-02T09:11:35Z</time>
      </trkpt>
      <trkpt lat="49.68961" lon="4.76552">
        <ele>165.65</ele>
        <time>2011-03-02T09:11:37Z</time>
      </trkpt>
      <trkpt lat="49.68959" lon="4.76549">
        <ele>165.68</ele>
        <time>2011-03-02T09:11:38Z</time>
      </trkpt>
      <trkpt lat="49.68953" lon="4.76541">
        <ele>165.87</ele>
        <time>2011-03-02T09:11:40Z</time>
      </trkpt>
      <trkpt lat="49.68951" lon="4.76538">
        <ele>166</ele>
        <time>2011-03-02T09:11:41Z</time>
      </trkpt>
      <trkpt lat="49.68948" lon="4.76534">
        <ele>166.13</ele>
        <time>2011-03-02T09:11:42Z</time>
      </trkpt>
      <trkpt lat="49.68943" lon="4.76527">
        <ele>166.4</ele>
        <time>2011-03-02T09:11:44Z</time>
      </trkpt>
      <trkpt lat="49.6894" lon="4.76524">
        <ele>166.57</ele>
        <time>2011-03-02T09:11:45Z</time>
      </trkpt>
      <trkpt lat="49.68936" lon="4.76518">
        <ele>166.97</ele>
        <time>2011-03-02T09:11:47Z</time>
      </trkpt>
      <trkpt lat="49.68933" lon="4.76514">
        <ele>167.2</ele>
        <time>2011-03-02T09:11:48Z</time>
      </trkpt>
      <trkpt lat="49.68929" lon="4.76507">
        <ele>167.51</ele>
        <time>2011-03-02T09:11:50Z</time>
      </trkpt>
      <trkpt lat="49.68926" lon="4.76503">
        <ele>167.63</ele>
        <time>2011-03-02T09:11:51Z</time>
      </trkpt>
      <trkpt lat="49.68922" lon="4.76496">
        <ele>168</ele>
        <time>2011-03-02T09:11:53Z</time>
      </trkpt>
      <trkpt lat="49.68919" lon="4.76493">
        <ele>168.2</ele>
        <time>2011-03-02T09:11:54Z</time>
      </trkpt>
      <trkpt lat="49.68917" lon="4.7649">
        <ele>168.26</ele>
        <time>2011-03-02T09:11:55Z</time>
      </trkpt>
      <trkpt lat="49.68911" lon="4.76482">
        <ele>168.33</ele>
        <time>2011-03-02T09:11:57Z</time>
      </trkpt>
      <trkpt lat="49.68909" lon="4.76478">
        <ele>168.33</ele>
        <time>2011-03-02T09:11:58Z</time>
      </trkpt>
      <trkpt lat="49.68904" lon="4.76471">
        <ele>168.34</ele>
        <time>2011-03-02T09:12:00Z</time>
      </trkpt>
      <trkpt lat="49.68901" lon="4.76468">
        <ele>168.44</ele>
        <time>2011-03-02T09:12:01Z</time>
      </trkpt>
      <trkpt lat="49.68899" lon="4.76465">
        <ele>168.52</ele>
        <time>2011-03-02T09:12:02Z</time>
      </trkpt>
      <trkpt lat="49.68897" lon="4.76462">
        <ele>168.54</ele>
        <time>2011-03-02T09:12:03Z</time>
      </trkpt>
      <trkpt lat="49.68893" lon="4.76455">
        <ele>168.68</ele>
        <time>2011-03-02T09:12:05Z</time>
      </trkpt>
      <trkpt lat="49.68892" lon="4.76451">
        <ele>168.8</ele>
        <time>2011-03-02T09:12:07Z</time>
      </trkpt>
      <trkpt lat="49.68888" lon="4.76443">
        <ele>169.04</ele>
        <time>2011-03-02T09:12:09Z</time>
      </trkpt>
      <trkpt lat="49.68885" lon="4.76439">
        <ele>168.89</ele>
        <time>2011-03-02T09:12:10Z</time>
      </trkpt>
      <trkpt lat="49.68881" lon="4.76432">
        <ele>168.63</ele>
        <time>2011-03-02T09:12:12Z</time>
      </trkpt>
      <trkpt lat="49.6888" lon="4.76428">
        <ele>168.59</ele>
        <time>2011-03-02T09:12:13Z</time>
      </trkpt>
      <trkpt lat="49.68876" lon="4.7642">
        <ele>168.53</ele>
        <time>2011-03-02T09:12:14Z</time>
      </trkpt>
      <trkpt lat="49.68873" lon="4.76412">
        <ele>168.53</ele>
        <time>2011-03-02T09:12:16Z</time>
      </trkpt>
      <trkpt lat="49.68871" lon="4.76408">
        <ele>168.6</ele>
        <time>2011-03-02T09:12:17Z</time>
      </trkpt>
      <trkpt lat="49.68865" lon="4.76396">
        <ele>168.71</ele>
        <time>2011-03-02T09:12:19Z</time>
      </trkpt>
      <trkpt lat="49.68863" lon="4.76393">
        <ele>168.61</ele>
        <time>2011-03-02T09:12:20Z</time>
      </trkpt>
      <trkpt lat="49.6886" lon="4.76384">
        <ele>168.14</ele>
        <time>2011-03-02T09:12:22Z</time>
      </trkpt>
      <trkpt lat="49.68859" lon="4.76381">
        <ele>168.06</ele>
        <time>2011-03-02T09:12:23Z</time>
      </trkpt>
      <trkpt lat="49.68857" lon="4.76376">
        <ele>167.91</ele>
        <time>2011-03-02T09:12:24Z</time>
      </trkpt>
      <trkpt lat="49.68855" lon="4.7637">
        <ele>167.72</ele>
        <time>2011-03-02T09:12:26Z</time>
      </trkpt>
      <trkpt lat="49.68852" lon="4.7636">
        <ele>167.77</ele>
        <time>2011-03-02T09:12:28Z</time>
      </trkpt>
      <trkpt lat="49.6885" lon="4.7635">
        <ele>167.94</ele>
        <time>2011-03-02T09:12:30Z</time>
      </trkpt>
      <trkpt lat="49.68847" lon="4.76341">
        <ele>168</ele>
        <time>2011-03-02T09:12:32Z</time>
      </trkpt>
      <trkpt lat="49.68845" lon="4.76335">
        <ele>168.02</ele>
        <time>2011-03-02T09:12:33Z</time>
      </trkpt>
      <trkpt lat="49.68843" lon="4.76327">
        <ele>168.11</ele>
        <time>2011-03-02T09:12:35Z</time>
      </trkpt>
      <trkpt lat="49.6884" lon="4.76316">
        <ele>168.22</ele>
        <time>2011-03-02T09:12:37Z</time>
      </trkpt>
      <trkpt lat="49.68838" lon="4.7631">
        <ele>168.34</ele>
        <time>2011-03-02T09:12:38Z</time>
      </trkpt>
      <trkpt lat="49.68833" lon="4.76301">
        <ele>168.48</ele>
        <time>2011-03-02T09:12:39Z</time>
      </trkpt>
      <trkpt lat="49.6883" lon="4.76295">
        <ele>168.56</ele>
        <time>2011-03-02T09:12:41Z</time>
      </trkpt>
      <trkpt lat="49.6883" lon="4.76293">
        <ele>168.56</ele>
        <time>2011-03-02T09:12:42Z</time>
      </trkpt>
      <trkpt lat="49.68829" lon="4.7629">
        <ele>168.58</ele>
        <time>2011-03-02T09:12:43Z</time>
      </trkpt>
      <trkpt lat="49.68828" lon="4.76286">
        <ele>168.61</ele>
        <time>2011-03-02T09:12:44Z</time>
      </trkpt>
      <trkpt lat="49.68826" lon="4.76278">
        <ele>168.58</ele>
        <time>2011-03-02T09:12:45Z</time>
      </trkpt>
      <trkpt lat="49.68821" lon="4.76267">
        <ele>168.07</ele>
        <time>2011-03-02T09:12:47Z</time>
      </trkpt>
      <trkpt lat="49.68817" lon="4.76258">
        <ele>167.66</ele>
        <time>2011-03-02T09:12:48Z</time>
      </trkpt>
      <trkpt lat="49.68814" lon="4.76253">
        <ele>167.53</ele>
        <time>2011-03-02T09:12:49Z</time>
      </trkpt>
      <trkpt lat="49.68809" lon="4.76243">
        <ele>167.5</ele>
        <time>2011-03-02T09:12:51Z</time>
      </trkpt>
      <trkpt lat="49.68804" lon="4.76233">
        <ele>167.44</ele>
        <time>2011-03-02T09:12:52Z</time>
      </trkpt>
      <trkpt lat="49.688" lon="4.76224">
        <ele>167.55</ele>
        <time>2011-03-02T09:12:54Z</time>
      </trkpt>
      <trkpt lat="49.68796" lon="4.76216">
        <ele>167.68</ele>
        <time>2011-03-02T09:12:55Z</time>
      </trkpt>
      <trkpt lat="49.68793" lon="4.76212">
        <ele>167.81</ele>
        <time>2011-03-02T09:12:57Z</time>
      </trkpt>
      <trkpt lat="49.68791" lon="4.76209">
        <ele>167.83</ele>
        <time>2011-03-02T09:12:58Z</time>
      </trkpt>
      <trkpt lat="49.68786" lon="4.76201">
        <ele>167.79</ele>
        <time>2011-03-02T09:13:00Z</time>
      </trkpt>
      <trkpt lat="49.6878" lon="4.7619">
        <ele>167.92</ele>
        <time>2011-03-02T09:13:02Z</time>
      </trkpt>
      <trkpt lat="49.68778" lon="4.76186">
        <ele>168.04</ele>
        <time>2011-03-02T09:13:03Z</time>
      </trkpt>
      <trkpt lat="49.68775" lon="4.76178">
        <ele>168.1</ele>
        <time>2011-03-02T09:13:04Z</time>
      </trkpt>
      <trkpt lat="49.68773" lon="4.76173">
        <ele>168.09</ele>
        <time>2011-03-02T09:13:05Z</time>
      </trkpt>
      <trkpt lat="49.6877" lon="4.76164">
        <ele>168.14</ele>
        <time>2011-03-02T09:13:07Z</time>
      </trkpt>
      <trkpt lat="49.68767" lon="4.76157">
        <ele>168.33</ele>
        <time>2011-03-02T09:13:08Z</time>
      </trkpt>
      <trkpt lat="49.68764" lon="4.7615">
        <ele>168.48</ele>
        <time>2011-03-02T09:13:10Z</time>
      </trkpt>
      <trkpt lat="49.68759" lon="4.76139">
        <ele>168.82</ele>
        <time>2011-03-02T09:13:12Z</time>
      </trkpt>
      <trkpt lat="49.68753" lon="4.76128">
        <ele>169.35</ele>
        <time>2011-03-02T09:13:13Z</time>
      </trkpt>
      <trkpt lat="49.68749" lon="4.76119">
        <ele>170.2</ele>
        <time>2011-03-02T09:13:15Z</time>
      </trkpt>
      <trkpt lat="49.68746" lon="4.76112">
        <ele>171.09</ele>
        <time>2011-03-02T09:13:16Z</time>
      </trkpt>
      <trkpt lat="49.68744" lon="4.76108">
        <ele>171.84</ele>
        <time>2011-03-02T09:13:18Z</time>
      </trkpt>
      <trkpt lat="49.68742" lon="4.76103">
        <ele>172.17</ele>
        <time>2011-03-02T09:13:20Z</time>
      </trkpt>
      <trkpt lat="49.68736" lon="4.76092">
        <ele>172.29</ele>
        <time>2011-03-02T09:13:22Z</time>
      </trkpt>
      <trkpt lat="49.68732" lon="4.76086">
        <ele>172.17</ele>
        <time>2011-03-02T09:13:23Z</time>
      </trkpt>
      <trkpt lat="49.68725" lon="4.76074">
        <ele>171.49</ele>
        <time>2011-03-02T09:13:25Z</time>
      </trkpt>
      <trkpt lat="49.6872" lon="4.76065">
        <ele>171.44</ele>
        <time>2011-03-02T09:13:27Z</time>
      </trkpt>
      <trkpt lat="49.68718" lon="4.7606">
        <ele>171.62</ele>
        <time>2011-03-02T09:13:28Z</time>
      </trkpt>
      <trkpt lat="49.68716" lon="4.76056">
        <ele>171.49</ele>
        <time>2011-03-02T09:13:30Z</time>
      </trkpt>
      <trkpt lat="49.68714" lon="4.76053">
        <ele>171.34</ele>
        <time>2011-03-02T09:13:31Z</time>
      </trkpt>
      <trkpt lat="49.6871" lon="4.76048">
        <ele>171.15</ele>
        <time>2011-03-02T09:13:32Z</time>
      </trkpt>
      <trkpt lat="49.68709" lon="4.76045">
        <ele>171.08</ele>
        <time>2011-03-02T09:13:33Z</time>
      </trkpt>
      <trkpt lat="49.68706" lon="4.76038">
        <ele>170.42</ele>
        <time>2011-03-02T09:13:35Z</time>
      </trkpt>
      <trkpt lat="49.68705" lon="4.76033">
        <ele>170.06</ele>
        <time>2011-03-02T09:13:36Z</time>
      </trkpt>
      <trkpt lat="49.68702" lon="4.76024">
        <ele>169.55</ele>
        <time>2011-03-02T09:13:38Z</time>
      </trkpt>
      <trkpt lat="49.687" lon="4.76019">
        <ele>169.51</ele>
        <time>2011-03-02T09:13:39Z</time>
      </trkpt>
      <trkpt lat="49.68698" lon="4.76013">
        <ele>169.38</ele>
        <time>2011-03-02T09:13:40Z</time>
      </trkpt>
      <trkpt lat="49.68696" lon="4.76006">
        <ele>169.39</ele>
        <time>2011-03-02T09:13:42Z</time>
      </trkpt>
      <trkpt lat="49.68694" lon="4.76002">
        <ele>169.47</ele>
        <time>2011-03-02T09:13:43Z</time>
      </trkpt>
      <trkpt lat="49.68691" lon="4.75997">
        <ele>169.43</ele>
        <time>2011-03-02T09:13:45Z</time>
      </trkpt>
      <trkpt lat="49.68687" lon="4.75989">
        <ele>169.48</ele>
        <time>2011-03-02T09:13:47Z</time>
      </trkpt>
      <trkpt lat="49.68684" lon="4.75983">
        <ele>169.67</ele>
        <time>2011-03-02T09:13:48Z</time>
      </trkpt>
      <trkpt lat="49.68683" lon="4.7598">
        <ele>169.82</ele>
        <time>2011-03-02T09:13:49Z</time>
      </trkpt>
      <trkpt lat="49.68681" lon="4.75973">
        <ele>169.92</ele>
        <time>2011-03-02T09:13:51Z</time>
      </trkpt>
      <trkpt lat="49.68678" lon="4.75965">
        <ele>170.1</ele>
        <time>2011-03-02T09:13:52Z</time>
      </trkpt>
      <trkpt lat="49.68674" lon="4.75957">
        <ele>170.45</ele>
        <time>2011-03-02T09:13:54Z</time>
      </trkpt>
      <trkpt lat="49.6867" lon="4.7595">
        <ele>170.8</ele>
        <time>2011-03-02T09:13:55Z</time>
      </trkpt>
      <trkpt lat="49.68668" lon="4.75946">
        <ele>170.94</ele>
        <time>2011-03-02T09:13:56Z</time>
      </trkpt>
      <trkpt lat="49.68664" lon="4.75938">
        <ele>171.2</ele>
        <time>2011-03-02T09:13:58Z</time>
      </trkpt>
      <trkpt lat="49.68661" lon="4.7593">
        <ele>171.66</ele>
        <time>2011-03-02T09:14:00Z</time>
      </trkpt>
      <trkpt lat="49.68659" lon="4.75925">
        <ele>171.69</ele>
        <time>2011-03-02T09:14:01Z</time>
      </trkpt>
      <trkpt lat="49.68657" lon="4.75921">
        <ele>171.7</ele>
        <time>2011-03-02T09:14:02Z</time>
      </trkpt>
      <trkpt lat="49.68654" lon="4.75912">
        <ele>171.41</ele>
        <time>2011-03-02T09:14:03Z</time>
      </trkpt>
      <trkpt lat="49.68649" lon="4.75902">
        <ele>171.26</ele>
        <time>2011-03-02T09:14:05Z</time>
      </trkpt>
      <trkpt lat="49.68645" lon="4.75894">
        <ele>171.23</ele>
        <time>2011-03-02T09:14:07Z</time>
      </trkpt>
      <trkpt lat="49.68641" lon="4.75886">
        <ele>171.03</ele>
        <time>2011-03-02T09:14:08Z</time>
      </trkpt>
      <trkpt lat="49.68638" lon="4.75881">
        <ele>171.09</ele>
        <time>2011-03-02T09:14:09Z</time>
      </trkpt>
      <trkpt lat="49.68634" lon="4.75873">
        <ele>171.25</ele>
        <time>2011-03-02T09:14:10Z</time>
      </trkpt>
      <trkpt lat="49.68629" lon="4.75864">
        <ele>171.59</ele>
        <time>2011-03-02T09:14:12Z</time>
      </trkpt>
      <trkpt lat="49.68624" lon="4.75853">
        <ele>172.1</ele>
        <time>2011-03-02T09:14:14Z</time>
      </trkpt>
      <trkpt lat="49.68621" lon="4.75845">
        <ele>172.57</ele>
        <time>2011-03-02T09:14:15Z</time>
      </trkpt>
      <trkpt lat="49.6862" lon="4.75838">
        <ele>172.84</ele>
        <time>2011-03-02T09:14:17Z</time>
      </trkpt>
      <trkpt lat="49.68617" lon="4.75831">
        <ele>172.68</ele>
        <time>2011-03-02T09:14:19Z</time>
      </trkpt>
      <trkpt lat="49.68615" lon="4.75826">
        <ele>172.56</ele>
        <time>2011-03-02T09:14:20Z</time>
      </trkpt>
      <trkpt lat="49.6861" lon="4.75814">
        <ele>171.59</ele>
        <time>2011-03-02T09:14:22Z</time>
      </trkpt>
      <trkpt lat="49.68609" lon="4.7581">
        <ele>171.18</ele>
        <time>2011-03-02T09:14:23Z</time>
      </trkpt>
      <trkpt lat="49.68606" lon="4.75803">
        <ele>170.3</ele>
        <time>2011-03-02T09:14:25Z</time>
      </trkpt>
      <trkpt lat="49.68605" lon="4.758">
        <ele>170.28</ele>
        <time>2011-03-02T09:14:26Z</time>
      </trkpt>
      <trkpt lat="49.68603" lon="4.75794">
        <ele>170.41</ele>
        <time>2011-03-02T09:14:27Z</time>
      </trkpt>
      <trkpt lat="49.68601" lon="4.75791">
        <ele>170.52</ele>
        <time>2011-03-02T09:14:28Z</time>
      </trkpt>
      <trkpt lat="49.68597" lon="4.75784">
        <ele>170.96</ele>
        <time>2011-03-02T09:14:30Z</time>
      </trkpt>
      <trkpt lat="49.68594" lon="4.75775">
        <ele>171.44</ele>
        <time>2011-03-02T09:14:32Z</time>
      </trkpt>
      <trkpt lat="49.68592" lon="4.75765">
        <ele>171.86</ele>
        <time>2011-03-02T09:14:34Z</time>
      </trkpt>
      <trkpt lat="49.68588" lon="4.75753">
        <ele>172.11</ele>
        <time>2011-03-02T09:14:36Z</time>
      </trkpt>
      <trkpt lat="49.68586" lon="4.75747">
        <ele>172.18</ele>
        <time>2011-03-02T09:14:37Z</time>
      </trkpt>
      <trkpt lat="49.68583" lon="4.75736">
        <ele>172.33</ele>
        <time>2011-03-02T09:14:39Z</time>
      </trkpt>
      <trkpt lat="49.6858" lon="4.75726">
        <ele>172.35</ele>
        <time>2011-03-02T09:14:41Z</time>
      </trkpt>
      <trkpt lat="49.68578" lon="4.75719">
        <ele>172.3</ele>
        <time>2011-03-02T09:14:42Z</time>
      </trkpt>
      <trkpt lat="49.68573" lon="4.75705">
        <ele>172.2</ele>
        <time>2011-03-02T09:14:44Z</time>
      </trkpt>
      <trkpt lat="49.6857" lon="4.75697">
        <ele>172.18</ele>
        <time>2011-03-02T09:14:45Z</time>
      </trkpt>
      <trkpt lat="49.68567" lon="4.75684">
        <ele>172.03</ele>
        <time>2011-03-02T09:14:47Z</time>
      </trkpt>
      <trkpt lat="49.68565" lon="4.75677">
        <ele>171.82</ele>
        <time>2011-03-02T09:14:48Z</time>
      </trkpt>
      <trkpt lat="49.68563" lon="4.75671">
        <ele>171.6</ele>
        <time>2011-03-02T09:14:49Z</time>
      </trkpt>
      <trkpt lat="49.6856" lon="4.7566">
        <ele>171.38</ele>
        <time>2011-03-02T09:14:51Z</time>
      </trkpt>
      <trkpt lat="49.68557" lon="4.75654">
        <ele>171.42</ele>
        <time>2011-03-02T09:14:52Z</time>
      </trkpt>
      <trkpt lat="49.68554" lon="4.75645">
        <ele>171.48</ele>
        <time>2011-03-02T09:14:53Z</time>
      </trkpt>
      <trkpt lat="49.68552" lon="4.75636">
        <ele>171.51</ele>
        <time>2011-03-02T09:14:55Z</time>
      </trkpt>
      <trkpt lat="49.6855" lon="4.75632">
        <ele>171.67</ele>
        <time>2011-03-02T09:14:56Z</time>
      </trkpt>
      <trkpt lat="49.68548" lon="4.75622">
        <ele>172.13</ele>
        <time>2011-03-02T09:14:57Z</time>
      </trkpt>
      <trkpt lat="49.68548" lon="4.75616">
        <ele>172.06</ele>
        <time>2011-03-02T09:14:59Z</time>
      </trkpt>
      <trkpt lat="49.68548" lon="4.75613">
        <ele>171.87</ele>
        <time>2011-03-02T09:15:00Z</time>
      </trkpt>
      <trkpt lat="49.68547" lon="4.75602">
        <ele>171.31</ele>
        <time>2011-03-02T09:15:02Z</time>
      </trkpt>
      <trkpt lat="49.68546" lon="4.75593">
        <ele>170.88</ele>
        <time>2011-03-02T09:15:04Z</time>
      </trkpt>
      <trkpt lat="49.68545" lon="4.75584">
        <ele>170.38</ele>
        <time>2011-03-02T09:15:05Z</time>
      </trkpt>
      <trkpt lat="49.68544" lon="4.75579">
        <ele>170.24</ele>
        <time>2011-03-02T09:15:06Z</time>
      </trkpt>
      <trkpt lat="49.68544" lon="4.75569">
        <ele>170.3</ele>
        <time>2011-03-02T09:15:08Z</time>
      </trkpt>
      <trkpt lat="49.68541" lon="4.75557">
        <ele>170.67</ele>
        <time>2011-03-02T09:15:10Z</time>
      </trkpt>
      <trkpt lat="49.68539" lon="4.75548">
        <ele>171.18</ele>
        <time>2011-03-02T09:15:11Z</time>
      </trkpt>
      <trkpt lat="49.68537" lon="4.75538">
        <ele>171.84</ele>
        <time>2011-03-02T09:15:13Z</time>
      </trkpt>
      <trkpt lat="49.68534" lon="4.75526">
        <ele>172.65</ele>
        <time>2011-03-02T09:15:15Z</time>
      </trkpt>
      <trkpt lat="49.68533" lon="4.7552">
        <ele>173.06</ele>
        <time>2011-03-02T09:15:16Z</time>
      </trkpt>
      <trkpt lat="49.68531" lon="4.75513">
        <ele>173.36</ele>
        <time>2011-03-02T09:15:17Z</time>
      </trkpt>
      <trkpt lat="49.68529" lon="4.75502">
        <ele>173.78</ele>
        <time>2011-03-02T09:15:19Z</time>
      </trkpt>
      <trkpt lat="49.68527" lon="4.75491">
        <ele>174.24</ele>
        <time>2011-03-02T09:15:21Z</time>
      </trkpt>
      <trkpt lat="49.68525" lon="4.75485">
        <ele>174.48</ele>
        <time>2011-03-02T09:15:22Z</time>
      </trkpt>
      <trkpt lat="49.68518" lon="4.75465">
        <ele>175.57</ele>
        <time>2011-03-02T09:15:24Z</time>
      </trkpt>
      <trkpt lat="49.68515" lon="4.75457">
        <ele>175.91</ele>
        <time>2011-03-02T09:15:25Z</time>
      </trkpt>
      <trkpt lat="49.68509" lon="4.7544">
        <ele>176.93</ele>
        <time>2011-03-02T09:15:27Z</time>
      </trkpt>
      <trkpt lat="49.68509" lon="4.75437">
        <ele>177.23</ele>
        <time>2011-03-02T09:15:28Z</time>
      </trkpt>
      <trkpt lat="49.68511" lon="4.75433">
        <ele>177.6</ele>
        <time>2011-03-02T09:15:29Z</time>
      </trkpt>
      <trkpt lat="49.68514" lon="4.7543">
        <ele>177.52</ele>
        <time>2011-03-02T09:15:31Z</time>
      </trkpt>
      <trkpt lat="49.68513" lon="4.75426">
        <ele>177.57</ele>
        <time>2011-03-02T09:15:32Z</time>
      </trkpt>
      <trkpt lat="49.68511" lon="4.75419">
        <ele>177.54</ele>
        <time>2011-03-02T09:15:33Z</time>
      </trkpt>
      <trkpt lat="49.68508" lon="4.75413">
        <ele>177.09</ele>
        <time>2011-03-02T09:15:35Z</time>
      </trkpt>
      <trkpt lat="49.68507" lon="4.75411">
        <ele>176.77</ele>
        <time>2011-03-02T09:15:36Z</time>
      </trkpt>
      <trkpt lat="49.68505" lon="4.75407">
        <ele>176.08</ele>
        <time>2011-03-02T09:15:37Z</time>
      </trkpt>
      <trkpt lat="49.68503" lon="4.75405">
        <ele>175.24</ele>
        <time>2011-03-02T09:15:39Z</time>
      </trkpt>
      <trkpt lat="49.68501" lon="4.75402">
        <ele>173.98</ele>
        <time>2011-03-02T09:15:40Z</time>
      </trkpt>
      <trkpt lat="49.68501" lon="4.754">
        <ele>173.45</ele>
        <time>2011-03-02T09:15:41Z</time>
      </trkpt>
      <trkpt lat="49.68498" lon="4.75396">
        <ele>172.78</ele>
        <time>2011-03-02T09:15:43Z</time>
      </trkpt>
      <trkpt lat="49.68495" lon="4.75391">
        <ele>172.43</ele>
        <time>2011-03-02T09:15:45Z</time>
      </trkpt>
      <trkpt lat="49.68492" lon="4.75385">
        <ele>172.5</ele>
        <time>2011-03-02T09:15:47Z</time>
      </trkpt>
      <trkpt lat="49.68489" lon="4.7538">
        <ele>172.84</ele>
        <time>2011-03-02T09:15:48Z</time>
      </trkpt>
      <trkpt lat="49.68488" lon="4.75377">
        <ele>173.1</ele>
        <time>2011-03-02T09:15:49Z</time>
      </trkpt>
      <trkpt lat="49.68486" lon="4.75374">
        <ele>174.02</ele>
        <time>2011-03-02T09:15:51Z</time>
      </trkpt>
      <trkpt lat="49.68483" lon="4.75371">
        <ele>174.98</ele>
        <time>2011-03-02T09:15:52Z</time>
      </trkpt>
      <trkpt lat="49.68481" lon="4.75369">
        <ele>175.78</ele>
        <time>2011-03-02T09:15:54Z</time>
      </trkpt>
      <trkpt lat="49.68479" lon="4.75367">
        <ele>176.62</ele>
        <time>2011-03-02T09:15:56Z</time>
      </trkpt>
      <trkpt lat="49.68478" lon="4.75364">
        <ele>177.37</ele>
        <time>2011-03-02T09:15:57Z</time>
      </trkpt>
      <trkpt lat="49.68478" lon="4.75359">
        <ele>177.71</ele>
        <time>2011-03-02T09:15:59Z</time>
      </trkpt>
      <trkpt lat="49.68478" lon="4.75356">
        <ele>177.84</ele>
        <time>2011-03-02T09:16:00Z</time>
      </trkpt>
      <trkpt lat="49.68479" lon="4.7535">
        <ele>178.09</ele>
        <time>2011-03-02T09:16:02Z</time>
      </trkpt>
      <trkpt lat="49.6848" lon="4.75347">
        <ele>177.6</ele>
        <time>2011-03-02T09:16:04Z</time>
      </trkpt>
      <trkpt lat="49.6848" lon="4.75345">
        <ele>177.406</ele>
        <time>2011-03-02T09:16:06Z</time>
      </trkpt>
      <trkpt lat="49.68476" lon="4.75338">
        <ele>177.313</ele>
        <time>2011-03-02T09:16:08Z</time>
      </trkpt>
      <trkpt lat="49.68472" lon="4.75332">
        <ele>177.2</ele>
        <time>2011-03-02T09:16:09Z</time>
      </trkpt>
      <trkpt lat="49.68469" lon="4.75327">
        <ele>177.241</ele>
        <time>2011-03-02T09:16:11Z</time>
      </trkpt>
      <trkpt lat="49.68467" lon="4.75323">
        <ele>178.106</ele>
        <time>2011-03-02T09:16:12Z</time>
      </trkpt>
      <trkpt lat="49.68465" lon="4.75319">
        <ele>178.54</ele>
        <time>2011-03-02T09:16:14Z</time>
      </trkpt>
      <trkpt lat="49.68464" lon="4.75316">
        <ele>178.73</ele>
        <time>2011-03-02T09:16:15Z</time>
      </trkpt>
      <trkpt lat="49.68462" lon="4.75311">
        <ele>179.01</ele>
        <time>2011-03-02T09:16:16Z</time>
      </trkpt>
      <trkpt lat="49.68461" lon="4.75309">
        <ele>179.16</ele>
        <time>2011-03-02T09:16:17Z</time>
      </trkpt>
      <trkpt lat="49.68459" lon="4.75305">
        <ele>179.39</ele>
        <time>2011-03-02T09:16:19Z</time>
      </trkpt>
      <trkpt lat="49.68456" lon="4.75301">
        <ele>179.59</ele>
        <time>2011-03-02T09:16:21Z</time>
      </trkpt>
      <trkpt lat="49.68453" lon="4.75299">
        <ele>179.8</ele>
        <time>2011-03-02T09:16:22Z</time>
      </trkpt>
      <trkpt lat="49.68451" lon="4.75296">
        <ele>179.99</ele>
        <time>2011-03-02T09:16:24Z</time>
      </trkpt>
      <trkpt lat="49.6845" lon="4.75291">
        <ele>180.26</ele>
        <time>2011-03-02T09:16:26Z</time>
      </trkpt>
      <trkpt lat="49.68448" lon="4.75288">
        <ele>180.34</ele>
        <time>2011-03-02T09:16:28Z</time>
      </trkpt>
      <trkpt lat="49.68447" lon="4.75287">
        <ele>180.33</ele>
        <time>2011-03-02T09:16:29Z</time>
      </trkpt>
      <trkpt lat="49.68445" lon="4.75283">
        <ele>180.33</ele>
        <time>2011-03-02T09:16:31Z</time>
      </trkpt>
      <trkpt lat="49.68443" lon="4.75279">
        <ele>180.41</ele>
        <time>2011-03-02T09:16:33Z</time>
      </trkpt>
      <trkpt lat="49.68441" lon="4.75277">
        <ele>180.47</ele>
        <time>2011-03-02T09:16:35Z</time>
      </trkpt>
      <trkpt lat="49.68441" lon="4.75277">
        <ele>180.5</ele>
        <time>2011-03-02T09:16:37Z</time>
      </trkpt>
      <trkpt lat="49.68441" lon="4.75277">
        <ele>180.57</ele>
        <time>2011-03-02T09:16:38Z</time>
      </trkpt>
      <trkpt lat="49.6844" lon="4.75277">
        <ele>180.65</ele>
        <time>2011-03-02T09:16:40Z</time>
      </trkpt>
      <trkpt lat="49.6844" lon="4.75276">
        <ele>180.68</ele>
        <time>2011-03-02T09:16:41Z</time>
      </trkpt>
      <trkpt lat="49.68435" lon="4.75269">
        <ele>180.9</ele>
        <time>2011-03-02T09:16:43Z</time>
      </trkpt>
      <trkpt lat="49.68428" lon="4.75256">
        <ele>181.17</ele>
        <time>2011-03-02T09:16:45Z</time>
      </trkpt>
      <trkpt lat="49.68423" lon="4.75247">
        <ele>181.68</ele>
        <time>2011-03-02T09:16:46Z</time>
      </trkpt>
      <trkpt lat="49.6842" lon="4.75241">
        <ele>182.39</ele>
        <time>2011-03-02T09:16:48Z</time>
      </trkpt>
      <trkpt lat="49.68418" lon="4.75237">
        <ele>183.41</ele>
        <time>2011-03-02T09:16:50Z</time>
      </trkpt>
      <trkpt lat="49.68417" lon="4.75236">
        <ele>183.95</ele>
        <time>2011-03-02T09:16:51Z</time>
      </trkpt>
      <trkpt lat="49.68417" lon="4.75233">
        <ele>184.99</ele>
        <time>2011-03-02T09:16:53Z</time>
      </trkpt>
      <trkpt lat="49.68417" lon="4.75231">
        <ele>185.86</ele>
        <time>2011-03-02T09:16:55Z</time>
      </trkpt>
      <trkpt lat="49.68417" lon="4.7523">
        <ele>186.4</ele>
        <time>2011-03-02T09:16:56Z</time>
      </trkpt>
      <trkpt lat="49.68417" lon="4.75228">
        <ele>186.89</ele>
        <time>2011-03-02T09:16:58Z</time>
      </trkpt>
      <trkpt lat="49.68416" lon="4.75224">
        <ele>187.16</ele>
        <time>2011-03-02T09:17:00Z</time>
      </trkpt>
      <trkpt lat="49.68416" lon="4.75219">
        <ele>187.75</ele>
        <time>2011-03-02T09:17:02Z</time>
      </trkpt>
      <trkpt lat="49.68416" lon="4.75216">
        <ele>188.63</ele>
        <time>2011-03-02T09:17:04Z</time>
      </trkpt>
      <trkpt lat="49.68416" lon="4.75214">
        <ele>189.12</ele>
        <time>2011-03-02T09:17:05Z</time>
      </trkpt>
      <trkpt lat="49.68415" lon="4.7521">
        <ele>189.83</ele>
        <time>2011-03-02T09:17:07Z</time>
      </trkpt>
      <trkpt lat="49.68414" lon="4.75206">
        <ele>190.36</ele>
        <time>2011-03-02T09:17:08Z</time>
      </trkpt>
      <trkpt lat="49.68413" lon="4.75203">
        <ele>190.43</ele>
        <time>2011-03-02T09:17:10Z</time>
      </trkpt>
      <trkpt lat="49.68414" lon="4.75199">
        <ele>190.19</ele>
        <time>2011-03-02T09:17:11Z</time>
      </trkpt>
      <trkpt lat="49.68415" lon="4.75195">
        <ele>190.51</ele>
        <time>2011-03-02T09:17:13Z</time>
      </trkpt>
      <trkpt lat="49.68415" lon="4.75191">
        <ele>190.74</ele>
        <time>2011-03-02T09:17:14Z</time>
      </trkpt>
      <trkpt lat="49.68415" lon="4.75185">
        <ele>191.31</ele>
        <time>2011-03-02T09:17:15Z</time>
      </trkpt>
      <trkpt lat="49.68415" lon="4.75183">
        <ele>191.57</ele>
        <time>2011-03-02T09:17:16Z</time>
      </trkpt>
      <trkpt lat="49.68415" lon="4.75179">
        <ele>192.42</ele>
        <time>2011-03-02T09:17:18Z</time>
      </trkpt>
      <trkpt lat="49.68414" lon="4.75175">
        <ele>193.52</ele>
        <time>2011-03-02T09:17:20Z</time>
      </trkpt>
      <trkpt lat="49.68413" lon="4.75172">
        <ele>193.92</ele>
        <time>2011-03-02T09:17:22Z</time>
      </trkpt>
      <trkpt lat="49.68412" lon="4.75168">
        <ele>194.24</ele>
        <time>2011-03-02T09:17:24Z</time>
      </trkpt>
      <trkpt lat="49.68409" lon="4.75165">
        <ele>194.81</ele>
        <time>2011-03-02T09:17:26Z</time>
      </trkpt>
      <trkpt lat="49.68408" lon="4.75163">
        <ele>194.92</ele>
        <time>2011-03-02T09:17:27Z</time>
      </trkpt>
      <trkpt lat="49.68407" lon="4.75161">
        <ele>194.87</ele>
        <time>2011-03-02T09:17:29Z</time>
      </trkpt>
      <trkpt lat="49.68407" lon="4.75159">
        <ele>194.87</ele>
        <time>2011-03-02T09:17:30Z</time>
      </trkpt>
      <trkpt lat="49.68406" lon="4.75154">
        <ele>195</ele>
        <time>2011-03-02T09:17:32Z</time>
      </trkpt>
      <trkpt lat="49.68405" lon="4.75148">
        <ele>195.18</ele>
        <time>2011-03-02T09:17:34Z</time>
      </trkpt>
      <trkpt lat="49.68404" lon="4.75145">
        <ele>195.27</ele>
        <time>2011-03-02T09:17:35Z</time>
      </trkpt>
      <trkpt lat="49.68402" lon="4.75141">
        <ele>195.6</ele>
        <time>2011-03-02T09:17:37Z</time>
      </trkpt>
      <trkpt lat="49.684" lon="4.75138">
        <ele>196.06</ele>
        <time>2011-03-02T09:17:38Z</time>
      </trkpt>
      <trkpt lat="49.68399" lon="4.75136">
        <ele>196.26</ele>
        <time>2011-03-02T09:17:39Z</time>
      </trkpt>
      <trkpt lat="49.68397" lon="4.75132">
        <ele>196.61</ele>
        <time>2011-03-02T09:17:41Z</time>
      </trkpt>
      <trkpt lat="49.68397" lon="4.7513">
        <ele>196.79</ele>
        <time>2011-03-02T09:17:42Z</time>
      </trkpt>
      <trkpt lat="49.68395" lon="4.75126">
        <ele>196.93</ele>
        <time>2011-03-02T09:17:44Z</time>
      </trkpt>
      <trkpt lat="49.68394" lon="4.7512">
        <ele>197.03</ele>
        <time>2011-03-02T09:17:46Z</time>
      </trkpt>
      <trkpt lat="49.68394" lon="4.75117">
        <ele>197.05</ele>
        <time>2011-03-02T09:17:47Z</time>
      </trkpt>
      <trkpt lat="49.68394" lon="4.75113">
        <ele>197.07</ele>
        <time>2011-03-02T09:17:48Z</time>
      </trkpt>
      <trkpt lat="49.68395" lon="4.75113">
        <ele>196.9</ele>
        <time>2011-03-02T09:17:49Z</time>
      </trkpt>
      <trkpt lat="49.68394" lon="4.75111">
        <ele>196.47</ele>
        <time>2011-03-02T09:17:51Z</time>
      </trkpt>
      <trkpt lat="49.68392" lon="4.7511">
        <ele>196.22</ele>
        <time>2011-03-02T09:17:53Z</time>
      </trkpt>
      <trkpt lat="49.68391" lon="4.75108">
        <ele>195.77</ele>
        <time>2011-03-02T09:17:54Z</time>
      </trkpt>
      <trkpt lat="49.6839" lon="4.75105">
        <ele>195.2</ele>
        <time>2011-03-02T09:17:55Z</time>
      </trkpt>
      <trkpt lat="49.68389" lon="4.75103">
        <ele>194.81</ele>
        <time>2011-03-02T09:17:57Z</time>
      </trkpt>
      <trkpt lat="49.68388" lon="4.75099">
        <ele>194.55</ele>
        <time>2011-03-02T09:17:59Z</time>
      </trkpt>
      <trkpt lat="49.68387" lon="4.75098">
        <ele>194.35</ele>
        <time>2011-03-02T09:18:00Z</time>
      </trkpt>
      <trkpt lat="49.68386" lon="4.75095">
        <ele>193.77</ele>
        <time>2011-03-02T09:18:02Z</time>
      </trkpt>
      <trkpt lat="49.68386" lon="4.75094">
        <ele>193.32</ele>
        <time>2011-03-02T09:18:04Z</time>
      </trkpt>
      <trkpt lat="49.68387" lon="4.75094">
        <ele>192.92</ele>
        <time>2011-03-02T09:18:05Z</time>
      </trkpt>
      <trkpt lat="49.68384" lon="4.7509">
        <ele>192.513</ele>
        <time>2011-03-02T09:18:07Z</time>
      </trkpt>
      <trkpt lat="49.68383" lon="4.75087">
        <ele>192.432</ele>
        <time>2011-03-02T09:18:08Z</time>
      </trkpt>
      <trkpt lat="49.68382" lon="4.75078">
        <ele>192.36</ele>
        <time>2011-03-02T09:18:10Z</time>
      </trkpt>
      <trkpt lat="49.68381" lon="4.75073">
        <ele>192.612</ele>
        <time>2011-03-02T09:18:12Z</time>
      </trkpt>
      <trkpt lat="49.68379" lon="4.75069">
        <ele>192.953</ele>
        <time>2011-03-02T09:18:13Z</time>
      </trkpt>
      <trkpt lat="49.68377" lon="4.75066">
        <ele>193.4</ele>
        <time>2011-03-02T09:18:15Z</time>
      </trkpt>
      <trkpt lat="49.68376" lon="4.75062">
        <ele>193.68</ele>
        <time>2011-03-02T09:18:17Z</time>
      </trkpt>
      <trkpt lat="49.68375" lon="4.75058">
        <ele>194.02</ele>
        <time>2011-03-02T09:18:19Z</time>
      </trkpt>
      <trkpt lat="49.68374" lon="4.75053">
        <ele>194.18</ele>
        <time>2011-03-02T09:18:20Z</time>
      </trkpt>
      <trkpt lat="49.68375" lon="4.75047">
        <ele>194.55</ele>
        <time>2011-03-02T09:18:22Z</time>
      </trkpt>
      <trkpt lat="49.68375" lon="4.75041">
        <ele>195.17</ele>
        <time>2011-03-02T09:18:24Z</time>
      </trkpt>
      <trkpt lat="49.68375" lon="4.75038">
        <ele>195.38</ele>
        <time>2011-03-02T09:18:25Z</time>
      </trkpt>
      <trkpt lat="49.68375" lon="4.75036">
        <ele>195.59</ele>
        <time>2011-03-02T09:18:26Z</time>
      </trkpt>
      <trkpt lat="49.68374" lon="4.75033">
        <ele>195.81</ele>
        <time>2011-03-02T09:18:27Z</time>
      </trkpt>
      <trkpt lat="49.68374" lon="4.75031">
        <ele>195.93</ele>
        <time>2011-03-02T09:18:29Z</time>
      </trkpt>
      <trkpt lat="49.68375" lon="4.7503">
        <ele>195.89</ele>
        <time>2011-03-02T09:18:30Z</time>
      </trkpt>
      <trkpt lat="49.68375" lon="4.75028">
        <ele>195.66</ele>
        <time>2011-03-02T09:18:32Z</time>
      </trkpt>
      <trkpt lat="49.68376" lon="4.75023">
        <ele>195.46</ele>
        <time>2011-03-02T09:18:34Z</time>
      </trkpt>
      <trkpt lat="49.68375" lon="4.7502">
        <ele>195.43</ele>
        <time>2011-03-02T09:18:35Z</time>
      </trkpt>
      <trkpt lat="49.68375" lon="4.75017">
        <ele>195.44</ele>
        <time>2011-03-02T09:18:36Z</time>
      </trkpt>
      <trkpt lat="49.68375" lon="4.75011">
        <ele>195.68</ele>
        <time>2011-03-02T09:18:38Z</time>
      </trkpt>
      <trkpt lat="49.68375" lon="4.75009">
        <ele>195.86</ele>
        <time>2011-03-02T09:18:39Z</time>
      </trkpt>
      <trkpt lat="49.68377" lon="4.75006">
        <ele>196.14</ele>
        <time>2011-03-02T09:18:41Z</time>
      </trkpt>
      <trkpt lat="49.68377" lon="4.75004">
        <ele>196.28</ele>
        <time>2011-03-02T09:18:42Z</time>
      </trkpt>
      <trkpt lat="49.68379" lon="4.75001">
        <ele>196.5</ele>
        <time>2011-03-02T09:18:44Z</time>
      </trkpt>
      <trkpt lat="49.68379" lon="4.74999">
        <ele>196.65</ele>
        <time>2011-03-02T09:18:45Z</time>
      </trkpt>
      <trkpt lat="49.6838" lon="4.74994">
        <ele>196.91</ele>
        <time>2011-03-02T09:18:47Z</time>
      </trkpt>
      <trkpt lat="49.68381" lon="4.74993">
        <ele>196.96</ele>
        <time>2011-03-02T09:18:48Z</time>
      </trkpt>
      <trkpt lat="49.68381" lon="4.74991">
        <ele>196.9</ele>
        <time>2011-03-02T09:18:49Z</time>
      </trkpt>
      <trkpt lat="49.68382" lon="4.74989">
        <ele>196.71</ele>
        <time>2011-03-02T09:18:51Z</time>
      </trkpt>
      <trkpt lat="49.68384" lon="4.74988">
        <ele>196.54</ele>
        <time>2011-03-02T09:18:53Z</time>
      </trkpt>
      <trkpt lat="49.68386" lon="4.74985">
        <ele>196.378</ele>
        <time>2011-03-02T09:18:55Z</time>
      </trkpt>
      <trkpt lat="49.68387" lon="4.74982">
        <ele>196.115</ele>
        <time>2011-03-02T09:18:56Z</time>
      </trkpt>
      <trkpt lat="49.68387" lon="4.74981">
        <ele>196.026</ele>
        <time>2011-03-02T09:18:57Z</time>
      </trkpt>
      <trkpt lat="49.68387" lon="4.74979">
        <ele>196.048</ele>
        <time>2011-03-02T09:18:58Z</time>
      </trkpt>
      <trkpt lat="49.68386" lon="4.74975">
        <ele>196.241</ele>
        <time>2011-03-02T09:19:00Z</time>
      </trkpt>
      <trkpt lat="49.68386" lon="4.74969">
        <ele>196.502</ele>
        <time>2011-03-02T09:19:02Z</time>
      </trkpt>
      <trkpt lat="49.68385" lon="4.74967">
        <ele>196.562</ele>
        <time>2011-03-02T09:19:03Z</time>
      </trkpt>
      <trkpt lat="49.68385" lon="4.74962">
        <ele>196.782</ele>
        <time>2011-03-02T09:19:04Z</time>
      </trkpt>
      <trkpt lat="49.68386" lon="4.7496">
        <ele>196.84</ele>
        <time>2011-03-02T09:19:06Z</time>
      </trkpt>
      <trkpt lat="49.68388" lon="4.74956">
        <ele>196.55</ele>
        <time>2011-03-02T09:19:08Z</time>
      </trkpt>
      <trkpt lat="49.68387" lon="4.74955">
        <ele>196.47</ele>
        <time>2011-03-02T09:19:09Z</time>
      </trkpt>
      <trkpt lat="49.68385" lon="4.7495">
        <ele>196.45</ele>
        <time>2011-03-02T09:19:10Z</time>
      </trkpt>
      <trkpt lat="49.68384" lon="4.74944">
        <ele>196.7</ele>
        <time>2011-03-02T09:19:12Z</time>
      </trkpt>
      <trkpt lat="49.68384" lon="4.74941">
        <ele>196.89</ele>
        <time>2011-03-02T09:19:13Z</time>
      </trkpt>
      <trkpt lat="49.68384" lon="4.74937">
        <ele>197.23</ele>
        <time>2011-03-02T09:19:14Z</time>
      </trkpt>
      <trkpt lat="49.68384" lon="4.74935">
        <ele>197.6</ele>
        <time>2011-03-02T09:19:15Z</time>
      </trkpt>
      <trkpt lat="49.68384" lon="4.7493">
        <ele>198.414</ele>
        <time>2011-03-02T09:19:17Z</time>
      </trkpt>
      <trkpt lat="49.68383" lon="4.74926">
        <ele>199.033</ele>
        <time>2011-03-02T09:19:19Z</time>
      </trkpt>
      <trkpt lat="49.68381" lon="4.74923">
        <ele>199.581</ele>
        <time>2011-03-02T09:19:21Z</time>
      </trkpt>
      <trkpt lat="49.68381" lon="4.7492">
        <ele>200.065</ele>
        <time>2011-03-02T09:19:22Z</time>
      </trkpt>
      <trkpt lat="49.6838" lon="4.74915">
        <ele>200.945</ele>
        <time>2011-03-02T09:19:23Z</time>
      </trkpt>
      <trkpt lat="49.68379" lon="4.74909">
        <ele>202.01</ele>
        <time>2011-03-02T09:19:25Z</time>
      </trkpt>
      <trkpt lat="49.68379" lon="4.74905">
        <ele>202.75</ele>
        <time>2011-03-02T09:19:27Z</time>
      </trkpt>
      <trkpt lat="49.68378" lon="4.74903">
        <ele>203.55</ele>
        <time>2011-03-02T09:19:28Z</time>
      </trkpt>
      <trkpt lat="49.68378" lon="4.74901">
        <ele>204.03</ele>
        <time>2011-03-02T09:19:29Z</time>
      </trkpt>
      <trkpt lat="49.68376" lon="4.74899">
        <ele>204.77</ele>
        <time>2011-03-02T09:19:31Z</time>
      </trkpt>
      <trkpt lat="49.68374" lon="4.74896">
        <ele>205.58</ele>
        <time>2011-03-02T09:19:33Z</time>
      </trkpt>
      <trkpt lat="49.68372" lon="4.74894">
        <ele>206.63</ele>
        <time>2011-03-02T09:19:35Z</time>
      </trkpt>
      <trkpt lat="49.68369" lon="4.74892">
        <ele>207.87</ele>
        <time>2011-03-02T09:19:37Z</time>
      </trkpt>
      <trkpt lat="49.68368" lon="4.74891">
        <ele>208.31</ele>
        <time>2011-03-02T09:19:38Z</time>
      </trkpt>
      <trkpt lat="49.68365" lon="4.74889">
        <ele>208.89</ele>
        <time>2011-03-02T09:19:40Z</time>
      </trkpt>
      <trkpt lat="49.68363" lon="4.74888">
        <ele>209.07</ele>
        <time>2011-03-02T09:19:41Z</time>
      </trkpt>
      <trkpt lat="49.68362" lon="4.74887">
        <ele>209.23</ele>
        <time>2011-03-02T09:19:42Z</time>
      </trkpt>
      <trkpt lat="49.68359" lon="4.74885">
        <ele>209.38</ele>
        <time>2011-03-02T09:19:43Z</time>
      </trkpt>
      <trkpt lat="49.68358" lon="4.74883">
        <ele>209.41</ele>
        <time>2011-03-02T09:19:44Z</time>
      </trkpt>
      <trkpt lat="49.68355" lon="4.7488">
        <ele>209.37</ele>
        <time>2011-03-02T09:19:46Z</time>
      </trkpt>
      <trkpt lat="49.68353" lon="4.74878">
        <ele>209.25</ele>
        <time>2011-03-02T09:19:48Z</time>
      </trkpt>
      <trkpt lat="49.68352" lon="4.74877">
        <ele>209.19</ele>
        <time>2011-03-02T09:19:49Z</time>
      </trkpt>
      <trkpt lat="49.68351" lon="4.74876">
        <ele>209.08</ele>
        <time>2011-03-02T09:19:50Z</time>
      </trkpt>
      <trkpt lat="49.68351" lon="4.74877">
        <ele>208.84</ele>
        <time>2011-03-02T09:19:51Z</time>
      </trkpt>
      <trkpt lat="49.6835" lon="4.74878">
        <ele>208.33</ele>
        <time>2011-03-02T09:19:53Z</time>
      </trkpt>
      <trkpt lat="49.68349" lon="4.74878">
        <ele>208.03</ele>
        <time>2011-03-02T09:19:55Z</time>
      </trkpt>
      <trkpt lat="49.68349" lon="4.74877">
        <ele>208.02</ele>
        <time>2011-03-02T09:19:56Z</time>
      </trkpt>
      <trkpt lat="49.68348" lon="4.74875">
        <ele>208.21</ele>
        <time>2011-03-02T09:19:58Z</time>
      </trkpt>
      <trkpt lat="49.68347" lon="4.74874">
        <ele>208.34</ele>
        <time>2011-03-02T09:19:59Z</time>
      </trkpt>
      <trkpt lat="49.68345" lon="4.74872">
        <ele>208.93</ele>
        <time>2011-03-02T09:20:01Z</time>
      </trkpt>
      <trkpt lat="49.68344" lon="4.74872">
        <ele>209.34</ele>
        <time>2011-03-02T09:20:02Z</time>
      </trkpt>
      <trkpt lat="49.68343" lon="4.74871">
        <ele>209.76</ele>
        <time>2011-03-02T09:20:03Z</time>
      </trkpt>
      <trkpt lat="49.68341" lon="4.7487">
        <ele>210.53</ele>
        <time>2011-03-02T09:20:05Z</time>
      </trkpt>
      <trkpt lat="49.6834" lon="4.74869">
        <ele>210.96</ele>
        <time>2011-03-02T09:20:06Z</time>
      </trkpt>
      <trkpt lat="49.68338" lon="4.74867">
        <ele>211.71</ele>
        <time>2011-03-02T09:20:08Z</time>
      </trkpt>
      <trkpt lat="49.68336" lon="4.74866">
        <ele>212.468</ele>
        <time>2011-03-02T09:20:10Z</time>
      </trkpt>
      <trkpt lat="49.68335" lon="4.74866">
        <ele>212.783</ele>
        <time>2011-03-02T09:20:11Z</time>
      </trkpt>
      <trkpt lat="49.68332" lon="4.74866">
        <ele>213.163</ele>
        <time>2011-03-02T09:20:13Z</time>
      </trkpt>
      <trkpt lat="49.6833" lon="4.74867">
        <ele>213.2</ele>
        <time>2011-03-02T09:20:14Z</time>
      </trkpt>
      <trkpt lat="49.68328" lon="4.74867">
        <ele>213.103</ele>
        <time>2011-03-02T09:20:15Z</time>
      </trkpt>
      <trkpt lat="49.68328" lon="4.74867">
        <ele>212.738</ele>
        <time>2011-03-02T09:20:17Z</time>
      </trkpt>
      <trkpt lat="49.68328" lon="4.74868">
        <ele>212.187</ele>
        <time>2011-03-02T09:20:18Z</time>
      </trkpt>
      <trkpt lat="49.68328" lon="4.74869">
        <ele>211.75</ele>
        <time>2011-03-02T09:20:20Z</time>
      </trkpt>
      <trkpt lat="49.68326" lon="4.74867">
        <ele>211.84</ele>
        <time>2011-03-02T09:20:22Z</time>
      </trkpt>
      <trkpt lat="49.68326" lon="4.74866">
        <ele>211.86</ele>
        <time>2011-03-02T09:20:23Z</time>
      </trkpt>
      <trkpt lat="49.68323" lon="4.74863">
        <ele>211.97</ele>
        <time>2011-03-02T09:20:25Z</time>
      </trkpt>
      <trkpt lat="49.68321" lon="4.7486">
        <ele>212.59</ele>
        <time>2011-03-02T09:20:27Z</time>
      </trkpt>
      <trkpt lat="49.68319" lon="4.74858">
        <ele>212.55</ele>
        <time>2011-03-02T09:20:28Z</time>
      </trkpt>
      <trkpt lat="49.68318" lon="4.74857">
        <ele>212.53</ele>
        <time>2011-03-02T09:20:30Z</time>
      </trkpt>
      <trkpt lat="49.68317" lon="4.74856">
        <ele>212.63</ele>
        <time>2011-03-02T09:20:32Z</time>
      </trkpt>
      <trkpt lat="49.68315" lon="4.74855">
        <ele>212.56</ele>
        <time>2011-03-02T09:20:34Z</time>
      </trkpt>
      <trkpt lat="49.68315" lon="4.74854">
        <ele>212.52</ele>
        <time>2011-03-02T09:20:35Z</time>
      </trkpt>
      <trkpt lat="49.68315" lon="4.74854">
        <ele>212.51</ele>
        <time>2011-03-02T09:20:36Z</time>
      </trkpt>
      <trkpt lat="49.68314" lon="4.74852">
        <ele>212.64</ele>
        <time>2011-03-02T09:20:38Z</time>
      </trkpt>
      <trkpt lat="49.68313" lon="4.74849">
        <ele>213.259</ele>
        <time>2011-03-02T09:20:40Z</time>
      </trkpt>
      <trkpt lat="49.68313" lon="4.74845">
        <ele>214.228</ele>
        <time>2011-03-02T09:20:42Z</time>
      </trkpt>
      <trkpt lat="49.68312" lon="4.74841">
        <ele>215.323</ele>
        <time>2011-03-02T09:20:43Z</time>
      </trkpt>
      <trkpt lat="49.68312" lon="4.74838">
        <ele>216.831</ele>
        <time>2011-03-02T09:20:45Z</time>
      </trkpt>
      <trkpt lat="49.68311" lon="4.74836">
        <ele>218.71</ele>
        <time>2011-03-02T09:20:47Z</time>
      </trkpt>
      <trkpt lat="49.68311" lon="4.74835">
        <ele>219.43</ele>
        <time>2011-03-02T09:20:48Z</time>
      </trkpt>
      <trkpt lat="49.6831" lon="4.74834">
        <ele>219.67</ele>
        <time>2011-03-02T09:20:49Z</time>
      </trkpt>
      <trkpt lat="49.6831" lon="4.74834">
        <ele>219.89</ele>
        <time>2011-03-02T09:20:51Z</time>
      </trkpt>
      <trkpt lat="49.6831" lon="4.74834">
        <ele>219.908</ele>
        <time>2011-03-02T09:20:53Z</time>
      </trkpt>
      <trkpt lat="49.6831" lon="4.74835">
        <ele>219.819</ele>
        <time>2011-03-02T09:20:55Z</time>
      </trkpt>
      <trkpt lat="49.68309" lon="4.74836">
        <ele>219.924</ele>
        <time>2011-03-02T09:20:56Z</time>
      </trkpt>
      <trkpt lat="49.68309" lon="4.74836">
        <ele>219.931</ele>
        <time>2011-03-02T09:20:57Z</time>
      </trkpt>
      <trkpt lat="49.68309" lon="4.74836">
        <ele>219.912</ele>
        <time>2011-03-02T09:20:59Z</time>
      </trkpt>
      <trkpt lat="49.68308" lon="4.74835">
        <ele>219.886</ele>
        <time>2011-03-02T09:21:00Z</time>
      </trkpt>
      <trkpt lat="49.68307" lon="4.74833">
        <ele>219.996</ele>
        <time>2011-03-02T09:21:02Z</time>
      </trkpt>
      <trkpt lat="49.68306" lon="4.74832">
        <ele>220.026</ele>
        <time>2011-03-02T09:21:03Z</time>
      </trkpt>
      <trkpt lat="49.68304" lon="4.74829">
        <ele>219.549</ele>
        <time>2011-03-02T09:21:05Z</time>
      </trkpt>
      <trkpt lat="49.68302" lon="4.74826">
        <ele>218.2</ele>
        <time>2011-03-02T09:21:07Z</time>
      </trkpt>
      <trkpt lat="49.68301" lon="4.74824">
        <ele>217.96</ele>
        <time>2011-03-02T09:21:08Z</time>
      </trkpt>
      <trkpt lat="49.68301" lon="4.7482">
        <ele>217.35</ele>
        <time>2011-03-02T09:21:09Z</time>
      </trkpt>
      <trkpt lat="49.68299" lon="4.74815">
        <ele>216.54</ele>
        <time>2011-03-02T09:21:11Z</time>
      </trkpt>
      <trkpt lat="49.68298" lon="4.74812">
        <ele>216.48</ele>
        <time>2011-03-02T09:21:12Z</time>
      </trkpt>
      <trkpt lat="49.68296" lon="4.74808">
        <ele>216.8</ele>
        <time>2011-03-02T09:21:14Z</time>
      </trkpt>
      <trkpt lat="49.68295" lon="4.74807">
        <ele>216.98</ele>
        <time>2011-03-02T09:21:15Z</time>
      </trkpt>
      <trkpt lat="49.68295" lon="4.74807">
        <ele>217.2</ele>
        <time>2011-03-02T09:21:16Z</time>
      </trkpt>
      <trkpt lat="49.68296" lon="4.74807">
        <ele>217.944</ele>
        <time>2011-03-02T09:21:18Z</time>
      </trkpt>
      <trkpt lat="49.68296" lon="4.74808">
        <ele>218.268</ele>
        <time>2011-03-02T09:21:19Z</time>
      </trkpt>
      <trkpt lat="49.68297" lon="4.7481">
        <ele>218.734</ele>
        <time>2011-03-02T09:21:20Z</time>
      </trkpt>
      <trkpt lat="49.68297" lon="4.7481">
        <ele>219.001</ele>
        <time>2011-03-02T09:21:22Z</time>
      </trkpt>
      <trkpt lat="49.68297" lon="4.7481">
        <ele>219.084</ele>
        <time>2011-03-02T09:21:24Z</time>
      </trkpt>
      <trkpt lat="49.68296" lon="4.7481">
        <ele>218.958</ele>
        <time>2011-03-02T09:21:25Z</time>
      </trkpt>
      <trkpt lat="49.68296" lon="4.74811">
        <ele>218.762</ele>
        <time>2011-03-02T09:21:27Z</time>
      </trkpt>
      <trkpt lat="49.68296" lon="4.74811">
        <ele>218.455</ele>
        <time>2011-03-02T09:21:29Z</time>
      </trkpt>
      <trkpt lat="49.68296" lon="4.74812">
        <ele>218.124</ele>
        <time>2011-03-02T09:21:31Z</time>
      </trkpt>
      <trkpt lat="49.68296" lon="4.74813">
        <ele>217.915</ele>
        <time>2011-03-02T09:21:32Z</time>
      </trkpt>
      <trkpt lat="49.68296" lon="4.74814">
        <ele>217.45</ele>
        <time>2011-03-02T09:21:34Z</time>
      </trkpt>
      <trkpt lat="49.68296" lon="4.74814">
        <ele>217.5</ele>
        <time>2011-03-02T09:21:35Z</time>
      </trkpt>
      <trkpt lat="49.68296" lon="4.74812">
        <ele>217.81</ele>
        <time>2011-03-02T09:21:37Z</time>
      </trkpt>
      <trkpt lat="49.68296" lon="4.74811">
        <ele>217.99</ele>
        <time>2011-03-02T09:21:38Z</time>
      </trkpt>
      <trkpt lat="49.68295" lon="4.74807">
        <ele>218.45</ele>
        <time>2011-03-02T09:21:40Z</time>
      </trkpt>
      <trkpt lat="49.68293" lon="4.74803">
        <ele>219.069</ele>
        <time>2011-03-02T09:21:42Z</time>
      </trkpt>
      <trkpt lat="49.68291" lon="4.74797">
        <ele>219.608</ele>
        <time>2011-03-02T09:21:44Z</time>
      </trkpt>
      <trkpt lat="49.6829" lon="4.74792">
        <ele>220.209</ele>
        <time>2011-03-02T09:21:45Z</time>
      </trkpt>
      <trkpt lat="49.6829" lon="4.74788">
        <ele>220.729</ele>
        <time>2011-03-02T09:21:47Z</time>
      </trkpt>
      <trkpt lat="49.68289" lon="4.74785">
        <ele>221.044</ele>
        <time>2011-03-02T09:21:49Z</time>
      </trkpt>
      <trkpt lat="49.68289" lon="4.74784">
        <ele>221.178</ele>
        <time>2011-03-02T09:21:50Z</time>
      </trkpt>
      <trkpt lat="49.68288" lon="4.74782">
        <ele>221.31</ele>
        <time>2011-03-02T09:21:51Z</time>
      </trkpt>
      <trkpt lat="49.68286" lon="4.74778">
        <ele>221.22</ele>
        <time>2011-03-02T09:21:53Z</time>
      </trkpt>
      <trkpt lat="49.68286" lon="4.74776">
        <ele>221.186</ele>
        <time>2011-03-02T09:21:54Z</time>
      </trkpt>
      <trkpt lat="49.68284" lon="4.74769">
        <ele>221.093</ele>
        <time>2011-03-02T09:21:56Z</time>
      </trkpt>
      <trkpt lat="49.68283" lon="4.74766">
        <ele>221.215</ele>
        <time>2011-03-02T09:21:57Z</time>
      </trkpt>
      <trkpt lat="49.68283" lon="4.74764">
        <ele>221.5</ele>
        <time>2011-03-02T09:21:59Z</time>
      </trkpt>
      <trkpt lat="49.68282" lon="4.74762">
        <ele>221.826</ele>
        <time>2011-03-02T09:22:00Z</time>
      </trkpt>
      <trkpt lat="49.68281" lon="4.74759">
        <ele>222.135</ele>
        <time>2011-03-02T09:22:01Z</time>
      </trkpt>
      <trkpt lat="49.68279" lon="4.74754">
        <ele>223.45</ele>
        <time>2011-03-02T09:22:03Z</time>
      </trkpt>
      <trkpt lat="49.68278" lon="4.7475">
        <ele>224.37</ele>
        <time>2011-03-02T09:22:05Z</time>
      </trkpt>
      <trkpt lat="49.68278" lon="4.74749">
        <ele>224.79</ele>
        <time>2011-03-02T09:22:06Z</time>
      </trkpt>
      <trkpt lat="49.68277" lon="4.74747">
        <ele>225.55</ele>
        <time>2011-03-02T09:22:07Z</time>
      </trkpt>
      <trkpt lat="49.68275" lon="4.74745">
        <ele>225.66</ele>
        <time>2011-03-02T09:22:09Z</time>
      </trkpt>
      <trkpt lat="49.68272" lon="4.74741">
        <ele>225.401</ele>
        <time>2011-03-02T09:22:10Z</time>
      </trkpt>
      <trkpt lat="49.68269" lon="4.74738">
        <ele>225.069</ele>
        <time>2011-03-02T09:22:12Z</time>
      </trkpt>
      <trkpt lat="49.68268" lon="4.74736">
        <ele>225.003</ele>
        <time>2011-03-02T09:22:13Z</time>
      </trkpt>
      <trkpt lat="49.68267" lon="4.74733">
        <ele>224.833</ele>
        <time>2011-03-02T09:22:14Z</time>
      </trkpt>
      <trkpt lat="49.68266" lon="4.74731">
        <ele>224.735</ele>
        <time>2011-03-02T09:22:15Z</time>
      </trkpt>
      <trkpt lat="49.68266" lon="4.74729">
        <ele>224.67</ele>
        <time>2011-03-02T09:22:16Z</time>
      </trkpt>
      <trkpt lat="49.68266" lon="4.74725">
        <ele>224.645</ele>
        <time>2011-03-02T09:22:18Z</time>
      </trkpt>
      <trkpt lat="49.68266" lon="4.74723">
        <ele>224.78</ele>
        <time>2011-03-02T09:22:20Z</time>
      </trkpt>
      <trkpt lat="49.68266" lon="4.74721">
        <ele>224.39</ele>
        <time>2011-03-02T09:22:22Z</time>
      </trkpt>
      <trkpt lat="49.68266" lon="4.74719">
        <ele>224.43</ele>
        <time>2011-03-02T09:22:23Z</time>
      </trkpt>
      <trkpt lat="49.68265" lon="4.74716">
        <ele>224.53</ele>
        <time>2011-03-02T09:22:24Z</time>
      </trkpt>
      <trkpt lat="49.68264" lon="4.74714">
        <ele>224.8</ele>
        <time>2011-03-02T09:22:26Z</time>
      </trkpt>
      <trkpt lat="49.68264" lon="4.74711">
        <ele>225.14</ele>
        <time>2011-03-02T09:22:27Z</time>
      </trkpt>
      <trkpt lat="49.68264" lon="4.74707">
        <ele>225.47</ele>
        <time>2011-03-02T09:22:29Z</time>
      </trkpt>
      <trkpt lat="49.68263" lon="4.74703">
        <ele>225.63</ele>
        <time>2011-03-02T09:22:31Z</time>
      </trkpt>
      <trkpt lat="49.68262" lon="4.74701">
        <ele>225.66</ele>
        <time>2011-03-02T09:22:32Z</time>
      </trkpt>
      <trkpt lat="49.68262" lon="4.74699">
        <ele>225.76</ele>
        <time>2011-03-02T09:22:33Z</time>
      </trkpt>
      <trkpt lat="49.68261" lon="4.74697">
        <ele>225.87</ele>
        <time>2011-03-02T09:22:35Z</time>
      </trkpt>
      <trkpt lat="49.68262" lon="4.74695">
        <ele>226.39</ele>
        <time>2011-03-02T09:22:37Z</time>
      </trkpt>
      <trkpt lat="49.68263" lon="4.74694">
        <ele>227.05</ele>
        <time>2011-03-02T09:22:38Z</time>
      </trkpt>
      <trkpt lat="49.68263" lon="4.74693">
        <ele>227.74</ele>
        <time>2011-03-02T09:22:40Z</time>
      </trkpt>
      <trkpt lat="49.68263" lon="4.74693">
        <ele>228.03</ele>
        <time>2011-03-02T09:22:41Z</time>
      </trkpt>
      <trkpt lat="49.68262" lon="4.74694">
        <ele>228.22</ele>
        <time>2011-03-02T09:22:43Z</time>
      </trkpt>
      <trkpt lat="49.68262" lon="4.74694">
        <ele>228.2</ele>
        <time>2011-03-02T09:22:44Z</time>
      </trkpt>
      <trkpt lat="49.68261" lon="4.74693">
        <ele>227.92</ele>
        <time>2011-03-02T09:22:46Z</time>
      </trkpt>
      <trkpt lat="49.6826" lon="4.7469">
        <ele>227.99</ele>
        <time>2011-03-02T09:22:47Z</time>
      </trkpt>
      <trkpt lat="49.68257" lon="4.74683">
        <ele>228.13</ele>
        <time>2011-03-02T09:22:49Z</time>
      </trkpt>
      <trkpt lat="49.68256" lon="4.74678">
        <ele>228.23</ele>
        <time>2011-03-02T09:22:50Z</time>
      </trkpt>
      <trkpt lat="49.68254" lon="4.7467">
        <ele>228.67</ele>
        <time>2011-03-02T09:22:51Z</time>
      </trkpt>
      <trkpt lat="49.68254" lon="4.74667">
        <ele>228.89</ele>
        <time>2011-03-02T09:22:52Z</time>
      </trkpt>
      <trkpt lat="49.68254" lon="4.74665">
        <ele>229.12</ele>
        <time>2011-03-02T09:22:54Z</time>
      </trkpt>
      <trkpt lat="49.68253" lon="4.7466">
        <ele>229.62</ele>
        <time>2011-03-02T09:22:55Z</time>
      </trkpt>
      <trkpt lat="49.68253" lon="4.74659">
        <ele>229.62</ele>
        <time>2011-03-02T09:22:56Z</time>
      </trkpt>
      <trkpt lat="49.68253" lon="4.74657">
        <ele>229.62</ele>
        <time>2011-03-02T09:22:57Z</time>
      </trkpt>
      <trkpt lat="49.68252" lon="4.74656">
        <ele>229.64</ele>
        <time>2011-03-02T09:22:58Z</time>
      </trkpt>
      <trkpt lat="49.68252" lon="4.74653">
        <ele>229.65</ele>
        <time>2011-03-02T09:23:00Z</time>
      </trkpt>
      <trkpt lat="49.68252" lon="4.74649">
        <ele>229.69</ele>
        <time>2011-03-02T09:23:01Z</time>
      </trkpt>
      <trkpt lat="49.68252" lon="4.74647">
        <ele>229.73</ele>
        <time>2011-03-02T09:23:02Z</time>
      </trkpt>
      <trkpt lat="49.68251" lon="4.74643">
        <ele>229.89</ele>
        <time>2011-03-02T09:23:04Z</time>
      </trkpt>
      <trkpt lat="49.6825" lon="4.74637">
        <ele>230.43</ele>
        <time>2011-03-02T09:23:06Z</time>
      </trkpt>
      <trkpt lat="49.6825" lon="4.74633">
        <ele>231.15</ele>
        <time>2011-03-02T09:23:07Z</time>
      </trkpt>
      <trkpt lat="49.68249" lon="4.74628">
        <ele>232.15</ele>
        <time>2011-03-02T09:23:09Z</time>
      </trkpt>
      <trkpt lat="49.68249" lon="4.74625">
        <ele>233.04</ele>
        <time>2011-03-02T09:23:10Z</time>
      </trkpt>
      <trkpt lat="49.68248" lon="4.74622">
        <ele>233.83</ele>
        <time>2011-03-02T09:23:12Z</time>
      </trkpt>
      <trkpt lat="49.68247" lon="4.74618">
        <ele>234.27</ele>
        <time>2011-03-02T09:23:14Z</time>
      </trkpt>
      <trkpt lat="49.68245" lon="4.74613">
        <ele>234.57</ele>
        <time>2011-03-02T09:23:16Z</time>
      </trkpt>
      <trkpt lat="49.68244" lon="4.74611">
        <ele>234.74</ele>
        <time>2011-03-02T09:23:18Z</time>
      </trkpt>
      <trkpt lat="49.68243" lon="4.74611">
        <ele>234.8</ele>
        <time>2011-03-02T09:23:19Z</time>
      </trkpt>
      <trkpt lat="49.68242" lon="4.74609">
        <ele>234.98</ele>
        <time>2011-03-02T09:23:21Z</time>
      </trkpt>
      <trkpt lat="49.68242" lon="4.74607">
        <ele>235.16</ele>
        <time>2011-03-02T09:23:22Z</time>
      </trkpt>
      <trkpt lat="49.68239" lon="4.74601">
        <ele>235.66</ele>
        <time>2011-03-02T09:23:24Z</time>
      </trkpt>
      <trkpt lat="49.68238" lon="4.74598">
        <ele>235.89</ele>
        <time>2011-03-02T09:23:25Z</time>
      </trkpt>
      <trkpt lat="49.68236" lon="4.74595">
        <ele>236.24</ele>
        <time>2011-03-02T09:23:28Z</time>
      </trkpt>
      <trkpt lat="49.68237" lon="4.74595">
        <ele>236.53</ele>
        <time>2011-03-02T09:23:30Z</time>
      </trkpt>
      <trkpt lat="49.68237" lon="4.74595">
        <ele>237.01</ele>
        <time>2011-03-02T09:23:31Z</time>
      </trkpt>
      <trkpt lat="49.68238" lon="4.74593">
        <ele>237.4</ele>
        <time>2011-03-02T09:23:33Z</time>
      </trkpt>
      <trkpt lat="49.68239" lon="4.74592">
        <ele>237.77</ele>
        <time>2011-03-02T09:23:35Z</time>
      </trkpt>
      <trkpt lat="49.68239" lon="4.74591">
        <ele>237.97</ele>
        <time>2011-03-02T09:23:36Z</time>
      </trkpt>
      <trkpt lat="49.68239" lon="4.7459">
        <ele>238.45</ele>
        <time>2011-03-02T09:23:38Z</time>
      </trkpt>
      <trkpt lat="49.68239" lon="4.74589">
        <ele>238.69</ele>
        <time>2011-03-02T09:23:39Z</time>
      </trkpt>
      <trkpt lat="49.68238" lon="4.74587">
        <ele>238.91</ele>
        <time>2011-03-02T09:23:41Z</time>
      </trkpt>
      <trkpt lat="49.68238" lon="4.74585">
        <ele>239.02</ele>
        <time>2011-03-02T09:23:42Z</time>
      </trkpt>
      <trkpt lat="49.68238" lon="4.74582">
        <ele>239.39</ele>
        <time>2011-03-02T09:23:44Z</time>
      </trkpt>
      <trkpt lat="49.68238" lon="4.74581">
        <ele>239.75</ele>
        <time>2011-03-02T09:23:46Z</time>
      </trkpt>
      <trkpt lat="49.68238" lon="4.7458">
        <ele>240.04</ele>
        <time>2011-03-02T09:23:48Z</time>
      </trkpt>
      <trkpt lat="49.68237" lon="4.7458">
        <ele>240.43</ele>
        <time>2011-03-02T09:23:50Z</time>
      </trkpt>
      <trkpt lat="49.68237" lon="4.7458">
        <ele>240.63</ele>
        <time>2011-03-02T09:23:51Z</time>
      </trkpt>
      <trkpt lat="49.68237" lon="4.74581">
        <ele>240.78</ele>
        <time>2011-03-02T09:23:53Z</time>
      </trkpt>
      <trkpt lat="49.68237" lon="4.74581">
        <ele>240.79</ele>
        <time>2011-03-02T09:23:54Z</time>
      </trkpt>
      <trkpt lat="49.68237" lon="4.74581">
        <ele>240.83</ele>
        <time>2011-03-02T09:23:56Z</time>
      </trkpt>
      <trkpt lat="49.68237" lon="4.74581">
        <ele>240.848</ele>
        <time>2011-03-02T09:23:57Z</time>
      </trkpt>
      <trkpt lat="49.68237" lon="4.74581">
        <ele>240.869</ele>
        <time>2011-03-02T09:23:59Z</time>
      </trkpt>
      <trkpt lat="49.68237" lon="4.74582">
        <ele>240.848</ele>
        <time>2011-03-02T09:24:01Z</time>
      </trkpt>
      <trkpt lat="49.68237" lon="4.74582">
        <ele>240.848</ele>
        <time>2011-03-02T09:24:03Z</time>
      </trkpt>
      <trkpt lat="49.68238" lon="4.74582">
        <ele>240.775</ele>
        <time>2011-03-02T09:24:04Z</time>
      </trkpt>
      <trkpt lat="49.68238" lon="4.74582">
        <ele>240.607</ele>
        <time>2011-03-02T09:24:06Z</time>
      </trkpt>
      <trkpt lat="49.68238" lon="4.74583">
        <ele>240.54</ele>
        <time>2011-03-02T09:24:07Z</time>
      </trkpt>
      <trkpt lat="49.68238" lon="4.74583">
        <ele>240.46</ele>
        <time>2011-03-02T09:24:08Z</time>
      </trkpt>
      <trkpt lat="49.68238" lon="4.74583">
        <ele>240.38</ele>
        <time>2011-03-02T09:24:10Z</time>
      </trkpt>
      <trkpt lat="49.68238" lon="4.74583">
        <ele>240.24</ele>
        <time>2011-03-02T09:24:11Z</time>
      </trkpt>
      <trkpt lat="49.68238" lon="4.74583">
        <ele>240.1</ele>
        <time>2011-03-02T09:24:13Z</time>
      </trkpt>
      <trkpt lat="49.68238" lon="4.74583">
        <ele>240.22</ele>
        <time>2011-03-02T09:24:14Z</time>
      </trkpt>
      <trkpt lat="49.68238" lon="4.74582">
        <ele>240.51</ele>
        <time>2011-03-02T09:24:16Z</time>
      </trkpt>
      <trkpt lat="49.68238" lon="4.74581">
        <ele>240.86</ele>
        <time>2011-03-02T09:24:18Z</time>
      </trkpt>
      <trkpt lat="49.68238" lon="4.7458">
        <ele>241.25</ele>
        <time>2011-03-02T09:24:20Z</time>
      </trkpt>
      <trkpt lat="49.68237" lon="4.7458">
        <ele>241.46</ele>
        <time>2011-03-02T09:24:21Z</time>
      </trkpt>
      <trkpt lat="49.68236" lon="4.74579">
        <ele>241.88</ele>
        <time>2011-03-02T09:24:23Z</time>
      </trkpt>
      <trkpt lat="49.68236" lon="4.74579">
        <ele>242.07</ele>
        <time>2011-03-02T09:24:25Z</time>
      </trkpt>
      <trkpt lat="49.68236" lon="4.74579">
        <ele>242.13</ele>
        <time>2011-03-02T09:24:26Z</time>
      </trkpt>
      <trkpt lat="49.68236" lon="4.74579">
        <ele>242.22</ele>
        <time>2011-03-02T09:24:28Z</time>
      </trkpt>
      <trkpt lat="49.68236" lon="4.74579">
        <ele>242.31</ele>
        <time>2011-03-02T09:24:30Z</time>
      </trkpt>
      <trkpt lat="49.68235" lon="4.74579">
        <ele>242.35</ele>
        <time>2011-03-02T09:24:32Z</time>
      </trkpt>
      <trkpt lat="49.68235" lon="4.74578">
        <ele>242.18</ele>
        <time>2011-03-02T09:24:34Z</time>
      </trkpt>
      <trkpt lat="49.68236" lon="4.74577">
        <ele>241.98</ele>
        <time>2011-03-02T09:24:36Z</time>
      </trkpt>
      <trkpt lat="49.68236" lon="4.74577">
        <ele>241.78</ele>
        <time>2011-03-02T09:24:37Z</time>
      </trkpt>
      <trkpt lat="49.68236" lon="4.74576">
        <ele>241.48</ele>
        <time>2011-03-02T09:24:39Z</time>
      </trkpt>
      <trkpt lat="49.68237" lon="4.74576">
        <ele>241.2</ele>
        <time>2011-03-02T09:24:41Z</time>
      </trkpt>
      <trkpt lat="49.68237" lon="4.74576">
        <ele>241.07</ele>
        <time>2011-03-02T09:24:43Z</time>
      </trkpt>
      <trkpt lat="49.68237" lon="4.74575">
        <ele>240.97</ele>
        <time>2011-03-02T09:24:45Z</time>
      </trkpt>
      <trkpt lat="49.68237" lon="4.74575">
        <ele>240.87</ele>
        <time>2011-03-02T09:24:46Z</time>
      </trkpt>
      <trkpt lat="49.68237" lon="4.74575">
        <ele>240.85</ele>
        <time>2011-03-02T09:24:47Z</time>
      </trkpt>
      <trkpt lat="49.68237" lon="4.74575">
        <ele>240.83</ele>
        <time>2011-03-02T09:24:48Z</time>
      </trkpt>
      <trkpt lat="49.68237" lon="4.74575">
        <ele>240.8</ele>
        <time>2011-03-02T09:24:50Z</time>
      </trkpt>
      <trkpt lat="49.68237" lon="4.74575">
        <ele>240.8</ele>
        <time>2011-03-02T09:24:51Z</time>
      </trkpt>
      <trkpt lat="49.68237" lon="4.74575">
        <ele>240.8</ele>
        <time>2011-03-02T09:24:52Z</time>
      </trkpt>
      <trkpt lat="49.68237" lon="4.74575">
        <ele>240.8</ele>
        <time>2011-03-02T09:24:54Z</time>
      </trkpt>
      <trkpt lat="49.68237" lon="4.74576">
        <ele>240.8</ele>
        <time>2011-03-02T09:24:56Z</time>
      </trkpt>
      <trkpt lat="49.68237" lon="4.74576">
        <ele>240.8</ele>
        <time>2011-03-02T09:24:57Z</time>
      </trkpt>
      <trkpt lat="49.68237" lon="4.74576">
        <ele>240.8</ele>
        <time>2011-03-02T09:24:58Z</time>
      </trkpt>
      <trkpt lat="49.68237" lon="4.74576">
        <ele>240.8</ele>
        <time>2011-03-02T09:24:59Z</time>
      </trkpt>
      <trkpt lat="49.68237" lon="4.74576">
        <ele>240.8</ele>
        <time>2011-03-02T09:25:01Z</time>
      </trkpt>
      <trkpt lat="49.68237" lon="4.74576">
        <ele>240.8</ele>
        <time>2011-03-02T09:25:02Z</time>
      </trkpt>
      <trkpt lat="49.68237" lon="4.74576">
        <ele>240.8</ele>
        <time>2011-03-02T09:25:03Z</time>
      </trkpt>
      <trkpt lat="49.68237" lon="4.74576">
        <ele>240.8</ele>
        <time>2011-03-02T09:25:05Z</time>
      </trkpt>
      <trkpt lat="49.68237" lon="4.74576">
        <ele>240.8</ele>
        <time>2011-03-02T09:25:06Z</time>
      </trkpt>
      <trkpt lat="49.68237" lon="4.74576">
        <ele>240.8</ele>
        <time>2011-03-02T09:25:08Z</time>
      </trkpt>
      <trkpt lat="49.68237" lon="4.74576">
        <ele>240.8</ele>
        <time>2011-03-02T09:25:09Z</time>
      </trkpt>
      <trkpt lat="49.68237" lon="4.74576">
        <ele>240.8</ele>
        <time>2011-03-02T09:25:10Z</time>
      </trkpt>
      <trkpt lat="49.68237" lon="4.74576">
        <ele>240.8</ele>
        <time>2011-03-02T09:25:12Z</time>
      </trkpt>
      <trkpt lat="49.68237" lon="4.74576">
        <ele>240.8</ele>
        <time>2011-03-02T09:25:13Z</time>
      </trkpt>
      <trkpt lat="49.68237" lon="4.74576">
        <ele>240.8</ele>
        <time>2011-03-02T09:25:15Z</time>
      </trkpt>
      <trkpt lat="49.68237" lon="4.74576">
        <ele>240.82</ele>
        <time>2011-03-02T09:25:16Z</time>
      </trkpt>
      <trkpt lat="49.68237" lon="4.74576">
        <ele>240.86</ele>
        <time>2011-03-02T09:25:17Z</time>
      </trkpt>
      <trkpt lat="49.68237" lon="4.74576">
        <ele>240.9</ele>
        <time>2011-03-02T09:25:19Z</time>
      </trkpt>
      <trkpt lat="49.68238" lon="4.74576">
        <ele>240.85</ele>
        <time>2011-03-02T09:25:20Z</time>
      </trkpt>
      <trkpt lat="49.68238" lon="4.74575">
        <ele>240.72</ele>
        <time>2011-03-02T09:25:22Z</time>
      </trkpt>
      <trkpt lat="49.68238" lon="4.74575">
        <ele>240.56</ele>
        <time>2011-03-02T09:25:23Z</time>
      </trkpt>
      <trkpt lat="49.68237" lon="4.74574">
        <ele>240.2</ele>
        <time>2011-03-02T09:25:25Z</time>
      </trkpt>
      <trkpt lat="49.68236" lon="4.74574">
        <ele>240</ele>
        <time>2011-03-02T09:25:27Z</time>
      </trkpt>
      <trkpt lat="49.68235" lon="4.74574">
        <ele>239.61</ele>
        <time>2011-03-02T09:25:28Z</time>
      </trkpt>
      <trkpt lat="49.68235" lon="4.74574">
        <ele>239.43</ele>
        <time>2011-03-02T09:25:30Z</time>
      </trkpt>
      <trkpt lat="49.68235" lon="4.74574">
        <ele>239.23</ele>
        <time>2011-03-02T09:25:31Z</time>
      </trkpt>
      <trkpt lat="49.68235" lon="4.74574">
        <ele>239.15</ele>
        <time>2011-03-02T09:25:32Z</time>
      </trkpt>
      <trkpt lat="49.68235" lon="4.74574">
        <ele>239.17</ele>
        <time>2011-03-02T09:25:34Z</time>
      </trkpt>
      <trkpt lat="49.68235" lon="4.74574">
        <ele>239.2</ele>
        <time>2011-03-02T09:25:35Z</time>
      </trkpt>
      <trkpt lat="49.68235" lon="4.74574">
        <ele>239.23</ele>
        <time>2011-03-02T09:25:36Z</time>
      </trkpt>
      <trkpt lat="49.68235" lon="4.74574">
        <ele>239.28</ele>
        <time>2011-03-02T09:25:38Z</time>
      </trkpt>
      <trkpt lat="49.68235" lon="4.74574">
        <ele>239.29</ele>
        <time>2011-03-02T09:25:40Z</time>
      </trkpt>
      <trkpt lat="49.68234" lon="4.74574">
        <ele>239.27</ele>
        <time>2011-03-02T09:25:42Z</time>
      </trkpt>
      <trkpt lat="49.68234" lon="4.74574">
        <ele>239.26</ele>
        <time>2011-03-02T09:25:43Z</time>
      </trkpt>
      <trkpt lat="49.68234" lon="4.74574">
        <ele>239.25</ele>
        <time>2011-03-02T09:25:44Z</time>
      </trkpt>
      <trkpt lat="49.68235" lon="4.74574">
        <ele>239.25</ele>
        <time>2011-03-02T09:25:45Z</time>
      </trkpt>
      <trkpt lat="49.68235" lon="4.74574">
        <ele>239.25</ele>
        <time>2011-03-02T09:25:46Z</time>
      </trkpt>
      <trkpt lat="49.68235" lon="4.74573">
        <ele>239.25</ele>
        <time>2011-03-02T09:25:48Z</time>
      </trkpt>
      <trkpt lat="49.68235" lon="4.74573">
        <ele>239.26</ele>
        <time>2011-03-02T09:25:50Z</time>
      </trkpt>
      <trkpt lat="49.68235" lon="4.74573">
        <ele>239.28</ele>
        <time>2011-03-02T09:25:52Z</time>
      </trkpt>
      <trkpt lat="49.68235" lon="4.74572">
        <ele>239.3</ele>
        <time>2011-03-02T09:25:53Z</time>
      </trkpt>
      <trkpt lat="49.68234" lon="4.74565">
        <ele>239.79</ele>
        <time>2011-03-02T09:25:55Z</time>
      </trkpt>
      <trkpt lat="49.68234" lon="4.74556">
        <ele>240.25</ele>
        <time>2011-03-02T09:25:57Z</time>
      </trkpt>
      <trkpt lat="49.68236" lon="4.74549">
        <ele>240.75</ele>
        <time>2011-03-02T09:25:59Z</time>
      </trkpt>
      <trkpt lat="49.68237" lon="4.74547">
        <ele>241.01</ele>
        <time>2011-03-02T09:26:00Z</time>
      </trkpt>
      <trkpt lat="49.68239" lon="4.74541">
        <ele>241.08</ele>
        <time>2011-03-02T09:26:02Z</time>
      </trkpt>
      <trkpt lat="49.68239" lon="4.74537">
        <ele>241.1</ele>
        <time>2011-03-02T09:26:03Z</time>
      </trkpt>
      <trkpt lat="49.6824" lon="4.7453">
        <ele>240.7</ele>
        <time>2011-03-02T09:26:05Z</time>
      </trkpt>
      <trkpt lat="49.68242" lon="4.74526">
        <ele>240.25</ele>
        <time>2011-03-02T09:26:07Z</time>
      </trkpt>
      <trkpt lat="49.68244" lon="4.74525">
        <ele>239.69</ele>
        <time>2011-03-02T09:26:09Z</time>
      </trkpt>
      <trkpt lat="49.68246" lon="4.74526">
        <ele>239.27</ele>
        <time>2011-03-02T09:26:11Z</time>
      </trkpt>
      <trkpt lat="49.68247" lon="4.74526">
        <ele>239.12</ele>
        <time>2011-03-02T09:26:13Z</time>
      </trkpt>
      <trkpt lat="49.68247" lon="4.74525">
        <ele>238.96</ele>
        <time>2011-03-02T09:26:15Z</time>
      </trkpt>
      <trkpt lat="49.68247" lon="4.74524">
        <ele>238.96</ele>
        <time>2011-03-02T09:26:16Z</time>
      </trkpt>
      <trkpt lat="49.68248" lon="4.74523">
        <ele>238.99</ele>
        <time>2011-03-02T09:26:17Z</time>
      </trkpt>
      <trkpt lat="49.68248" lon="4.7452">
        <ele>239.18</ele>
        <time>2011-03-02T09:26:19Z</time>
      </trkpt>
      <trkpt lat="49.68248" lon="4.74517">
        <ele>239.46</ele>
        <time>2011-03-02T09:26:21Z</time>
      </trkpt>
      <trkpt lat="49.68249" lon="4.74515">
        <ele>239.6</ele>
        <time>2011-03-02T09:26:22Z</time>
      </trkpt>
      <trkpt lat="49.6825" lon="4.74513">
        <ele>239.74</ele>
        <time>2011-03-02T09:26:24Z</time>
      </trkpt>
      <trkpt lat="49.6825" lon="4.74511">
        <ele>239.76</ele>
        <time>2011-03-02T09:26:25Z</time>
      </trkpt>
      <trkpt lat="49.68251" lon="4.74508">
        <ele>239.85</ele>
        <time>2011-03-02T09:26:27Z</time>
      </trkpt>
      <trkpt lat="49.68252" lon="4.74504">
        <ele>240.09</ele>
        <time>2011-03-02T09:26:29Z</time>
      </trkpt>
      <trkpt lat="49.68253" lon="4.74499">
        <ele>240.55</ele>
        <time>2011-03-02T09:26:31Z</time>
      </trkpt>
      <trkpt lat="49.68254" lon="4.74495">
        <ele>241.11</ele>
        <time>2011-03-02T09:26:33Z</time>
      </trkpt>
      <trkpt lat="49.68254" lon="4.74492">
        <ele>241.58</ele>
        <time>2011-03-02T09:26:34Z</time>
      </trkpt>
      <trkpt lat="49.68255" lon="4.74489">
        <ele>242.5</ele>
        <time>2011-03-02T09:26:36Z</time>
      </trkpt>
      <trkpt lat="49.68255" lon="4.74487">
        <ele>242.85</ele>
        <time>2011-03-02T09:26:37Z</time>
      </trkpt>
      <trkpt lat="49.68255" lon="4.74486">
        <ele>243.12</ele>
        <time>2011-03-02T09:26:38Z</time>
      </trkpt>
      <trkpt lat="49.68256" lon="4.74484">
        <ele>243.38</ele>
        <time>2011-03-02T09:26:39Z</time>
      </trkpt>
      <trkpt lat="49.68255" lon="4.7448">
        <ele>243.65</ele>
        <time>2011-03-02T09:26:40Z</time>
      </trkpt>
      <trkpt lat="49.68255" lon="4.74474">
        <ele>244.19</ele>
        <time>2011-03-02T09:26:42Z</time>
      </trkpt>
      <trkpt lat="49.68254" lon="4.7447">
        <ele>244.37</ele>
        <time>2011-03-02T09:26:44Z</time>
      </trkpt>
      <trkpt lat="49.68254" lon="4.74463">
        <ele>244.96</ele>
        <time>2011-03-02T09:26:46Z</time>
      </trkpt>
      <trkpt lat="49.68254" lon="4.74457">
        <ele>245.45</ele>
        <time>2011-03-02T09:26:47Z</time>
      </trkpt>
      <trkpt lat="49.68255" lon="4.74454">
        <ele>245.8</ele>
        <time>2011-03-02T09:26:49Z</time>
      </trkpt>
      <trkpt lat="49.68257" lon="4.74453">
        <ele>245.81</ele>
        <time>2011-03-02T09:26:51Z</time>
      </trkpt>
      <trkpt lat="49.68257" lon="4.74453">
        <ele>245.73</ele>
        <time>2011-03-02T09:26:53Z</time>
      </trkpt>
      <trkpt lat="49.68257" lon="4.74453">
        <ele>245.49</ele>
        <time>2011-03-02T09:26:55Z</time>
      </trkpt>
      <trkpt lat="49.68258" lon="4.74454">
        <ele>245.6</ele>
        <time>2011-03-02T09:26:57Z</time>
      </trkpt>
      <trkpt lat="49.68259" lon="4.74454">
        <ele>245.82</ele>
        <time>2011-03-02T09:26:59Z</time>
      </trkpt>
      <trkpt lat="49.68259" lon="4.74454">
        <ele>245.96</ele>
        <time>2011-03-02T09:27:00Z</time>
      </trkpt>
      <trkpt lat="49.6826" lon="4.74455">
        <ele>246.36</ele>
        <time>2011-03-02T09:27:02Z</time>
      </trkpt>
      <trkpt lat="49.6826" lon="4.74455">
        <ele>246.89</ele>
        <time>2011-03-02T09:27:04Z</time>
      </trkpt>
      <trkpt lat="49.6826" lon="4.74456">
        <ele>247.29</ele>
        <time>2011-03-02T09:27:06Z</time>
      </trkpt>
      <trkpt lat="49.68261" lon="4.74455">
        <ele>247.43</ele>
        <time>2011-03-02T09:27:07Z</time>
      </trkpt>
      <trkpt lat="49.68261" lon="4.74454">
        <ele>247.87</ele>
        <time>2011-03-02T09:27:09Z</time>
      </trkpt>
      <trkpt lat="49.68261" lon="4.74453">
        <ele>248.41</ele>
        <time>2011-03-02T09:27:11Z</time>
      </trkpt>
      <trkpt lat="49.68261" lon="4.74453">
        <ele>248.67</ele>
        <time>2011-03-02T09:27:12Z</time>
      </trkpt>
      <trkpt lat="49.68261" lon="4.74451">
        <ele>249.1</ele>
        <time>2011-03-02T09:27:14Z</time>
      </trkpt>
      <trkpt lat="49.68261" lon="4.7445">
        <ele>249.42</ele>
        <time>2011-03-02T09:27:15Z</time>
      </trkpt>
      <trkpt lat="49.6826" lon="4.74444">
        <ele>250.23</ele>
        <time>2011-03-02T09:27:17Z</time>
      </trkpt>
      <trkpt lat="49.68258" lon="4.74438">
        <ele>251.15</ele>
        <time>2011-03-02T09:27:19Z</time>
      </trkpt>
      <trkpt lat="49.68258" lon="4.74435">
        <ele>251.61</ele>
        <time>2011-03-02T09:27:20Z</time>
      </trkpt>
      <trkpt lat="49.68258" lon="4.74434">
        <ele>252.1</ele>
        <time>2011-03-02T09:27:21Z</time>
      </trkpt>
      <trkpt lat="49.68257" lon="4.74432">
        <ele>253.06</ele>
        <time>2011-03-02T09:27:23Z</time>
      </trkpt>
      <trkpt lat="49.68257" lon="4.7443">
        <ele>253.48</ele>
        <time>2011-03-02T09:27:24Z</time>
      </trkpt>
      <trkpt lat="49.68258" lon="4.74428">
        <ele>253.69</ele>
        <time>2011-03-02T09:27:25Z</time>
      </trkpt>
      <trkpt lat="49.68259" lon="4.74421">
        <ele>253.87</ele>
        <time>2011-03-02T09:27:27Z</time>
      </trkpt>
      <trkpt lat="49.6826" lon="4.74414">
        <ele>253.78</ele>
        <time>2011-03-02T09:27:28Z</time>
      </trkpt>
      <trkpt lat="49.6826" lon="4.74408">
        <ele>253.46</ele>
        <time>2011-03-02T09:27:30Z</time>
      </trkpt>
      <trkpt lat="49.68261" lon="4.74403">
        <ele>253.08</ele>
        <time>2011-03-02T09:27:32Z</time>
      </trkpt>
      <trkpt lat="49.68263" lon="4.74399">
        <ele>252.91</ele>
        <time>2011-03-02T09:27:33Z</time>
      </trkpt>
      <trkpt lat="49.68263" lon="4.74397">
        <ele>252.92</ele>
        <time>2011-03-02T09:27:34Z</time>
      </trkpt>
      <trkpt lat="49.68264" lon="4.74396">
        <ele>252.84</ele>
        <time>2011-03-02T09:27:35Z</time>
      </trkpt>
      <trkpt lat="49.68267" lon="4.74392">
        <ele>252.56</ele>
        <time>2011-03-02T09:27:37Z</time>
      </trkpt>
      <trkpt lat="49.68268" lon="4.7439">
        <ele>252.35</ele>
        <time>2011-03-02T09:27:38Z</time>
      </trkpt>
      <trkpt lat="49.68269" lon="4.74388">
        <ele>252.17</ele>
        <time>2011-03-02T09:27:39Z</time>
      </trkpt>
      <trkpt lat="49.6827" lon="4.74383">
        <ele>251.76</ele>
        <time>2011-03-02T09:27:41Z</time>
      </trkpt>
      <trkpt lat="49.68271" lon="4.74378">
        <ele>251.24</ele>
        <time>2011-03-02T09:27:43Z</time>
      </trkpt>
      <trkpt lat="49.68271" lon="4.74373">
        <ele>250.84</ele>
        <time>2011-03-02T09:27:45Z</time>
      </trkpt>
      <trkpt lat="49.68271" lon="4.74368">
        <ele>250.66</ele>
        <time>2011-03-02T09:27:47Z</time>
      </trkpt>
      <trkpt lat="49.68272" lon="4.74363">
        <ele>250.9</ele>
        <time>2011-03-02T09:27:49Z</time>
      </trkpt>
      <trkpt lat="49.68272" lon="4.74361">
        <ele>251.07</ele>
        <time>2011-03-02T09:27:50Z</time>
      </trkpt>
      <trkpt lat="49.68272" lon="4.74355">
        <ele>251.55</ele>
        <time>2011-03-02T09:27:52Z</time>
      </trkpt>
      <trkpt lat="49.68273" lon="4.74349">
        <ele>252.16</ele>
        <time>2011-03-02T09:27:54Z</time>
      </trkpt>
      <trkpt lat="49.68274" lon="4.74346">
        <ele>252.45</ele>
        <time>2011-03-02T09:27:55Z</time>
      </trkpt>
      <trkpt lat="49.68275" lon="4.74339">
        <ele>253.19</ele>
        <time>2011-03-02T09:27:57Z</time>
      </trkpt>
      <trkpt lat="49.68275" lon="4.74335">
        <ele>253.53</ele>
        <time>2011-03-02T09:27:58Z</time>
      </trkpt>
      <trkpt lat="49.68276" lon="4.74328">
        <ele>254.05</ele>
        <time>2011-03-02T09:28:00Z</time>
      </trkpt>
      <trkpt lat="49.68276" lon="4.74325">
        <ele>254.26</ele>
        <time>2011-03-02T09:28:01Z</time>
      </trkpt>
      <trkpt lat="49.68277" lon="4.7432">
        <ele>254.53</ele>
        <time>2011-03-02T09:28:02Z</time>
      </trkpt>
      <trkpt lat="49.68277" lon="4.74318">
        <ele>254.62</ele>
        <time>2011-03-02T09:28:03Z</time>
      </trkpt>
      <trkpt lat="49.68278" lon="4.74313">
        <ele>254.59</ele>
        <time>2011-03-02T09:28:05Z</time>
      </trkpt>
      <trkpt lat="49.6828" lon="4.74306">
        <ele>254.04</ele>
        <time>2011-03-02T09:28:07Z</time>
      </trkpt>
      <trkpt lat="49.6828" lon="4.74303">
        <ele>253.73</ele>
        <time>2011-03-02T09:28:08Z</time>
      </trkpt>
      <trkpt lat="49.6828" lon="4.74297">
        <ele>253.05</ele>
        <time>2011-03-02T09:28:09Z</time>
      </trkpt>
      <trkpt lat="49.6828" lon="4.74294">
        <ele>252.67</ele>
        <time>2011-03-02T09:28:10Z</time>
      </trkpt>
      <trkpt lat="49.6828" lon="4.74292">
        <ele>252.29</ele>
        <time>2011-03-02T09:28:11Z</time>
      </trkpt>
      <trkpt lat="49.6828" lon="4.74289">
        <ele>251.55</ele>
        <time>2011-03-02T09:28:13Z</time>
      </trkpt>
      <trkpt lat="49.68281" lon="4.74288">
        <ele>251.3</ele>
        <time>2011-03-02T09:28:14Z</time>
      </trkpt>
      <trkpt lat="49.68283" lon="4.74289">
        <ele>250.67</ele>
        <time>2011-03-02T09:28:16Z</time>
      </trkpt>
      <trkpt lat="49.68285" lon="4.74289">
        <ele>250.27</ele>
        <time>2011-03-02T09:28:17Z</time>
      </trkpt>
      <trkpt lat="49.68288" lon="4.7429">
        <ele>249.5</ele>
        <time>2011-03-02T09:28:18Z</time>
      </trkpt>
      <trkpt lat="49.68289" lon="4.74289">
        <ele>248.59</ele>
        <time>2011-03-02T09:28:20Z</time>
      </trkpt>
      <trkpt lat="49.6829" lon="4.74286">
        <ele>247.71</ele>
        <time>2011-03-02T09:28:22Z</time>
      </trkpt>
      <trkpt lat="49.68291" lon="4.74284">
        <ele>247.34</ele>
        <time>2011-03-02T09:28:23Z</time>
      </trkpt>
      <trkpt lat="49.6829" lon="4.74279">
        <ele>247.09</ele>
        <time>2011-03-02T09:28:25Z</time>
      </trkpt>
      <trkpt lat="49.68291" lon="4.74273">
        <ele>247.26</ele>
        <time>2011-03-02T09:28:27Z</time>
      </trkpt>
      <trkpt lat="49.68291" lon="4.7427">
        <ele>247.51</ele>
        <time>2011-03-02T09:28:28Z</time>
      </trkpt>
      <trkpt lat="49.68292" lon="4.74265">
        <ele>248.16</ele>
        <time>2011-03-02T09:28:29Z</time>
      </trkpt>
      <trkpt lat="49.68292" lon="4.74264">
        <ele>248.47</ele>
        <time>2011-03-02T09:28:30Z</time>
      </trkpt>
      <trkpt lat="49.68292" lon="4.74263">
        <ele>248.79</ele>
        <time>2011-03-02T09:28:31Z</time>
      </trkpt>
      <trkpt lat="49.68293" lon="4.74261">
        <ele>249.14</ele>
        <time>2011-03-02T09:28:32Z</time>
      </trkpt>
      <trkpt lat="49.68294" lon="4.74256">
        <ele>249.94</ele>
        <time>2011-03-02T09:28:34Z</time>
      </trkpt>
      <trkpt lat="49.68295" lon="4.74253">
        <ele>250.39</ele>
        <time>2011-03-02T09:28:35Z</time>
      </trkpt>
      <trkpt lat="49.68295" lon="4.74244">
        <ele>251</ele>
        <time>2011-03-02T09:28:37Z</time>
      </trkpt>
      <trkpt lat="49.68294" lon="4.74236">
        <ele>251.68</ele>
        <time>2011-03-02T09:28:39Z</time>
      </trkpt>
      <trkpt lat="49.68293" lon="4.74232">
        <ele>252.14</ele>
        <time>2011-03-02T09:28:40Z</time>
      </trkpt>
      <trkpt lat="49.68293" lon="4.74226">
        <ele>252.92</ele>
        <time>2011-03-02T09:28:42Z</time>
      </trkpt>
      <trkpt lat="49.68292" lon="4.74222">
        <ele>253.19</ele>
        <time>2011-03-02T09:28:43Z</time>
      </trkpt>
      <trkpt lat="49.68291" lon="4.74216">
        <ele>253.71</ele>
        <time>2011-03-02T09:28:44Z</time>
      </trkpt>
      <trkpt lat="49.6829" lon="4.74213">
        <ele>254.05</ele>
        <time>2011-03-02T09:28:45Z</time>
      </trkpt>
      <trkpt lat="49.68292" lon="4.74208">
        <ele>255.47</ele>
        <time>2011-03-02T09:28:47Z</time>
      </trkpt>
      <trkpt lat="49.68294" lon="4.74203">
        <ele>256.95</ele>
        <time>2011-03-02T09:28:48Z</time>
      </trkpt>
      <trkpt lat="49.68297" lon="4.74196">
        <ele>258.72</ele>
        <time>2011-03-02T09:28:50Z</time>
      </trkpt>
      <trkpt lat="49.68296" lon="4.74193">
        <ele>259.68</ele>
        <time>2011-03-02T09:28:51Z</time>
      </trkpt>
      <trkpt lat="49.68296" lon="4.74189">
        <ele>261.64</ele>
        <time>2011-03-02T09:28:52Z</time>
      </trkpt>
      <trkpt lat="49.68296" lon="4.74186">
        <ele>263.41</ele>
        <time>2011-03-02T09:28:54Z</time>
      </trkpt>
      <trkpt lat="49.68295" lon="4.74183">
        <ele>264.57</ele>
        <time>2011-03-02T09:28:56Z</time>
      </trkpt>
      <trkpt lat="49.68295" lon="4.7418">
        <ele>265.07</ele>
        <time>2011-03-02T09:28:57Z</time>
      </trkpt>
      <trkpt lat="49.68294" lon="4.74172">
        <ele>265.86</ele>
        <time>2011-03-02T09:28:59Z</time>
      </trkpt>
      <trkpt lat="49.68294" lon="4.74169">
        <ele>266.2</ele>
        <time>2011-03-02T09:29:00Z</time>
      </trkpt>
      <trkpt lat="49.68295" lon="4.74165">
        <ele>266.76</ele>
        <time>2011-03-02T09:29:02Z</time>
      </trkpt>
      <trkpt lat="49.68296" lon="4.74161">
        <ele>267.06</ele>
        <time>2011-03-02T09:29:04Z</time>
      </trkpt>
      <trkpt lat="49.68296" lon="4.74155">
        <ele>267.38</ele>
        <time>2011-03-02T09:29:06Z</time>
      </trkpt>
      <trkpt lat="49.68295" lon="4.7415">
        <ele>267.64</ele>
        <time>2011-03-02T09:29:07Z</time>
      </trkpt>
      <trkpt lat="49.68294" lon="4.74146">
        <ele>267.93</ele>
        <time>2011-03-02T09:29:09Z</time>
      </trkpt>
      <trkpt lat="49.68293" lon="4.74136">
        <ele>268.47</ele>
        <time>2011-03-02T09:29:11Z</time>
      </trkpt>
      <trkpt lat="49.68292" lon="4.7413">
        <ele>268.88</ele>
        <time>2011-03-02T09:29:13Z</time>
      </trkpt>
      <trkpt lat="49.68292" lon="4.74119">
        <ele>269.65</ele>
        <time>2011-03-02T09:29:14Z</time>
      </trkpt>
      <trkpt lat="49.68293" lon="4.74115">
        <ele>269.96</ele>
        <time>2011-03-02T09:29:15Z</time>
      </trkpt>
      <trkpt lat="49.68293" lon="4.7411">
        <ele>270.48</ele>
        <time>2011-03-02T09:29:17Z</time>
      </trkpt>
      <trkpt lat="49.68294" lon="4.74108">
        <ele>270.72</ele>
        <time>2011-03-02T09:29:18Z</time>
      </trkpt>
      <trkpt lat="49.68295" lon="4.74106">
        <ele>270.95</ele>
        <time>2011-03-02T09:29:19Z</time>
      </trkpt>
      <trkpt lat="49.68297" lon="4.74104">
        <ele>271.15</ele>
        <time>2011-03-02T09:29:21Z</time>
      </trkpt>
      <trkpt lat="49.68297" lon="4.74104">
        <ele>271.01</ele>
        <time>2011-03-02T09:29:22Z</time>
      </trkpt>
      <trkpt lat="49.68299" lon="4.74105">
        <ele>270.59</ele>
        <time>2011-03-02T09:29:23Z</time>
      </trkpt>
      <trkpt lat="49.68299" lon="4.74104">
        <ele>270.32</ele>
        <time>2011-03-02T09:29:25Z</time>
      </trkpt>
      <trkpt lat="49.683" lon="4.74101">
        <ele>270.13</ele>
        <time>2011-03-02T09:29:27Z</time>
      </trkpt>
      <trkpt lat="49.68301" lon="4.74097">
        <ele>269.8</ele>
        <time>2011-03-02T09:29:28Z</time>
      </trkpt>
      <trkpt lat="49.68302" lon="4.74095">
        <ele>269.63</ele>
        <time>2011-03-02T09:29:29Z</time>
      </trkpt>
      <trkpt lat="49.68303" lon="4.74093">
        <ele>269.48</ele>
        <time>2011-03-02T09:29:30Z</time>
      </trkpt>
      <trkpt lat="49.68303" lon="4.74092">
        <ele>269.04</ele>
        <time>2011-03-02T09:29:32Z</time>
      </trkpt>
      <trkpt lat="49.68303" lon="4.7409">
        <ele>268.49</ele>
        <time>2011-03-02T09:29:34Z</time>
      </trkpt>
      <trkpt lat="49.68303" lon="4.74087">
        <ele>267.93</ele>
        <time>2011-03-02T09:29:36Z</time>
      </trkpt>
      <trkpt lat="49.68303" lon="4.74085">
        <ele>267.65</ele>
        <time>2011-03-02T09:29:37Z</time>
      </trkpt>
      <trkpt lat="49.68305" lon="4.7408">
        <ele>267.3</ele>
        <time>2011-03-02T09:29:39Z</time>
      </trkpt>
      <trkpt lat="49.68308" lon="4.74072">
        <ele>267.26</ele>
        <time>2011-03-02T09:29:41Z</time>
      </trkpt>
      <trkpt lat="49.68309" lon="4.74068">
        <ele>267.36</ele>
        <time>2011-03-02T09:29:42Z</time>
      </trkpt>
      <trkpt lat="49.68309" lon="4.74061">
        <ele>267.69</ele>
        <time>2011-03-02T09:29:44Z</time>
      </trkpt>
      <trkpt lat="49.68309" lon="4.74056">
        <ele>268.05</ele>
        <time>2011-03-02T09:29:45Z</time>
      </trkpt>
      <trkpt lat="49.68309" lon="4.74054">
        <ele>268.36</ele>
        <time>2011-03-02T09:29:47Z</time>
      </trkpt>
      <trkpt lat="49.6831" lon="4.74052">
        <ele>268.66</ele>
        <time>2011-03-02T09:29:49Z</time>
      </trkpt>
      <trkpt lat="49.6831" lon="4.7405">
        <ele>269.02</ele>
        <time>2011-03-02T09:29:51Z</time>
      </trkpt>
      <trkpt lat="49.68311" lon="4.7405">
        <ele>269.3</ele>
        <time>2011-03-02T09:29:52Z</time>
      </trkpt>
      <trkpt lat="49.68312" lon="4.7405">
        <ele>269.8</ele>
        <time>2011-03-02T09:29:53Z</time>
      </trkpt>
      <trkpt lat="49.68313" lon="4.7405">
        <ele>269.89</ele>
        <time>2011-03-02T09:29:54Z</time>
      </trkpt>
      <trkpt lat="49.68313" lon="4.74049">
        <ele>269.95</ele>
        <time>2011-03-02T09:29:55Z</time>
      </trkpt>
      <trkpt lat="49.68312" lon="4.74046">
        <ele>269.93</ele>
        <time>2011-03-02T09:29:57Z</time>
      </trkpt>
      <trkpt lat="49.68313" lon="4.74043">
        <ele>269.18</ele>
        <time>2011-03-02T09:29:59Z</time>
      </trkpt>
      <trkpt lat="49.68313" lon="4.74042">
        <ele>268.63</ele>
        <time>2011-03-02T09:30:00Z</time>
      </trkpt>
      <trkpt lat="49.68315" lon="4.74037">
        <ele>267.07</ele>
        <time>2011-03-02T09:30:02Z</time>
      </trkpt>
      <trkpt lat="49.68316" lon="4.74033">
        <ele>265.64</ele>
        <time>2011-03-02T09:30:04Z</time>
      </trkpt>
      <trkpt lat="49.68317" lon="4.7403">
        <ele>264.94</ele>
        <time>2011-03-02T09:30:05Z</time>
      </trkpt>
      <trkpt lat="49.68318" lon="4.74028">
        <ele>263.51</ele>
        <time>2011-03-02T09:30:06Z</time>
      </trkpt>
      <trkpt lat="49.6832" lon="4.74025">
        <ele>262.26</ele>
        <time>2011-03-02T09:30:08Z</time>
      </trkpt>
      <trkpt lat="49.68322" lon="4.74023">
        <ele>260.99</ele>
        <time>2011-03-02T09:30:10Z</time>
      </trkpt>
      <trkpt lat="49.68324" lon="4.74022">
        <ele>259.62</ele>
        <time>2011-03-02T09:30:12Z</time>
      </trkpt>
      <trkpt lat="49.68325" lon="4.74022">
        <ele>258.82</ele>
        <time>2011-03-02T09:30:13Z</time>
      </trkpt>
      <trkpt lat="49.68326" lon="4.74022">
        <ele>257.22</ele>
        <time>2011-03-02T09:30:15Z</time>
      </trkpt>
      <trkpt lat="49.68328" lon="4.7402">
        <ele>256.02</ele>
        <time>2011-03-02T09:30:17Z</time>
      </trkpt>
      <trkpt lat="49.68329" lon="4.74019">
        <ele>255.55</ele>
        <time>2011-03-02T09:30:18Z</time>
      </trkpt>
      <trkpt lat="49.6833" lon="4.74017">
        <ele>255.22</ele>
        <time>2011-03-02T09:30:19Z</time>
      </trkpt>
      <trkpt lat="49.68331" lon="4.74012">
        <ele>254.79</ele>
        <time>2011-03-02T09:30:21Z</time>
      </trkpt>
      <trkpt lat="49.68332" lon="4.74005">
        <ele>255.18</ele>
        <time>2011-03-02T09:30:23Z</time>
      </trkpt>
      <trkpt lat="49.68333" lon="4.73997">
        <ele>256.02</ele>
        <time>2011-03-02T09:30:25Z</time>
      </trkpt>
      <trkpt lat="49.68335" lon="4.73991">
        <ele>257</ele>
        <time>2011-03-02T09:30:28Z</time>
      </trkpt>
      <trkpt lat="49.68336" lon="4.73984">
        <ele>257.96</ele>
        <time>2011-03-02T09:30:29Z</time>
      </trkpt>
      <trkpt lat="49.68337" lon="4.73979">
        <ele>258.53</ele>
        <time>2011-03-02T09:30:31Z</time>
      </trkpt>
      <trkpt lat="49.68338" lon="4.73978">
        <ele>258.66</ele>
        <time>2011-03-02T09:30:32Z</time>
      </trkpt>
      <trkpt lat="49.68339" lon="4.73975">
        <ele>258.85</ele>
        <time>2011-03-02T09:30:34Z</time>
      </trkpt>
      <trkpt lat="49.68339" lon="4.73973">
        <ele>258.99</ele>
        <time>2011-03-02T09:30:35Z</time>
      </trkpt>
      <trkpt lat="49.68339" lon="4.73971">
        <ele>259.07</ele>
        <time>2011-03-02T09:30:36Z</time>
      </trkpt>
      <trkpt lat="49.68339" lon="4.73967">
        <ele>259.31</ele>
        <time>2011-03-02T09:30:38Z</time>
      </trkpt>
      <trkpt lat="49.68339" lon="4.73961">
        <ele>259.78</ele>
        <time>2011-03-02T09:30:40Z</time>
      </trkpt>
      <trkpt lat="49.68339" lon="4.73956">
        <ele>260.54</ele>
        <time>2011-03-02T09:30:42Z</time>
      </trkpt>
      <trkpt lat="49.68341" lon="4.73953">
        <ele>261.06</ele>
        <time>2011-03-02T09:30:44Z</time>
      </trkpt>
      <trkpt lat="49.68342" lon="4.73952">
        <ele>261.21</ele>
        <time>2011-03-02T09:30:45Z</time>
      </trkpt>
      <trkpt lat="49.68345" lon="4.73951">
        <ele>261.45</ele>
        <time>2011-03-02T09:30:47Z</time>
      </trkpt>
      <trkpt lat="49.68346" lon="4.73949">
        <ele>261.58</ele>
        <time>2011-03-02T09:30:49Z</time>
      </trkpt>
      <trkpt lat="49.68347" lon="4.73944">
        <ele>261.54</ele>
        <time>2011-03-02T09:30:51Z</time>
      </trkpt>
      <trkpt lat="49.68346" lon="4.73939">
        <ele>261.56</ele>
        <time>2011-03-02T09:30:53Z</time>
      </trkpt>
      <trkpt lat="49.68345" lon="4.73933">
        <ele>261.85</ele>
        <time>2011-03-02T09:30:55Z</time>
      </trkpt>
      <trkpt lat="49.68345" lon="4.73929">
        <ele>262.15</ele>
        <time>2011-03-02T09:30:56Z</time>
      </trkpt>
      <trkpt lat="49.68344" lon="4.73922">
        <ele>262.91</ele>
        <time>2011-03-02T09:30:58Z</time>
      </trkpt>
      <trkpt lat="49.68343" lon="4.73915">
        <ele>263.79</ele>
        <time>2011-03-02T09:31:00Z</time>
      </trkpt>
      <trkpt lat="49.68342" lon="4.73909">
        <ele>264.68</ele>
        <time>2011-03-02T09:31:02Z</time>
      </trkpt>
      <trkpt lat="49.68342" lon="4.73906">
        <ele>265.13</ele>
        <time>2011-03-02T09:31:03Z</time>
      </trkpt>
      <trkpt lat="49.68343" lon="4.739">
        <ele>266.13</ele>
        <time>2011-03-02T09:31:05Z</time>
      </trkpt>
      <trkpt lat="49.68343" lon="4.73898">
        <ele>266.59</ele>
        <time>2011-03-02T09:31:06Z</time>
      </trkpt>
      <trkpt lat="49.68343" lon="4.73893">
        <ele>267.28</ele>
        <time>2011-03-02T09:31:08Z</time>
      </trkpt>
      <trkpt lat="49.68344" lon="4.73887">
        <ele>267.89</ele>
        <time>2011-03-02T09:31:10Z</time>
      </trkpt>
      <trkpt lat="49.68344" lon="4.73885">
        <ele>268.19</ele>
        <time>2011-03-02T09:31:11Z</time>
      </trkpt>
      <trkpt lat="49.68344" lon="4.7388">
        <ele>268.29</ele>
        <time>2011-03-02T09:31:13Z</time>
      </trkpt>
      <trkpt lat="49.68345" lon="4.73874">
        <ele>267.87</ele>
        <time>2011-03-02T09:31:15Z</time>
      </trkpt>
      <trkpt lat="49.68345" lon="4.73871">
        <ele>267.48</ele>
        <time>2011-03-02T09:31:16Z</time>
      </trkpt>
      <trkpt lat="49.68345" lon="4.73869">
        <ele>267.07</ele>
        <time>2011-03-02T09:31:17Z</time>
      </trkpt>
      <trkpt lat="49.68346" lon="4.73866">
        <ele>266.32</ele>
        <time>2011-03-02T09:31:19Z</time>
      </trkpt>
      <trkpt lat="49.68347" lon="4.73864">
        <ele>265.64</ele>
        <time>2011-03-02T09:31:21Z</time>
      </trkpt>
      <trkpt lat="49.68348" lon="4.73862">
        <ele>265.3</ele>
        <time>2011-03-02T09:31:23Z</time>
      </trkpt>
      <trkpt lat="49.68349" lon="4.73859">
        <ele>265.23</ele>
        <time>2011-03-02T09:31:26Z</time>
      </trkpt>
      <trkpt lat="49.68349" lon="4.73854">
        <ele>265.37</ele>
        <time>2011-03-02T09:31:27Z</time>
      </trkpt>
      <trkpt lat="49.68349" lon="4.73851">
        <ele>265.44</ele>
        <time>2011-03-02T09:31:28Z</time>
      </trkpt>
      <trkpt lat="49.68348" lon="4.73847">
        <ele>265.5</ele>
        <time>2011-03-02T09:31:29Z</time>
      </trkpt>
      <trkpt lat="49.68347" lon="4.73839">
        <ele>265.52</ele>
        <time>2011-03-02T09:31:31Z</time>
      </trkpt>
      <trkpt lat="49.68346" lon="4.73836">
        <ele>265.58</ele>
        <time>2011-03-02T09:31:32Z</time>
      </trkpt>
      <trkpt lat="49.68346" lon="4.73831">
        <ele>265.87</ele>
        <time>2011-03-02T09:31:34Z</time>
      </trkpt>
      <trkpt lat="49.68346" lon="4.73829">
        <ele>266.02</ele>
        <time>2011-03-02T09:31:35Z</time>
      </trkpt>
      <trkpt lat="49.68346" lon="4.73827">
        <ele>266.17</ele>
        <time>2011-03-02T09:31:36Z</time>
      </trkpt>
      <trkpt lat="49.68347" lon="4.73826">
        <ele>266.06</ele>
        <time>2011-03-02T09:31:38Z</time>
      </trkpt>
      <trkpt lat="49.68349" lon="4.73825">
        <ele>265.93</ele>
        <time>2011-03-02T09:31:40Z</time>
      </trkpt>
      <trkpt lat="49.6835" lon="4.73821">
        <ele>265.81</ele>
        <time>2011-03-02T09:31:42Z</time>
      </trkpt>
      <trkpt lat="49.68351" lon="4.73815">
        <ele>265.79</ele>
        <time>2011-03-02T09:31:44Z</time>
      </trkpt>
      <trkpt lat="49.68351" lon="4.73811">
        <ele>265.75</ele>
        <time>2011-03-02T09:31:46Z</time>
      </trkpt>
      <trkpt lat="49.68352" lon="4.73804">
        <ele>265.82</ele>
        <time>2011-03-02T09:31:47Z</time>
      </trkpt>
      <trkpt lat="49.68353" lon="4.73801">
        <ele>265.88</ele>
        <time>2011-03-02T09:31:48Z</time>
      </trkpt>
      <trkpt lat="49.68356" lon="4.73795">
        <ele>265.87</ele>
        <time>2011-03-02T09:31:50Z</time>
      </trkpt>
      <trkpt lat="49.68357" lon="4.7379">
        <ele>265.52</ele>
        <time>2011-03-02T09:31:52Z</time>
      </trkpt>
      <trkpt lat="49.68357" lon="4.73787">
        <ele>265.21</ele>
        <time>2011-03-02T09:31:53Z</time>
      </trkpt>
      <trkpt lat="49.68356" lon="4.73785">
        <ele>264.93</ele>
        <time>2011-03-02T09:31:54Z</time>
      </trkpt>
      <trkpt lat="49.68356" lon="4.73782">
        <ele>264.71</ele>
        <time>2011-03-02T09:31:55Z</time>
      </trkpt>
      <trkpt lat="49.68356" lon="4.73778">
        <ele>264.51</ele>
        <time>2011-03-02T09:31:57Z</time>
      </trkpt>
      <trkpt lat="49.68355" lon="4.73775">
        <ele>264.66</ele>
        <time>2011-03-02T09:31:58Z</time>
      </trkpt>
      <trkpt lat="49.68355" lon="4.73773">
        <ele>264.87</ele>
        <time>2011-03-02T09:31:59Z</time>
      </trkpt>
      <trkpt lat="49.68355" lon="4.73769">
        <ele>265.6</ele>
        <time>2011-03-02T09:32:01Z</time>
      </trkpt>
      <trkpt lat="49.68355" lon="4.73767">
        <ele>266.08</ele>
        <time>2011-03-02T09:32:02Z</time>
      </trkpt>
      <trkpt lat="49.68355" lon="4.73761">
        <ele>267.04</ele>
        <time>2011-03-02T09:32:04Z</time>
      </trkpt>
      <trkpt lat="49.68354" lon="4.73755">
        <ele>267.84</ele>
        <time>2011-03-02T09:32:06Z</time>
      </trkpt>
      <trkpt lat="49.68353" lon="4.73753">
        <ele>268.23</ele>
        <time>2011-03-02T09:32:07Z</time>
      </trkpt>
      <trkpt lat="49.68352" lon="4.7375">
        <ele>268.7</ele>
        <time>2011-03-02T09:32:08Z</time>
      </trkpt>
      <trkpt lat="49.68351" lon="4.73747">
        <ele>269.15</ele>
        <time>2011-03-02T09:32:09Z</time>
      </trkpt>
      <trkpt lat="49.6835" lon="4.73741">
        <ele>269.94</ele>
        <time>2011-03-02T09:32:11Z</time>
      </trkpt>
      <trkpt lat="49.68349" lon="4.73734">
        <ele>270.49</ele>
        <time>2011-03-02T09:32:13Z</time>
      </trkpt>
      <trkpt lat="49.68349" lon="4.73726">
        <ele>271.13</ele>
        <time>2011-03-02T09:32:15Z</time>
      </trkpt>
      <trkpt lat="49.68348" lon="4.73717">
        <ele>272.13</ele>
        <time>2011-03-02T09:32:17Z</time>
      </trkpt>
      <trkpt lat="49.68347" lon="4.73709">
        <ele>272.92</ele>
        <time>2011-03-02T09:32:19Z</time>
      </trkpt>
      <trkpt lat="49.68346" lon="4.73706">
        <ele>273.31</ele>
        <time>2011-03-02T09:32:20Z</time>
      </trkpt>
      <trkpt lat="49.68346" lon="4.73699">
        <ele>274.58</ele>
        <time>2011-03-02T09:32:22Z</time>
      </trkpt>
      <trkpt lat="49.68346" lon="4.73696">
        <ele>275.12</ele>
        <time>2011-03-02T09:32:23Z</time>
      </trkpt>
      <trkpt lat="49.68345" lon="4.73689">
        <ele>275.99</ele>
        <time>2011-03-02T09:32:25Z</time>
      </trkpt>
      <trkpt lat="49.68344" lon="4.73686">
        <ele>276.26</ele>
        <time>2011-03-02T09:32:26Z</time>
      </trkpt>
      <trkpt lat="49.68342" lon="4.73683">
        <ele>276.76</ele>
        <time>2011-03-02T09:32:27Z</time>
      </trkpt>
      <trkpt lat="49.68342" lon="4.73681">
        <ele>277.07</ele>
        <time>2011-03-02T09:32:28Z</time>
      </trkpt>
      <trkpt lat="49.68341" lon="4.73678">
        <ele>277.54</ele>
        <time>2011-03-02T09:32:30Z</time>
      </trkpt>
      <trkpt lat="49.68339" lon="4.73673">
        <ele>277.82</ele>
        <time>2011-03-02T09:32:32Z</time>
      </trkpt>
      <trkpt lat="49.68338" lon="4.73669">
        <ele>278.04</ele>
        <time>2011-03-02T09:32:33Z</time>
      </trkpt>
      <trkpt lat="49.68337" lon="4.73665">
        <ele>277.9</ele>
        <time>2011-03-02T09:32:35Z</time>
      </trkpt>
      <trkpt lat="49.68337" lon="4.73663">
        <ele>277.47</ele>
        <time>2011-03-02T09:32:37Z</time>
      </trkpt>
      <trkpt lat="49.68337" lon="4.73661">
        <ele>277.2</ele>
        <time>2011-03-02T09:32:38Z</time>
      </trkpt>
      <trkpt lat="49.68337" lon="4.7366">
        <ele>276.99</ele>
        <time>2011-03-02T09:32:39Z</time>
      </trkpt>
      <trkpt lat="49.68337" lon="4.73659">
        <ele>276.79</ele>
        <time>2011-03-02T09:32:40Z</time>
      </trkpt>
      <trkpt lat="49.68337" lon="4.73658">
        <ele>276.4</ele>
        <time>2011-03-02T09:32:42Z</time>
      </trkpt>
      <trkpt lat="49.68337" lon="4.73657">
        <ele>276.41</ele>
        <time>2011-03-02T09:32:44Z</time>
      </trkpt>
      <trkpt lat="49.68337" lon="4.73656">
        <ele>276.72</ele>
        <time>2011-03-02T09:32:46Z</time>
      </trkpt>
      <trkpt lat="49.68337" lon="4.73656">
        <ele>276.92</ele>
        <time>2011-03-02T09:32:47Z</time>
      </trkpt>
      <trkpt lat="49.68337" lon="4.73656">
        <ele>277.11</ele>
        <time>2011-03-02T09:32:48Z</time>
      </trkpt>
      <trkpt lat="49.68336" lon="4.73655">
        <ele>277.34</ele>
        <time>2011-03-02T09:32:50Z</time>
      </trkpt>
      <trkpt lat="49.68336" lon="4.73654">
        <ele>277.5</ele>
        <time>2011-03-02T09:32:51Z</time>
      </trkpt>
      <trkpt lat="49.68336" lon="4.73652">
        <ele>277.67</ele>
        <time>2011-03-02T09:32:52Z</time>
      </trkpt>
      <trkpt lat="49.68335" lon="4.73649">
        <ele>277.84</ele>
        <time>2011-03-02T09:32:53Z</time>
      </trkpt>
      <trkpt lat="49.68332" lon="4.73638">
        <ele>278.25</ele>
        <time>2011-03-02T09:32:55Z</time>
      </trkpt>
      <trkpt lat="49.6833" lon="4.73627">
        <ele>278.69</ele>
        <time>2011-03-02T09:32:57Z</time>
      </trkpt>
      <trkpt lat="49.68329" lon="4.73619">
        <ele>279.49</ele>
        <time>2011-03-02T09:32:59Z</time>
      </trkpt>
      <trkpt lat="49.68329" lon="4.73616">
        <ele>279.97</ele>
        <time>2011-03-02T09:33:00Z</time>
      </trkpt>
      <trkpt lat="49.68329" lon="4.73612">
        <ele>280.9</ele>
        <time>2011-03-02T09:33:03Z</time>
      </trkpt>
      <trkpt lat="49.68328" lon="4.73608">
        <ele>281.91</ele>
        <time>2011-03-02T09:33:04Z</time>
      </trkpt>
      <trkpt lat="49.68326" lon="4.736">
        <ele>283.21</ele>
        <time>2011-03-02T09:33:06Z</time>
      </trkpt>
      <trkpt lat="49.68325" lon="4.73596">
        <ele>283.75</ele>
        <time>2011-03-02T09:33:07Z</time>
      </trkpt>
      <trkpt lat="49.68322" lon="4.73585">
        <ele>285.21</ele>
        <time>2011-03-02T09:33:09Z</time>
      </trkpt>
      <trkpt lat="49.68322" lon="4.73582">
        <ele>285.82</ele>
        <time>2011-03-02T09:33:10Z</time>
      </trkpt>
      <trkpt lat="49.68322" lon="4.73579">
        <ele>286.32</ele>
        <time>2011-03-02T09:33:11Z</time>
      </trkpt>
      <trkpt lat="49.68323" lon="4.73572">
        <ele>287.11</ele>
        <time>2011-03-02T09:33:13Z</time>
      </trkpt>
      <trkpt lat="49.68323" lon="4.73568">
        <ele>287.41</ele>
        <time>2011-03-02T09:33:14Z</time>
      </trkpt>
      <trkpt lat="49.68324" lon="4.73561">
        <ele>288.05</ele>
        <time>2011-03-02T09:33:15Z</time>
      </trkpt>
      <trkpt lat="49.68324" lon="4.73555">
        <ele>288.64</ele>
        <time>2011-03-02T09:33:17Z</time>
      </trkpt>
      <trkpt lat="49.68325" lon="4.73553">
        <ele>288.77</ele>
        <time>2011-03-02T09:33:18Z</time>
      </trkpt>
      <trkpt lat="49.68325" lon="4.73547">
        <ele>288.91</ele>
        <time>2011-03-02T09:33:20Z</time>
      </trkpt>
      <trkpt lat="49.68327" lon="4.73542">
        <ele>289.16</ele>
        <time>2011-03-02T09:33:22Z</time>
      </trkpt>
      <trkpt lat="49.68327" lon="4.73539">
        <ele>289.2</ele>
        <time>2011-03-02T09:33:23Z</time>
      </trkpt>
      <trkpt lat="49.68329" lon="4.73533">
        <ele>289.22</ele>
        <time>2011-03-02T09:33:25Z</time>
      </trkpt>
      <trkpt lat="49.68329" lon="4.7353">
        <ele>289.22</ele>
        <time>2011-03-02T09:33:26Z</time>
      </trkpt>
      <trkpt lat="49.68331" lon="4.73526">
        <ele>289.3</ele>
        <time>2011-03-02T09:33:28Z</time>
      </trkpt>
      <trkpt lat="49.68333" lon="4.73521">
        <ele>289.49</ele>
        <time>2011-03-02T09:33:30Z</time>
      </trkpt>
      <trkpt lat="49.68335" lon="4.73517">
        <ele>289.71</ele>
        <time>2011-03-02T09:33:32Z</time>
      </trkpt>
      <trkpt lat="49.68335" lon="4.73515">
        <ele>289.83</ele>
        <time>2011-03-02T09:33:33Z</time>
      </trkpt>
      <trkpt lat="49.68337" lon="4.73512">
        <ele>290.25</ele>
        <time>2011-03-02T09:33:35Z</time>
      </trkpt>
      <trkpt lat="49.68336" lon="4.73508">
        <ele>290.61</ele>
        <time>2011-03-02T09:33:37Z</time>
      </trkpt>
      <trkpt lat="49.68335" lon="4.73505">
        <ele>290.71</ele>
        <time>2011-03-02T09:33:38Z</time>
      </trkpt>
      <trkpt lat="49.68334" lon="4.73498">
        <ele>290.79</ele>
        <time>2011-03-02T09:33:40Z</time>
      </trkpt>
      <trkpt lat="49.68332" lon="4.73492">
        <ele>290.66</ele>
        <time>2011-03-02T09:33:42Z</time>
      </trkpt>
      <trkpt lat="49.68331" lon="4.73489">
        <ele>290.58</ele>
        <time>2011-03-02T09:33:43Z</time>
      </trkpt>
      <trkpt lat="49.68328" lon="4.73481">
        <ele>290.63</ele>
        <time>2011-03-02T09:33:45Z</time>
      </trkpt>
      <trkpt lat="49.68327" lon="4.73478">
        <ele>290.73</ele>
        <time>2011-03-02T09:33:46Z</time>
      </trkpt>
      <trkpt lat="49.68324" lon="4.73471">
        <ele>291.1</ele>
        <time>2011-03-02T09:33:48Z</time>
      </trkpt>
      <trkpt lat="49.68323" lon="4.73467">
        <ele>291.28</ele>
        <time>2011-03-02T09:33:49Z</time>
      </trkpt>
      <trkpt lat="49.68323" lon="4.73461">
        <ele>291.71</ele>
        <time>2011-03-02T09:33:51Z</time>
      </trkpt>
      <trkpt lat="49.68323" lon="4.73458">
        <ele>291.96</ele>
        <time>2011-03-02T09:33:52Z</time>
      </trkpt>
      <trkpt lat="49.68323" lon="4.73454">
        <ele>292.13</ele>
        <time>2011-03-02T09:33:54Z</time>
      </trkpt>
      <trkpt lat="49.68321" lon="4.73448">
        <ele>291.78</ele>
        <time>2011-03-02T09:33:56Z</time>
      </trkpt>
      <trkpt lat="49.6832" lon="4.73442">
        <ele>291.36</ele>
        <time>2011-03-02T09:33:58Z</time>
      </trkpt>
      <trkpt lat="49.68319" lon="4.73434">
        <ele>291.08</ele>
        <time>2011-03-02T09:34:00Z</time>
      </trkpt>
      <trkpt lat="49.68319" lon="4.73429">
        <ele>290.85</ele>
        <time>2011-03-02T09:34:02Z</time>
      </trkpt>
      <trkpt lat="49.6832" lon="4.73426">
        <ele>290.86</ele>
        <time>2011-03-02T09:34:04Z</time>
      </trkpt>
      <trkpt lat="49.68319" lon="4.73423">
        <ele>291.08</ele>
        <time>2011-03-02T09:34:06Z</time>
      </trkpt>
      <trkpt lat="49.68317" lon="4.73417">
        <ele>291.28</ele>
        <time>2011-03-02T09:34:08Z</time>
      </trkpt>
      <trkpt lat="49.68317" lon="4.73414">
        <ele>291.36</ele>
        <time>2011-03-02T09:34:09Z</time>
      </trkpt>
      <trkpt lat="49.68316" lon="4.73411">
        <ele>291.49</ele>
        <time>2011-03-02T09:34:10Z</time>
      </trkpt>
      <trkpt lat="49.68316" lon="4.73405">
        <ele>291.75</ele>
        <time>2011-03-02T09:34:12Z</time>
      </trkpt>
      <trkpt lat="49.68315" lon="4.73399">
        <ele>291.97</ele>
        <time>2011-03-02T09:34:14Z</time>
      </trkpt>
      <trkpt lat="49.68315" lon="4.73393">
        <ele>292.09</ele>
        <time>2011-03-02T09:34:16Z</time>
      </trkpt>
      <trkpt lat="49.68315" lon="4.73392">
        <ele>292.14</ele>
        <time>2011-03-02T09:34:17Z</time>
      </trkpt>
      <trkpt lat="49.68315" lon="4.7339">
        <ele>292.1</ele>
        <time>2011-03-02T09:34:18Z</time>
      </trkpt>
      <trkpt lat="49.68315" lon="4.73387">
        <ele>291.94</ele>
        <time>2011-03-02T09:34:20Z</time>
      </trkpt>
      <trkpt lat="49.68315" lon="4.73383">
        <ele>291.28</ele>
        <time>2011-03-02T09:34:22Z</time>
      </trkpt>
      <trkpt lat="49.68316" lon="4.73379">
        <ele>290.18</ele>
        <time>2011-03-02T09:34:24Z</time>
      </trkpt>
      <trkpt lat="49.68317" lon="4.73376">
        <ele>289.57</ele>
        <time>2011-03-02T09:34:25Z</time>
      </trkpt>
      <trkpt lat="49.68317" lon="4.73373">
        <ele>288.96</ele>
        <time>2011-03-02T09:34:26Z</time>
      </trkpt>
      <trkpt lat="49.68316" lon="4.73369">
        <ele>287.66</ele>
        <time>2011-03-02T09:34:28Z</time>
      </trkpt>
      <trkpt lat="49.68316" lon="4.73366">
        <ele>286.89</ele>
        <time>2011-03-02T09:34:29Z</time>
      </trkpt>
      <trkpt lat="49.68315" lon="4.73361">
        <ele>285.25</ele>
        <time>2011-03-02T09:34:31Z</time>
      </trkpt>
      <trkpt lat="49.68314" lon="4.73357">
        <ele>283.75</ele>
        <time>2011-03-02T09:34:33Z</time>
      </trkpt>
      <trkpt lat="49.68315" lon="4.73353">
        <ele>282.71</ele>
        <time>2011-03-02T09:34:35Z</time>
      </trkpt>
      <trkpt lat="49.68317" lon="4.73351">
        <ele>281.7</ele>
        <time>2011-03-02T09:34:36Z</time>
      </trkpt>
      <trkpt lat="49.68317" lon="4.7335">
        <ele>281.32</ele>
        <time>2011-03-02T09:34:37Z</time>
      </trkpt>
      <trkpt lat="49.68318" lon="4.7335">
        <ele>280.98</ele>
        <time>2011-03-02T09:34:39Z</time>
      </trkpt>
      <trkpt lat="49.68318" lon="4.73346">
        <ele>281.15</ele>
        <time>2011-03-02T09:34:41Z</time>
      </trkpt>
      <trkpt lat="49.68316" lon="4.73342">
        <ele>281.59</ele>
        <time>2011-03-02T09:34:43Z</time>
      </trkpt>
      <trkpt lat="49.68315" lon="4.73337">
        <ele>282.1</ele>
        <time>2011-03-02T09:34:44Z</time>
      </trkpt>
      <trkpt lat="49.68314" lon="4.73335">
        <ele>282.44</ele>
        <time>2011-03-02T09:34:45Z</time>
      </trkpt>
      <trkpt lat="49.68313" lon="4.73328">
        <ele>283.26</ele>
        <time>2011-03-02T09:34:47Z</time>
      </trkpt>
      <trkpt lat="49.68312" lon="4.73324">
        <ele>283.74</ele>
        <time>2011-03-02T09:34:48Z</time>
      </trkpt>
      <trkpt lat="49.68312" lon="4.7332">
        <ele>284.33</ele>
        <time>2011-03-02T09:34:49Z</time>
      </trkpt>
      <trkpt lat="49.68311" lon="4.73315">
        <ele>285.34</ele>
        <time>2011-03-02T09:34:50Z</time>
      </trkpt>
      <trkpt lat="49.68311" lon="4.73313">
        <ele>285.85</ele>
        <time>2011-03-02T09:34:51Z</time>
      </trkpt>
      <trkpt lat="49.68309" lon="4.73306">
        <ele>286.5</ele>
        <time>2011-03-02T09:34:53Z</time>
      </trkpt>
      <trkpt lat="49.68306" lon="4.73298">
        <ele>286.5</ele>
        <time>2011-03-02T09:34:54Z</time>
      </trkpt>
      <trkpt lat="49.68303" lon="4.73291">
        <ele>286.12</ele>
        <time>2011-03-02T09:34:56Z</time>
      </trkpt>
      <trkpt lat="49.68302" lon="4.73284">
        <ele>285.46</ele>
        <time>2011-03-02T09:34:58Z</time>
      </trkpt>
      <trkpt lat="49.68301" lon="4.73275">
        <ele>284.74</ele>
        <time>2011-03-02T09:35:00Z</time>
      </trkpt>
      <trkpt lat="49.683" lon="4.73271">
        <ele>284.38</ele>
        <time>2011-03-02T09:35:01Z</time>
      </trkpt>
      <trkpt lat="49.68299" lon="4.73262">
        <ele>284.22</ele>
        <time>2011-03-02T09:35:03Z</time>
      </trkpt>
      <trkpt lat="49.68298" lon="4.73255">
        <ele>284.28</ele>
        <time>2011-03-02T09:35:05Z</time>
      </trkpt>
      <trkpt lat="49.68298" lon="4.73253">
        <ele>284.36</ele>
        <time>2011-03-02T09:35:06Z</time>
      </trkpt>
      <trkpt lat="49.68298" lon="4.7325">
        <ele>284.36</ele>
        <time>2011-03-02T09:35:07Z</time>
      </trkpt>
      <trkpt lat="49.68297" lon="4.73245">
        <ele>284.23</ele>
        <time>2011-03-02T09:35:09Z</time>
      </trkpt>
      <trkpt lat="49.68297" lon="4.73243">
        <ele>284.33</ele>
        <time>2011-03-02T09:35:10Z</time>
      </trkpt>
      <trkpt lat="49.68296" lon="4.73236">
        <ele>285.05</ele>
        <time>2011-03-02T09:35:12Z</time>
      </trkpt>
      <trkpt lat="49.68295" lon="4.73234">
        <ele>285.38</ele>
        <time>2011-03-02T09:35:13Z</time>
      </trkpt>
      <trkpt lat="49.68291" lon="4.73223">
        <ele>286.38</ele>
        <time>2011-03-02T09:35:15Z</time>
      </trkpt>
      <trkpt lat="49.68288" lon="4.73217">
        <ele>287.13</ele>
        <time>2011-03-02T09:35:17Z</time>
      </trkpt>
      <trkpt lat="49.68285" lon="4.73209">
        <ele>287.73</ele>
        <time>2011-03-02T09:35:19Z</time>
      </trkpt>
      <trkpt lat="49.68286" lon="4.73206">
        <ele>287.75</ele>
        <time>2011-03-02T09:35:21Z</time>
      </trkpt>
      <trkpt lat="49.68286" lon="4.73201">
        <ele>287.79</ele>
        <time>2011-03-02T09:35:22Z</time>
      </trkpt>
      <trkpt lat="49.68287" lon="4.73194">
        <ele>288.17</ele>
        <time>2011-03-02T09:35:24Z</time>
      </trkpt>
      <trkpt lat="49.68288" lon="4.7319">
        <ele>288.41</ele>
        <time>2011-03-02T09:35:25Z</time>
      </trkpt>
      <trkpt lat="49.68291" lon="4.73181">
        <ele>288.89</ele>
        <time>2011-03-02T09:35:27Z</time>
      </trkpt>
      <trkpt lat="49.68294" lon="4.73173">
        <ele>289.36</ele>
        <time>2011-03-02T09:35:30Z</time>
      </trkpt>
      <trkpt lat="49.68298" lon="4.73163">
        <ele>289.91</ele>
        <time>2011-03-02T09:35:31Z</time>
      </trkpt>
      <trkpt lat="49.68301" lon="4.73152">
        <ele>290.27</ele>
        <time>2011-03-02T09:35:33Z</time>
      </trkpt>
      <trkpt lat="49.68303" lon="4.73147">
        <ele>290.35</ele>
        <time>2011-03-02T09:35:34Z</time>
      </trkpt>
      <trkpt lat="49.68306" lon="4.73139">
        <ele>290.39</ele>
        <time>2011-03-02T09:35:35Z</time>
      </trkpt>
      <trkpt lat="49.68307" lon="4.73132">
        <ele>290.56</ele>
        <time>2011-03-02T09:35:37Z</time>
      </trkpt>
      <trkpt lat="49.68306" lon="4.73126">
        <ele>290.78</ele>
        <time>2011-03-02T09:35:38Z</time>
      </trkpt>
      <trkpt lat="49.68306" lon="4.73118">
        <ele>291.18</ele>
        <time>2011-03-02T09:35:40Z</time>
      </trkpt>
      <trkpt lat="49.68306" lon="4.73114">
        <ele>291.64</ele>
        <time>2011-03-02T09:35:41Z</time>
      </trkpt>
      <trkpt lat="49.68307" lon="4.73106">
        <ele>292.56</ele>
        <time>2011-03-02T09:35:42Z</time>
      </trkpt>
      <trkpt lat="49.68307" lon="4.73103">
        <ele>292.99</ele>
        <time>2011-03-02T09:35:43Z</time>
      </trkpt>
      <trkpt lat="49.68307" lon="4.73095">
        <ele>293.72</ele>
        <time>2011-03-02T09:35:45Z</time>
      </trkpt>
      <trkpt lat="49.68307" lon="4.73085">
        <ele>294.36</ele>
        <time>2011-03-02T09:35:47Z</time>
      </trkpt>
      <trkpt lat="49.68307" lon="4.73076">
        <ele>294.88</ele>
        <time>2011-03-02T09:35:49Z</time>
      </trkpt>
      <trkpt lat="49.68307" lon="4.73069">
        <ele>295.14</ele>
        <time>2011-03-02T09:35:51Z</time>
      </trkpt>
      <trkpt lat="49.68307" lon="4.73062">
        <ele>295.38</ele>
        <time>2011-03-02T09:35:52Z</time>
      </trkpt>
      <trkpt lat="49.68307" lon="4.73057">
        <ele>295.33</ele>
        <time>2011-03-02T09:35:53Z</time>
      </trkpt>
      <trkpt lat="49.68311" lon="4.73049">
        <ele>295.06</ele>
        <time>2011-03-02T09:35:55Z</time>
      </trkpt>
      <trkpt lat="49.68316" lon="4.73041">
        <ele>294.93</ele>
        <time>2011-03-02T09:35:57Z</time>
      </trkpt>
      <trkpt lat="49.68318" lon="4.73033">
        <ele>294.65</ele>
        <time>2011-03-02T09:35:59Z</time>
      </trkpt>
      <trkpt lat="49.68319" lon="4.73026">
        <ele>294.07</ele>
        <time>2011-03-02T09:36:00Z</time>
      </trkpt>
      <trkpt lat="49.68319" lon="4.73019">
        <ele>293.82</ele>
        <time>2011-03-02T09:36:02Z</time>
      </trkpt>
      <trkpt lat="49.68318" lon="4.73009">
        <ele>293.88</ele>
        <time>2011-03-02T09:36:04Z</time>
      </trkpt>
      <trkpt lat="49.68317" lon="4.73">
        <ele>293.71</ele>
        <time>2011-03-02T09:36:06Z</time>
      </trkpt>
      <trkpt lat="49.68316" lon="4.72995">
        <ele>293.56</ele>
        <time>2011-03-02T09:36:07Z</time>
      </trkpt>
      <trkpt lat="49.68315" lon="4.72988">
        <ele>293.31</ele>
        <time>2011-03-02T09:36:09Z</time>
      </trkpt>
      <trkpt lat="49.68315" lon="4.72984">
        <ele>293.14</ele>
        <time>2011-03-02T09:36:10Z</time>
      </trkpt>
      <trkpt lat="49.68315" lon="4.72976">
        <ele>292.81</ele>
        <time>2011-03-02T09:36:12Z</time>
      </trkpt>
      <trkpt lat="49.68314" lon="4.7297">
        <ele>292.45</ele>
        <time>2011-03-02T09:36:13Z</time>
      </trkpt>
      <trkpt lat="49.68314" lon="4.72967">
        <ele>292.3</ele>
        <time>2011-03-02T09:36:14Z</time>
      </trkpt>
      <trkpt lat="49.68314" lon="4.72958">
        <ele>291.88</ele>
        <time>2011-03-02T09:36:16Z</time>
      </trkpt>
      <trkpt lat="49.68313" lon="4.72952">
        <ele>291.65</ele>
        <time>2011-03-02T09:36:17Z</time>
      </trkpt>
      <trkpt lat="49.68312" lon="4.72939">
        <ele>291.22</ele>
        <time>2011-03-02T09:36:19Z</time>
      </trkpt>
      <trkpt lat="49.6831" lon="4.72924">
        <ele>290.8</ele>
        <time>2011-03-02T09:36:21Z</time>
      </trkpt>
      <trkpt lat="49.68309" lon="4.72915">
        <ele>290.45</ele>
        <time>2011-03-02T09:36:22Z</time>
      </trkpt>
      <trkpt lat="49.68307" lon="4.72902">
        <ele>289.76</ele>
        <time>2011-03-02T09:36:23Z</time>
      </trkpt>
      <trkpt lat="49.68305" lon="4.7289">
        <ele>289.23</ele>
        <time>2011-03-02T09:36:25Z</time>
      </trkpt>
      <trkpt lat="49.68305" lon="4.72882">
        <ele>288.77</ele>
        <time>2011-03-02T09:36:27Z</time>
      </trkpt>
      <trkpt lat="49.68307" lon="4.72874">
        <ele>288.21</ele>
        <time>2011-03-02T09:36:29Z</time>
      </trkpt>
      <trkpt lat="49.68307" lon="4.72872">
        <ele>287.99</ele>
        <time>2011-03-02T09:36:30Z</time>
      </trkpt>
      <trkpt lat="49.68307" lon="4.72867">
        <ele>287.7</ele>
        <time>2011-03-02T09:36:32Z</time>
      </trkpt>
      <trkpt lat="49.68308" lon="4.72865">
        <ele>287.46</ele>
        <time>2011-03-02T09:36:33Z</time>
      </trkpt>
      <trkpt lat="49.68309" lon="4.72862">
        <ele>287.19</ele>
        <time>2011-03-02T09:36:34Z</time>
      </trkpt>
      <trkpt lat="49.6831" lon="4.72859">
        <ele>286.88</ele>
        <time>2011-03-02T09:36:35Z</time>
      </trkpt>
      <trkpt lat="49.68311" lon="4.72853">
        <ele>286.32</ele>
        <time>2011-03-02T09:36:36Z</time>
      </trkpt>
      <trkpt lat="49.68311" lon="4.72844">
        <ele>285.88</ele>
        <time>2011-03-02T09:36:38Z</time>
      </trkpt>
      <trkpt lat="49.6831" lon="4.72833">
        <ele>285.46</ele>
        <time>2011-03-02T09:36:40Z</time>
      </trkpt>
      <trkpt lat="49.68312" lon="4.7282">
        <ele>285.22</ele>
        <time>2011-03-02T09:36:42Z</time>
      </trkpt>
      <trkpt lat="49.68315" lon="4.72812">
        <ele>285.15</ele>
        <time>2011-03-02T09:36:43Z</time>
      </trkpt>
      <trkpt lat="49.68316" lon="4.72807">
        <ele>285.1</ele>
        <time>2011-03-02T09:36:44Z</time>
      </trkpt>
      <trkpt lat="49.68318" lon="4.72799">
        <ele>284.92</ele>
        <time>2011-03-02T09:36:46Z</time>
      </trkpt>
      <trkpt lat="49.68318" lon="4.72792">
        <ele>284.83</ele>
        <time>2011-03-02T09:36:47Z</time>
      </trkpt>
      <trkpt lat="49.68319" lon="4.72785">
        <ele>284.78</ele>
        <time>2011-03-02T09:36:48Z</time>
      </trkpt>
      <trkpt lat="49.68319" lon="4.72771">
        <ele>284.63</ele>
        <time>2011-03-02T09:36:50Z</time>
      </trkpt>
      <trkpt lat="49.68321" lon="4.72756">
        <ele>284.36</ele>
        <time>2011-03-02T09:36:52Z</time>
      </trkpt>
      <trkpt lat="49.68321" lon="4.72739">
        <ele>284.17</ele>
        <time>2011-03-02T09:36:54Z</time>
      </trkpt>
      <trkpt lat="49.6832" lon="4.72723">
        <ele>284.17</ele>
        <time>2011-03-02T09:36:55Z</time>
      </trkpt>
      <trkpt lat="49.6832" lon="4.72709">
        <ele>284.03</ele>
        <time>2011-03-02T09:36:57Z</time>
      </trkpt>
      <trkpt lat="49.68321" lon="4.72697">
        <ele>283.91</ele>
        <time>2011-03-02T09:36:59Z</time>
      </trkpt>
      <trkpt lat="49.68322" lon="4.72688">
        <ele>283.85</ele>
        <time>2011-03-02T09:37:00Z</time>
      </trkpt>
      <trkpt lat="49.68323" lon="4.72677">
        <ele>283.76</ele>
        <time>2011-03-02T09:37:02Z</time>
      </trkpt>
      <trkpt lat="49.68324" lon="4.72671">
        <ele>283.71</ele>
        <time>2011-03-02T09:37:03Z</time>
      </trkpt>
      <trkpt lat="49.68326" lon="4.72656">
        <ele>283.69</ele>
        <time>2011-03-02T09:37:05Z</time>
      </trkpt>
      <trkpt lat="49.68328" lon="4.72641">
        <ele>283.76</ele>
        <time>2011-03-02T09:37:07Z</time>
      </trkpt>
      <trkpt lat="49.6833" lon="4.72626">
        <ele>283.78</ele>
        <time>2011-03-02T09:37:09Z</time>
      </trkpt>
      <trkpt lat="49.6833" lon="4.72619">
        <ele>283.78</ele>
        <time>2011-03-02T09:37:10Z</time>
      </trkpt>
      <trkpt lat="49.68332" lon="4.72603">
        <ele>283.47</ele>
        <time>2011-03-02T09:37:12Z</time>
      </trkpt>
      <trkpt lat="49.68333" lon="4.72595">
        <ele>283.12</ele>
        <time>2011-03-02T09:37:13Z</time>
      </trkpt>
      <trkpt lat="49.68336" lon="4.72582">
        <ele>282.36</ele>
        <time>2011-03-02T09:37:14Z</time>
      </trkpt>
      <trkpt lat="49.68339" lon="4.72571">
        <ele>281.46</ele>
        <time>2011-03-02T09:37:16Z</time>
      </trkpt>
      <trkpt lat="49.6834" lon="4.72564">
        <ele>281.02</ele>
        <time>2011-03-02T09:37:17Z</time>
      </trkpt>
      <trkpt lat="49.68341" lon="4.72551">
        <ele>280.26</ele>
        <time>2011-03-02T09:37:18Z</time>
      </trkpt>
      <trkpt lat="49.68341" lon="4.72545">
        <ele>279.97</ele>
        <time>2011-03-02T09:37:19Z</time>
      </trkpt>
      <trkpt lat="49.68343" lon="4.72531">
        <ele>279.66</ele>
        <time>2011-03-02T09:37:21Z</time>
      </trkpt>
      <trkpt lat="49.68344" lon="4.72522">
        <ele>279.546</ele>
        <time>2011-03-02T09:37:22Z</time>
      </trkpt>
      <trkpt lat="49.68345" lon="4.72505">
        <ele>279.488</ele>
        <time>2011-03-02T09:37:24Z</time>
      </trkpt>
      <trkpt lat="49.68347" lon="4.72488">
        <ele>279.439</ele>
        <time>2011-03-02T09:37:26Z</time>
      </trkpt>
      <trkpt lat="49.6835" lon="4.72472">
        <ele>279.325</ele>
        <time>2011-03-02T09:37:28Z</time>
      </trkpt>
      <trkpt lat="49.68352" lon="4.72455">
        <ele>279.22</ele>
        <time>2011-03-02T09:37:30Z</time>
      </trkpt>
      <trkpt lat="49.68352" lon="4.72447">
        <ele>279.19</ele>
        <time>2011-03-02T09:37:31Z</time>
      </trkpt>
      <trkpt lat="49.68353" lon="4.72429">
        <ele>279.19</ele>
        <time>2011-03-02T09:37:33Z</time>
      </trkpt>
      <trkpt lat="49.68354" lon="4.72413">
        <ele>279.1</ele>
        <time>2011-03-02T09:37:35Z</time>
      </trkpt>
      <trkpt lat="49.68357" lon="4.72398">
        <ele>278.91</ele>
        <time>2011-03-02T09:37:37Z</time>
      </trkpt>
      <trkpt lat="49.6836" lon="4.72382">
        <ele>278.56</ele>
        <time>2011-03-02T09:37:39Z</time>
      </trkpt>
      <trkpt lat="49.68363" lon="4.72366">
        <ele>278.07</ele>
        <time>2011-03-02T09:37:41Z</time>
      </trkpt>
      <trkpt lat="49.68364" lon="4.72359">
        <ele>277.76</ele>
        <time>2011-03-02T09:37:42Z</time>
      </trkpt>
      <trkpt lat="49.68364" lon="4.72348">
        <ele>277.03</ele>
        <time>2011-03-02T09:37:43Z</time>
      </trkpt>
      <trkpt lat="49.68364" lon="4.72344">
        <ele>276.62</ele>
        <time>2011-03-02T09:37:44Z</time>
      </trkpt>
      <trkpt lat="49.68364" lon="4.72336">
        <ele>275.74</ele>
        <time>2011-03-02T09:37:46Z</time>
      </trkpt>
      <trkpt lat="49.68366" lon="4.72327">
        <ele>274.98</ele>
        <time>2011-03-02T09:37:48Z</time>
      </trkpt>
      <trkpt lat="49.68368" lon="4.72318">
        <ele>274.38</ele>
        <time>2011-03-02T09:37:50Z</time>
      </trkpt>
      <trkpt lat="49.68369" lon="4.7231">
        <ele>273.7</ele>
        <time>2011-03-02T09:37:52Z</time>
      </trkpt>
      <trkpt lat="49.68371" lon="4.723">
        <ele>273.17</ele>
        <time>2011-03-02T09:37:54Z</time>
      </trkpt>
      <trkpt lat="49.68372" lon="4.72289">
        <ele>272.85</ele>
        <time>2011-03-02T09:37:56Z</time>
      </trkpt>
      <trkpt lat="49.68373" lon="4.72278">
        <ele>272.54</ele>
        <time>2011-03-02T09:37:59Z</time>
      </trkpt>
      <trkpt lat="49.68376" lon="4.7227">
        <ele>272.23</ele>
        <time>2011-03-02T09:38:00Z</time>
      </trkpt>
      <trkpt lat="49.68378" lon="4.72258">
        <ele>272.4</ele>
        <time>2011-03-02T09:38:02Z</time>
      </trkpt>
      <trkpt lat="49.68379" lon="4.72245">
        <ele>272.61</ele>
        <time>2011-03-02T09:38:04Z</time>
      </trkpt>
      <trkpt lat="49.68381" lon="4.72232">
        <ele>272.79</ele>
        <time>2011-03-02T09:38:06Z</time>
      </trkpt>
      <trkpt lat="49.68383" lon="4.72222">
        <ele>272.97</ele>
        <time>2011-03-02T09:38:08Z</time>
      </trkpt>
      <trkpt lat="49.68386" lon="4.72214">
        <ele>273.15</ele>
        <time>2011-03-02T09:38:10Z</time>
      </trkpt>
      <trkpt lat="49.68389" lon="4.72207">
        <ele>272.88</ele>
        <time>2011-03-02T09:38:12Z</time>
      </trkpt>
      <trkpt lat="49.68393" lon="4.72198">
        <ele>272.51</ele>
        <time>2011-03-02T09:38:14Z</time>
      </trkpt>
      <trkpt lat="49.68394" lon="4.72194">
        <ele>272.32</ele>
        <time>2011-03-02T09:38:15Z</time>
      </trkpt>
      <trkpt lat="49.68395" lon="4.72183">
        <ele>271.96</ele>
        <time>2011-03-02T09:38:17Z</time>
      </trkpt>
      <trkpt lat="49.68397" lon="4.72173">
        <ele>271.68</ele>
        <time>2011-03-02T09:38:19Z</time>
      </trkpt>
      <trkpt lat="49.68398" lon="4.72168">
        <ele>271.54</ele>
        <time>2011-03-02T09:38:20Z</time>
      </trkpt>
      <trkpt lat="49.68399" lon="4.72157">
        <ele>271.76</ele>
        <time>2011-03-02T09:38:22Z</time>
      </trkpt>
      <trkpt lat="49.68399" lon="4.72145">
        <ele>272.31</ele>
        <time>2011-03-02T09:38:23Z</time>
      </trkpt>
      <trkpt lat="49.684" lon="4.72132">
        <ele>273.32</ele>
        <time>2011-03-02T09:38:25Z</time>
      </trkpt>
      <trkpt lat="49.68402" lon="4.72126">
        <ele>273.82</ele>
        <time>2011-03-02T09:38:26Z</time>
      </trkpt>
      <trkpt lat="49.68404" lon="4.72119">
        <ele>274.26</ele>
        <time>2011-03-02T09:38:27Z</time>
      </trkpt>
      <trkpt lat="49.68409" lon="4.72108">
        <ele>275.01</ele>
        <time>2011-03-02T09:38:29Z</time>
      </trkpt>
      <trkpt lat="49.68413" lon="4.72095">
        <ele>275.33</ele>
        <time>2011-03-02T09:38:31Z</time>
      </trkpt>
      <trkpt lat="49.68415" lon="4.72084">
        <ele>275.44</ele>
        <time>2011-03-02T09:38:32Z</time>
      </trkpt>
      <trkpt lat="49.68416" lon="4.72074">
        <ele>275.19</ele>
        <time>2011-03-02T09:38:34Z</time>
      </trkpt>
      <trkpt lat="49.68417" lon="4.72066">
        <ele>275.31</ele>
        <time>2011-03-02T09:38:36Z</time>
      </trkpt>
      <trkpt lat="49.68417" lon="4.72062">
        <ele>275.75</ele>
        <time>2011-03-02T09:38:37Z</time>
      </trkpt>
      <trkpt lat="49.68418" lon="4.72056">
        <ele>276.45</ele>
        <time>2011-03-02T09:38:39Z</time>
      </trkpt>
      <trkpt lat="49.68419" lon="4.72051">
        <ele>277.23</ele>
        <time>2011-03-02T09:38:40Z</time>
      </trkpt>
      <trkpt lat="49.6842" lon="4.72046">
        <ele>278.1</ele>
        <time>2011-03-02T09:38:42Z</time>
      </trkpt>
      <trkpt lat="49.68421" lon="4.72044">
        <ele>278.49</ele>
        <time>2011-03-02T09:38:43Z</time>
      </trkpt>
      <trkpt lat="49.68422" lon="4.72042">
        <ele>278.89</ele>
        <time>2011-03-02T09:38:44Z</time>
      </trkpt>
      <trkpt lat="49.68425" lon="4.72037">
        <ele>279.76</ele>
        <time>2011-03-02T09:38:46Z</time>
      </trkpt>
      <trkpt lat="49.68427" lon="4.72033">
        <ele>280.47</ele>
        <time>2011-03-02T09:38:47Z</time>
      </trkpt>
      <trkpt lat="49.68428" lon="4.72031">
        <ele>280.84</ele>
        <time>2011-03-02T09:38:48Z</time>
      </trkpt>
      <trkpt lat="49.6843" lon="4.72026">
        <ele>281.33</ele>
        <time>2011-03-02T09:38:50Z</time>
      </trkpt>
      <trkpt lat="49.68431" lon="4.72023">
        <ele>281.49</ele>
        <time>2011-03-02T09:38:51Z</time>
      </trkpt>
      <trkpt lat="49.68433" lon="4.7202">
        <ele>281.57</ele>
        <time>2011-03-02T09:38:52Z</time>
      </trkpt>
      <trkpt lat="49.68436" lon="4.72013">
        <ele>281.63</ele>
        <time>2011-03-02T09:38:54Z</time>
      </trkpt>
      <trkpt lat="49.68441" lon="4.72007">
        <ele>281.63</ele>
        <time>2011-03-02T09:38:56Z</time>
      </trkpt>
      <trkpt lat="49.68443" lon="4.72004">
        <ele>281.59</ele>
        <time>2011-03-02T09:38:57Z</time>
      </trkpt>
      <trkpt lat="49.68445" lon="4.72">
        <ele>281.62</ele>
        <time>2011-03-02T09:38:58Z</time>
      </trkpt>
      <trkpt lat="49.68446" lon="4.71993">
        <ele>281.85</ele>
        <time>2011-03-02T09:39:00Z</time>
      </trkpt>
      <trkpt lat="49.68447" lon="4.7199">
        <ele>282.03</ele>
        <time>2011-03-02T09:39:01Z</time>
      </trkpt>
      <trkpt lat="49.68448" lon="4.71986">
        <ele>282.24</ele>
        <time>2011-03-02T09:39:02Z</time>
      </trkpt>
      <trkpt lat="49.6845" lon="4.71978">
        <ele>282.71</ele>
        <time>2011-03-02T09:39:04Z</time>
      </trkpt>
      <trkpt lat="49.68452" lon="4.71972">
        <ele>283.21</ele>
        <time>2011-03-02T09:39:06Z</time>
      </trkpt>
      <trkpt lat="49.68453" lon="4.71968">
        <ele>283.66</ele>
        <time>2011-03-02T09:39:07Z</time>
      </trkpt>
      <trkpt lat="49.68455" lon="4.71963">
        <ele>283.98</ele>
        <time>2011-03-02T09:39:09Z</time>
      </trkpt>
      <trkpt lat="49.68457" lon="4.71958">
        <ele>284.24</ele>
        <time>2011-03-02T09:39:10Z</time>
      </trkpt>
      <trkpt lat="49.68457" lon="4.71952">
        <ele>284.43</ele>
        <time>2011-03-02T09:39:12Z</time>
      </trkpt>
      <trkpt lat="49.68458" lon="4.71947">
        <ele>284.57</ele>
        <time>2011-03-02T09:39:13Z</time>
      </trkpt>
      <trkpt lat="49.68462" lon="4.71943">
        <ele>284.86</ele>
        <time>2011-03-02T09:39:15Z</time>
      </trkpt>
      <trkpt lat="49.68463" lon="4.7194">
        <ele>285.12</ele>
        <time>2011-03-02T09:39:16Z</time>
      </trkpt>
      <trkpt lat="49.68466" lon="4.71933">
        <ele>285.92</ele>
        <time>2011-03-02T09:39:18Z</time>
      </trkpt>
      <trkpt lat="49.68466" lon="4.71927">
        <ele>286.53</ele>
        <time>2011-03-02T09:39:20Z</time>
      </trkpt>
      <trkpt lat="49.68465" lon="4.71925">
        <ele>286.84</ele>
        <time>2011-03-02T09:39:21Z</time>
      </trkpt>
      <trkpt lat="49.68465" lon="4.71923">
        <ele>287.43</ele>
        <time>2011-03-02T09:39:22Z</time>
      </trkpt>
      <trkpt lat="49.68465" lon="4.71923">
        <ele>287.67</ele>
        <time>2011-03-02T09:39:23Z</time>
      </trkpt>
      <trkpt lat="49.68465" lon="4.71921">
        <ele>287.94</ele>
        <time>2011-03-02T09:39:25Z</time>
      </trkpt>
      <trkpt lat="49.68466" lon="4.71918">
        <ele>287.62</ele>
        <time>2011-03-02T09:39:27Z</time>
      </trkpt>
      <trkpt lat="49.68468" lon="4.71916">
        <ele>287.19</ele>
        <time>2011-03-02T09:39:28Z</time>
      </trkpt>
      <trkpt lat="49.6847" lon="4.71914">
        <ele>286.44</ele>
        <time>2011-03-02T09:39:30Z</time>
      </trkpt>
      <trkpt lat="49.68473" lon="4.71913">
        <ele>285.55</ele>
        <time>2011-03-02T09:39:31Z</time>
      </trkpt>
      <trkpt lat="49.68474" lon="4.71913">
        <ele>285.12</ele>
        <time>2011-03-02T09:39:32Z</time>
      </trkpt>
      <trkpt lat="49.68474" lon="4.71911">
        <ele>284.08</ele>
        <time>2011-03-02T09:39:34Z</time>
      </trkpt>
      <trkpt lat="49.68475" lon="4.71908">
        <ele>283.24</ele>
        <time>2011-03-02T09:39:36Z</time>
      </trkpt>
      <trkpt lat="49.68476" lon="4.71907">
        <ele>282.85</ele>
        <time>2011-03-02T09:39:37Z</time>
      </trkpt>
      <trkpt lat="49.68477" lon="4.71904">
        <ele>282.34</ele>
        <time>2011-03-02T09:39:39Z</time>
      </trkpt>
      <trkpt lat="49.68479" lon="4.71901">
        <ele>281.97</ele>
        <time>2011-03-02T09:39:41Z</time>
      </trkpt>
      <trkpt lat="49.6848" lon="4.71898">
        <ele>281.26</ele>
        <time>2011-03-02T09:39:43Z</time>
      </trkpt>
      <trkpt lat="49.68481" lon="4.71897">
        <ele>280.99</ele>
        <time>2011-03-02T09:39:44Z</time>
      </trkpt>
      <trkpt lat="49.68483" lon="4.71894">
        <ele>280.23</ele>
        <time>2011-03-02T09:39:46Z</time>
      </trkpt>
      <trkpt lat="49.68485" lon="4.71891">
        <ele>279.32</ele>
        <time>2011-03-02T09:39:47Z</time>
      </trkpt>
      <trkpt lat="49.68488" lon="4.71886">
        <ele>278.44</ele>
        <time>2011-03-02T09:39:49Z</time>
      </trkpt>
      <trkpt lat="49.68492" lon="4.7188">
        <ele>277.6</ele>
        <time>2011-03-02T09:39:51Z</time>
      </trkpt>
      <trkpt lat="49.68495" lon="4.71876">
        <ele>277.28</ele>
        <time>2011-03-02T09:39:52Z</time>
      </trkpt>
      <trkpt lat="49.68499" lon="4.71869">
        <ele>276.7</ele>
        <time>2011-03-02T09:39:54Z</time>
      </trkpt>
      <trkpt lat="49.68503" lon="4.71862">
        <ele>276.38</ele>
        <time>2011-03-02T09:39:56Z</time>
      </trkpt>
      <trkpt lat="49.68505" lon="4.71859">
        <ele>276.2</ele>
        <time>2011-03-02T09:39:57Z</time>
      </trkpt>
      <trkpt lat="49.68507" lon="4.71855">
        <ele>275.99</ele>
        <time>2011-03-02T09:39:58Z</time>
      </trkpt>
      <trkpt lat="49.68509" lon="4.71852">
        <ele>275.85</ele>
        <time>2011-03-02T09:39:59Z</time>
      </trkpt>
      <trkpt lat="49.68512" lon="4.71846">
        <ele>275.6</ele>
        <time>2011-03-02T09:40:01Z</time>
      </trkpt>
      <trkpt lat="49.68514" lon="4.71844">
        <ele>275.5</ele>
        <time>2011-03-02T09:40:02Z</time>
      </trkpt>
      <trkpt lat="49.68517" lon="4.7184">
        <ele>275.44</ele>
        <time>2011-03-02T09:40:03Z</time>
      </trkpt>
      <trkpt lat="49.68518" lon="4.71837">
        <ele>275.49</ele>
        <time>2011-03-02T09:40:04Z</time>
      </trkpt>
      <trkpt lat="49.68519" lon="4.71831">
        <ele>275.57</ele>
        <time>2011-03-02T09:40:06Z</time>
      </trkpt>
      <trkpt lat="49.68522" lon="4.71825">
        <ele>275.54</ele>
        <time>2011-03-02T09:40:08Z</time>
      </trkpt>
      <trkpt lat="49.68524" lon="4.71822">
        <ele>275.47</ele>
        <time>2011-03-02T09:40:09Z</time>
      </trkpt>
      <trkpt lat="49.68526" lon="4.71816">
        <ele>275.37</ele>
        <time>2011-03-02T09:40:11Z</time>
      </trkpt>
      <trkpt lat="49.68528" lon="4.71809">
        <ele>275.13</ele>
        <time>2011-03-02T09:40:13Z</time>
      </trkpt>
      <trkpt lat="49.6853" lon="4.718">
        <ele>274.82</ele>
        <time>2011-03-02T09:40:15Z</time>
      </trkpt>
      <trkpt lat="49.68531" lon="4.71791">
        <ele>274.71</ele>
        <time>2011-03-02T09:40:17Z</time>
      </trkpt>
      <trkpt lat="49.6853" lon="4.71784">
        <ele>274.82</ele>
        <time>2011-03-02T09:40:18Z</time>
      </trkpt>
      <trkpt lat="49.68531" lon="4.71782">
        <ele>274.87</ele>
        <time>2011-03-02T09:40:19Z</time>
      </trkpt>
      <trkpt lat="49.68532" lon="4.71779">
        <ele>274.98</ele>
        <time>2011-03-02T09:40:21Z</time>
      </trkpt>
      <trkpt lat="49.68533" lon="4.71776">
        <ele>275.07</ele>
        <time>2011-03-02T09:40:22Z</time>
      </trkpt>
      <trkpt lat="49.68534" lon="4.7177">
        <ele>275.37</ele>
        <time>2011-03-02T09:40:24Z</time>
      </trkpt>
      <trkpt lat="49.68535" lon="4.71767">
        <ele>275.57</ele>
        <time>2011-03-02T09:40:25Z</time>
      </trkpt>
      <trkpt lat="49.68537" lon="4.71761">
        <ele>275.95</ele>
        <time>2011-03-02T09:40:28Z</time>
      </trkpt>
      <trkpt lat="49.68538" lon="4.71756">
        <ele>275.79</ele>
        <time>2011-03-02T09:40:29Z</time>
      </trkpt>
      <trkpt lat="49.68538" lon="4.71752">
        <ele>275.53</ele>
        <time>2011-03-02T09:40:30Z</time>
      </trkpt>
      <trkpt lat="49.68538" lon="4.7175">
        <ele>275.38</ele>
        <time>2011-03-02T09:40:31Z</time>
      </trkpt>
      <trkpt lat="49.68537" lon="4.71744">
        <ele>275.07</ele>
        <time>2011-03-02T09:40:33Z</time>
      </trkpt>
      <trkpt lat="49.68537" lon="4.71741">
        <ele>274.86</ele>
        <time>2011-03-02T09:40:34Z</time>
      </trkpt>
      <trkpt lat="49.68537" lon="4.71732">
        <ele>274.74</ele>
        <time>2011-03-02T09:40:36Z</time>
      </trkpt>
      <trkpt lat="49.68538" lon="4.71729">
        <ele>274.93</ele>
        <time>2011-03-02T09:40:37Z</time>
      </trkpt>
      <trkpt lat="49.68539" lon="4.71722">
        <ele>275.55</ele>
        <time>2011-03-02T09:40:38Z</time>
      </trkpt>
      <trkpt lat="49.68541" lon="4.71716">
        <ele>276.09</ele>
        <time>2011-03-02T09:40:40Z</time>
      </trkpt>
      <trkpt lat="49.68542" lon="4.7171">
        <ele>276.51</ele>
        <time>2011-03-02T09:40:42Z</time>
      </trkpt>
      <trkpt lat="49.68544" lon="4.71706">
        <ele>276.7</ele>
        <time>2011-03-02T09:40:43Z</time>
      </trkpt>
      <trkpt lat="49.68545" lon="4.71701">
        <ele>276.54</ele>
        <time>2011-03-02T09:40:45Z</time>
      </trkpt>
      <trkpt lat="49.68545" lon="4.71698">
        <ele>276.4</ele>
        <time>2011-03-02T09:40:46Z</time>
      </trkpt>
      <trkpt lat="49.68545" lon="4.71687">
        <ele>276.07</ele>
        <time>2011-03-02T09:40:48Z</time>
      </trkpt>
      <trkpt lat="49.68544" lon="4.7168">
        <ele>275.93</ele>
        <time>2011-03-02T09:40:49Z</time>
      </trkpt>
      <trkpt lat="49.68543" lon="4.71673">
        <ele>275.73</ele>
        <time>2011-03-02T09:40:50Z</time>
      </trkpt>
      <trkpt lat="49.68541" lon="4.71659">
        <ele>275.31</ele>
        <time>2011-03-02T09:40:52Z</time>
      </trkpt>
      <trkpt lat="49.68541" lon="4.71652">
        <ele>275.15</ele>
        <time>2011-03-02T09:40:53Z</time>
      </trkpt>
      <trkpt lat="49.6854" lon="4.71638">
        <ele>274.78</ele>
        <time>2011-03-02T09:40:55Z</time>
      </trkpt>
      <trkpt lat="49.6854" lon="4.71631">
        <ele>274.46</ele>
        <time>2011-03-02T09:40:56Z</time>
      </trkpt>
      <trkpt lat="49.68539" lon="4.7162">
        <ele>273.9</ele>
        <time>2011-03-02T09:40:57Z</time>
      </trkpt>
      <trkpt lat="49.68539" lon="4.71615">
        <ele>273.58</ele>
        <time>2011-03-02T09:40:58Z</time>
      </trkpt>
      <trkpt lat="49.68539" lon="4.71611">
        <ele>273.32</ele>
        <time>2011-03-02T09:40:59Z</time>
      </trkpt>
      <trkpt lat="49.68538" lon="4.71602">
        <ele>272.71</ele>
        <time>2011-03-02T09:41:01Z</time>
      </trkpt>
      <trkpt lat="49.68538" lon="4.71597">
        <ele>272.33</ele>
        <time>2011-03-02T09:41:02Z</time>
      </trkpt>
      <trkpt lat="49.68537" lon="4.71591">
        <ele>271.68</ele>
        <time>2011-03-02T09:41:03Z</time>
      </trkpt>
      <trkpt lat="49.68536" lon="4.71587">
        <ele>271.56</ele>
        <time>2011-03-02T09:41:04Z</time>
      </trkpt>
      <trkpt lat="49.68535" lon="4.71582">
        <ele>271.46</ele>
        <time>2011-03-02T09:41:05Z</time>
      </trkpt>
      <trkpt lat="49.68533" lon="4.71572">
        <ele>271.53</ele>
        <time>2011-03-02T09:41:07Z</time>
      </trkpt>
      <trkpt lat="49.68532" lon="4.71567">
        <ele>271.68</ele>
        <time>2011-03-02T09:41:08Z</time>
      </trkpt>
      <trkpt lat="49.68531" lon="4.7156">
        <ele>272.03</ele>
        <time>2011-03-02T09:41:09Z</time>
      </trkpt>
      <trkpt lat="49.68531" lon="4.71552">
        <ele>272.42</ele>
        <time>2011-03-02T09:41:11Z</time>
      </trkpt>
      <trkpt lat="49.68531" lon="4.71546">
        <ele>272.76</ele>
        <time>2011-03-02T09:41:12Z</time>
      </trkpt>
      <trkpt lat="49.6853" lon="4.71541">
        <ele>273.11</ele>
        <time>2011-03-02T09:41:14Z</time>
      </trkpt>
      <trkpt lat="49.68528" lon="4.71536">
        <ele>273.27</ele>
        <time>2011-03-02T09:41:15Z</time>
      </trkpt>
      <trkpt lat="49.68528" lon="4.71533">
        <ele>273.41</ele>
        <time>2011-03-02T09:41:16Z</time>
      </trkpt>
      <trkpt lat="49.68528" lon="4.71527">
        <ele>273.91</ele>
        <time>2011-03-02T09:41:18Z</time>
      </trkpt>
      <trkpt lat="49.68528" lon="4.71518">
        <ele>274.84</ele>
        <time>2011-03-02T09:41:20Z</time>
      </trkpt>
      <trkpt lat="49.68527" lon="4.71512">
        <ele>275.82</ele>
        <time>2011-03-02T09:41:21Z</time>
      </trkpt>
      <trkpt lat="49.68527" lon="4.71506">
        <ele>276.66</ele>
        <time>2011-03-02T09:41:23Z</time>
      </trkpt>
      <trkpt lat="49.68527" lon="4.71501">
        <ele>277.42</ele>
        <time>2011-03-02T09:41:25Z</time>
      </trkpt>
      <trkpt lat="49.68529" lon="4.71495">
        <ele>277.78</ele>
        <time>2011-03-02T09:41:27Z</time>
      </trkpt>
      <trkpt lat="49.6853" lon="4.71492">
        <ele>277.79</ele>
        <time>2011-03-02T09:41:28Z</time>
      </trkpt>
      <trkpt lat="49.68533" lon="4.71484">
        <ele>277.58</ele>
        <time>2011-03-02T09:41:30Z</time>
      </trkpt>
      <trkpt lat="49.68535" lon="4.71477">
        <ele>277.25</ele>
        <time>2011-03-02T09:41:32Z</time>
      </trkpt>
      <trkpt lat="49.68536" lon="4.7147">
        <ele>276.88</ele>
        <time>2011-03-02T09:41:34Z</time>
      </trkpt>
      <trkpt lat="49.68536" lon="4.71466">
        <ele>276.61</ele>
        <time>2011-03-02T09:41:35Z</time>
      </trkpt>
      <trkpt lat="49.68536" lon="4.71463">
        <ele>276.31</ele>
        <time>2011-03-02T09:41:36Z</time>
      </trkpt>
      <trkpt lat="49.68536" lon="4.71458">
        <ele>275.73</ele>
        <time>2011-03-02T09:41:38Z</time>
      </trkpt>
      <trkpt lat="49.68536" lon="4.71456">
        <ele>275.4</ele>
        <time>2011-03-02T09:41:40Z</time>
      </trkpt>
      <trkpt lat="49.68538" lon="4.71455">
        <ele>274.87</ele>
        <time>2011-03-02T09:41:41Z</time>
      </trkpt>
      <trkpt lat="49.68539" lon="4.71455">
        <ele>274.34</ele>
        <time>2011-03-02T09:41:43Z</time>
      </trkpt>
      <trkpt lat="49.68539" lon="4.71454">
        <ele>273.87</ele>
        <time>2011-03-02T09:41:45Z</time>
      </trkpt>
      <trkpt lat="49.68538" lon="4.71451">
        <ele>273.62</ele>
        <time>2011-03-02T09:41:47Z</time>
      </trkpt>
      <trkpt lat="49.68538" lon="4.71451">
        <ele>273.54</ele>
        <time>2011-03-02T09:41:48Z</time>
      </trkpt>
      <trkpt lat="49.68538" lon="4.71449">
        <ele>273.44</ele>
        <time>2011-03-02T09:41:50Z</time>
      </trkpt>
      <trkpt lat="49.68539" lon="4.71446">
        <ele>273.26</ele>
        <time>2011-03-02T09:41:52Z</time>
      </trkpt>
      <trkpt lat="49.68539" lon="4.71443">
        <ele>273.16</ele>
        <time>2011-03-02T09:41:53Z</time>
      </trkpt>
      <trkpt lat="49.6854" lon="4.71436">
        <ele>272.95</ele>
        <time>2011-03-02T09:41:55Z</time>
      </trkpt>
      <trkpt lat="49.68542" lon="4.7143">
        <ele>272.75</ele>
        <time>2011-03-02T09:41:57Z</time>
      </trkpt>
      <trkpt lat="49.68543" lon="4.71427">
        <ele>272.69</ele>
        <time>2011-03-02T09:41:58Z</time>
      </trkpt>
      <trkpt lat="49.68545" lon="4.7142">
        <ele>272.62</ele>
        <time>2011-03-02T09:42:00Z</time>
      </trkpt>
      <trkpt lat="49.68546" lon="4.71416">
        <ele>272.62</ele>
        <time>2011-03-02T09:42:01Z</time>
      </trkpt>
      <trkpt lat="49.68547" lon="4.7141">
        <ele>272.23</ele>
        <time>2011-03-02T09:42:03Z</time>
      </trkpt>
      <trkpt lat="49.68548" lon="4.71407">
        <ele>271.91</ele>
        <time>2011-03-02T09:42:04Z</time>
      </trkpt>
      <trkpt lat="49.68549" lon="4.71403">
        <ele>271.21</ele>
        <time>2011-03-02T09:42:06Z</time>
      </trkpt>
      <trkpt lat="49.68549" lon="4.714">
        <ele>270.38</ele>
        <time>2011-03-02T09:42:07Z</time>
      </trkpt>
      <trkpt lat="49.68549" lon="4.71397">
        <ele>269.8</ele>
        <time>2011-03-02T09:42:08Z</time>
      </trkpt>
      <trkpt lat="49.68549" lon="4.7139">
        <ele>268.53</ele>
        <time>2011-03-02T09:42:10Z</time>
      </trkpt>
      <trkpt lat="49.68548" lon="4.71385">
        <ele>268.08</ele>
        <time>2011-03-02T09:42:11Z</time>
      </trkpt>
      <trkpt lat="49.68547" lon="4.71379">
        <ele>267.79</ele>
        <time>2011-03-02T09:42:12Z</time>
      </trkpt>
      <trkpt lat="49.68546" lon="4.71373">
        <ele>267.7</ele>
        <time>2011-03-02T09:42:13Z</time>
      </trkpt>
      <trkpt lat="49.68543" lon="4.71363">
        <ele>267.76</ele>
        <time>2011-03-02T09:42:15Z</time>
      </trkpt>
      <trkpt lat="49.68541" lon="4.71353">
        <ele>268</ele>
        <time>2011-03-02T09:42:17Z</time>
      </trkpt>
      <trkpt lat="49.68539" lon="4.71347">
        <ele>268.49</ele>
        <time>2011-03-02T09:42:18Z</time>
      </trkpt>
      <trkpt lat="49.6854" lon="4.71341">
        <ele>268.92</ele>
        <time>2011-03-02T09:42:20Z</time>
      </trkpt>
      <trkpt lat="49.6854" lon="4.71336">
        <ele>269.14</ele>
        <time>2011-03-02T09:42:21Z</time>
      </trkpt>
      <trkpt lat="49.68538" lon="4.7133">
        <ele>269.16</ele>
        <time>2011-03-02T09:42:23Z</time>
      </trkpt>
      <trkpt lat="49.68538" lon="4.71326">
        <ele>269.14</ele>
        <time>2011-03-02T09:42:24Z</time>
      </trkpt>
      <trkpt lat="49.68536" lon="4.71316">
        <ele>269.31</ele>
        <time>2011-03-02T09:42:26Z</time>
      </trkpt>
      <trkpt lat="49.68535" lon="4.71306">
        <ele>269.65</ele>
        <time>2011-03-02T09:42:28Z</time>
      </trkpt>
      <trkpt lat="49.68535" lon="4.71298">
        <ele>270.03</ele>
        <time>2011-03-02T09:42:30Z</time>
      </trkpt>
      <trkpt lat="49.68536" lon="4.71291">
        <ele>270.32</ele>
        <time>2011-03-02T09:42:32Z</time>
      </trkpt>
      <trkpt lat="49.68537" lon="4.71289">
        <ele>270.41</ele>
        <time>2011-03-02T09:42:33Z</time>
      </trkpt>
      <trkpt lat="49.68537" lon="4.71283">
        <ele>270.51</ele>
        <time>2011-03-02T09:42:35Z</time>
      </trkpt>
      <trkpt lat="49.68537" lon="4.7128">
        <ele>270.54</ele>
        <time>2011-03-02T09:42:36Z</time>
      </trkpt>
      <trkpt lat="49.68535" lon="4.71273">
        <ele>270.6</ele>
        <time>2011-03-02T09:42:38Z</time>
      </trkpt>
      <trkpt lat="49.68533" lon="4.71266">
        <ele>270.74</ele>
        <time>2011-03-02T09:42:40Z</time>
      </trkpt>
      <trkpt lat="49.68532" lon="4.71258">
        <ele>271.12</ele>
        <time>2011-03-02T09:42:42Z</time>
      </trkpt>
      <trkpt lat="49.68532" lon="4.71255">
        <ele>271.44</ele>
        <time>2011-03-02T09:42:43Z</time>
      </trkpt>
      <trkpt lat="49.68532" lon="4.71251">
        <ele>272.04</ele>
        <time>2011-03-02T09:42:44Z</time>
      </trkpt>
      <trkpt lat="49.68532" lon="4.7125">
        <ele>272.3</ele>
        <time>2011-03-02T09:42:45Z</time>
      </trkpt>
      <trkpt lat="49.68532" lon="4.71248">
        <ele>272.5</ele>
        <time>2011-03-02T09:42:46Z</time>
      </trkpt>
      <trkpt lat="49.68532" lon="4.71245">
        <ele>272.66</ele>
        <time>2011-03-02T09:42:47Z</time>
      </trkpt>
      <trkpt lat="49.6853" lon="4.71236">
        <ele>272.84</ele>
        <time>2011-03-02T09:42:49Z</time>
      </trkpt>
      <trkpt lat="49.68528" lon="4.71229">
        <ele>272.79</ele>
        <time>2011-03-02T09:42:50Z</time>
      </trkpt>
      <trkpt lat="49.68526" lon="4.71223">
        <ele>272.74</ele>
        <time>2011-03-02T09:42:52Z</time>
      </trkpt>
      <trkpt lat="49.68525" lon="4.71219">
        <ele>272.86</ele>
        <time>2011-03-02T09:42:53Z</time>
      </trkpt>
      <trkpt lat="49.68522" lon="4.71211">
        <ele>273.07</ele>
        <time>2011-03-02T09:42:54Z</time>
      </trkpt>
      <trkpt lat="49.68522" lon="4.71208">
        <ele>273.16</ele>
        <time>2011-03-02T09:42:55Z</time>
      </trkpt>
      <trkpt lat="49.68524" lon="4.71205">
        <ele>273.28</ele>
        <time>2011-03-02T09:42:57Z</time>
      </trkpt>
      <trkpt lat="49.68526" lon="4.71202">
        <ele>272.9</ele>
        <time>2011-03-02T09:42:59Z</time>
      </trkpt>
      <trkpt lat="49.68527" lon="4.71199">
        <ele>272.15</ele>
        <time>2011-03-02T09:43:00Z</time>
      </trkpt>
      <trkpt lat="49.68527" lon="4.71196">
        <ele>271.65</ele>
        <time>2011-03-02T09:43:01Z</time>
      </trkpt>
      <trkpt lat="49.68526" lon="4.71193">
        <ele>271.15</ele>
        <time>2011-03-02T09:43:02Z</time>
      </trkpt>
      <trkpt lat="49.68524" lon="4.71186">
        <ele>270.34</ele>
        <time>2011-03-02T09:43:04Z</time>
      </trkpt>
      <trkpt lat="49.68523" lon="4.71178">
        <ele>269.86</ele>
        <time>2011-03-02T09:43:06Z</time>
      </trkpt>
      <trkpt lat="49.68523" lon="4.71173">
        <ele>269.83</ele>
        <time>2011-03-02T09:43:07Z</time>
      </trkpt>
      <trkpt lat="49.68521" lon="4.71164">
        <ele>270.1</ele>
        <time>2011-03-02T09:43:09Z</time>
      </trkpt>
      <trkpt lat="49.6852" lon="4.71156">
        <ele>270.39</ele>
        <time>2011-03-02T09:43:11Z</time>
      </trkpt>
      <trkpt lat="49.68519" lon="4.71149">
        <ele>270.74</ele>
        <time>2011-03-02T09:43:12Z</time>
      </trkpt>
      <trkpt lat="49.68518" lon="4.71143">
        <ele>271.11</ele>
        <time>2011-03-02T09:43:14Z</time>
      </trkpt>
      <trkpt lat="49.68517" lon="4.71136">
        <ele>271.43</ele>
        <time>2011-03-02T09:43:16Z</time>
      </trkpt>
      <trkpt lat="49.68516" lon="4.71132">
        <ele>271.6</ele>
        <time>2011-03-02T09:43:17Z</time>
      </trkpt>
      <trkpt lat="49.68516" lon="4.71129">
        <ele>271.79</ele>
        <time>2011-03-02T09:43:18Z</time>
      </trkpt>
      <trkpt lat="49.68515" lon="4.71124">
        <ele>272.16</ele>
        <time>2011-03-02T09:43:20Z</time>
      </trkpt>
      <trkpt lat="49.68514" lon="4.71122">
        <ele>272.49</ele>
        <time>2011-03-02T09:43:22Z</time>
      </trkpt>
      <trkpt lat="49.68513" lon="4.71118">
        <ele>273.07</ele>
        <time>2011-03-02T09:43:24Z</time>
      </trkpt>
      <trkpt lat="49.68511" lon="4.71109">
        <ele>273.77</ele>
        <time>2011-03-02T09:43:26Z</time>
      </trkpt>
      <trkpt lat="49.68508" lon="4.71097">
        <ele>274.8</ele>
        <time>2011-03-02T09:43:28Z</time>
      </trkpt>
      <trkpt lat="49.68505" lon="4.71089">
        <ele>276.01</ele>
        <time>2011-03-02T09:43:30Z</time>
      </trkpt>
      <trkpt lat="49.68503" lon="4.71083">
        <ele>277.28</ele>
        <time>2011-03-02T09:43:31Z</time>
      </trkpt>
      <trkpt lat="49.68502" lon="4.71079">
        <ele>278.25</ele>
        <time>2011-03-02T09:43:33Z</time>
      </trkpt>
      <trkpt lat="49.685" lon="4.71074">
        <ele>279.29</ele>
        <time>2011-03-02T09:43:35Z</time>
      </trkpt>
      <trkpt lat="49.68495" lon="4.71066">
        <ele>280.2</ele>
        <time>2011-03-02T09:43:37Z</time>
      </trkpt>
      <trkpt lat="49.68493" lon="4.71062">
        <ele>280.67</ele>
        <time>2011-03-02T09:43:38Z</time>
      </trkpt>
      <trkpt lat="49.68488" lon="4.71054">
        <ele>281.69</ele>
        <time>2011-03-02T09:43:40Z</time>
      </trkpt>
      <trkpt lat="49.68486" lon="4.7105">
        <ele>282.03</ele>
        <time>2011-03-02T09:43:41Z</time>
      </trkpt>
      <trkpt lat="49.68484" lon="4.71044">
        <ele>282.7</ele>
        <time>2011-03-02T09:43:42Z</time>
      </trkpt>
      <trkpt lat="49.68484" lon="4.71042">
        <ele>282.92</ele>
        <time>2011-03-02T09:43:43Z</time>
      </trkpt>
      <trkpt lat="49.68481" lon="4.71037">
        <ele>283.03</ele>
        <time>2011-03-02T09:43:45Z</time>
      </trkpt>
      <trkpt lat="49.68477" lon="4.71029">
        <ele>283.03</ele>
        <time>2011-03-02T09:43:47Z</time>
      </trkpt>
      <trkpt lat="49.68475" lon="4.71025">
        <ele>283.04</ele>
        <time>2011-03-02T09:43:48Z</time>
      </trkpt>
      <trkpt lat="49.68469" lon="4.71016">
        <ele>283.23</ele>
        <time>2011-03-02T09:43:50Z</time>
      </trkpt>
      <trkpt lat="49.68466" lon="4.71011">
        <ele>283.42</ele>
        <time>2011-03-02T09:43:51Z</time>
      </trkpt>
      <trkpt lat="49.68459" lon="4.71001">
        <ele>283.86</ele>
        <time>2011-03-02T09:43:53Z</time>
      </trkpt>
      <trkpt lat="49.68455" lon="4.70996">
        <ele>284.13</ele>
        <time>2011-03-02T09:43:54Z</time>
      </trkpt>
      <trkpt lat="49.68451" lon="4.70992">
        <ele>284.47</ele>
        <time>2011-03-02T09:43:55Z</time>
      </trkpt>
      <trkpt lat="49.68444" lon="4.70981">
        <ele>284.79</ele>
        <time>2011-03-02T09:43:57Z</time>
      </trkpt>
      <trkpt lat="49.68441" lon="4.70975">
        <ele>284.73</ele>
        <time>2011-03-02T09:43:58Z</time>
      </trkpt>
      <trkpt lat="49.68436" lon="4.70965">
        <ele>284.54</ele>
        <time>2011-03-02T09:43:59Z</time>
      </trkpt>
      <trkpt lat="49.68433" lon="4.7096">
        <ele>284.4</ele>
        <time>2011-03-02T09:44:00Z</time>
      </trkpt>
      <trkpt lat="49.68428" lon="4.70952">
        <ele>284.06</ele>
        <time>2011-03-02T09:44:02Z</time>
      </trkpt>
      <trkpt lat="49.68423" lon="4.70948">
        <ele>283.77</ele>
        <time>2011-03-02T09:44:03Z</time>
      </trkpt>
      <trkpt lat="49.68415" lon="4.70942">
        <ele>282.74</ele>
        <time>2011-03-02T09:44:06Z</time>
      </trkpt>
      <trkpt lat="49.68407" lon="4.70936">
        <ele>282.03</ele>
        <time>2011-03-02T09:44:07Z</time>
      </trkpt>
      <trkpt lat="49.68399" lon="4.70928">
        <ele>281.36</ele>
        <time>2011-03-02T09:44:09Z</time>
      </trkpt>
      <trkpt lat="49.6839" lon="4.70919">
        <ele>280.74</ele>
        <time>2011-03-02T09:44:11Z</time>
      </trkpt>
      <trkpt lat="49.68382" lon="4.7091">
        <ele>280.36</ele>
        <time>2011-03-02T09:44:13Z</time>
      </trkpt>
      <trkpt lat="49.68374" lon="4.70903">
        <ele>280.46</ele>
        <time>2011-03-02T09:44:15Z</time>
      </trkpt>
      <trkpt lat="49.68371" lon="4.709">
        <ele>280.66</ele>
        <time>2011-03-02T09:44:16Z</time>
      </trkpt>
      <trkpt lat="49.68362" lon="4.70891">
        <ele>281.03</ele>
        <time>2011-03-02T09:44:17Z</time>
      </trkpt>
      <trkpt lat="49.6835" lon="4.7088">
        <ele>281.25</ele>
        <time>2011-03-02T09:44:19Z</time>
      </trkpt>
      <trkpt lat="49.68345" lon="4.70877">
        <ele>281.4</ele>
        <time>2011-03-02T09:44:20Z</time>
      </trkpt>
      <trkpt lat="49.68336" lon="4.70873">
        <ele>281.58</ele>
        <time>2011-03-02T09:44:21Z</time>
      </trkpt>
      <trkpt lat="49.68325" lon="4.70875">
        <ele>281.53</ele>
        <time>2011-03-02T09:44:23Z</time>
      </trkpt>
      <trkpt lat="49.68319" lon="4.70879">
        <ele>281.12</ele>
        <time>2011-03-02T09:44:25Z</time>
      </trkpt>
      <trkpt lat="49.68316" lon="4.70881">
        <ele>280.91</ele>
        <time>2011-03-02T09:44:26Z</time>
      </trkpt>
      <trkpt lat="49.6831" lon="4.70884">
        <ele>280.61</ele>
        <time>2011-03-02T09:44:28Z</time>
      </trkpt>
      <trkpt lat="49.68302" lon="4.70888">
        <ele>280.16</ele>
        <time>2011-03-02T09:44:30Z</time>
      </trkpt>
      <trkpt lat="49.68293" lon="4.70894">
        <ele>279.69</ele>
        <time>2011-03-02T09:44:32Z</time>
      </trkpt>
      <trkpt lat="49.68284" lon="4.70899">
        <ele>279.08</ele>
        <time>2011-03-02T09:44:34Z</time>
      </trkpt>
      <trkpt lat="49.68276" lon="4.70904">
        <ele>278.32</ele>
        <time>2011-03-02T09:44:36Z</time>
      </trkpt>
      <trkpt lat="49.68269" lon="4.70908">
        <ele>277.51</ele>
        <time>2011-03-02T09:44:38Z</time>
      </trkpt>
      <trkpt lat="49.68264" lon="4.70912">
        <ele>276.84</ele>
        <time>2011-03-02T09:44:40Z</time>
      </trkpt>
      <trkpt lat="49.68261" lon="4.70917">
        <ele>276.33</ele>
        <time>2011-03-02T09:44:42Z</time>
      </trkpt>
      <trkpt lat="49.6826" lon="4.70921">
        <ele>276.29</ele>
        <time>2011-03-02T09:44:44Z</time>
      </trkpt>
      <trkpt lat="49.68259" lon="4.70928">
        <ele>276.67</ele>
        <time>2011-03-02T09:44:46Z</time>
      </trkpt>
      <trkpt lat="49.68259" lon="4.70933">
        <ele>277.18</ele>
        <time>2011-03-02T09:44:47Z</time>
      </trkpt>
      <trkpt lat="49.68255" lon="4.70935">
        <ele>278.01</ele>
        <time>2011-03-02T09:44:49Z</time>
      </trkpt>
      <trkpt lat="49.68249" lon="4.70937">
        <ele>279.1</ele>
        <time>2011-03-02T09:44:51Z</time>
      </trkpt>
      <trkpt lat="49.68242" lon="4.70939">
        <ele>280.11</ele>
        <time>2011-03-02T09:44:53Z</time>
      </trkpt>
      <trkpt lat="49.68235" lon="4.70941">
        <ele>280.82</ele>
        <time>2011-03-02T09:44:55Z</time>
      </trkpt>
      <trkpt lat="49.68226" lon="4.70944">
        <ele>281.45</ele>
        <time>2011-03-02T09:44:57Z</time>
      </trkpt>
      <trkpt lat="49.68221" lon="4.70947">
        <ele>281.04</ele>
        <time>2011-03-02T09:44:58Z</time>
      </trkpt>
      <trkpt lat="49.68217" lon="4.7095">
        <ele>280.13</ele>
        <time>2011-03-02T09:45:00Z</time>
      </trkpt>
      <trkpt lat="49.68215" lon="4.70951">
        <ele>279.55</ele>
        <time>2011-03-02T09:45:01Z</time>
      </trkpt>
      <trkpt lat="49.68201" lon="4.70956">
        <ele>278.05</ele>
        <time>2011-03-02T09:45:03Z</time>
      </trkpt>
      <trkpt lat="49.68199" lon="4.70957">
        <ele>277.22</ele>
        <time>2011-03-02T09:45:04Z</time>
      </trkpt>
      <trkpt lat="49.68195" lon="4.70958">
        <ele>276.64</ele>
        <time>2011-03-02T09:45:06Z</time>
      </trkpt>
      <trkpt lat="49.68191" lon="4.70959">
        <ele>276.51</ele>
        <time>2011-03-02T09:45:08Z</time>
      </trkpt>
      <trkpt lat="49.68186" lon="4.70961">
        <ele>276.7</ele>
        <time>2011-03-02T09:45:10Z</time>
      </trkpt>
      <trkpt lat="49.68182" lon="4.70963">
        <ele>277</ele>
        <time>2011-03-02T09:45:11Z</time>
      </trkpt>
      <trkpt lat="49.68178" lon="4.70965">
        <ele>277.49</ele>
        <time>2011-03-02T09:45:13Z</time>
      </trkpt>
      <trkpt lat="49.68175" lon="4.70966">
        <ele>277.76</ele>
        <time>2011-03-02T09:45:14Z</time>
      </trkpt>
      <trkpt lat="49.68173" lon="4.70968">
        <ele>278.13</ele>
        <time>2011-03-02T09:45:15Z</time>
      </trkpt>
      <trkpt lat="49.68168" lon="4.70971">
        <ele>278.8</ele>
        <time>2011-03-02T09:45:17Z</time>
      </trkpt>
      <trkpt lat="49.68163" lon="4.70973">
        <ele>279.58</ele>
        <time>2011-03-02T09:45:19Z</time>
      </trkpt>
      <trkpt lat="49.68158" lon="4.70974">
        <ele>280.27</ele>
        <time>2011-03-02T09:45:20Z</time>
      </trkpt>
      <trkpt lat="49.68154" lon="4.70976">
        <ele>280.55</ele>
        <time>2011-03-02T09:45:22Z</time>
      </trkpt>
      <trkpt lat="49.68152" lon="4.70979">
        <ele>280.6</ele>
        <time>2011-03-02T09:45:23Z</time>
      </trkpt>
      <trkpt lat="49.68151" lon="4.7098">
        <ele>280.64</ele>
        <time>2011-03-02T09:45:24Z</time>
      </trkpt>
      <trkpt lat="49.6815" lon="4.70981">
        <ele>280.68</ele>
        <time>2011-03-02T09:45:25Z</time>
      </trkpt>
      <trkpt lat="49.68147" lon="4.70981">
        <ele>280.7</ele>
        <time>2011-03-02T09:45:27Z</time>
      </trkpt>
      <trkpt lat="49.68143" lon="4.70983">
        <ele>280.9</ele>
        <time>2011-03-02T09:45:29Z</time>
      </trkpt>
      <trkpt lat="49.6814" lon="4.70988">
        <ele>281.44</ele>
        <time>2011-03-02T09:45:31Z</time>
      </trkpt>
      <trkpt lat="49.68137" lon="4.7099">
        <ele>281.77</ele>
        <time>2011-03-02T09:45:32Z</time>
      </trkpt>
      <trkpt lat="49.68133" lon="4.70994">
        <ele>282.35</ele>
        <time>2011-03-02T09:45:34Z</time>
      </trkpt>
      <trkpt lat="49.68129" lon="4.70995">
        <ele>283.06</ele>
        <time>2011-03-02T09:45:36Z</time>
      </trkpt>
      <trkpt lat="49.68125" lon="4.70995">
        <ele>283.89</ele>
        <time>2011-03-02T09:45:38Z</time>
      </trkpt>
      <trkpt lat="49.68121" lon="4.70995">
        <ele>284.69</ele>
        <time>2011-03-02T09:45:40Z</time>
      </trkpt>
      <trkpt lat="49.68119" lon="4.70995">
        <ele>285.49</ele>
        <time>2011-03-02T09:45:42Z</time>
      </trkpt>
      <trkpt lat="49.68118" lon="4.70995">
        <ele>285.89</ele>
        <time>2011-03-02T09:45:43Z</time>
      </trkpt>
      <trkpt lat="49.68117" lon="4.70995">
        <ele>286.31</ele>
        <time>2011-03-02T09:45:44Z</time>
      </trkpt>
      <trkpt lat="49.68116" lon="4.70995">
        <ele>286.67</ele>
        <time>2011-03-02T09:45:45Z</time>
      </trkpt>
      <trkpt lat="49.68114" lon="4.70996">
        <ele>286.96</ele>
        <time>2011-03-02T09:45:47Z</time>
      </trkpt>
      <trkpt lat="49.68112" lon="4.70997">
        <ele>286.86</ele>
        <time>2011-03-02T09:45:49Z</time>
      </trkpt>
      <trkpt lat="49.68111" lon="4.70999">
        <ele>286.73</ele>
        <time>2011-03-02T09:45:50Z</time>
      </trkpt>
      <trkpt lat="49.68108" lon="4.70999">
        <ele>286.34</ele>
        <time>2011-03-02T09:45:52Z</time>
      </trkpt>
      <trkpt lat="49.68103" lon="4.70998">
        <ele>285.55</ele>
        <time>2011-03-02T09:45:54Z</time>
      </trkpt>
      <trkpt lat="49.68101" lon="4.70998">
        <ele>284.88</ele>
        <time>2011-03-02T09:45:56Z</time>
      </trkpt>
      <trkpt lat="49.68099" lon="4.70998">
        <ele>284.35</ele>
        <time>2011-03-02T09:45:57Z</time>
      </trkpt>
      <trkpt lat="49.68098" lon="4.70998">
        <ele>284.16</ele>
        <time>2011-03-02T09:45:59Z</time>
      </trkpt>
      <trkpt lat="49.68096" lon="4.70997">
        <ele>284.37</ele>
        <time>2011-03-02T09:46:00Z</time>
      </trkpt>
      <trkpt lat="49.68095" lon="4.70997">
        <ele>284.75</ele>
        <time>2011-03-02T09:46:02Z</time>
      </trkpt>
      <trkpt lat="49.68094" lon="4.70997">
        <ele>285.225</ele>
        <time>2011-03-02T09:46:03Z</time>
      </trkpt>
      <trkpt lat="49.6809" lon="4.70998">
        <ele>285.655</ele>
        <time>2011-03-02T09:46:05Z</time>
      </trkpt>
      <trkpt lat="49.68089" lon="4.70998">
        <ele>285.559</ele>
        <time>2011-03-02T09:46:06Z</time>
      </trkpt>
      <trkpt lat="49.68087" lon="4.70998">
        <ele>284.955</ele>
        <time>2011-03-02T09:46:08Z</time>
      </trkpt>
      <trkpt lat="49.68087" lon="4.70998">
        <ele>284.654</ele>
        <time>2011-03-02T09:46:09Z</time>
      </trkpt>
      <trkpt lat="49.68086" lon="4.70997">
        <ele>284.424</ele>
        <time>2011-03-02T09:46:10Z</time>
      </trkpt>
      <trkpt lat="49.68085" lon="4.70997">
        <ele>284.261</ele>
        <time>2011-03-02T09:46:11Z</time>
      </trkpt>
      <trkpt lat="49.68084" lon="4.70997">
        <ele>284.29</ele>
        <time>2011-03-02T09:46:13Z</time>
      </trkpt>
      <trkpt lat="49.68084" lon="4.70995">
        <ele>284.53</ele>
        <time>2011-03-02T09:46:15Z</time>
      </trkpt>
      <trkpt lat="49.68084" lon="4.70994">
        <ele>285.07</ele>
        <time>2011-03-02T09:46:16Z</time>
      </trkpt>
      <trkpt lat="49.68084" lon="4.70993">
        <ele>285.85</ele>
        <time>2011-03-02T09:46:18Z</time>
      </trkpt>
      <trkpt lat="49.68084" lon="4.70993">
        <ele>286.45</ele>
        <time>2011-03-02T09:46:20Z</time>
      </trkpt>
      <trkpt lat="49.68084" lon="4.70993">
        <ele>286.58</ele>
        <time>2011-03-02T09:46:21Z</time>
      </trkpt>
      <trkpt lat="49.68084" lon="4.70993">
        <ele>286.66</ele>
        <time>2011-03-02T09:46:22Z</time>
      </trkpt>
      <trkpt lat="49.68084" lon="4.70993">
        <ele>286.68</ele>
        <time>2011-03-02T09:46:24Z</time>
      </trkpt>
      <trkpt lat="49.68084" lon="4.70993">
        <ele>286.69</ele>
        <time>2011-03-02T09:46:25Z</time>
      </trkpt>
      <trkpt lat="49.68084" lon="4.70993">
        <ele>286.7</ele>
        <time>2011-03-02T09:46:26Z</time>
      </trkpt>
      <trkpt lat="49.68084" lon="4.70993">
        <ele>286.7</ele>
        <time>2011-03-02T09:46:28Z</time>
      </trkpt>
      <trkpt lat="49.68084" lon="4.70993">
        <ele>286.7</ele>
        <time>2011-03-02T09:46:30Z</time>
      </trkpt>
      <trkpt lat="49.68084" lon="4.70993">
        <ele>286.7</ele>
        <time>2011-03-02T09:46:31Z</time>
      </trkpt>
      <trkpt lat="49.68084" lon="4.70993">
        <ele>286.7</ele>
        <time>2011-03-02T09:46:33Z</time>
      </trkpt>
      <trkpt lat="49.68084" lon="4.70993">
        <ele>286.7</ele>
        <time>2011-03-02T09:46:35Z</time>
      </trkpt>
      <trkpt lat="49.68084" lon="4.70993">
        <ele>286.7</ele>
        <time>2011-03-02T09:46:37Z</time>
      </trkpt>
      <trkpt lat="49.68084" lon="4.70993">
        <ele>286.7</ele>
        <time>2011-03-02T09:46:39Z</time>
      </trkpt>
      <trkpt lat="49.68084" lon="4.70993">
        <ele>286.722</ele>
        <time>2011-03-02T09:46:41Z</time>
      </trkpt>
      <trkpt lat="49.68084" lon="4.70993">
        <ele>286.752</ele>
        <time>2011-03-02T09:46:43Z</time>
      </trkpt>
      <trkpt lat="49.68084" lon="4.70993">
        <ele>286.763</ele>
        <time>2011-03-02T09:46:44Z</time>
      </trkpt>
      <trkpt lat="49.68084" lon="4.70993">
        <ele>286.772</ele>
        <time>2011-03-02T09:46:45Z</time>
      </trkpt>
      <trkpt lat="49.68084" lon="4.70993">
        <ele>286.786</ele>
        <time>2011-03-02T09:46:46Z</time>
      </trkpt>
      <trkpt lat="49.68084" lon="4.70993">
        <ele>286.795</ele>
        <time>2011-03-02T09:46:48Z</time>
      </trkpt>
      <trkpt lat="49.68084" lon="4.70993">
        <ele>286.8</ele>
        <time>2011-03-02T09:46:50Z</time>
      </trkpt>
      <trkpt lat="49.68084" lon="4.70993">
        <ele>286.8</ele>
        <time>2011-03-02T09:46:51Z</time>
      </trkpt>
      <trkpt lat="49.68084" lon="4.70993">
        <ele>286.8</ele>
        <time>2011-03-02T09:46:52Z</time>
      </trkpt>
      <trkpt lat="49.68084" lon="4.70993">
        <ele>286.8</ele>
        <time>2011-03-02T09:46:54Z</time>
      </trkpt>
      <trkpt lat="49.68084" lon="4.70993">
        <ele>286.8</ele>
        <time>2011-03-02T09:46:55Z</time>
      </trkpt>
      <trkpt lat="49.68084" lon="4.70993">
        <ele>286.8</ele>
        <time>2011-03-02T09:46:56Z</time>
      </trkpt>
      <trkpt lat="49.68084" lon="4.70993">
        <ele>286.8</ele>
        <time>2011-03-02T09:46:57Z</time>
      </trkpt>
      <trkpt lat="49.68084" lon="4.70993">
        <ele>286.8</ele>
        <time>2011-03-02T09:46:58Z</time>
      </trkpt>
      <trkpt lat="49.68084" lon="4.70993">
        <ele>286.8</ele>
        <time>2011-03-02T09:46:59Z</time>
      </trkpt>
      <trkpt lat="49.68084" lon="4.70993">
        <ele>286.83</ele>
        <time>2011-03-02T09:47:01Z</time>
      </trkpt>
      <trkpt lat="49.68073" lon="4.70994">
        <ele>286.84</ele>
        <time>2011-03-02T09:47:03Z</time>
      </trkpt>
      <trkpt lat="49.68071" lon="4.70992">
        <ele>286.82</ele>
        <time>2011-03-02T09:47:05Z</time>
      </trkpt>
      <trkpt lat="49.68067" lon="4.7099">
        <ele>286.82</ele>
        <time>2011-03-02T09:47:07Z</time>
      </trkpt>
      <trkpt lat="49.68063" lon="4.70987">
        <ele>286.79</ele>
        <time>2011-03-02T09:47:09Z</time>
      </trkpt>
      <trkpt lat="49.68061" lon="4.70986">
        <ele>286.68</ele>
        <time>2011-03-02T09:47:10Z</time>
      </trkpt>
      <trkpt lat="49.68059" lon="4.70985">
        <ele>286.68</ele>
        <time>2011-03-02T09:47:11Z</time>
      </trkpt>
      <trkpt lat="49.68055" lon="4.70984">
        <ele>286.72</ele>
        <time>2011-03-02T09:47:13Z</time>
      </trkpt>
      <trkpt lat="49.6805" lon="4.70982">
        <ele>286.79</ele>
        <time>2011-03-02T09:47:15Z</time>
      </trkpt>
      <trkpt lat="49.68044" lon="4.7098">
        <ele>286.81</ele>
        <time>2011-03-02T09:47:17Z</time>
      </trkpt>
      <trkpt lat="49.68036" lon="4.70976">
        <ele>286.81</ele>
        <time>2011-03-02T09:47:19Z</time>
      </trkpt>
      <trkpt lat="49.68032" lon="4.70973">
        <ele>286.82</ele>
        <time>2011-03-02T09:47:20Z</time>
      </trkpt>
      <trkpt lat="49.68022" lon="4.70968">
        <ele>286.68</ele>
        <time>2011-03-02T09:47:22Z</time>
      </trkpt>
      <trkpt lat="49.68012" lon="4.70961">
        <ele>286.36</ele>
        <time>2011-03-02T09:47:24Z</time>
      </trkpt>
      <trkpt lat="49.68006" lon="4.70958">
        <ele>286.21</ele>
        <time>2011-03-02T09:47:25Z</time>
      </trkpt>
      <trkpt lat="49.67994" lon="4.7095">
        <ele>285.87</ele>
        <time>2011-03-02T09:47:27Z</time>
      </trkpt>
      <trkpt lat="49.6798" lon="4.70944">
        <ele>285.04</ele>
        <time>2011-03-02T09:47:29Z</time>
      </trkpt>
      <trkpt lat="49.67972" lon="4.7094">
        <ele>284.66</ele>
        <time>2011-03-02T09:47:30Z</time>
      </trkpt>
      <trkpt lat="49.67964" lon="4.70936">
        <ele>284.32</ele>
        <time>2011-03-02T09:47:31Z</time>
      </trkpt>
      <trkpt lat="49.67953" lon="4.70929">
        <ele>283.69</ele>
        <time>2011-03-02T09:47:32Z</time>
      </trkpt>
      <trkpt lat="49.67943" lon="4.70928">
        <ele>283.22</ele>
        <time>2011-03-02T09:47:34Z</time>
      </trkpt>
      <trkpt lat="49.67934" lon="4.7093">
        <ele>282.85</ele>
        <time>2011-03-02T09:47:35Z</time>
      </trkpt>
      <trkpt lat="49.67928" lon="4.70932">
        <ele>283.15</ele>
        <time>2011-03-02T09:47:37Z</time>
      </trkpt>
      <trkpt lat="49.67923" lon="4.70937">
        <ele>283.68</ele>
        <time>2011-03-02T09:47:39Z</time>
      </trkpt>
      <trkpt lat="49.67921" lon="4.70942">
        <ele>284.24</ele>
        <time>2011-03-02T09:47:40Z</time>
      </trkpt>
      <trkpt lat="49.67918" lon="4.70944">
        <ele>284.91</ele>
        <time>2011-03-02T09:47:42Z</time>
      </trkpt>
      <trkpt lat="49.67915" lon="4.70946">
        <ele>285.78</ele>
        <time>2011-03-02T09:47:44Z</time>
      </trkpt>
      <trkpt lat="49.67914" lon="4.70947">
        <ele>286.25</ele>
        <time>2011-03-02T09:47:45Z</time>
      </trkpt>
      <trkpt lat="49.6791" lon="4.70949">
        <ele>287.27</ele>
        <time>2011-03-02T09:47:47Z</time>
      </trkpt>
      <trkpt lat="49.6791" lon="4.70949">
        <ele>288.15</ele>
        <time>2011-03-02T09:47:49Z</time>
      </trkpt>
      <trkpt lat="49.67905" lon="4.70959">
        <ele>288.86</ele>
        <time>2011-03-02T09:47:50Z</time>
      </trkpt>
      <trkpt lat="49.67905" lon="4.70959">
        <ele>289.32</ele>
        <time>2011-03-02T09:47:52Z</time>
      </trkpt>
      <trkpt lat="49.67904" lon="4.70958">
        <ele>289.6</ele>
        <time>2011-03-02T09:47:54Z</time>
      </trkpt>
      <trkpt lat="49.67904" lon="4.70957">
        <ele>289.73</ele>
        <time>2011-03-02T09:47:55Z</time>
      </trkpt>
      <trkpt lat="49.67902" lon="4.70955">
        <ele>289.81</ele>
        <time>2011-03-02T09:47:57Z</time>
      </trkpt>
      <trkpt lat="49.67901" lon="4.70954">
        <ele>289.8</ele>
        <time>2011-03-02T09:47:58Z</time>
      </trkpt>
      <trkpt lat="49.67901" lon="4.70954">
        <ele>289.8</ele>
        <time>2011-03-02T09:47:59Z</time>
      </trkpt>
      <trkpt lat="49.67899" lon="4.70954">
        <ele>289.8</ele>
        <time>2011-03-02T09:48:01Z</time>
      </trkpt>
      <trkpt lat="49.67898" lon="4.70953">
        <ele>289.69</ele>
        <time>2011-03-02T09:48:02Z</time>
      </trkpt>
      <trkpt lat="49.67896" lon="4.70953">
        <ele>289.38</ele>
        <time>2011-03-02T09:48:03Z</time>
      </trkpt>
      <trkpt lat="49.67895" lon="4.70953">
        <ele>289.16</ele>
        <time>2011-03-02T09:48:04Z</time>
      </trkpt>
      <trkpt lat="49.67891" lon="4.70952">
        <ele>288.67</ele>
        <time>2011-03-02T09:48:06Z</time>
      </trkpt>
      <trkpt lat="49.67887" lon="4.70952">
        <ele>288.26</ele>
        <time>2011-03-02T09:48:07Z</time>
      </trkpt>
      <trkpt lat="49.67884" lon="4.70951">
        <ele>287.84</ele>
        <time>2011-03-02T09:48:08Z</time>
      </trkpt>
      <trkpt lat="49.67874" lon="4.70951">
        <ele>286.58</ele>
        <time>2011-03-02T09:48:10Z</time>
      </trkpt>
      <trkpt lat="49.67867" lon="4.70952">
        <ele>285.32</ele>
        <time>2011-03-02T09:48:11Z</time>
      </trkpt>
      <trkpt lat="49.67863" lon="4.70952">
        <ele>284.7</ele>
        <time>2011-03-02T09:48:12Z</time>
      </trkpt>
      <trkpt lat="49.67861" lon="4.70952">
        <ele>284.08</ele>
        <time>2011-03-02T09:48:13Z</time>
      </trkpt>
      <trkpt lat="49.67856" lon="4.70953">
        <ele>282.96</ele>
        <time>2011-03-02T09:48:15Z</time>
      </trkpt>
      <trkpt lat="49.67851" lon="4.70955">
        <ele>282.07</ele>
        <time>2011-03-02T09:48:16Z</time>
      </trkpt>
      <trkpt lat="49.67846" lon="4.70957">
        <ele>281.43</ele>
        <time>2011-03-02T09:48:18Z</time>
      </trkpt>
      <trkpt lat="49.67839" lon="4.70957">
        <ele>281.16</ele>
        <time>2011-03-02T09:48:20Z</time>
      </trkpt>
      <trkpt lat="49.67836" lon="4.70957">
        <ele>281.36</ele>
        <time>2011-03-02T09:48:21Z</time>
      </trkpt>
      <trkpt lat="49.67832" lon="4.70956">
        <ele>281.56</ele>
        <time>2011-03-02T09:48:22Z</time>
      </trkpt>
      <trkpt lat="49.67829" lon="4.70954">
        <ele>281.85</ele>
        <time>2011-03-02T09:48:23Z</time>
      </trkpt>
      <trkpt lat="49.67821" lon="4.70951">
        <ele>282.67</ele>
        <time>2011-03-02T09:48:25Z</time>
      </trkpt>
      <trkpt lat="49.67815" lon="4.70948">
        <ele>283.86</ele>
        <time>2011-03-02T09:48:26Z</time>
      </trkpt>
      <trkpt lat="49.6781" lon="4.70947">
        <ele>285.19</ele>
        <time>2011-03-02T09:48:28Z</time>
      </trkpt>
      <trkpt lat="49.67804" lon="4.70948">
        <ele>286.07</ele>
        <time>2011-03-02T09:48:30Z</time>
      </trkpt>
      <trkpt lat="49.67799" lon="4.70951">
        <ele>286.55</ele>
        <time>2011-03-02T09:48:32Z</time>
      </trkpt>
      <trkpt lat="49.67794" lon="4.70954">
        <ele>286.62</ele>
        <time>2011-03-02T09:48:34Z</time>
      </trkpt>
      <trkpt lat="49.67791" lon="4.70956">
        <ele>286.65</ele>
        <time>2011-03-02T09:48:36Z</time>
      </trkpt>
      <trkpt lat="49.67789" lon="4.70957">
        <ele>286.98</ele>
        <time>2011-03-02T09:48:38Z</time>
      </trkpt>
      <trkpt lat="49.67788" lon="4.70959">
        <ele>287.62</ele>
        <time>2011-03-02T09:48:40Z</time>
      </trkpt>
      <trkpt lat="49.67786" lon="4.7096">
        <ele>288.81</ele>
        <time>2011-03-02T09:48:42Z</time>
      </trkpt>
      <trkpt lat="49.67786" lon="4.70961">
        <ele>289.64</ele>
        <time>2011-03-02T09:48:43Z</time>
      </trkpt>
      <trkpt lat="49.67786" lon="4.70962">
        <ele>290.07</ele>
        <time>2011-03-02T09:48:44Z</time>
      </trkpt>
      <trkpt lat="49.67785" lon="4.70962">
        <ele>290.58</ele>
        <time>2011-03-02T09:48:46Z</time>
      </trkpt>
      <trkpt lat="49.67784" lon="4.70962">
        <ele>290.87</ele>
        <time>2011-03-02T09:48:48Z</time>
      </trkpt>
      <trkpt lat="49.67784" lon="4.70962">
        <ele>291.13</ele>
        <time>2011-03-02T09:48:49Z</time>
      </trkpt>
      <trkpt lat="49.67784" lon="4.70962">
        <ele>291.29</ele>
        <time>2011-03-02T09:48:51Z</time>
      </trkpt>
      <trkpt lat="49.67784" lon="4.70962">
        <ele>291.37</ele>
        <time>2011-03-02T09:48:53Z</time>
      </trkpt>
      <trkpt lat="49.67784" lon="4.70963">
        <ele>291.51</ele>
        <time>2011-03-02T09:48:54Z</time>
      </trkpt>
      <trkpt lat="49.67782" lon="4.70965">
        <ele>291.73</ele>
        <time>2011-03-02T09:48:56Z</time>
      </trkpt>
      <trkpt lat="49.6778" lon="4.70968">
        <ele>291.92</ele>
        <time>2011-03-02T09:48:57Z</time>
      </trkpt>
      <trkpt lat="49.67777" lon="4.70971">
        <ele>292.09</ele>
        <time>2011-03-02T09:48:59Z</time>
      </trkpt>
      <trkpt lat="49.67776" lon="4.70972">
        <ele>292.18</ele>
        <time>2011-03-02T09:49:00Z</time>
      </trkpt>
      <trkpt lat="49.67774" lon="4.70972">
        <ele>292.27</ele>
        <time>2011-03-02T09:49:01Z</time>
      </trkpt>
      <trkpt lat="49.67773" lon="4.70973">
        <ele>292.33</ele>
        <time>2011-03-02T09:49:03Z</time>
      </trkpt>
      <trkpt lat="49.67773" lon="4.70974">
        <ele>292.37</ele>
        <time>2011-03-02T09:49:04Z</time>
      </trkpt>
      <trkpt lat="49.67772" lon="4.70975">
        <ele>292.42</ele>
        <time>2011-03-02T09:49:05Z</time>
      </trkpt>
      <trkpt lat="49.67772" lon="4.70976">
        <ele>292.43</ele>
        <time>2011-03-02T09:49:06Z</time>
      </trkpt>
      <trkpt lat="49.67772" lon="4.70976">
        <ele>292.44</ele>
        <time>2011-03-02T09:49:08Z</time>
      </trkpt>
      <trkpt lat="49.67772" lon="4.70976">
        <ele>292.44</ele>
        <time>2011-03-02T09:49:09Z</time>
      </trkpt>
      <trkpt lat="49.67771" lon="4.70975">
        <ele>292.45</ele>
        <time>2011-03-02T09:49:11Z</time>
      </trkpt>
      <trkpt lat="49.67771" lon="4.70975">
        <ele>292.36</ele>
        <time>2011-03-02T09:49:13Z</time>
      </trkpt>
      <trkpt lat="49.67771" lon="4.70975">
        <ele>292.29</ele>
        <time>2011-03-02T09:49:14Z</time>
      </trkpt>
      <trkpt lat="49.67771" lon="4.70975">
        <ele>292.24</ele>
        <time>2011-03-02T09:49:15Z</time>
      </trkpt>
      <trkpt lat="49.67771" lon="4.70975">
        <ele>292.18</ele>
        <time>2011-03-02T09:49:17Z</time>
      </trkpt>
      <trkpt lat="49.67771" lon="4.70975">
        <ele>292.15</ele>
        <time>2011-03-02T09:49:18Z</time>
      </trkpt>
      <trkpt lat="49.6777" lon="4.70975">
        <ele>292.1</ele>
        <time>2011-03-02T09:49:19Z</time>
      </trkpt>
      <trkpt lat="49.6777" lon="4.70975">
        <ele>292.06</ele>
        <time>2011-03-02T09:49:21Z</time>
      </trkpt>
      <trkpt lat="49.6777" lon="4.70975">
        <ele>292.04</ele>
        <time>2011-03-02T09:49:22Z</time>
      </trkpt>
      <trkpt lat="49.6777" lon="4.70974">
        <ele>292</ele>
        <time>2011-03-02T09:49:23Z</time>
      </trkpt>
      <trkpt lat="49.6777" lon="4.70974">
        <ele>292</ele>
        <time>2011-03-02T09:49:24Z</time>
      </trkpt>
      <trkpt lat="49.6777" lon="4.70974">
        <ele>292</ele>
        <time>2011-03-02T09:49:26Z</time>
      </trkpt>
      <trkpt lat="49.67768" lon="4.70976">
        <ele>292.01</ele>
        <time>2011-03-02T09:49:28Z</time>
      </trkpt>
      <trkpt lat="49.67766" lon="4.70978">
        <ele>292.02</ele>
        <time>2011-03-02T09:49:29Z</time>
      </trkpt>
      <trkpt lat="49.67762" lon="4.70982">
        <ele>292.04</ele>
        <time>2011-03-02T09:49:31Z</time>
      </trkpt>
      <trkpt lat="49.6776" lon="4.70984">
        <ele>292.05</ele>
        <time>2011-03-02T09:49:32Z</time>
      </trkpt>
      <trkpt lat="49.67758" lon="4.70988">
        <ele>292.39</ele>
        <time>2011-03-02T09:49:34Z</time>
      </trkpt>
      <trkpt lat="49.67756" lon="4.7099">
        <ele>292.63</ele>
        <time>2011-03-02T09:49:35Z</time>
      </trkpt>
      <trkpt lat="49.67754" lon="4.70994">
        <ele>293.11</ele>
        <time>2011-03-02T09:49:37Z</time>
      </trkpt>
      <trkpt lat="49.67752" lon="4.70995">
        <ele>293.63</ele>
        <time>2011-03-02T09:49:39Z</time>
      </trkpt>
      <trkpt lat="49.67752" lon="4.70994">
        <ele>294.02</ele>
        <time>2011-03-02T09:49:40Z</time>
      </trkpt>
      <trkpt lat="49.6775" lon="4.70994">
        <ele>294.8</ele>
        <time>2011-03-02T09:49:41Z</time>
      </trkpt>
      <trkpt lat="49.67749" lon="4.70994">
        <ele>295.02</ele>
        <time>2011-03-02T09:49:42Z</time>
      </trkpt>
      <trkpt lat="49.67748" lon="4.70995">
        <ele>295.24</ele>
        <time>2011-03-02T09:49:44Z</time>
      </trkpt>
      <trkpt lat="49.67747" lon="4.70997">
        <ele>295.28</ele>
        <time>2011-03-02T09:49:46Z</time>
      </trkpt>
      <trkpt lat="49.67745" lon="4.71">
        <ele>295.26</ele>
        <time>2011-03-02T09:49:48Z</time>
      </trkpt>
      <trkpt lat="49.67742" lon="4.71004">
        <ele>294.41</ele>
        <time>2011-03-02T09:49:50Z</time>
      </trkpt>
      <trkpt lat="49.6774" lon="4.71006">
        <ele>293.88</ele>
        <time>2011-03-02T09:49:51Z</time>
      </trkpt>
      <trkpt lat="49.67739" lon="4.71007">
        <ele>293.68</ele>
        <time>2011-03-02T09:49:52Z</time>
      </trkpt>
      <trkpt lat="49.67738" lon="4.71008">
        <ele>293.64</ele>
        <time>2011-03-02T09:49:54Z</time>
      </trkpt>
      <trkpt lat="49.67736" lon="4.71008">
        <ele>293.6</ele>
        <time>2011-03-02T09:49:56Z</time>
      </trkpt>
      <trkpt lat="49.67736" lon="4.71008">
        <ele>293.55</ele>
        <time>2011-03-02T09:49:57Z</time>
      </trkpt>
      <trkpt lat="49.67736" lon="4.71008">
        <ele>293.84</ele>
        <time>2011-03-02T09:49:59Z</time>
      </trkpt>
      <trkpt lat="49.67736" lon="4.71008">
        <ele>294</ele>
        <time>2011-03-02T09:50:01Z</time>
      </trkpt>
      <trkpt lat="49.67736" lon="4.71008">
        <ele>294.01</ele>
        <time>2011-03-02T09:50:02Z</time>
      </trkpt>
      <trkpt lat="49.67736" lon="4.71008">
        <ele>293.92</ele>
        <time>2011-03-02T09:50:04Z</time>
      </trkpt>
      <trkpt lat="49.67736" lon="4.71008">
        <ele>293.76</ele>
        <time>2011-03-02T09:50:05Z</time>
      </trkpt>
      <trkpt lat="49.67736" lon="4.71008">
        <ele>293.62</ele>
        <time>2011-03-02T09:50:07Z</time>
      </trkpt>
      <trkpt lat="49.67736" lon="4.71008">
        <ele>293.57</ele>
        <time>2011-03-02T09:50:09Z</time>
      </trkpt>
      <trkpt lat="49.67736" lon="4.71008">
        <ele>293.44</ele>
        <time>2011-03-02T09:50:11Z</time>
      </trkpt>
      <trkpt lat="49.67736" lon="4.71008">
        <ele>293.32</ele>
        <time>2011-03-02T09:50:12Z</time>
      </trkpt>
      <trkpt lat="49.67736" lon="4.71008">
        <ele>293.25</ele>
        <time>2011-03-02T09:50:13Z</time>
      </trkpt>
      <trkpt lat="49.67736" lon="4.71008">
        <ele>293.11</ele>
        <time>2011-03-02T09:50:15Z</time>
      </trkpt>
      <trkpt lat="49.67736" lon="4.71008">
        <ele>292.97</ele>
        <time>2011-03-02T09:50:16Z</time>
      </trkpt>
      <trkpt lat="49.67736" lon="4.71008">
        <ele>292.9</ele>
        <time>2011-03-02T09:50:17Z</time>
      </trkpt>
      <trkpt lat="49.67736" lon="4.71008">
        <ele>292.9</ele>
        <time>2011-03-02T09:50:19Z</time>
      </trkpt>
      <trkpt lat="49.67736" lon="4.71008">
        <ele>292.9</ele>
        <time>2011-03-02T09:50:20Z</time>
      </trkpt>
      <trkpt lat="49.67736" lon="4.71008">
        <ele>292.9</ele>
        <time>2011-03-02T09:50:21Z</time>
      </trkpt>
      <trkpt lat="49.67736" lon="4.71008">
        <ele>292.9</ele>
        <time>2011-03-02T09:50:22Z</time>
      </trkpt>
      <trkpt lat="49.67736" lon="4.71008">
        <ele>292.9</ele>
        <time>2011-03-02T09:50:24Z</time>
      </trkpt>
      <trkpt lat="49.67736" lon="4.71008">
        <ele>292.9</ele>
        <time>2011-03-02T09:50:25Z</time>
      </trkpt>
      <trkpt lat="49.67736" lon="4.71008">
        <ele>292.9</ele>
        <time>2011-03-02T09:50:26Z</time>
      </trkpt>
      <trkpt lat="49.67736" lon="4.71008">
        <ele>292.9</ele>
        <time>2011-03-02T09:50:27Z</time>
      </trkpt>
      <trkpt lat="49.67736" lon="4.71008">
        <ele>292.9</ele>
        <time>2011-03-02T09:50:29Z</time>
      </trkpt>
      <trkpt lat="49.67736" lon="4.71008">
        <ele>292.88</ele>
        <time>2011-03-02T09:50:31Z</time>
      </trkpt>
      <trkpt lat="49.67736" lon="4.71008">
        <ele>292.86</ele>
        <time>2011-03-02T09:50:32Z</time>
      </trkpt>
      <trkpt lat="49.67735" lon="4.71009">
        <ele>292.82</ele>
        <time>2011-03-02T09:50:34Z</time>
      </trkpt>
      <trkpt lat="49.67733" lon="4.7101">
        <ele>292.79</ele>
        <time>2011-03-02T09:50:35Z</time>
      </trkpt>
      <trkpt lat="49.67731" lon="4.71012">
        <ele>292.83</ele>
        <time>2011-03-02T09:50:36Z</time>
      </trkpt>
      <trkpt lat="49.67729" lon="4.71013">
        <ele>292.93</ele>
        <time>2011-03-02T09:50:37Z</time>
      </trkpt>
      <trkpt lat="49.67724" lon="4.71015">
        <ele>293.5</ele>
        <time>2011-03-02T09:50:39Z</time>
      </trkpt>
      <trkpt lat="49.6772" lon="4.71016">
        <ele>293.83</ele>
        <time>2011-03-02T09:50:40Z</time>
      </trkpt>
      <trkpt lat="49.67714" lon="4.71018">
        <ele>294.82</ele>
        <time>2011-03-02T09:50:42Z</time>
      </trkpt>
      <trkpt lat="49.67709" lon="4.71017">
        <ele>296.3</ele>
        <time>2011-03-02T09:50:44Z</time>
      </trkpt>
      <trkpt lat="49.67707" lon="4.71016">
        <ele>297.04</ele>
        <time>2011-03-02T09:50:45Z</time>
      </trkpt>
      <trkpt lat="49.67702" lon="4.71015">
        <ele>298.03</ele>
        <time>2011-03-02T09:50:47Z</time>
      </trkpt>
      <trkpt lat="49.67697" lon="4.71015">
        <ele>298.62</ele>
        <time>2011-03-02T09:50:48Z</time>
      </trkpt>
      <trkpt lat="49.67696" lon="4.71016">
        <ele>298.88</ele>
        <time>2011-03-02T09:50:49Z</time>
      </trkpt>
      <trkpt lat="49.67695" lon="4.71018">
        <ele>299.07</ele>
        <time>2011-03-02T09:50:51Z</time>
      </trkpt>
      <trkpt lat="49.67694" lon="4.71019">
        <ele>298.96</ele>
        <time>2011-03-02T09:50:52Z</time>
      </trkpt>
      <trkpt lat="49.67692" lon="4.71022">
        <ele>298.7</ele>
        <time>2011-03-02T09:50:54Z</time>
      </trkpt>
      <trkpt lat="49.6769" lon="4.71025">
        <ele>298.62</ele>
        <time>2011-03-02T09:50:56Z</time>
      </trkpt>
      <trkpt lat="49.67688" lon="4.71028">
        <ele>298.69</ele>
        <time>2011-03-02T09:50:57Z</time>
      </trkpt>
      <trkpt lat="49.67686" lon="4.71031">
        <ele>299.2</ele>
        <time>2011-03-02T09:50:59Z</time>
      </trkpt>
      <trkpt lat="49.67682" lon="4.71035">
        <ele>299.75</ele>
        <time>2011-03-02T09:51:01Z</time>
      </trkpt>
      <trkpt lat="49.6768" lon="4.71038">
        <ele>300.23</ele>
        <time>2011-03-02T09:51:03Z</time>
      </trkpt>
      <trkpt lat="49.6768" lon="4.7104">
        <ele>300.76</ele>
        <time>2011-03-02T09:51:04Z</time>
      </trkpt>
      <trkpt lat="49.67678" lon="4.71041">
        <ele>301.16</ele>
        <time>2011-03-02T09:51:06Z</time>
      </trkpt>
      <trkpt lat="49.67677" lon="4.71041">
        <ele>301.11</ele>
        <time>2011-03-02T09:51:07Z</time>
      </trkpt>
      <trkpt lat="49.67676" lon="4.71042">
        <ele>300.97</ele>
        <time>2011-03-02T09:51:08Z</time>
      </trkpt>
      <trkpt lat="49.67671" lon="4.71043">
        <ele>300.64</ele>
        <time>2011-03-02T09:51:10Z</time>
      </trkpt>
      <trkpt lat="49.67668" lon="4.71046">
        <ele>300.22</ele>
        <time>2011-03-02T09:51:12Z</time>
      </trkpt>
      <trkpt lat="49.67666" lon="4.71048">
        <ele>300</ele>
        <time>2011-03-02T09:51:13Z</time>
      </trkpt>
      <trkpt lat="49.67664" lon="4.7105">
        <ele>299.97</ele>
        <time>2011-03-02T09:51:15Z</time>
      </trkpt>
      <trkpt lat="49.67661" lon="4.71051">
        <ele>300.18</ele>
        <time>2011-03-02T09:51:16Z</time>
      </trkpt>
      <trkpt lat="49.67658" lon="4.71052">
        <ele>300.33</ele>
        <time>2011-03-02T09:51:17Z</time>
      </trkpt>
      <trkpt lat="49.67653" lon="4.7105">
        <ele>300.73</ele>
        <time>2011-03-02T09:51:19Z</time>
      </trkpt>
      <trkpt lat="49.67648" lon="4.7105">
        <ele>301.11</ele>
        <time>2011-03-02T09:51:21Z</time>
      </trkpt>
      <trkpt lat="49.67644" lon="4.7105">
        <ele>301.43</ele>
        <time>2011-03-02T09:51:23Z</time>
      </trkpt>
      <trkpt lat="49.67639" lon="4.7105">
        <ele>301.56</ele>
        <time>2011-03-02T09:51:25Z</time>
      </trkpt>
      <trkpt lat="49.67636" lon="4.7105">
        <ele>301.61</ele>
        <time>2011-03-02T09:51:26Z</time>
      </trkpt>
      <trkpt lat="49.67632" lon="4.71051">
        <ele>301.69</ele>
        <time>2011-03-02T09:51:28Z</time>
      </trkpt>
      <trkpt lat="49.67628" lon="4.71053">
        <ele>301.81</ele>
        <time>2011-03-02T09:51:30Z</time>
      </trkpt>
      <trkpt lat="49.67623" lon="4.71053">
        <ele>302.02</ele>
        <time>2011-03-02T09:51:32Z</time>
      </trkpt>
      <trkpt lat="49.67621" lon="4.71051">
        <ele>302.07</ele>
        <time>2011-03-02T09:51:33Z</time>
      </trkpt>
      <trkpt lat="49.6762" lon="4.7105">
        <ele>301.93</ele>
        <time>2011-03-02T09:51:35Z</time>
      </trkpt>
      <trkpt lat="49.6762" lon="4.71051">
        <ele>301.7</ele>
        <time>2011-03-02T09:51:36Z</time>
      </trkpt>
      <trkpt lat="49.67619" lon="4.71053">
        <ele>301.16</ele>
        <time>2011-03-02T09:51:38Z</time>
      </trkpt>
      <trkpt lat="49.67618" lon="4.71055">
        <ele>300.51</ele>
        <time>2011-03-02T09:51:40Z</time>
      </trkpt>
      <trkpt lat="49.67616" lon="4.71056">
        <ele>299.78</ele>
        <time>2011-03-02T09:51:42Z</time>
      </trkpt>
      <trkpt lat="49.67615" lon="4.71056">
        <ele>299.54</ele>
        <time>2011-03-02T09:51:43Z</time>
      </trkpt>
      <trkpt lat="49.67615" lon="4.71055">
        <ele>299.32</ele>
        <time>2011-03-02T09:51:44Z</time>
      </trkpt>
      <trkpt lat="49.67614" lon="4.71054">
        <ele>299.13</ele>
        <time>2011-03-02T09:51:46Z</time>
      </trkpt>
      <trkpt lat="49.67614" lon="4.71054">
        <ele>299.26</ele>
        <time>2011-03-02T09:51:47Z</time>
      </trkpt>
      <trkpt lat="49.67614" lon="4.71054">
        <ele>299.52</ele>
        <time>2011-03-02T09:51:49Z</time>
      </trkpt>
      <trkpt lat="49.67613" lon="4.71053">
        <ele>299.72</ele>
        <time>2011-03-02T09:51:50Z</time>
      </trkpt>
      <trkpt lat="49.67613" lon="4.71051">
        <ele>300.1</ele>
        <time>2011-03-02T09:51:51Z</time>
      </trkpt>
      <trkpt lat="49.67613" lon="4.7105">
        <ele>300.32</ele>
        <time>2011-03-02T09:51:53Z</time>
      </trkpt>
      <trkpt lat="49.67613" lon="4.7105">
        <ele>300.54</ele>
        <time>2011-03-02T09:51:55Z</time>
      </trkpt>
      <trkpt lat="49.67613" lon="4.7105">
        <ele>300.48</ele>
        <time>2011-03-02T09:51:57Z</time>
      </trkpt>
      <trkpt lat="49.67613" lon="4.7105">
        <ele>300.5</ele>
        <time>2011-03-02T09:51:59Z</time>
      </trkpt>
      <trkpt lat="49.67613" lon="4.7105">
        <ele>300.53</ele>
        <time>2011-03-02T09:52:01Z</time>
      </trkpt>
      <trkpt lat="49.67613" lon="4.7105">
        <ele>300.59</ele>
        <time>2011-03-02T09:52:03Z</time>
      </trkpt>
      <trkpt lat="49.67613" lon="4.7105">
        <ele>300.6</ele>
        <time>2011-03-02T09:52:05Z</time>
      </trkpt>
      <trkpt lat="49.67613" lon="4.7105">
        <ele>300.6</ele>
        <time>2011-03-02T09:52:07Z</time>
      </trkpt>
      <trkpt lat="49.67613" lon="4.7105">
        <ele>300.6</ele>
        <time>2011-03-02T09:52:08Z</time>
      </trkpt>
      <trkpt lat="49.67613" lon="4.71051">
        <ele>300.6</ele>
        <time>2011-03-02T09:52:10Z</time>
      </trkpt>
      <trkpt lat="49.67613" lon="4.71051">
        <ele>300.6</ele>
        <time>2011-03-02T09:52:12Z</time>
      </trkpt>
      <trkpt lat="49.67613" lon="4.71051">
        <ele>300.6</ele>
        <time>2011-03-02T09:52:13Z</time>
      </trkpt>
      <trkpt lat="49.67613" lon="4.71051">
        <ele>300.6</ele>
        <time>2011-03-02T09:52:14Z</time>
      </trkpt>
      <trkpt lat="49.67613" lon="4.71051">
        <ele>300.6</ele>
        <time>2011-03-02T09:52:16Z</time>
      </trkpt>
      <trkpt lat="49.67613" lon="4.71051">
        <ele>300.6</ele>
        <time>2011-03-02T09:52:17Z</time>
      </trkpt>
      <trkpt lat="49.67613" lon="4.71051">
        <ele>300.6</ele>
        <time>2011-03-02T09:52:18Z</time>
      </trkpt>
      <trkpt lat="49.67613" lon="4.71051">
        <ele>300.6</ele>
        <time>2011-03-02T09:52:19Z</time>
      </trkpt>
      <trkpt lat="49.67613" lon="4.71051">
        <ele>300.59</ele>
        <time>2011-03-02T09:52:20Z</time>
      </trkpt>
      <trkpt lat="49.67613" lon="4.71051">
        <ele>300.57</ele>
        <time>2011-03-02T09:52:22Z</time>
      </trkpt>
      <trkpt lat="49.67613" lon="4.71051">
        <ele>300.56</ele>
        <time>2011-03-02T09:52:23Z</time>
      </trkpt>
      <trkpt lat="49.67613" lon="4.71051">
        <ele>300.54</ele>
        <time>2011-03-02T09:52:24Z</time>
      </trkpt>
      <trkpt lat="49.67613" lon="4.71051">
        <ele>300.53</ele>
        <time>2011-03-02T09:52:25Z</time>
      </trkpt>
      <trkpt lat="49.67613" lon="4.71051">
        <ele>300.53</ele>
        <time>2011-03-02T09:52:27Z</time>
      </trkpt>
      <trkpt lat="49.67613" lon="4.71051">
        <ele>300.53</ele>
        <time>2011-03-02T09:52:28Z</time>
      </trkpt>
      <trkpt lat="49.67613" lon="4.71051">
        <ele>300.54</ele>
        <time>2011-03-02T09:52:29Z</time>
      </trkpt>
      <trkpt lat="49.67613" lon="4.71051">
        <ele>300.56</ele>
        <time>2011-03-02T09:52:30Z</time>
      </trkpt>
      <trkpt lat="49.67613" lon="4.71051">
        <ele>300.58</ele>
        <time>2011-03-02T09:52:32Z</time>
      </trkpt>
      <trkpt lat="49.67613" lon="4.71051">
        <ele>300.6</ele>
        <time>2011-03-02T09:52:33Z</time>
      </trkpt>
      <trkpt lat="49.67613" lon="4.7105">
        <ele>300.6</ele>
        <time>2011-03-02T09:52:35Z</time>
      </trkpt>
      <trkpt lat="49.67613" lon="4.7105">
        <ele>300.6</ele>
        <time>2011-03-02T09:52:36Z</time>
      </trkpt>
      <trkpt lat="49.67613" lon="4.7105">
        <ele>300.6</ele>
        <time>2011-03-02T09:52:37Z</time>
      </trkpt>
      <trkpt lat="49.67613" lon="4.7105">
        <ele>300.62</ele>
        <time>2011-03-02T09:52:39Z</time>
      </trkpt>
      <trkpt lat="49.67613" lon="4.7105">
        <ele>300.64</ele>
        <time>2011-03-02T09:52:41Z</time>
      </trkpt>
      <trkpt lat="49.67613" lon="4.7105">
        <ele>300.66</ele>
        <time>2011-03-02T09:52:42Z</time>
      </trkpt>
      <trkpt lat="49.67613" lon="4.7105">
        <ele>300.68</ele>
        <time>2011-03-02T09:52:44Z</time>
      </trkpt>
      <trkpt lat="49.67613" lon="4.7105">
        <ele>300.7</ele>
        <time>2011-03-02T09:52:45Z</time>
      </trkpt>
      <trkpt lat="49.67614" lon="4.7105">
        <ele>300.59</ele>
        <time>2011-03-02T09:52:47Z</time>
      </trkpt>
      <trkpt lat="49.67615" lon="4.7105">
        <ele>300.43</ele>
        <time>2011-03-02T09:52:48Z</time>
      </trkpt>
      <trkpt lat="49.67616" lon="4.7105">
        <ele>300.4</ele>
        <time>2011-03-02T09:52:49Z</time>
      </trkpt>
      <trkpt lat="49.67617" lon="4.7105">
        <ele>300.37</ele>
        <time>2011-03-02T09:52:50Z</time>
      </trkpt>
      <trkpt lat="49.67617" lon="4.7105">
        <ele>300.15</ele>
        <time>2011-03-02T09:52:52Z</time>
      </trkpt>
      <trkpt lat="49.67617" lon="4.7105">
        <ele>300.02</ele>
        <time>2011-03-02T09:52:54Z</time>
      </trkpt>
      <trkpt lat="49.67618" lon="4.7105">
        <ele>299.74</ele>
        <time>2011-03-02T09:52:55Z</time>
      </trkpt>
      <trkpt lat="49.67618" lon="4.7105">
        <ele>299.71</ele>
        <time>2011-03-02T09:52:56Z</time>
      </trkpt>
      <trkpt lat="49.67619" lon="4.71051">
        <ele>299.69</ele>
        <time>2011-03-02T09:52:57Z</time>
      </trkpt>
      <trkpt lat="49.67619" lon="4.71052">
        <ele>299.63</ele>
        <time>2011-03-02T09:52:59Z</time>
      </trkpt>
      <trkpt lat="49.67619" lon="4.71052">
        <ele>299.61</ele>
        <time>2011-03-02T09:53:00Z</time>
      </trkpt>
      <trkpt lat="49.67619" lon="4.71053">
        <ele>299.65</ele>
        <time>2011-03-02T09:53:02Z</time>
      </trkpt>
      <trkpt lat="49.67619" lon="4.71053">
        <ele>299.61</ele>
        <time>2011-03-02T09:53:03Z</time>
      </trkpt>
      <trkpt lat="49.67617" lon="4.71053">
        <ele>299.397</ele>
        <time>2011-03-02T09:53:05Z</time>
      </trkpt>
      <trkpt lat="49.67614" lon="4.71054">
        <ele>299.171</ele>
        <time>2011-03-02T09:53:07Z</time>
      </trkpt>
      <trkpt lat="49.67612" lon="4.71054">
        <ele>298.889</ele>
        <time>2011-03-02T09:53:08Z</time>
      </trkpt>
      <trkpt lat="49.67611" lon="4.71055">
        <ele>298.802</ele>
        <time>2011-03-02T09:53:09Z</time>
      </trkpt>
      <trkpt lat="49.67609" lon="4.71056">
        <ele>298.704</ele>
        <time>2011-03-02T09:53:11Z</time>
      </trkpt>
      <trkpt lat="49.67608" lon="4.71057">
        <ele>298.873</ele>
        <time>2011-03-02T09:53:13Z</time>
      </trkpt>
      <trkpt lat="49.67606" lon="4.71058">
        <ele>299.069</ele>
        <time>2011-03-02T09:53:14Z</time>
      </trkpt>
      <trkpt lat="49.67605" lon="4.7106">
        <ele>299.09</ele>
        <time>2011-03-02T09:53:16Z</time>
      </trkpt>
      <trkpt lat="49.67603" lon="4.71063">
        <ele>299.08</ele>
        <time>2011-03-02T09:53:17Z</time>
      </trkpt>
      <trkpt lat="49.67601" lon="4.71063">
        <ele>299.058</ele>
        <time>2011-03-02T09:53:19Z</time>
      </trkpt>
      <trkpt lat="49.67598" lon="4.71062">
        <ele>299.071</ele>
        <time>2011-03-02T09:53:20Z</time>
      </trkpt>
      <trkpt lat="49.67592" lon="4.71059">
        <ele>299.165</ele>
        <time>2011-03-02T09:53:22Z</time>
      </trkpt>
      <trkpt lat="49.67587" lon="4.71056">
        <ele>299.335</ele>
        <time>2011-03-02T09:53:23Z</time>
      </trkpt>
      <trkpt lat="49.67585" lon="4.71055">
        <ele>299.435</ele>
        <time>2011-03-02T09:53:24Z</time>
      </trkpt>
      <trkpt lat="49.67581" lon="4.71054">
        <ele>299.63</ele>
        <time>2011-03-02T09:53:26Z</time>
      </trkpt>
      <trkpt lat="49.67575" lon="4.71052">
        <ele>299.755</ele>
        <time>2011-03-02T09:53:28Z</time>
      </trkpt>
      <trkpt lat="49.67571" lon="4.71051">
        <ele>299.755</ele>
        <time>2011-03-02T09:53:29Z</time>
      </trkpt>
      <trkpt lat="49.67568" lon="4.7105">
        <ele>299.698</ele>
        <time>2011-03-02T09:53:30Z</time>
      </trkpt>
      <trkpt lat="49.67561" lon="4.71046">
        <ele>299.35</ele>
        <time>2011-03-02T09:53:32Z</time>
      </trkpt>
      <trkpt lat="49.67554" lon="4.71043">
        <ele>299.041</ele>
        <time>2011-03-02T09:53:34Z</time>
      </trkpt>
      <trkpt lat="49.67551" lon="4.71043">
        <ele>298.893</ele>
        <time>2011-03-02T09:53:35Z</time>
      </trkpt>
      <trkpt lat="49.67543" lon="4.71044">
        <ele>298.321</ele>
        <time>2011-03-02T09:53:37Z</time>
      </trkpt>
      <trkpt lat="49.67529" lon="4.71042">
        <ele>297.188</ele>
        <time>2011-03-02T09:53:39Z</time>
      </trkpt>
      <trkpt lat="49.67524" lon="4.71042">
        <ele>296.735</ele>
        <time>2011-03-02T09:53:40Z</time>
      </trkpt>
      <trkpt lat="49.67512" lon="4.7104">
        <ele>294.751</ele>
        <time>2011-03-02T09:53:42Z</time>
      </trkpt>
      <trkpt lat="49.67502" lon="4.71037">
        <ele>293.292</ele>
        <time>2011-03-02T09:53:44Z</time>
      </trkpt>
      <trkpt lat="49.67491" lon="4.71032">
        <ele>291.88</ele>
        <time>2011-03-02T09:53:46Z</time>
      </trkpt>
      <trkpt lat="49.67475" lon="4.71028">
        <ele>290.772</ele>
        <time>2011-03-02T09:53:48Z</time>
      </trkpt>
      <trkpt lat="49.6747" lon="4.71026">
        <ele>290.211</ele>
        <time>2011-03-02T09:53:49Z</time>
      </trkpt>
      <trkpt lat="49.67462" lon="4.71024">
        <ele>289.176</ele>
        <time>2011-03-02T09:53:50Z</time>
      </trkpt>
      <trkpt lat="49.67453" lon="4.71018">
        <ele>288.31</ele>
        <time>2011-03-02T09:53:52Z</time>
      </trkpt>
      <trkpt lat="49.6744" lon="4.71012">
        <ele>287.85</ele>
        <time>2011-03-02T09:53:54Z</time>
      </trkpt>
      <trkpt lat="49.67428" lon="4.71006">
        <ele>287.61</ele>
        <time>2011-03-02T09:53:55Z</time>
      </trkpt>
      <trkpt lat="49.67416" lon="4.70999">
        <ele>287.31</ele>
        <time>2011-03-02T09:53:57Z</time>
      </trkpt>
      <trkpt lat="49.67402" lon="4.7099">
        <ele>286.93</ele>
        <time>2011-03-02T09:53:59Z</time>
      </trkpt>
      <trkpt lat="49.67387" lon="4.7098">
        <ele>286.57</ele>
        <time>2011-03-02T09:54:01Z</time>
      </trkpt>
      <trkpt lat="49.67372" lon="4.70969">
        <ele>286.25</ele>
        <time>2011-03-02T09:54:03Z</time>
      </trkpt>
      <trkpt lat="49.67357" lon="4.70963">
        <ele>285.54</ele>
        <time>2011-03-02T09:54:05Z</time>
      </trkpt>
      <trkpt lat="49.67339" lon="4.7096">
        <ele>283.93</ele>
        <time>2011-03-02T09:54:07Z</time>
      </trkpt>
      <trkpt lat="49.67333" lon="4.70961">
        <ele>283.33</ele>
        <time>2011-03-02T09:54:08Z</time>
      </trkpt>
      <trkpt lat="49.67322" lon="4.70961">
        <ele>282.14</ele>
        <time>2011-03-02T09:54:09Z</time>
      </trkpt>
      <trkpt lat="49.67317" lon="4.70962">
        <ele>281.48</ele>
        <time>2011-03-02T09:54:10Z</time>
      </trkpt>
      <trkpt lat="49.67305" lon="4.70963">
        <ele>280.13</ele>
        <time>2011-03-02T09:54:12Z</time>
      </trkpt>
      <trkpt lat="49.67298" lon="4.70963">
        <ele>279.75</ele>
        <time>2011-03-02T09:54:13Z</time>
      </trkpt>
      <trkpt lat="49.67286" lon="4.70963">
        <ele>278.93</ele>
        <time>2011-03-02T09:54:15Z</time>
      </trkpt>
      <trkpt lat="49.6728" lon="4.70962">
        <ele>278.62</ele>
        <time>2011-03-02T09:54:16Z</time>
      </trkpt>
      <trkpt lat="49.67267" lon="4.7096">
        <ele>277.75</ele>
        <time>2011-03-02T09:54:18Z</time>
      </trkpt>
      <trkpt lat="49.67261" lon="4.7096">
        <ele>277.18</ele>
        <time>2011-03-02T09:54:19Z</time>
      </trkpt>
      <trkpt lat="49.67253" lon="4.70959">
        <ele>276.54</ele>
        <time>2011-03-02T09:54:20Z</time>
      </trkpt>
      <trkpt lat="49.67239" lon="4.70958">
        <ele>275.27</ele>
        <time>2011-03-02T09:54:22Z</time>
      </trkpt>
      <trkpt lat="49.67226" lon="4.70957">
        <ele>274.02</ele>
        <time>2011-03-02T09:54:24Z</time>
      </trkpt>
      <trkpt lat="49.67213" lon="4.70954">
        <ele>272.9</ele>
        <time>2011-03-02T09:54:26Z</time>
      </trkpt>
      <trkpt lat="49.67199" lon="4.70949">
        <ele>271.99</ele>
        <time>2011-03-02T09:54:28Z</time>
      </trkpt>
      <trkpt lat="49.67193" lon="4.70947">
        <ele>271.7</ele>
        <time>2011-03-02T09:54:29Z</time>
      </trkpt>
      <trkpt lat="49.67186" lon="4.70944">
        <ele>271.52</ele>
        <time>2011-03-02T09:54:30Z</time>
      </trkpt>
      <trkpt lat="49.67174" lon="4.70942">
        <ele>271</ele>
        <time>2011-03-02T09:54:32Z</time>
      </trkpt>
      <trkpt lat="49.67165" lon="4.70943">
        <ele>270.44</ele>
        <time>2011-03-02T09:54:33Z</time>
      </trkpt>
      <trkpt lat="49.67157" lon="4.70945">
        <ele>269.91</ele>
        <time>2011-03-02T09:54:35Z</time>
      </trkpt>
      <trkpt lat="49.67147" lon="4.70946">
        <ele>269.15</ele>
        <time>2011-03-02T09:54:37Z</time>
      </trkpt>
      <trkpt lat="49.67136" lon="4.70947">
        <ele>268.18</ele>
        <time>2011-03-02T09:54:39Z</time>
      </trkpt>
      <trkpt lat="49.6713" lon="4.70948">
        <ele>268.018</ele>
        <time>2011-03-02T09:54:40Z</time>
      </trkpt>
      <trkpt lat="49.67125" lon="4.70951">
        <ele>268.069</ele>
        <time>2011-03-02T09:54:41Z</time>
      </trkpt>
      <trkpt lat="49.67116" lon="4.70959">
        <ele>268.157</ele>
        <time>2011-03-02T09:54:43Z</time>
      </trkpt>
      <trkpt lat="49.67107" lon="4.70969">
        <ele>268.1</ele>
        <time>2011-03-02T09:54:45Z</time>
      </trkpt>
      <trkpt lat="49.67095" lon="4.70976">
        <ele>267.729</ele>
        <time>2011-03-02T09:54:47Z</time>
      </trkpt>
      <trkpt lat="49.67089" lon="4.70981">
        <ele>265.72</ele>
        <time>2011-03-02T09:54:49Z</time>
      </trkpt>
      <trkpt lat="49.67082" lon="4.70991">
        <ele>262.57</ele>
        <time>2011-03-02T09:54:51Z</time>
      </trkpt>
      <trkpt lat="49.67079" lon="4.70994">
        <ele>260.95</ele>
        <time>2011-03-02T09:54:52Z</time>
      </trkpt>
      <trkpt lat="49.67076" lon="4.70999">
        <ele>258.378</ele>
        <time>2011-03-02T09:54:53Z</time>
      </trkpt>
      <trkpt lat="49.67072" lon="4.70999">
        <ele>255.25</ele>
        <time>2011-03-02T09:54:55Z</time>
      </trkpt>
      <trkpt lat="49.67069" lon="4.70999">
        <ele>253.534</ele>
        <time>2011-03-02T09:54:57Z</time>
      </trkpt>
      <trkpt lat="49.67069" lon="4.70999">
        <ele>253.27</ele>
        <time>2011-03-02T09:54:58Z</time>
      </trkpt>
      <trkpt lat="49.6707" lon="4.70999">
        <ele>253.348</ele>
        <time>2011-03-02T09:55:00Z</time>
      </trkpt>
      <trkpt lat="49.6707" lon="4.70999">
        <ele>253.087</ele>
        <time>2011-03-02T09:55:01Z</time>
      </trkpt>
      <trkpt lat="49.67071" lon="4.71">
        <ele>252.8</ele>
        <time>2011-03-02T09:55:02Z</time>
      </trkpt>
      <trkpt lat="49.67073" lon="4.71002">
        <ele>252.086</ele>
        <time>2011-03-02T09:55:04Z</time>
      </trkpt>
      <trkpt lat="49.67076" lon="4.71005">
        <ele>250.948</ele>
        <time>2011-03-02T09:55:06Z</time>
      </trkpt>
      <trkpt lat="49.67077" lon="4.71007">
        <ele>250.029</ele>
        <time>2011-03-02T09:55:07Z</time>
      </trkpt>
      <trkpt lat="49.67077" lon="4.71008">
        <ele>248.87</ele>
        <time>2011-03-02T09:55:08Z</time>
      </trkpt>
      <trkpt lat="49.67077" lon="4.71009">
        <ele>246.13</ele>
        <time>2011-03-02T09:55:10Z</time>
      </trkpt>
      <trkpt lat="49.67079" lon="4.71009">
        <ele>243.52</ele>
        <time>2011-03-02T09:55:12Z</time>
      </trkpt>
      <trkpt lat="49.67081" lon="4.71009">
        <ele>240.82</ele>
        <time>2011-03-02T09:55:14Z</time>
      </trkpt>
      <trkpt lat="49.67082" lon="4.71011">
        <ele>239.46</ele>
        <time>2011-03-02T09:55:15Z</time>
      </trkpt>
      <trkpt lat="49.67083" lon="4.71015">
        <ele>237.06</ele>
        <time>2011-03-02T09:55:17Z</time>
      </trkpt>
      <trkpt lat="49.67084" lon="4.71018">
        <ele>236.13</ele>
        <time>2011-03-02T09:55:18Z</time>
      </trkpt>
      <trkpt lat="49.67084" lon="4.71021">
        <ele>234.75</ele>
        <time>2011-03-02T09:55:20Z</time>
      </trkpt>
      <trkpt lat="49.67084" lon="4.71022">
        <ele>234.29</ele>
        <time>2011-03-02T09:55:21Z</time>
      </trkpt>
      <trkpt lat="49.67085" lon="4.71022">
        <ele>233.47</ele>
        <time>2011-03-02T09:55:23Z</time>
      </trkpt>
      <trkpt lat="49.67086" lon="4.71021">
        <ele>233.34</ele>
        <time>2011-03-02T09:55:24Z</time>
      </trkpt>
      <trkpt lat="49.67086" lon="4.7102">
        <ele>233.34</ele>
        <time>2011-03-02T09:55:25Z</time>
      </trkpt>
      <trkpt lat="49.67086" lon="4.71019">
        <ele>233.35</ele>
        <time>2011-03-02T09:55:27Z</time>
      </trkpt>
      <trkpt lat="49.67085" lon="4.71018">
        <ele>233.4</ele>
        <time>2011-03-02T09:55:29Z</time>
      </trkpt>
      <trkpt lat="49.67085" lon="4.71017">
        <ele>233.49</ele>
        <time>2011-03-02T09:55:31Z</time>
      </trkpt>
      <trkpt lat="49.67085" lon="4.71016">
        <ele>233.5</ele>
        <time>2011-03-02T09:55:32Z</time>
      </trkpt>
      <trkpt lat="49.67085" lon="4.71016">
        <ele>233.52</ele>
        <time>2011-03-02T09:55:33Z</time>
      </trkpt>
      <trkpt lat="49.67086" lon="4.71015">
        <ele>233.56</ele>
        <time>2011-03-02T09:55:34Z</time>
      </trkpt>
      <trkpt lat="49.67085" lon="4.71014">
        <ele>233.59</ele>
        <time>2011-03-02T09:55:36Z</time>
      </trkpt>
      <trkpt lat="49.67082" lon="4.71012">
        <ele>233.764</ele>
        <time>2011-03-02T09:55:38Z</time>
      </trkpt>
      <trkpt lat="49.6708" lon="4.71012">
        <ele>233.931</ele>
        <time>2011-03-02T09:55:39Z</time>
      </trkpt>
      <trkpt lat="49.67076" lon="4.71012">
        <ele>234.47</ele>
        <time>2011-03-02T09:55:41Z</time>
      </trkpt>
      <trkpt lat="49.67072" lon="4.71012">
        <ele>234.68</ele>
        <time>2011-03-02T09:55:43Z</time>
      </trkpt>
      <trkpt lat="49.67063" lon="4.71011">
        <ele>235.327</ele>
        <time>2011-03-02T09:55:45Z</time>
      </trkpt>
      <trkpt lat="49.67055" lon="4.7101">
        <ele>236.329</ele>
        <time>2011-03-02T09:55:47Z</time>
      </trkpt>
      <trkpt lat="49.67054" lon="4.71012">
        <ele>236.629</ele>
        <time>2011-03-02T09:55:48Z</time>
      </trkpt>
      <trkpt lat="49.67053" lon="4.71013">
        <ele>236.8</ele>
        <time>2011-03-02T09:55:49Z</time>
      </trkpt>
      <trkpt lat="49.67051" lon="4.71015">
        <ele>236.843</ele>
        <time>2011-03-02T09:55:50Z</time>
      </trkpt>
      <trkpt lat="49.67047" lon="4.71019">
        <ele>236.825</ele>
        <time>2011-03-02T09:55:52Z</time>
      </trkpt>
      <trkpt lat="49.67044" lon="4.7102">
        <ele>236.867</ele>
        <time>2011-03-02T09:55:53Z</time>
      </trkpt>
      <trkpt lat="49.67042" lon="4.71019">
        <ele>236.94</ele>
        <time>2011-03-02T09:55:54Z</time>
      </trkpt>
      <trkpt lat="49.67038" lon="4.71019">
        <ele>236.97</ele>
        <time>2011-03-02T09:55:55Z</time>
      </trkpt>
      <trkpt lat="49.67036" lon="4.71018">
        <ele>236.85</ele>
        <time>2011-03-02T09:55:56Z</time>
      </trkpt>
      <trkpt lat="49.67033" lon="4.71018">
        <ele>236.43</ele>
        <time>2011-03-02T09:55:58Z</time>
      </trkpt>
      <trkpt lat="49.67031" lon="4.71018">
        <ele>236.15</ele>
        <time>2011-03-02T09:55:59Z</time>
      </trkpt>
      <trkpt lat="49.67029" lon="4.71018">
        <ele>235.86</ele>
        <time>2011-03-02T09:56:00Z</time>
      </trkpt>
      <trkpt lat="49.67028" lon="4.71017">
        <ele>235.16</ele>
        <time>2011-03-02T09:56:01Z</time>
      </trkpt>
      <trkpt lat="49.67024" lon="4.71016">
        <ele>233.16</ele>
        <time>2011-03-02T09:56:03Z</time>
      </trkpt>
      <trkpt lat="49.67023" lon="4.71017">
        <ele>232.01</ele>
        <time>2011-03-02T09:56:04Z</time>
      </trkpt>
      <trkpt lat="49.67022" lon="4.71017">
        <ele>230.89</ele>
        <time>2011-03-02T09:56:05Z</time>
      </trkpt>
      <trkpt lat="49.67019" lon="4.71018">
        <ele>228.82</ele>
        <time>2011-03-02T09:56:07Z</time>
      </trkpt>
      <trkpt lat="49.67016" lon="4.71018">
        <ele>226.71</ele>
        <time>2011-03-02T09:56:10Z</time>
      </trkpt>
      <trkpt lat="49.67013" lon="4.71018">
        <ele>224.97</ele>
        <time>2011-03-02T09:56:11Z</time>
      </trkpt>
      <trkpt lat="49.6701" lon="4.7102">
        <ele>224.06</ele>
        <time>2011-03-02T09:56:13Z</time>
      </trkpt>
      <trkpt lat="49.67007" lon="4.71021">
        <ele>223.32</ele>
        <time>2011-03-02T09:56:15Z</time>
      </trkpt>
      <trkpt lat="49.67006" lon="4.71021">
        <ele>222.95</ele>
        <time>2011-03-02T09:56:16Z</time>
      </trkpt>
      <trkpt lat="49.67004" lon="4.71019">
        <ele>222.48</ele>
        <time>2011-03-02T09:56:17Z</time>
      </trkpt>
      <trkpt lat="49.66999" lon="4.71015">
        <ele>221.66</ele>
        <time>2011-03-02T09:56:19Z</time>
      </trkpt>
      <trkpt lat="49.66996" lon="4.71013">
        <ele>221.18</ele>
        <time>2011-03-02T09:56:20Z</time>
      </trkpt>
      <trkpt lat="49.6699" lon="4.7101">
        <ele>220.1</ele>
        <time>2011-03-02T09:56:22Z</time>
      </trkpt>
      <trkpt lat="49.66987" lon="4.71009">
        <ele>219.66</ele>
        <time>2011-03-02T09:56:23Z</time>
      </trkpt>
      <trkpt lat="49.6698" lon="4.71009">
        <ele>218.98</ele>
        <time>2011-03-02T09:56:25Z</time>
      </trkpt>
      <trkpt lat="49.66976" lon="4.71009">
        <ele>218.72</ele>
        <time>2011-03-02T09:56:26Z</time>
      </trkpt>
      <trkpt lat="49.66967" lon="4.7101">
        <ele>218.93</ele>
        <time>2011-03-02T09:56:28Z</time>
      </trkpt>
      <trkpt lat="49.66962" lon="4.71011">
        <ele>219.2</ele>
        <time>2011-03-02T09:56:29Z</time>
      </trkpt>
      <trkpt lat="49.66953" lon="4.71013">
        <ele>220.09</ele>
        <time>2011-03-02T09:56:31Z</time>
      </trkpt>
      <trkpt lat="49.66949" lon="4.71014">
        <ele>220.59</ele>
        <time>2011-03-02T09:56:32Z</time>
      </trkpt>
      <trkpt lat="49.66941" lon="4.71016">
        <ele>221.34</ele>
        <time>2011-03-02T09:56:34Z</time>
      </trkpt>
      <trkpt lat="49.66932" lon="4.71017">
        <ele>221.84</ele>
        <time>2011-03-02T09:56:36Z</time>
      </trkpt>
      <trkpt lat="49.66924" lon="4.71018">
        <ele>221.75</ele>
        <time>2011-03-02T09:56:38Z</time>
      </trkpt>
      <trkpt lat="49.6692" lon="4.71018">
        <ele>221.69</ele>
        <time>2011-03-02T09:56:39Z</time>
      </trkpt>
      <trkpt lat="49.66912" lon="4.71018">
        <ele>221.45</ele>
        <time>2011-03-02T09:56:41Z</time>
      </trkpt>
      <trkpt lat="49.66907" lon="4.71019">
        <ele>220.56</ele>
        <time>2011-03-02T09:56:43Z</time>
      </trkpt>
      <trkpt lat="49.66901" lon="4.7102">
        <ele>219.46</ele>
        <time>2011-03-02T09:56:45Z</time>
      </trkpt>
      <trkpt lat="49.66896" lon="4.71021">
        <ele>218.25</ele>
        <time>2011-03-02T09:56:47Z</time>
      </trkpt>
      <trkpt lat="49.66892" lon="4.71024">
        <ele>217.02</ele>
        <time>2011-03-02T09:56:49Z</time>
      </trkpt>
      <trkpt lat="49.66888" lon="4.71026">
        <ele>215.72</ele>
        <time>2011-03-02T09:56:51Z</time>
      </trkpt>
      <trkpt lat="49.66887" lon="4.71028">
        <ele>214.86</ele>
        <time>2011-03-02T09:56:53Z</time>
      </trkpt>
      <trkpt lat="49.66886" lon="4.71029">
        <ele>214.43</ele>
        <time>2011-03-02T09:56:54Z</time>
      </trkpt>
      <trkpt lat="49.66886" lon="4.71032">
        <ele>213.93</ele>
        <time>2011-03-02T09:56:55Z</time>
      </trkpt>
      <trkpt lat="49.66885" lon="4.71033">
        <ele>213.71</ele>
        <time>2011-03-02T09:56:56Z</time>
      </trkpt>
      <trkpt lat="49.66884" lon="4.71036">
        <ele>213.49</ele>
        <time>2011-03-02T09:56:57Z</time>
      </trkpt>
      <trkpt lat="49.66881" lon="4.7104">
        <ele>213.04</ele>
        <time>2011-03-02T09:56:59Z</time>
      </trkpt>
      <trkpt lat="49.66877" lon="4.71043">
        <ele>212.62</ele>
        <time>2011-03-02T09:57:01Z</time>
      </trkpt>
      <trkpt lat="49.66874" lon="4.71044">
        <ele>212.66</ele>
        <time>2011-03-02T09:57:03Z</time>
      </trkpt>
      <trkpt lat="49.66872" lon="4.71045">
        <ele>212.79</ele>
        <time>2011-03-02T09:57:04Z</time>
      </trkpt>
      <trkpt lat="49.66871" lon="4.71046">
        <ele>212.99</ele>
        <time>2011-03-02T09:57:05Z</time>
      </trkpt>
      <trkpt lat="49.66869" lon="4.71047">
        <ele>213.41</ele>
        <time>2011-03-02T09:57:06Z</time>
      </trkpt>
      <trkpt lat="49.66866" lon="4.71046">
        <ele>213.95</ele>
        <time>2011-03-02T09:57:08Z</time>
      </trkpt>
      <trkpt lat="49.66864" lon="4.71046">
        <ele>214.21</ele>
        <time>2011-03-02T09:57:09Z</time>
      </trkpt>
      <trkpt lat="49.66862" lon="4.71044">
        <ele>214.58</ele>
        <time>2011-03-02T09:57:10Z</time>
      </trkpt>
      <trkpt lat="49.66861" lon="4.71043">
        <ele>214.45</ele>
        <time>2011-03-02T09:57:12Z</time>
      </trkpt>
      <trkpt lat="49.66861" lon="4.71042">
        <ele>214.3</ele>
        <time>2011-03-02T09:57:13Z</time>
      </trkpt>
      <trkpt lat="49.6686" lon="4.71039">
        <ele>213.91</ele>
        <time>2011-03-02T09:57:14Z</time>
      </trkpt>
      <trkpt lat="49.66857" lon="4.71035">
        <ele>213.16</ele>
        <time>2011-03-02T09:57:16Z</time>
      </trkpt>
      <trkpt lat="49.66854" lon="4.71032">
        <ele>212.35</ele>
        <time>2011-03-02T09:57:18Z</time>
      </trkpt>
      <trkpt lat="49.66849" lon="4.71029">
        <ele>211.76</ele>
        <time>2011-03-02T09:57:20Z</time>
      </trkpt>
      <trkpt lat="49.66843" lon="4.71028">
        <ele>211.29</ele>
        <time>2011-03-02T09:57:22Z</time>
      </trkpt>
      <trkpt lat="49.6684" lon="4.71028">
        <ele>211.05</ele>
        <time>2011-03-02T09:57:23Z</time>
      </trkpt>
      <trkpt lat="49.66838" lon="4.71028">
        <ele>210.9</ele>
        <time>2011-03-02T09:57:24Z</time>
      </trkpt>
      <trkpt lat="49.66833" lon="4.71029">
        <ele>210.22</ele>
        <time>2011-03-02T09:57:26Z</time>
      </trkpt>
      <trkpt lat="49.66828" lon="4.71031">
        <ele>209.42</ele>
        <time>2011-03-02T09:57:28Z</time>
      </trkpt>
      <trkpt lat="49.66824" lon="4.71032">
        <ele>208.76</ele>
        <time>2011-03-02T09:57:30Z</time>
      </trkpt>
      <trkpt lat="49.66819" lon="4.71033">
        <ele>208.1</ele>
        <time>2011-03-02T09:57:32Z</time>
      </trkpt>
      <trkpt lat="49.66814" lon="4.71033">
        <ele>207.6</ele>
        <time>2011-03-02T09:57:34Z</time>
      </trkpt>
      <trkpt lat="49.66811" lon="4.71033">
        <ele>207.79</ele>
        <time>2011-03-02T09:57:35Z</time>
      </trkpt>
      <trkpt lat="49.66807" lon="4.71033">
        <ele>208.08</ele>
        <time>2011-03-02T09:57:37Z</time>
      </trkpt>
      <trkpt lat="49.66802" lon="4.71033">
        <ele>208.17</ele>
        <time>2011-03-02T09:57:39Z</time>
      </trkpt>
      <trkpt lat="49.66796" lon="4.71033">
        <ele>208.13</ele>
        <time>2011-03-02T09:57:41Z</time>
      </trkpt>
      <trkpt lat="49.66794" lon="4.71033">
        <ele>208.04</ele>
        <time>2011-03-02T09:57:42Z</time>
      </trkpt>
      <trkpt lat="49.66791" lon="4.71033">
        <ele>207.76</ele>
        <time>2011-03-02T09:57:43Z</time>
      </trkpt>
      <trkpt lat="49.66786" lon="4.71033">
        <ele>207.1</ele>
        <time>2011-03-02T09:57:45Z</time>
      </trkpt>
      <trkpt lat="49.6678" lon="4.71032">
        <ele>206.26</ele>
        <time>2011-03-02T09:57:47Z</time>
      </trkpt>
      <trkpt lat="49.66778" lon="4.71032">
        <ele>205.79</ele>
        <time>2011-03-02T09:57:48Z</time>
      </trkpt>
      <trkpt lat="49.66773" lon="4.71031">
        <ele>204.82</ele>
        <time>2011-03-02T09:57:50Z</time>
      </trkpt>
      <trkpt lat="49.66768" lon="4.71031">
        <ele>203.94</ele>
        <time>2011-03-02T09:57:52Z</time>
      </trkpt>
      <trkpt lat="49.66766" lon="4.71032">
        <ele>203.61</ele>
        <time>2011-03-02T09:57:53Z</time>
      </trkpt>
      <trkpt lat="49.66761" lon="4.71032">
        <ele>203.04</ele>
        <time>2011-03-02T09:57:55Z</time>
      </trkpt>
      <trkpt lat="49.66756" lon="4.71029">
        <ele>202.83</ele>
        <time>2011-03-02T09:57:57Z</time>
      </trkpt>
      <trkpt lat="49.66753" lon="4.71027">
        <ele>203.02</ele>
        <time>2011-03-02T09:57:58Z</time>
      </trkpt>
      <trkpt lat="49.6675" lon="4.71026">
        <ele>203.25</ele>
        <time>2011-03-02T09:58:00Z</time>
      </trkpt>
      <trkpt lat="49.66748" lon="4.71026">
        <ele>203.33</ele>
        <time>2011-03-02T09:58:01Z</time>
      </trkpt>
      <trkpt lat="49.66746" lon="4.71027">
        <ele>203.15</ele>
        <time>2011-03-02T09:58:02Z</time>
      </trkpt>
      <trkpt lat="49.66745" lon="4.71027">
        <ele>202.84</ele>
        <time>2011-03-02T09:58:03Z</time>
      </trkpt>
      <trkpt lat="49.66742" lon="4.71029">
        <ele>202</ele>
        <time>2011-03-02T09:58:05Z</time>
      </trkpt>
      <trkpt lat="49.66737" lon="4.7103">
        <ele>201.35</ele>
        <time>2011-03-02T09:58:07Z</time>
      </trkpt>
      <trkpt lat="49.66733" lon="4.7103">
        <ele>200.94</ele>
        <time>2011-03-02T09:58:09Z</time>
      </trkpt>
      <trkpt lat="49.66731" lon="4.7103">
        <ele>200.678</ele>
        <time>2011-03-02T09:58:10Z</time>
      </trkpt>
      <trkpt lat="49.6673" lon="4.71031">
        <ele>200.257</ele>
        <time>2011-03-02T09:58:12Z</time>
      </trkpt>
      <trkpt lat="49.6673" lon="4.71031">
        <ele>200.35</ele>
        <time>2011-03-02T09:58:13Z</time>
      </trkpt>
      <trkpt lat="49.66729" lon="4.71034">
        <ele>200.85</ele>
        <time>2011-03-02T09:58:14Z</time>
      </trkpt>
      <trkpt lat="49.66729" lon="4.71034">
        <ele>201.8</ele>
        <time>2011-03-02T09:58:16Z</time>
      </trkpt>
      <trkpt lat="49.66729" lon="4.71034">
        <ele>202.033</ele>
        <time>2011-03-02T09:58:17Z</time>
      </trkpt>
      <trkpt lat="49.66729" lon="4.71034">
        <ele>202.217</ele>
        <time>2011-03-02T09:58:18Z</time>
      </trkpt>
      <trkpt lat="49.66729" lon="4.71034">
        <ele>202.414</ele>
        <time>2011-03-02T09:58:20Z</time>
      </trkpt>
      <trkpt lat="49.6673" lon="4.71034">
        <ele>202.475</ele>
        <time>2011-03-02T09:58:21Z</time>
      </trkpt>
      <trkpt lat="49.6673" lon="4.71034">
        <ele>202.58</ele>
        <time>2011-03-02T09:58:22Z</time>
      </trkpt>
      <trkpt lat="49.6673" lon="4.71034">
        <ele>202.78</ele>
        <time>2011-03-02T09:58:24Z</time>
      </trkpt>
      <trkpt lat="49.6673" lon="4.71034">
        <ele>202.94</ele>
        <time>2011-03-02T09:58:25Z</time>
      </trkpt>
      <trkpt lat="49.66729" lon="4.71034">
        <ele>203.05</ele>
        <time>2011-03-02T09:58:27Z</time>
      </trkpt>
      <trkpt lat="49.66729" lon="4.71034">
        <ele>203.125</ele>
        <time>2011-03-02T09:58:29Z</time>
      </trkpt>
      <trkpt lat="49.66729" lon="4.71034">
        <ele>203.15</ele>
        <time>2011-03-02T09:58:30Z</time>
      </trkpt>
      <trkpt lat="49.66729" lon="4.71034">
        <ele>203.125</ele>
        <time>2011-03-02T09:58:32Z</time>
      </trkpt>
      <trkpt lat="49.66727" lon="4.71033">
        <ele>203.113</ele>
        <time>2011-03-02T09:58:34Z</time>
      </trkpt>
      <trkpt lat="49.66726" lon="4.71033">
        <ele>203.122</ele>
        <time>2011-03-02T09:58:35Z</time>
      </trkpt>
      <trkpt lat="49.66723" lon="4.71032">
        <ele>203.13</ele>
        <time>2011-03-02T09:58:36Z</time>
      </trkpt>
      <trkpt lat="49.66717" lon="4.71033">
        <ele>203.01</ele>
        <time>2011-03-02T09:58:38Z</time>
      </trkpt>
      <trkpt lat="49.66712" lon="4.71035">
        <ele>202.88</ele>
        <time>2011-03-02T09:58:40Z</time>
      </trkpt>
      <trkpt lat="49.66707" lon="4.71036">
        <ele>202.88</ele>
        <time>2011-03-02T09:58:43Z</time>
      </trkpt>
      <trkpt lat="49.667" lon="4.71039">
        <ele>202.99</ele>
        <time>2011-03-02T09:58:44Z</time>
      </trkpt>
      <trkpt lat="49.66695" lon="4.71044">
        <ele>203.09</ele>
        <time>2011-03-02T09:58:46Z</time>
      </trkpt>
      <trkpt lat="49.6669" lon="4.71048">
        <ele>203.378</ele>
        <time>2011-03-02T09:58:48Z</time>
      </trkpt>
      <trkpt lat="49.66689" lon="4.71049">
        <ele>203.611</ele>
        <time>2011-03-02T09:58:49Z</time>
      </trkpt>
      <trkpt lat="49.66686" lon="4.7105">
        <ele>203.857</ele>
        <time>2011-03-02T09:58:51Z</time>
      </trkpt>
      <trkpt lat="49.66685" lon="4.7105">
        <ele>203.967</ele>
        <time>2011-03-02T09:58:52Z</time>
      </trkpt>
      <trkpt lat="49.66685" lon="4.7105">
        <ele>204.02</ele>
        <time>2011-03-02T09:58:53Z</time>
      </trkpt>
      <trkpt lat="49.66685" lon="4.7105">
        <ele>204.233</ele>
        <time>2011-03-02T09:58:54Z</time>
      </trkpt>
      <trkpt lat="49.66685" lon="4.7105">
        <ele>204.5</ele>
        <time>2011-03-02T09:58:56Z</time>
      </trkpt>
      <trkpt lat="49.66685" lon="4.7105">
        <ele>204.5</ele>
        <time>2011-03-02T09:58:58Z</time>
      </trkpt>
      <trkpt lat="49.66685" lon="4.7105">
        <ele>204.5</ele>
        <time>2011-03-02T09:58:59Z</time>
      </trkpt>
      <trkpt lat="49.66685" lon="4.7105">
        <ele>204.5</ele>
        <time>2011-03-02T09:59:00Z</time>
      </trkpt>
      <trkpt lat="49.66685" lon="4.7105">
        <ele>204.5</ele>
        <time>2011-03-02T09:59:01Z</time>
      </trkpt>
      <trkpt lat="49.66685" lon="4.7105">
        <ele>204.5</ele>
        <time>2011-03-02T09:59:02Z</time>
      </trkpt>
      <trkpt lat="49.66685" lon="4.7105">
        <ele>204.5</ele>
        <time>2011-03-02T09:59:04Z</time>
      </trkpt>
      <trkpt lat="49.66685" lon="4.7105">
        <ele>204.5</ele>
        <time>2011-03-02T09:59:05Z</time>
      </trkpt>
      <trkpt lat="49.66685" lon="4.7105">
        <ele>204.5</ele>
        <time>2011-03-02T09:59:07Z</time>
      </trkpt>
      <trkpt lat="49.66685" lon="4.7105">
        <ele>204.5</ele>
        <time>2011-03-02T09:59:09Z</time>
      </trkpt>
      <trkpt lat="49.66685" lon="4.7105">
        <ele>204.5</ele>
        <time>2011-03-02T09:59:10Z</time>
      </trkpt>
      <trkpt lat="49.66685" lon="4.7105">
        <ele>204.5</ele>
        <time>2011-03-02T09:59:12Z</time>
      </trkpt>
      <trkpt lat="49.66685" lon="4.7105">
        <ele>204.5</ele>
        <time>2011-03-02T09:59:14Z</time>
      </trkpt>
      <trkpt lat="49.66685" lon="4.7105">
        <ele>204.5</ele>
        <time>2011-03-02T09:59:15Z</time>
      </trkpt>
      <trkpt lat="49.66685" lon="4.7105">
        <ele>204.5</ele>
        <time>2011-03-02T09:59:16Z</time>
      </trkpt>
      <trkpt lat="49.66685" lon="4.7105">
        <ele>204.5</ele>
        <time>2011-03-02T09:59:18Z</time>
      </trkpt>
      <trkpt lat="49.66685" lon="4.7105">
        <ele>204.5</ele>
        <time>2011-03-02T09:59:20Z</time>
      </trkpt>
      <trkpt lat="49.66685" lon="4.7105">
        <ele>204.5</ele>
        <time>2011-03-02T09:59:22Z</time>
      </trkpt>
      <trkpt lat="49.66685" lon="4.7105">
        <ele>204.5</ele>
        <time>2011-03-02T09:59:24Z</time>
      </trkpt>
      <trkpt lat="49.66685" lon="4.7105">
        <ele>204.5</ele>
        <time>2011-03-02T09:59:25Z</time>
      </trkpt>
      <trkpt lat="49.66685" lon="4.7105">
        <ele>204.5</ele>
        <time>2011-03-02T09:59:27Z</time>
      </trkpt>
      <trkpt lat="49.66685" lon="4.7105">
        <ele>204.5</ele>
        <time>2011-03-02T09:59:29Z</time>
      </trkpt>
      <trkpt lat="49.66685" lon="4.7105">
        <ele>204.5</ele>
        <time>2011-03-02T09:59:31Z</time>
      </trkpt>
      <trkpt lat="49.66685" lon="4.7105">
        <ele>204.5</ele>
        <time>2011-03-02T09:59:33Z</time>
      </trkpt>
      <trkpt lat="49.66685" lon="4.7105">
        <ele>204.5</ele>
        <time>2011-03-02T09:59:34Z</time>
      </trkpt>
      <trkpt lat="49.66685" lon="4.7105">
        <ele>204.5</ele>
        <time>2011-03-02T09:59:36Z</time>
      </trkpt>
      <trkpt lat="49.66685" lon="4.7105">
        <ele>204.5</ele>
        <time>2011-03-02T09:59:38Z</time>
      </trkpt>
      <trkpt lat="49.66685" lon="4.7105">
        <ele>204.5</ele>
        <time>2011-03-02T09:59:39Z</time>
      </trkpt>
      <trkpt lat="49.66685" lon="4.7105">
        <ele>204.5</ele>
        <time>2011-03-02T09:59:40Z</time>
      </trkpt>
      <trkpt lat="49.66685" lon="4.7105">
        <ele>204.5</ele>
        <time>2011-03-02T09:59:42Z</time>
      </trkpt>
      <trkpt lat="49.66685" lon="4.7105">
        <ele>204.5</ele>
        <time>2011-03-02T09:59:43Z</time>
      </trkpt>
      <trkpt lat="49.66685" lon="4.7105">
        <ele>204.5</ele>
        <time>2011-03-02T09:59:45Z</time>
      </trkpt>
      <trkpt lat="49.66685" lon="4.7105">
        <ele>204.5</ele>
        <time>2011-03-02T09:59:46Z</time>
      </trkpt>
      <trkpt lat="49.66685" lon="4.7105">
        <ele>204.5</ele>
        <time>2011-03-02T09:59:48Z</time>
      </trkpt>
      <trkpt lat="49.66685" lon="4.7105">
        <ele>204.5</ele>
        <time>2011-03-02T09:59:49Z</time>
      </trkpt>
      <trkpt lat="49.66685" lon="4.7105">
        <ele>204.5</ele>
        <time>2011-03-02T09:59:51Z</time>
      </trkpt>
      <trkpt lat="49.66685" lon="4.7105">
        <ele>204.5</ele>
        <time>2011-03-02T09:59:53Z</time>
      </trkpt>
      <trkpt lat="49.66685" lon="4.7105">
        <ele>204.5</ele>
        <time>2011-03-02T09:59:55Z</time>
      </trkpt>
      <trkpt lat="49.66685" lon="4.7105">
        <ele>204.5</ele>
        <time>2011-03-02T09:59:56Z</time>
      </trkpt>
      <trkpt lat="49.66685" lon="4.7105">
        <ele>204.5</ele>
        <time>2011-03-02T09:59:58Z</time>
      </trkpt>
      <trkpt lat="49.66685" lon="4.7105">
        <ele>204.5</ele>
        <time>2011-03-02T10:00:00Z</time>
      </trkpt>
      <trkpt lat="49.66685" lon="4.7105">
        <ele>204.5</ele>
        <time>2011-03-02T10:00:02Z</time>
      </trkpt>
      <trkpt lat="49.66685" lon="4.7105">
        <ele>204.5</ele>
        <time>2011-03-02T10:00:03Z</time>
      </trkpt>
      <trkpt lat="49.66685" lon="4.7105">
        <ele>204.5</ele>
        <time>2011-03-02T10:00:06Z</time>
      </trkpt>
      <trkpt lat="49.66685" lon="4.7105">
        <ele>204.5</ele>
        <time>2011-03-02T10:00:07Z</time>
      </trkpt>
      <trkpt lat="49.66685" lon="4.7105">
        <ele>204.5</ele>
        <time>2011-03-02T10:00:09Z</time>
      </trkpt>
      <trkpt lat="49.66685" lon="4.7105">
        <ele>204.5</ele>
        <time>2011-03-02T10:00:10Z</time>
      </trkpt>
      <trkpt lat="49.66685" lon="4.7105">
        <ele>204.5</ele>
        <time>2011-03-02T10:00:12Z</time>
      </trkpt>
      <trkpt lat="49.66685" lon="4.7105">
        <ele>204.5</ele>
        <time>2011-03-02T10:00:14Z</time>
      </trkpt>
      <trkpt lat="49.66685" lon="4.7105">
        <ele>204.5</ele>
        <time>2011-03-02T10:00:16Z</time>
      </trkpt>
      <trkpt lat="49.66685" lon="4.7105">
        <ele>204.5</ele>
        <time>2011-03-02T10:00:18Z</time>
      </trkpt>
      <trkpt lat="49.66685" lon="4.7105">
        <ele>204.5</ele>
        <time>2011-03-02T10:00:20Z</time>
      </trkpt>
      <trkpt lat="49.66685" lon="4.7105">
        <ele>204.5</ele>
        <time>2011-03-02T10:00:21Z</time>
      </trkpt>
      <trkpt lat="49.66685" lon="4.7105">
        <ele>204.5</ele>
        <time>2011-03-02T10:00:23Z</time>
      </trkpt>
      <trkpt lat="49.66685" lon="4.7105">
        <ele>204.5</ele>
        <time>2011-03-02T10:00:24Z</time>
      </trkpt>
      <trkpt lat="49.66685" lon="4.7105">
        <ele>204.5</ele>
        <time>2011-03-02T10:00:26Z</time>
      </trkpt>
      <trkpt lat="49.66685" lon="4.7105">
        <ele>204.5</ele>
        <time>2011-03-02T10:00:28Z</time>
      </trkpt>
      <trkpt lat="49.66685" lon="4.7105">
        <ele>204.5</ele>
        <time>2011-03-02T10:00:29Z</time>
      </trkpt>
      <trkpt lat="49.66685" lon="4.7105">
        <ele>204.5</ele>
        <time>2011-03-02T10:00:31Z</time>
      </trkpt>
      <trkpt lat="49.66685" lon="4.7105">
        <ele>204.5</ele>
        <time>2011-03-02T10:00:33Z</time>
      </trkpt>
      <trkpt lat="49.66685" lon="4.7105">
        <ele>204.5</ele>
        <time>2011-03-02T10:00:34Z</time>
      </trkpt>
      <trkpt lat="49.66685" lon="4.7105">
        <ele>204.5</ele>
        <time>2011-03-02T10:00:35Z</time>
      </trkpt>
      <trkpt lat="49.66685" lon="4.7105">
        <ele>204.5</ele>
        <time>2011-03-02T10:00:37Z</time>
      </trkpt>
      <trkpt lat="49.66685" lon="4.7105">
        <ele>204.5</ele>
        <time>2011-03-02T10:00:39Z</time>
      </trkpt>
      <trkpt lat="49.66685" lon="4.7105">
        <ele>204.5</ele>
        <time>2011-03-02T10:00:40Z</time>
      </trkpt>
      <trkpt lat="49.66685" lon="4.7105">
        <ele>204.5</ele>
        <time>2011-03-02T10:00:42Z</time>
      </trkpt>
      <trkpt lat="49.66685" lon="4.7105">
        <ele>204.5</ele>
        <time>2011-03-02T10:00:43Z</time>
      </trkpt>
      <trkpt lat="49.66685" lon="4.7105">
        <ele>204.5</ele>
        <time>2011-03-02T10:00:45Z</time>
      </trkpt>
      <trkpt lat="49.66685" lon="4.7105">
        <ele>204.5</ele>
        <time>2011-03-02T10:00:47Z</time>
      </trkpt>
      <trkpt lat="49.66685" lon="4.7105">
        <ele>204.5</ele>
        <time>2011-03-02T10:00:49Z</time>
      </trkpt>
      <trkpt lat="49.66685" lon="4.7105">
        <ele>204.5</ele>
        <time>2011-03-02T10:00:51Z</time>
      </trkpt>
      <trkpt lat="49.66685" lon="4.7105">
        <ele>204.5</ele>
        <time>2011-03-02T10:00:53Z</time>
      </trkpt>
      <trkpt lat="49.66685" lon="4.7105">
        <ele>204.5</ele>
        <time>2011-03-02T10:00:55Z</time>
      </trkpt>
      <trkpt lat="49.66685" lon="4.7105">
        <ele>204.5</ele>
        <time>2011-03-02T10:00:56Z</time>
      </trkpt>
      <trkpt lat="49.66685" lon="4.7105">
        <ele>204.5</ele>
        <time>2011-03-02T10:00:57Z</time>
      </trkpt>
      <trkpt lat="49.66685" lon="4.7105">
        <ele>204.5</ele>
        <time>2011-03-02T10:00:58Z</time>
      </trkpt>
      <trkpt lat="49.66685" lon="4.7105">
        <ele>204.5</ele>
        <time>2011-03-02T10:00:59Z</time>
      </trkpt>
      <trkpt lat="49.66685" lon="4.7105">
        <ele>204.5</ele>
        <time>2011-03-02T10:01:00Z</time>
      </trkpt>
      <trkpt lat="49.66685" lon="4.7105">
        <ele>204.5</ele>
        <time>2011-03-02T10:01:02Z</time>
      </trkpt>
      <trkpt lat="49.66685" lon="4.7105">
        <ele>204.5</ele>
        <time>2011-03-02T10:01:04Z</time>
      </trkpt>
      <trkpt lat="49.66685" lon="4.7105">
        <ele>204.5</ele>
        <time>2011-03-02T10:01:05Z</time>
      </trkpt>
      <trkpt lat="49.66685" lon="4.7105">
        <ele>204.5</ele>
        <time>2011-03-02T10:01:07Z</time>
      </trkpt>
      <trkpt lat="49.66685" lon="4.7105">
        <ele>204.5</ele>
        <time>2011-03-02T10:01:08Z</time>
      </trkpt>
      <trkpt lat="49.66685" lon="4.7105">
        <ele>204.5</ele>
        <time>2011-03-02T10:01:10Z</time>
      </trkpt>
      <trkpt lat="49.66685" lon="4.7105">
        <ele>204.5</ele>
        <time>2011-03-02T10:01:11Z</time>
      </trkpt>
      <trkpt lat="49.66685" lon="4.7105">
        <ele>204.5</ele>
        <time>2011-03-02T10:01:13Z</time>
      </trkpt>
      <trkpt lat="49.66685" lon="4.7105">
        <ele>204.5</ele>
        <time>2011-03-02T10:01:14Z</time>
      </trkpt>
      <trkpt lat="49.66685" lon="4.7105">
        <ele>204.5</ele>
        <time>2011-03-02T10:01:15Z</time>
      </trkpt>
      <trkpt lat="49.66685" lon="4.7105">
        <ele>204.5</ele>
        <time>2011-03-02T10:01:17Z</time>
      </trkpt>
      <trkpt lat="49.66685" lon="4.7105">
        <ele>204.5</ele>
        <time>2011-03-02T10:01:19Z</time>
      </trkpt>
      <trkpt lat="49.66685" lon="4.7105">
        <ele>204.5</ele>
        <time>2011-03-02T10:01:20Z</time>
      </trkpt>
      <trkpt lat="49.66685" lon="4.7105">
        <ele>204.5</ele>
        <time>2011-03-02T10:01:22Z</time>
      </trkpt>
      <trkpt lat="49.66685" lon="4.7105">
        <ele>204.5</ele>
        <time>2011-03-02T10:01:24Z</time>
      </trkpt>
      <trkpt lat="49.66685" lon="4.7105">
        <ele>204.5</ele>
        <time>2011-03-02T10:01:25Z</time>
      </trkpt>
      <trkpt lat="49.66685" lon="4.7105">
        <ele>204.5</ele>
        <time>2011-03-02T10:01:27Z</time>
      </trkpt>
      <trkpt lat="49.66685" lon="4.7105">
        <ele>204.5</ele>
        <time>2011-03-02T10:01:28Z</time>
      </trkpt>
      <trkpt lat="49.66685" lon="4.7105">
        <ele>204.5</ele>
        <time>2011-03-02T10:01:29Z</time>
      </trkpt>
      <trkpt lat="49.66685" lon="4.7105">
        <ele>204.5</ele>
        <time>2011-03-02T10:01:31Z</time>
      </trkpt>
      <trkpt lat="49.66685" lon="4.7105">
        <ele>204.5</ele>
        <time>2011-03-02T10:01:33Z</time>
      </trkpt>
      <trkpt lat="49.66543" lon="4.71189">
        <ele>217.9</ele>
        <time>2011-03-02T10:01:34Z</time>
      </trkpt>
      <trkpt lat="49.66543" lon="4.71189">
        <ele>217.874</ele>
        <time>2011-03-02T10:01:36Z</time>
      </trkpt>
      <trkpt lat="49.66543" lon="4.71189">
        <ele>217.838</ele>
        <time>2011-03-02T10:01:37Z</time>
      </trkpt>
      <trkpt lat="49.66543" lon="4.71189">
        <ele>217.724</ele>
        <time>2011-03-02T10:01:39Z</time>
      </trkpt>
      <trkpt lat="49.66543" lon="4.71189">
        <ele>217.618</ele>
        <time>2011-03-02T10:01:40Z</time>
      </trkpt>
      <trkpt lat="49.66543" lon="4.71189">
        <ele>217.52</ele>
        <time>2011-03-02T10:01:41Z</time>
      </trkpt>
      <trkpt lat="49.66543" lon="4.71189">
        <ele>217.325</ele>
        <time>2011-03-02T10:01:43Z</time>
      </trkpt>
      <trkpt lat="49.66543" lon="4.71189">
        <ele>217.263</ele>
        <time>2011-03-02T10:01:44Z</time>
      </trkpt>
      <trkpt lat="49.66543" lon="4.71189">
        <ele>217.186</ele>
        <time>2011-03-02T10:01:45Z</time>
      </trkpt>
      <trkpt lat="49.66542" lon="4.71189">
        <ele>216.992</ele>
        <time>2011-03-02T10:01:47Z</time>
      </trkpt>
      <trkpt lat="49.66542" lon="4.71189">
        <ele>216.752</ele>
        <time>2011-03-02T10:01:49Z</time>
      </trkpt>
      <trkpt lat="49.66542" lon="4.71189">
        <ele>216.7</ele>
        <time>2011-03-02T10:01:51Z</time>
      </trkpt>
      <trkpt lat="49.66542" lon="4.71189">
        <ele>216.7</ele>
        <time>2011-03-02T10:01:53Z</time>
      </trkpt>
      <trkpt lat="49.66542" lon="4.71189">
        <ele>216.7</ele>
        <time>2011-03-02T10:01:54Z</time>
      </trkpt>
      <trkpt lat="49.66542" lon="4.71189">
        <ele>216.7</ele>
        <time>2011-03-02T10:01:56Z</time>
      </trkpt>
      <trkpt lat="49.66542" lon="4.71189">
        <ele>216.7</ele>
        <time>2011-03-02T10:01:58Z</time>
      </trkpt>
      <trkpt lat="49.66542" lon="4.71189">
        <ele>216.7</ele>
        <time>2011-03-02T10:02:00Z</time>
      </trkpt>
      <trkpt lat="49.66542" lon="4.71189">
        <ele>216.7</ele>
        <time>2011-03-02T10:02:01Z</time>
      </trkpt>
      <trkpt lat="49.66542" lon="4.71189">
        <ele>216.7</ele>
        <time>2011-03-02T10:02:03Z</time>
      </trkpt>
      <trkpt lat="49.66542" lon="4.71189">
        <ele>216.7</ele>
        <time>2011-03-02T10:02:04Z</time>
      </trkpt>
      <trkpt lat="49.66542" lon="4.71189">
        <ele>216.7</ele>
        <time>2011-03-02T10:02:05Z</time>
      </trkpt>
      <trkpt lat="49.66542" lon="4.71189">
        <ele>216.7</ele>
        <time>2011-03-02T10:02:07Z</time>
      </trkpt>
      <trkpt lat="49.66542" lon="4.71189">
        <ele>216.7</ele>
        <time>2011-03-02T10:02:09Z</time>
      </trkpt>
      <trkpt lat="49.66542" lon="4.71189">
        <ele>216.7</ele>
        <time>2011-03-02T10:02:11Z</time>
      </trkpt>
      <trkpt lat="49.66542" lon="4.71189">
        <ele>216.7</ele>
        <time>2011-03-02T10:02:12Z</time>
      </trkpt>
      <trkpt lat="49.66542" lon="4.71189">
        <ele>216.7</ele>
        <time>2011-03-02T10:02:14Z</time>
      </trkpt>
      <trkpt lat="49.66542" lon="4.71189">
        <ele>216.7</ele>
        <time>2011-03-02T10:02:15Z</time>
      </trkpt>
      <trkpt lat="49.66542" lon="4.71189">
        <ele>216.7</ele>
        <time>2011-03-02T10:02:17Z</time>
      </trkpt>
      <trkpt lat="49.66542" lon="4.71189">
        <ele>216.7</ele>
        <time>2011-03-02T10:02:18Z</time>
      </trkpt>
      <trkpt lat="49.66542" lon="4.71189">
        <ele>216.7</ele>
        <time>2011-03-02T10:02:20Z</time>
      </trkpt>
      <trkpt lat="49.66542" lon="4.71189">
        <ele>216.7</ele>
        <time>2011-03-02T10:02:21Z</time>
      </trkpt>
      <trkpt lat="49.66542" lon="4.71189">
        <ele>216.7</ele>
        <time>2011-03-02T10:02:22Z</time>
      </trkpt>
      <trkpt lat="49.6651" lon="4.71222">
        <ele>216.7</ele>
        <time>2011-03-02T10:02:24Z</time>
      </trkpt>
      <trkpt lat="49.6651" lon="4.71223">
        <ele>222.5</ele>
        <time>2011-03-02T10:02:25Z</time>
      </trkpt>
      <trkpt lat="49.6651" lon="4.71224">
        <ele>221.5</ele>
        <time>2011-03-02T10:02:27Z</time>
      </trkpt>
      <trkpt lat="49.6651" lon="4.71224">
        <ele>221.325</ele>
        <time>2011-03-02T10:02:28Z</time>
      </trkpt>
      <trkpt lat="49.66509" lon="4.71225">
        <ele>221.325</ele>
        <time>2011-03-02T10:02:29Z</time>
      </trkpt>
      <trkpt lat="49.66509" lon="4.71226">
        <ele>221.325</ele>
        <time>2011-03-02T10:02:31Z</time>
      </trkpt>
      <trkpt lat="49.66509" lon="4.71226">
        <ele>221.325</ele>
        <time>2011-03-02T10:02:33Z</time>
      </trkpt>
      <trkpt lat="49.66509" lon="4.71226">
        <ele>221.325</ele>
        <time>2011-03-02T10:02:34Z</time>
      </trkpt>
      <trkpt lat="49.66509" lon="4.71226">
        <ele>220.933</ele>
        <time>2011-03-02T10:02:35Z</time>
      </trkpt>
      <trkpt lat="49.66509" lon="4.71226">
        <ele>220.8</ele>
        <time>2011-03-02T10:02:37Z</time>
      </trkpt>
      <trkpt lat="49.66509" lon="4.71226">
        <ele>220.8</ele>
        <time>2011-03-02T10:02:39Z</time>
      </trkpt>
      <trkpt lat="49.66509" lon="4.71226">
        <ele>220.8</ele>
        <time>2011-03-02T10:02:41Z</time>
      </trkpt>
      <trkpt lat="49.66509" lon="4.71226">
        <ele>220.8</ele>
        <time>2011-03-02T10:02:43Z</time>
      </trkpt>
      <trkpt lat="49.66509" lon="4.71226">
        <ele>220.8</ele>
        <time>2011-03-02T10:02:44Z</time>
      </trkpt>
      <trkpt lat="49.66509" lon="4.71226">
        <ele>220.8</ele>
        <time>2011-03-02T10:02:46Z</time>
      </trkpt>
      <trkpt lat="49.66509" lon="4.71226">
        <ele>220.8</ele>
        <time>2011-03-02T10:02:47Z</time>
      </trkpt>
      <trkpt lat="49.66509" lon="4.71226">
        <ele>220.8</ele>
        <time>2011-03-02T10:02:49Z</time>
      </trkpt>
      <trkpt lat="49.66509" lon="4.71226">
        <ele>220.8</ele>
        <time>2011-03-02T10:02:51Z</time>
      </trkpt>
      <trkpt lat="49.66509" lon="4.71226">
        <ele>220.8</ele>
        <time>2011-03-02T10:02:53Z</time>
      </trkpt>
      <trkpt lat="49.66509" lon="4.71226">
        <ele>220.8</ele>
        <time>2011-03-02T10:02:54Z</time>
      </trkpt>
      <trkpt lat="49.66509" lon="4.71226">
        <ele>220.8</ele>
        <time>2011-03-02T10:02:55Z</time>
      </trkpt>
      <trkpt lat="49.66509" lon="4.71226">
        <ele>220.8</ele>
        <time>2011-03-02T10:02:57Z</time>
      </trkpt>
      <trkpt lat="49.66509" lon="4.71226">
        <ele>220.8</ele>
        <time>2011-03-02T10:02:59Z</time>
      </trkpt>
      <trkpt lat="49.66509" lon="4.71226">
        <ele>220.8</ele>
        <time>2011-03-02T10:03:00Z</time>
      </trkpt>
      <trkpt lat="49.66509" lon="4.71226">
        <ele>220.8</ele>
        <time>2011-03-02T10:03:01Z</time>
      </trkpt>
      <trkpt lat="49.66509" lon="4.71226">
        <ele>220.8</ele>
        <time>2011-03-02T10:03:03Z</time>
      </trkpt>
      <trkpt lat="49.66509" lon="4.71226">
        <ele>220.8</ele>
        <time>2011-03-02T10:03:05Z</time>
      </trkpt>
      <trkpt lat="49.66509" lon="4.71226">
        <ele>220.8</ele>
        <time>2011-03-02T10:03:07Z</time>
      </trkpt>
      <trkpt lat="49.66509" lon="4.71226">
        <ele>220.8</ele>
        <time>2011-03-02T10:03:08Z</time>
      </trkpt>
      <trkpt lat="49.66509" lon="4.71226">
        <ele>220.8</ele>
        <time>2011-03-02T10:03:10Z</time>
      </trkpt>
      <trkpt lat="49.66509" lon="4.71226">
        <ele>220.8</ele>
        <time>2011-03-02T10:03:11Z</time>
      </trkpt>
      <trkpt lat="49.66509" lon="4.71226">
        <ele>220.8</ele>
        <time>2011-03-02T10:03:13Z</time>
      </trkpt>
      <trkpt lat="49.66509" lon="4.71226">
        <ele>220.8</ele>
        <time>2011-03-02T10:03:15Z</time>
      </trkpt>
      <trkpt lat="49.66509" lon="4.71226">
        <ele>220.8</ele>
        <time>2011-03-02T10:03:16Z</time>
      </trkpt>
      <trkpt lat="49.66509" lon="4.71226">
        <ele>220.8</ele>
        <time>2011-03-02T10:03:18Z</time>
      </trkpt>
      <trkpt lat="49.66509" lon="4.71226">
        <ele>220.8</ele>
        <time>2011-03-02T10:03:19Z</time>
      </trkpt>
      <trkpt lat="49.66509" lon="4.71226">
        <ele>220.8</ele>
        <time>2011-03-02T10:03:21Z</time>
      </trkpt>
      <trkpt lat="49.66509" lon="4.71226">
        <ele>220.8</ele>
        <time>2011-03-02T10:03:22Z</time>
      </trkpt>
      <trkpt lat="49.66509" lon="4.71226">
        <ele>220.8</ele>
        <time>2011-03-02T10:03:24Z</time>
      </trkpt>
      <trkpt lat="49.66484" lon="4.71261">
        <ele>229.1</ele>
        <time>2011-03-02T10:03:25Z</time>
      </trkpt>
      <trkpt lat="49.66484" lon="4.71261">
        <ele>229.233</ele>
        <time>2011-03-02T10:03:27Z</time>
      </trkpt>
      <trkpt lat="49.66484" lon="4.71262">
        <ele>228.26</ele>
        <time>2011-03-02T10:03:29Z</time>
      </trkpt>
      <trkpt lat="49.66484" lon="4.71263">
        <ele>227.983</ele>
        <time>2011-03-02T10:03:30Z</time>
      </trkpt>
      <trkpt lat="49.66484" lon="4.71264">
        <ele>227.983</ele>
        <time>2011-03-02T10:03:32Z</time>
      </trkpt>
      <trkpt lat="49.66483" lon="4.71264">
        <ele>227.983</ele>
        <time>2011-03-02T10:03:33Z</time>
      </trkpt>
      <trkpt lat="49.66483" lon="4.71264">
        <ele>227.76</ele>
        <time>2011-03-02T10:03:35Z</time>
      </trkpt>
      <trkpt lat="49.66483" lon="4.71264">
        <ele>226.733</ele>
        <time>2011-03-02T10:03:37Z</time>
      </trkpt>
      <trkpt lat="49.6648" lon="4.71263">
        <ele>226.75</ele>
        <time>2011-03-02T10:03:39Z</time>
      </trkpt>
      <trkpt lat="49.6648" lon="4.71263">
        <ele>226.8</ele>
        <time>2011-03-02T10:03:40Z</time>
      </trkpt>
      <trkpt lat="49.6648" lon="4.71263">
        <ele>226.8</ele>
        <time>2011-03-02T10:03:42Z</time>
      </trkpt>
      <trkpt lat="49.6648" lon="4.71263">
        <ele>226.8</ele>
        <time>2011-03-02T10:03:44Z</time>
      </trkpt>
      <trkpt lat="49.6648" lon="4.71263">
        <ele>226.8</ele>
        <time>2011-03-02T10:03:45Z</time>
      </trkpt>
      <trkpt lat="49.6648" lon="4.71263">
        <ele>226.8</ele>
        <time>2011-03-02T10:03:46Z</time>
      </trkpt>
      <trkpt lat="49.66479" lon="4.71263">
        <ele>226.6</ele>
        <time>2011-03-02T10:03:48Z</time>
      </trkpt>
      <trkpt lat="49.66479" lon="4.71263">
        <ele>226.6</ele>
        <time>2011-03-02T10:03:49Z</time>
      </trkpt>
      <trkpt lat="49.66479" lon="4.71263">
        <ele>226.6</ele>
        <time>2011-03-02T10:03:51Z</time>
      </trkpt>
      <trkpt lat="49.66479" lon="4.71263">
        <ele>226.6</ele>
        <time>2011-03-02T10:03:53Z</time>
      </trkpt>
      <trkpt lat="49.66479" lon="4.71263">
        <ele>226.6</ele>
        <time>2011-03-02T10:03:55Z</time>
      </trkpt>
      <trkpt lat="49.66479" lon="4.71263">
        <ele>226.6</ele>
        <time>2011-03-02T10:03:56Z</time>
      </trkpt>
      <trkpt lat="49.66479" lon="4.71263">
        <ele>226.6</ele>
        <time>2011-03-02T10:03:58Z</time>
      </trkpt>
      <trkpt lat="49.66479" lon="4.71263">
        <ele>226.6</ele>
        <time>2011-03-02T10:04:00Z</time>
      </trkpt>
      <trkpt lat="49.66479" lon="4.71263">
        <ele>226.6</ele>
        <time>2011-03-02T10:04:02Z</time>
      </trkpt>
      <trkpt lat="49.66479" lon="4.71263">
        <ele>226.6</ele>
        <time>2011-03-02T10:04:04Z</time>
      </trkpt>
      <trkpt lat="49.66479" lon="4.71263">
        <ele>226.6</ele>
        <time>2011-03-02T10:04:06Z</time>
      </trkpt>
      <trkpt lat="49.66479" lon="4.71263">
        <ele>226.6</ele>
        <time>2011-03-02T10:04:08Z</time>
      </trkpt>
      <trkpt lat="49.66479" lon="4.71263">
        <ele>226.6</ele>
        <time>2011-03-02T10:04:09Z</time>
      </trkpt>
      <trkpt lat="49.66479" lon="4.71263">
        <ele>226.6</ele>
        <time>2011-03-02T10:04:11Z</time>
      </trkpt>
      <trkpt lat="49.66479" lon="4.71263">
        <ele>226.6</ele>
        <time>2011-03-02T10:04:13Z</time>
      </trkpt>
      <trkpt lat="49.66479" lon="4.71263">
        <ele>226.6</ele>
        <time>2011-03-02T10:04:15Z</time>
      </trkpt>
      <trkpt lat="49.66479" lon="4.71263">
        <ele>226.6</ele>
        <time>2011-03-02T10:04:17Z</time>
      </trkpt>
      <trkpt lat="49.66479" lon="4.71263">
        <ele>226.6</ele>
        <time>2011-03-02T10:04:18Z</time>
      </trkpt>
      <trkpt lat="49.66479" lon="4.71263">
        <ele>226.6</ele>
        <time>2011-03-02T10:04:20Z</time>
      </trkpt>
      <trkpt lat="49.66479" lon="4.71263">
        <ele>226.6</ele>
        <time>2011-03-02T10:04:22Z</time>
      </trkpt>
      <trkpt lat="49.66479" lon="4.71263">
        <ele>226.6</ele>
        <time>2011-03-02T10:04:24Z</time>
      </trkpt>
      <trkpt lat="49.66479" lon="4.71263">
        <ele>226.6</ele>
        <time>2011-03-02T10:04:25Z</time>
      </trkpt>
      <trkpt lat="49.66479" lon="4.71263">
        <ele>226.6</ele>
        <time>2011-03-02T10:04:27Z</time>
      </trkpt>
      <trkpt lat="49.66479" lon="4.71263">
        <ele>226.6</ele>
        <time>2011-03-02T10:04:28Z</time>
      </trkpt>
      <trkpt lat="49.66479" lon="4.71263">
        <ele>226.6</ele>
        <time>2011-03-02T10:04:30Z</time>
      </trkpt>
      <trkpt lat="49.66479" lon="4.71263">
        <ele>226.6</ele>
        <time>2011-03-02T10:04:31Z</time>
      </trkpt>
      <trkpt lat="49.66479" lon="4.71263">
        <ele>226.6</ele>
        <time>2011-03-02T10:04:33Z</time>
      </trkpt>
      <trkpt lat="49.66479" lon="4.71263">
        <ele>226.6</ele>
        <time>2011-03-02T10:04:35Z</time>
      </trkpt>
      <trkpt lat="49.66479" lon="4.71263">
        <ele>226.6</ele>
        <time>2011-03-02T10:04:37Z</time>
      </trkpt>
      <trkpt lat="49.66479" lon="4.71263">
        <ele>226.6</ele>
        <time>2011-03-02T10:04:39Z</time>
      </trkpt>
      <trkpt lat="49.66479" lon="4.71263">
        <ele>226.6</ele>
        <time>2011-03-02T10:04:41Z</time>
      </trkpt>
      <trkpt lat="49.66479" lon="4.71263">
        <ele>226.6</ele>
        <time>2011-03-02T10:04:42Z</time>
      </trkpt>
      <trkpt lat="49.66479" lon="4.71263">
        <ele>226.6</ele>
        <time>2011-03-02T10:04:44Z</time>
      </trkpt>
      <trkpt lat="49.66479" lon="4.71263">
        <ele>226.6</ele>
        <time>2011-03-02T10:04:45Z</time>
      </trkpt>
      <trkpt lat="49.66479" lon="4.71263">
        <ele>226.6</ele>
        <time>2011-03-02T10:04:46Z</time>
      </trkpt>
      <trkpt lat="49.66479" lon="4.71263">
        <ele>226.6</ele>
        <time>2011-03-02T10:04:47Z</time>
      </trkpt>
      <trkpt lat="49.66479" lon="4.71263">
        <ele>234.8</ele>
        <time>2011-03-02T10:04:49Z</time>
      </trkpt>
      <trkpt lat="49.66445" lon="4.71243">
        <ele>234.8</ele>
        <time>2011-03-02T10:04:51Z</time>
      </trkpt>
      <trkpt lat="49.66445" lon="4.71242">
        <ele>235.25</ele>
        <time>2011-03-02T10:04:53Z</time>
      </trkpt>
      <trkpt lat="49.66443" lon="4.71241">
        <ele>236.267</ele>
        <time>2011-03-02T10:04:55Z</time>
      </trkpt>
      <trkpt lat="49.66442" lon="4.7124">
        <ele>236.7</ele>
        <time>2011-03-02T10:04:57Z</time>
      </trkpt>
      <trkpt lat="49.66441" lon="4.7124">
        <ele>236.7</ele>
        <time>2011-03-02T10:04:58Z</time>
      </trkpt>
      <trkpt lat="49.6644" lon="4.71239">
        <ele>237.46</ele>
        <time>2011-03-02T10:05:00Z</time>
      </trkpt>
      <trkpt lat="49.6644" lon="4.71239">
        <ele>237.46</ele>
        <time>2011-03-02T10:05:01Z</time>
      </trkpt>
      <trkpt lat="49.6644" lon="4.71239">
        <ele>237.9</ele>
        <time>2011-03-02T10:05:02Z</time>
      </trkpt>
      <trkpt lat="49.6644" lon="4.71239">
        <ele>239.05</ele>
        <time>2011-03-02T10:05:04Z</time>
      </trkpt>
      <trkpt lat="49.6644" lon="4.71239">
        <ele>239.3</ele>
        <time>2011-03-02T10:05:05Z</time>
      </trkpt>
      <trkpt lat="49.6644" lon="4.71239">
        <ele>239.3</ele>
        <time>2011-03-02T10:05:06Z</time>
      </trkpt>
      <trkpt lat="49.6644" lon="4.71239">
        <ele>239.3</ele>
        <time>2011-03-02T10:05:08Z</time>
      </trkpt>
      <trkpt lat="49.6644" lon="4.71239">
        <ele>239.3</ele>
        <time>2011-03-02T10:05:10Z</time>
      </trkpt>
      <trkpt lat="49.6644" lon="4.71239">
        <ele>239.3</ele>
        <time>2011-03-02T10:05:11Z</time>
      </trkpt>
      <trkpt lat="49.6644" lon="4.71239">
        <ele>239.3</ele>
        <time>2011-03-02T10:05:13Z</time>
      </trkpt>
      <trkpt lat="49.6644" lon="4.71239">
        <ele>239.3</ele>
        <time>2011-03-02T10:05:14Z</time>
      </trkpt>
      <trkpt lat="49.6644" lon="4.71239">
        <ele>239.3</ele>
        <time>2011-03-02T10:05:16Z</time>
      </trkpt>
      <trkpt lat="49.6644" lon="4.71239">
        <ele>239.3</ele>
        <time>2011-03-02T10:05:18Z</time>
      </trkpt>
      <trkpt lat="49.6644" lon="4.71239">
        <ele>239.3</ele>
        <time>2011-03-02T10:05:20Z</time>
      </trkpt>
      <trkpt lat="49.6644" lon="4.71239">
        <ele>239.3</ele>
        <time>2011-03-02T10:05:21Z</time>
      </trkpt>
      <trkpt lat="49.6644" lon="4.71239">
        <ele>239.3</ele>
        <time>2011-03-02T10:05:22Z</time>
      </trkpt>
      <trkpt lat="49.6644" lon="4.71239">
        <ele>239.3</ele>
        <time>2011-03-02T10:05:24Z</time>
      </trkpt>
      <trkpt lat="49.6644" lon="4.71239">
        <ele>239.3</ele>
        <time>2011-03-02T10:05:26Z</time>
      </trkpt>
      <trkpt lat="49.6644" lon="4.71239">
        <ele>239.3</ele>
        <time>2011-03-02T10:05:28Z</time>
      </trkpt>
      <trkpt lat="49.6644" lon="4.71239">
        <ele>239.3</ele>
        <time>2011-03-02T10:05:29Z</time>
      </trkpt>
      <trkpt lat="49.6644" lon="4.71241">
        <ele>239.3</ele>
        <time>2011-03-02T10:05:31Z</time>
      </trkpt>
      <trkpt lat="49.6642" lon="4.71241">
        <ele>241.3</ele>
        <time>2011-03-02T10:05:32Z</time>
      </trkpt>
      <trkpt lat="49.66419" lon="4.71242">
        <ele>241.967</ele>
        <time>2011-03-02T10:05:34Z</time>
      </trkpt>
      <trkpt lat="49.66419" lon="4.71242">
        <ele>242.1</ele>
        <time>2011-03-02T10:05:35Z</time>
      </trkpt>
      <trkpt lat="49.66418" lon="4.71243">
        <ele>242.38</ele>
        <time>2011-03-02T10:05:36Z</time>
      </trkpt>
      <trkpt lat="49.66416" lon="4.71243">
        <ele>242.829</ele>
        <time>2011-03-02T10:05:38Z</time>
      </trkpt>
      <trkpt lat="49.66413" lon="4.71243">
        <ele>243.167</ele>
        <time>2011-03-02T10:05:40Z</time>
      </trkpt>
      <trkpt lat="49.66411" lon="4.71242">
        <ele>243.29</ele>
        <time>2011-03-02T10:05:41Z</time>
      </trkpt>
      <trkpt lat="49.66409" lon="4.71243">
        <ele>243.8</ele>
        <time>2011-03-02T10:05:43Z</time>
      </trkpt>
      <trkpt lat="49.66408" lon="4.71243">
        <ele>244</ele>
        <time>2011-03-02T10:05:44Z</time>
      </trkpt>
      <trkpt lat="49.66407" lon="4.71243">
        <ele>244.19</ele>
        <time>2011-03-02T10:05:45Z</time>
      </trkpt>
      <trkpt lat="49.66407" lon="4.71243">
        <ele>244.267</ele>
        <time>2011-03-02T10:05:46Z</time>
      </trkpt>
      <trkpt lat="49.66407" lon="4.71244">
        <ele>244.338</ele>
        <time>2011-03-02T10:05:47Z</time>
      </trkpt>
      <trkpt lat="49.66407" lon="4.71244">
        <ele>244.367</ele>
        <time>2011-03-02T10:05:49Z</time>
      </trkpt>
      <trkpt lat="49.66407" lon="4.71244">
        <ele>244.35</ele>
        <time>2011-03-02T10:05:51Z</time>
      </trkpt>
      <trkpt lat="49.66407" lon="4.71244">
        <ele>244.4</ele>
        <time>2011-03-02T10:05:53Z</time>
      </trkpt>
      <trkpt lat="49.66407" lon="4.71244">
        <ele>244.4</ele>
        <time>2011-03-02T10:05:55Z</time>
      </trkpt>
      <trkpt lat="49.66401" lon="4.71252">
        <ele>243.3</ele>
        <time>2011-03-02T10:05:57Z</time>
      </trkpt>
      <trkpt lat="49.664" lon="4.71252">
        <ele>243.25</ele>
        <time>2011-03-02T10:05:58Z</time>
      </trkpt>
      <trkpt lat="49.664" lon="4.71252">
        <ele>243.233</ele>
        <time>2011-03-02T10:06:00Z</time>
      </trkpt>
      <trkpt lat="49.664" lon="4.71252">
        <ele>243.233</ele>
        <time>2011-03-02T10:06:01Z</time>
      </trkpt>
      <trkpt lat="49.664" lon="4.71252">
        <ele>243.3</ele>
        <time>2011-03-02T10:06:03Z</time>
      </trkpt>
      <trkpt lat="49.664" lon="4.71253">
        <ele>243.243</ele>
        <time>2011-03-02T10:06:05Z</time>
      </trkpt>
      <trkpt lat="49.664" lon="4.71253">
        <ele>243.175</ele>
        <time>2011-03-02T10:06:07Z</time>
      </trkpt>
      <trkpt lat="49.664" lon="4.71253">
        <ele>243.15</ele>
        <time>2011-03-02T10:06:08Z</time>
      </trkpt>
      <trkpt lat="49.664" lon="4.71252">
        <ele>243.125</ele>
        <time>2011-03-02T10:06:09Z</time>
      </trkpt>
      <trkpt lat="49.66401" lon="4.71251">
        <ele>243.125</ele>
        <time>2011-03-02T10:06:11Z</time>
      </trkpt>
      <trkpt lat="49.66401" lon="4.71251">
        <ele>243.086</ele>
        <time>2011-03-02T10:06:12Z</time>
      </trkpt>
      <trkpt lat="49.664" lon="4.71253">
        <ele>243</ele>
        <time>2011-03-02T10:06:14Z</time>
      </trkpt>
      <trkpt lat="49.66398" lon="4.71256">
        <ele>243.16</ele>
        <time>2011-03-02T10:06:16Z</time>
      </trkpt>
      <trkpt lat="49.66398" lon="4.71256">
        <ele>243.2</ele>
        <time>2011-03-02T10:06:17Z</time>
      </trkpt>
      <trkpt lat="49.66397" lon="4.71259">
        <ele>243.4</ele>
        <time>2011-03-02T10:06:19Z</time>
      </trkpt>
      <trkpt lat="49.66397" lon="4.71259">
        <ele>243.4</ele>
        <time>2011-03-02T10:06:21Z</time>
      </trkpt>
      <trkpt lat="49.66397" lon="4.71259">
        <ele>243.4</ele>
        <time>2011-03-02T10:06:23Z</time>
      </trkpt>
      <trkpt lat="49.66397" lon="4.71259">
        <ele>243.4</ele>
        <time>2011-03-02T10:06:25Z</time>
      </trkpt>
      <trkpt lat="49.66397" lon="4.71259">
        <ele>243.4</ele>
        <time>2011-03-02T10:06:27Z</time>
      </trkpt>
      <trkpt lat="49.66397" lon="4.71259">
        <ele>243.4</ele>
        <time>2011-03-02T10:06:28Z</time>
      </trkpt>
      <trkpt lat="49.66397" lon="4.71259">
        <ele>243.4</ele>
        <time>2011-03-02T10:06:30Z</time>
      </trkpt>
      <trkpt lat="49.66397" lon="4.71259">
        <ele>243.4</ele>
        <time>2011-03-02T10:06:31Z</time>
      </trkpt>
      <trkpt lat="49.66397" lon="4.71259">
        <ele>243.4</ele>
        <time>2011-03-02T10:06:33Z</time>
      </trkpt>
      <trkpt lat="49.66397" lon="4.71259">
        <ele>243.4</ele>
        <time>2011-03-02T10:06:34Z</time>
      </trkpt>
      <trkpt lat="49.66397" lon="4.71259">
        <ele>243.4</ele>
        <time>2011-03-02T10:06:35Z</time>
      </trkpt>
      <trkpt lat="49.66397" lon="4.71259">
        <ele>243.4</ele>
        <time>2011-03-02T10:06:37Z</time>
      </trkpt>
      <trkpt lat="49.66397" lon="4.71259">
        <ele>243.4</ele>
        <time>2011-03-02T10:06:39Z</time>
      </trkpt>
      <trkpt lat="49.66397" lon="4.71259">
        <ele>243.4</ele>
        <time>2011-03-02T10:06:41Z</time>
      </trkpt>
      <trkpt lat="49.66397" lon="4.71259">
        <ele>243.4</ele>
        <time>2011-03-02T10:06:43Z</time>
      </trkpt>
      <trkpt lat="49.66397" lon="4.71259">
        <ele>243.4</ele>
        <time>2011-03-02T10:06:44Z</time>
      </trkpt>
      <trkpt lat="49.66397" lon="4.71259">
        <ele>243.4</ele>
        <time>2011-03-02T10:06:46Z</time>
      </trkpt>
      <trkpt lat="49.66397" lon="4.71259">
        <ele>243.4</ele>
        <time>2011-03-02T10:06:47Z</time>
      </trkpt>
      <trkpt lat="49.66397" lon="4.71259">
        <ele>243.4</ele>
        <time>2011-03-02T10:06:49Z</time>
      </trkpt>
      <trkpt lat="49.66397" lon="4.71259">
        <ele>249.7</ele>
        <time>2011-03-02T10:06:50Z</time>
      </trkpt>
      <trkpt lat="49.66351" lon="4.71266">
        <ele>249.55</ele>
        <time>2011-03-02T10:06:52Z</time>
      </trkpt>
      <trkpt lat="49.66349" lon="4.71267">
        <ele>249.325</ele>
        <time>2011-03-02T10:06:54Z</time>
      </trkpt>
      <trkpt lat="49.66349" lon="4.71267">
        <ele>249.325</ele>
        <time>2011-03-02T10:06:55Z</time>
      </trkpt>
      <trkpt lat="49.66346" lon="4.71268">
        <ele>249.35</ele>
        <time>2011-03-02T10:06:57Z</time>
      </trkpt>
      <trkpt lat="49.66344" lon="4.71268">
        <ele>249.257</ele>
        <time>2011-03-02T10:06:58Z</time>
      </trkpt>
      <trkpt lat="49.66343" lon="4.71269">
        <ele>249.063</ele>
        <time>2011-03-02T10:07:00Z</time>
      </trkpt>
      <trkpt lat="49.66342" lon="4.71269">
        <ele>249.011</ele>
        <time>2011-03-02T10:07:01Z</time>
      </trkpt>
      <trkpt lat="49.66342" lon="4.71269">
        <ele>248.867</ele>
        <time>2011-03-02T10:07:03Z</time>
      </trkpt>
      <trkpt lat="49.66341" lon="4.71269">
        <ele>248.69</ele>
        <time>2011-03-02T10:07:05Z</time>
      </trkpt>
      <trkpt lat="49.6634" lon="4.71269">
        <ele>248.33</ele>
        <time>2011-03-02T10:07:07Z</time>
      </trkpt>
      <trkpt lat="49.6634" lon="4.71269">
        <ele>248.15</ele>
        <time>2011-03-02T10:07:09Z</time>
      </trkpt>
      <trkpt lat="49.6634" lon="4.7127">
        <ele>248.05</ele>
        <time>2011-03-02T10:07:11Z</time>
      </trkpt>
      <trkpt lat="49.66339" lon="4.7127">
        <ele>248.01</ele>
        <time>2011-03-02T10:07:13Z</time>
      </trkpt>
      <trkpt lat="49.66338" lon="4.71269">
        <ele>248.11</ele>
        <time>2011-03-02T10:07:15Z</time>
      </trkpt>
      <trkpt lat="49.66338" lon="4.71269">
        <ele>248.28</ele>
        <time>2011-03-02T10:07:17Z</time>
      </trkpt>
      <trkpt lat="49.66338" lon="4.71269">
        <ele>248.4</ele>
        <time>2011-03-02T10:07:19Z</time>
      </trkpt>
      <trkpt lat="49.66338" lon="4.71269">
        <ele>248.456</ele>
        <time>2011-03-02T10:07:21Z</time>
      </trkpt>
      <trkpt lat="49.66338" lon="4.71269">
        <ele>248.471</ele>
        <time>2011-03-02T10:07:23Z</time>
      </trkpt>
      <trkpt lat="49.66338" lon="4.71269">
        <ele>248.45</ele>
        <time>2011-03-02T10:07:24Z</time>
      </trkpt>
      <trkpt lat="49.66338" lon="4.71269">
        <ele>248.42</ele>
        <time>2011-03-02T10:07:25Z</time>
      </trkpt>
      <trkpt lat="49.66338" lon="4.71269">
        <ele>248.4</ele>
        <time>2011-03-02T10:07:26Z</time>
      </trkpt>
      <trkpt lat="49.66338" lon="4.7127">
        <ele>248.4</ele>
        <time>2011-03-02T10:07:28Z</time>
      </trkpt>
      <trkpt lat="49.66338" lon="4.7127">
        <ele>248.4</ele>
        <time>2011-03-02T10:07:29Z</time>
      </trkpt>
      <trkpt lat="49.66338" lon="4.7127">
        <ele>248.4</ele>
        <time>2011-03-02T10:07:31Z</time>
      </trkpt>
      <trkpt lat="49.66338" lon="4.7127">
        <ele>248.4</ele>
        <time>2011-03-02T10:07:33Z</time>
      </trkpt>
      <trkpt lat="49.66338" lon="4.7127">
        <ele>248.4</ele>
        <time>2011-03-02T10:07:35Z</time>
      </trkpt>
      <trkpt lat="49.66338" lon="4.7127">
        <ele>248.4</ele>
        <time>2011-03-02T10:07:37Z</time>
      </trkpt>
      <trkpt lat="49.66338" lon="4.7127">
        <ele>248.4</ele>
        <time>2011-03-02T10:07:38Z</time>
      </trkpt>
      <trkpt lat="49.66338" lon="4.7127">
        <ele>248.4</ele>
        <time>2011-03-02T10:07:40Z</time>
      </trkpt>
      <trkpt lat="49.66327" lon="4.71284">
        <ele>250.8</ele>
        <time>2011-03-02T10:07:41Z</time>
      </trkpt>
      <trkpt lat="49.66326" lon="4.71285">
        <ele>251</ele>
        <time>2011-03-02T10:07:43Z</time>
      </trkpt>
      <trkpt lat="49.66326" lon="4.71286">
        <ele>251</ele>
        <time>2011-03-02T10:07:45Z</time>
      </trkpt>
      <trkpt lat="49.66323" lon="4.71287">
        <ele>251.6</ele>
        <time>2011-03-02T10:07:46Z</time>
      </trkpt>
      <trkpt lat="49.66316" lon="4.71291">
        <ele>252.667</ele>
        <time>2011-03-02T10:07:48Z</time>
      </trkpt>
      <trkpt lat="49.66316" lon="4.71292">
        <ele>252.971</ele>
        <time>2011-03-02T10:07:49Z</time>
      </trkpt>
      <trkpt lat="49.66316" lon="4.71295">
        <ele>253.543</ele>
        <time>2011-03-02T10:07:51Z</time>
      </trkpt>
      <trkpt lat="49.66315" lon="4.713">
        <ele>254.7</ele>
        <time>2011-03-02T10:07:53Z</time>
      </trkpt>
      <trkpt lat="49.66314" lon="4.71301">
        <ele>254.7</ele>
        <time>2011-03-02T10:07:54Z</time>
      </trkpt>
      <trkpt lat="49.66313" lon="4.71303">
        <ele>254.7</ele>
        <time>2011-03-02T10:07:55Z</time>
      </trkpt>
      <trkpt lat="49.66313" lon="4.71303">
        <ele>255</ele>
        <time>2011-03-02T10:07:57Z</time>
      </trkpt>
      <trkpt lat="49.66313" lon="4.71303">
        <ele>255.2</ele>
        <time>2011-03-02T10:07:59Z</time>
      </trkpt>
      <trkpt lat="49.66313" lon="4.71303">
        <ele>255.6</ele>
        <time>2011-03-02T10:08:01Z</time>
      </trkpt>
      <trkpt lat="49.66313" lon="4.71303">
        <ele>255.6</ele>
        <time>2011-03-02T10:08:03Z</time>
      </trkpt>
      <trkpt lat="49.66313" lon="4.71303">
        <ele>255.6</ele>
        <time>2011-03-02T10:08:05Z</time>
      </trkpt>
      <trkpt lat="49.66313" lon="4.71303">
        <ele>255.6</ele>
        <time>2011-03-02T10:08:07Z</time>
      </trkpt>
      <trkpt lat="49.66313" lon="4.71303">
        <ele>255.6</ele>
        <time>2011-03-02T10:08:08Z</time>
      </trkpt>
      <trkpt lat="49.66313" lon="4.71303">
        <ele>255.6</ele>
        <time>2011-03-02T10:08:10Z</time>
      </trkpt>
      <trkpt lat="49.66313" lon="4.71303">
        <ele>255.6</ele>
        <time>2011-03-02T10:08:11Z</time>
      </trkpt>
      <trkpt lat="49.66313" lon="4.71303">
        <ele>255.6</ele>
        <time>2011-03-02T10:08:13Z</time>
      </trkpt>
      <trkpt lat="49.66313" lon="4.71303">
        <ele>255.6</ele>
        <time>2011-03-02T10:08:14Z</time>
      </trkpt>
      <trkpt lat="49.66313" lon="4.71303">
        <ele>255.6</ele>
        <time>2011-03-02T10:08:15Z</time>
      </trkpt>
      <trkpt lat="49.66313" lon="4.71303">
        <ele>255.6</ele>
        <time>2011-03-02T10:08:16Z</time>
      </trkpt>
      <trkpt lat="49.66313" lon="4.71303">
        <ele>255.6</ele>
        <time>2011-03-02T10:08:18Z</time>
      </trkpt>
      <trkpt lat="49.66295" lon="4.71322">
        <ele>263.3</ele>
        <time>2011-03-02T10:08:19Z</time>
      </trkpt>
      <trkpt lat="49.66294" lon="4.71323">
        <ele>263.35</ele>
        <time>2011-03-02T10:08:21Z</time>
      </trkpt>
      <trkpt lat="49.66294" lon="4.71325">
        <ele>263.725</ele>
        <time>2011-03-02T10:08:23Z</time>
      </trkpt>
      <trkpt lat="49.66293" lon="4.71327">
        <ele>263.82</ele>
        <time>2011-03-02T10:08:24Z</time>
      </trkpt>
      <trkpt lat="49.66292" lon="4.71328">
        <ele>264.7</ele>
        <time>2011-03-02T10:08:26Z</time>
      </trkpt>
      <trkpt lat="49.6629" lon="4.7133">
        <ele>265.113</ele>
        <time>2011-03-02T10:08:28Z</time>
      </trkpt>
      <trkpt lat="49.66289" lon="4.71332">
        <ele>266.129</ele>
        <time>2011-03-02T10:08:30Z</time>
      </trkpt>
      <trkpt lat="49.66288" lon="4.71334">
        <ele>266.45</ele>
        <time>2011-03-02T10:08:31Z</time>
      </trkpt>
      <trkpt lat="49.66287" lon="4.71334">
        <ele>267.025</ele>
        <time>2011-03-02T10:08:32Z</time>
      </trkpt>
      <trkpt lat="49.66286" lon="4.71334">
        <ele>268.163</ele>
        <time>2011-03-02T10:08:34Z</time>
      </trkpt>
      <trkpt lat="49.66286" lon="4.71335">
        <ele>268.413</ele>
        <time>2011-03-02T10:08:35Z</time>
      </trkpt>
      <trkpt lat="49.66286" lon="4.71335">
        <ele>268.475</ele>
        <time>2011-03-02T10:08:37Z</time>
      </trkpt>
      <trkpt lat="49.66286" lon="4.71335">
        <ele>268.34</ele>
        <time>2011-03-02T10:08:39Z</time>
      </trkpt>
      <trkpt lat="49.66285" lon="4.71335">
        <ele>268.29</ele>
        <time>2011-03-02T10:08:40Z</time>
      </trkpt>
      <trkpt lat="49.66284" lon="4.71337">
        <ele>268.26</ele>
        <time>2011-03-02T10:08:42Z</time>
      </trkpt>
      <trkpt lat="49.66283" lon="4.71338">
        <ele>268.28</ele>
        <time>2011-03-02T10:08:43Z</time>
      </trkpt>
      <trkpt lat="49.66281" lon="4.71339">
        <ele>268.41</ele>
        <time>2011-03-02T10:08:45Z</time>
      </trkpt>
      <trkpt lat="49.66278" lon="4.71342">
        <ele>268.85</ele>
        <time>2011-03-02T10:08:47Z</time>
      </trkpt>
      <trkpt lat="49.66277" lon="4.71344">
        <ele>269.07</ele>
        <time>2011-03-02T10:08:48Z</time>
      </trkpt>
      <trkpt lat="49.66276" lon="4.71346">
        <ele>269.338</ele>
        <time>2011-03-02T10:08:50Z</time>
      </trkpt>
      <trkpt lat="49.66276" lon="4.71348">
        <ele>269.471</ele>
        <time>2011-03-02T10:08:51Z</time>
      </trkpt>
      <trkpt lat="49.66275" lon="4.71349">
        <ele>269.6</ele>
        <time>2011-03-02T10:08:52Z</time>
      </trkpt>
      <trkpt lat="49.66275" lon="4.71349">
        <ele>269.74</ele>
        <time>2011-03-02T10:08:53Z</time>
      </trkpt>
      <trkpt lat="49.66275" lon="4.71349">
        <ele>270.133</ele>
        <time>2011-03-02T10:08:55Z</time>
      </trkpt>
      <trkpt lat="49.66275" lon="4.71349">
        <ele>270</ele>
        <time>2011-03-02T10:08:57Z</time>
      </trkpt>
      <trkpt lat="49.66275" lon="4.71349">
        <ele>273.2</ele>
        <time>2011-03-02T10:08:59Z</time>
      </trkpt>
      <trkpt lat="49.66275" lon="4.71349">
        <ele>273.2</ele>
        <time>2011-03-02T10:09:01Z</time>
      </trkpt>
      <trkpt lat="49.66275" lon="4.71349">
        <ele>273.2</ele>
        <time>2011-03-02T10:09:03Z</time>
      </trkpt>
      <trkpt lat="49.66275" lon="4.71349">
        <ele>273.2</ele>
        <time>2011-03-02T10:09:04Z</time>
      </trkpt>
      <trkpt lat="49.66275" lon="4.71349">
        <ele>273.2</ele>
        <time>2011-03-02T10:09:05Z</time>
      </trkpt>
      <trkpt lat="49.66275" lon="4.71349">
        <ele>273.2</ele>
        <time>2011-03-02T10:09:07Z</time>
      </trkpt>
      <trkpt lat="49.66275" lon="4.71349">
        <ele>273.2</ele>
        <time>2011-03-02T10:09:08Z</time>
      </trkpt>
      <trkpt lat="49.66275" lon="4.71349">
        <ele>273.2</ele>
        <time>2011-03-02T10:09:10Z</time>
      </trkpt>
      <trkpt lat="49.66275" lon="4.71349">
        <ele>273.2</ele>
        <time>2011-03-02T10:09:11Z</time>
      </trkpt>
      <trkpt lat="49.66268" lon="4.71348">
        <ele>273.7</ele>
        <time>2011-03-02T10:09:12Z</time>
      </trkpt>
      <trkpt lat="49.66268" lon="4.71348">
        <ele>273.667</ele>
        <time>2011-03-02T10:09:14Z</time>
      </trkpt>
      <trkpt lat="49.66268" lon="4.71349">
        <ele>273.62</ele>
        <time>2011-03-02T10:09:16Z</time>
      </trkpt>
      <trkpt lat="49.66268" lon="4.7135">
        <ele>273.583</ele>
        <time>2011-03-02T10:09:17Z</time>
      </trkpt>
      <trkpt lat="49.66264" lon="4.71352">
        <ele>273.925</ele>
        <time>2011-03-02T10:09:19Z</time>
      </trkpt>
      <trkpt lat="49.66262" lon="4.71353">
        <ele>274.344</ele>
        <time>2011-03-02T10:09:20Z</time>
      </trkpt>
      <trkpt lat="49.66258" lon="4.71352">
        <ele>274.822</ele>
        <time>2011-03-02T10:09:22Z</time>
      </trkpt>
      <trkpt lat="49.66256" lon="4.71352">
        <ele>275.157</ele>
        <time>2011-03-02T10:09:24Z</time>
      </trkpt>
      <trkpt lat="49.66255" lon="4.71352">
        <ele>275.8</ele>
        <time>2011-03-02T10:09:26Z</time>
      </trkpt>
      <trkpt lat="49.66251" lon="4.71356">
        <ele>278.36</ele>
        <time>2011-03-02T10:09:28Z</time>
      </trkpt>
      <trkpt lat="49.6625" lon="4.71357">
        <ele>279.16</ele>
        <time>2011-03-02T10:09:30Z</time>
      </trkpt>
      <trkpt lat="49.6625" lon="4.71357">
        <ele>279.36</ele>
        <time>2011-03-02T10:09:31Z</time>
      </trkpt>
      <trkpt lat="49.66249" lon="4.71357">
        <ele>279.233</ele>
        <time>2011-03-02T10:09:32Z</time>
      </trkpt>
      <trkpt lat="49.66249" lon="4.71358">
        <ele>279.129</ele>
        <time>2011-03-02T10:09:33Z</time>
      </trkpt>
      <trkpt lat="49.66249" lon="4.71358">
        <ele>279.013</ele>
        <time>2011-03-02T10:09:34Z</time>
      </trkpt>
      <trkpt lat="49.66248" lon="4.71358">
        <ele>278.922</ele>
        <time>2011-03-02T10:09:35Z</time>
      </trkpt>
      <trkpt lat="49.66247" lon="4.71358">
        <ele>278.94</ele>
        <time>2011-03-02T10:09:36Z</time>
      </trkpt>
      <trkpt lat="49.66246" lon="4.71357">
        <ele>278.84</ele>
        <time>2011-03-02T10:09:38Z</time>
      </trkpt>
      <trkpt lat="49.66244" lon="4.71357">
        <ele>278.9</ele>
        <time>2011-03-02T10:09:40Z</time>
      </trkpt>
      <trkpt lat="49.66244" lon="4.71357">
        <ele>278.92</ele>
        <time>2011-03-02T10:09:42Z</time>
      </trkpt>
      <trkpt lat="49.66242" lon="4.71359">
        <ele>278.96</ele>
        <time>2011-03-02T10:09:44Z</time>
      </trkpt>
      <trkpt lat="49.66241" lon="4.71362">
        <ele>278.89</ele>
        <time>2011-03-02T10:09:46Z</time>
      </trkpt>
      <trkpt lat="49.66239" lon="4.71365">
        <ele>278.67</ele>
        <time>2011-03-02T10:09:48Z</time>
      </trkpt>
      <trkpt lat="49.66237" lon="4.71366">
        <ele>278.378</ele>
        <time>2011-03-02T10:09:50Z</time>
      </trkpt>
      <trkpt lat="49.66235" lon="4.71366">
        <ele>278.1</ele>
        <time>2011-03-02T10:09:52Z</time>
      </trkpt>
      <trkpt lat="49.66233" lon="4.71366">
        <ele>277.895</ele>
        <time>2011-03-02T10:09:53Z</time>
      </trkpt>
      <trkpt lat="49.66232" lon="4.71369">
        <ele>277.105</ele>
        <time>2011-03-02T10:09:55Z</time>
      </trkpt>
      <trkpt lat="49.6623" lon="4.71372">
        <ele>276.723</ele>
        <time>2011-03-02T10:09:56Z</time>
      </trkpt>
      <trkpt lat="49.6623" lon="4.71376">
        <ele>275.986</ele>
        <time>2011-03-02T10:09:58Z</time>
      </trkpt>
      <trkpt lat="49.66228" lon="4.71377">
        <ele>275.616</ele>
        <time>2011-03-02T10:10:00Z</time>
      </trkpt>
      <trkpt lat="49.66227" lon="4.71378">
        <ele>275.232</ele>
        <time>2011-03-02T10:10:01Z</time>
      </trkpt>
      <trkpt lat="49.66226" lon="4.71378">
        <ele>274.4</ele>
        <time>2011-03-02T10:10:03Z</time>
      </trkpt>
      <trkpt lat="49.66225" lon="4.71378">
        <ele>273.93</ele>
        <time>2011-03-02T10:10:04Z</time>
      </trkpt>
      <trkpt lat="49.66225" lon="4.71378">
        <ele>273.46</ele>
        <time>2011-03-02T10:10:05Z</time>
      </trkpt>
      <trkpt lat="49.66224" lon="4.71377">
        <ele>272.28</ele>
        <time>2011-03-02T10:10:07Z</time>
      </trkpt>
      <trkpt lat="49.66224" lon="4.71377">
        <ele>271.922</ele>
        <time>2011-03-02T10:10:08Z</time>
      </trkpt>
      <trkpt lat="49.66224" lon="4.71376">
        <ele>270.986</ele>
        <time>2011-03-02T10:10:10Z</time>
      </trkpt>
      <trkpt lat="49.66224" lon="4.71376">
        <ele>270.483</ele>
        <time>2011-03-02T10:10:11Z</time>
      </trkpt>
      <trkpt lat="49.66223" lon="4.71375">
        <ele>270.15</ele>
        <time>2011-03-02T10:10:13Z</time>
      </trkpt>
      <trkpt lat="49.66223" lon="4.71374">
        <ele>269.6</ele>
        <time>2011-03-02T10:10:16Z</time>
      </trkpt>
      <trkpt lat="49.66223" lon="4.71373">
        <ele>269.6</ele>
        <time>2011-03-02T10:10:17Z</time>
      </trkpt>
      <trkpt lat="49.66224" lon="4.71373">
        <ele>269.62</ele>
        <time>2011-03-02T10:10:19Z</time>
      </trkpt>
      <trkpt lat="49.66224" lon="4.71373">
        <ele>269.643</ele>
        <time>2011-03-02T10:10:21Z</time>
      </trkpt>
      <trkpt lat="49.66224" lon="4.71373">
        <ele>269.65</ele>
        <time>2011-03-02T10:10:22Z</time>
      </trkpt>
      <trkpt lat="49.66224" lon="4.71373">
        <ele>269.656</ele>
        <time>2011-03-02T10:10:24Z</time>
      </trkpt>
      <trkpt lat="49.66224" lon="4.71373">
        <ele>269.66</ele>
        <time>2011-03-02T10:10:25Z</time>
      </trkpt>
      <trkpt lat="49.66224" lon="4.71373">
        <ele>269.68</ele>
        <time>2011-03-02T10:10:26Z</time>
      </trkpt>
      <trkpt lat="49.66224" lon="4.71373">
        <ele>269.69</ele>
        <time>2011-03-02T10:10:27Z</time>
      </trkpt>
      <trkpt lat="49.66223" lon="4.71373">
        <ele>269.793</ele>
        <time>2011-03-02T10:10:28Z</time>
      </trkpt>
      <trkpt lat="49.66223" lon="4.71372">
        <ele>270.046</ele>
        <time>2011-03-02T10:10:30Z</time>
      </trkpt>
      <trkpt lat="49.66222" lon="4.71372">
        <ele>270.175</ele>
        <time>2011-03-02T10:10:32Z</time>
      </trkpt>
      <trkpt lat="49.66221" lon="4.7137">
        <ele>270.591</ele>
        <time>2011-03-02T10:10:34Z</time>
      </trkpt>
      <trkpt lat="49.6622" lon="4.71369">
        <ele>270.833</ele>
        <time>2011-03-02T10:10:35Z</time>
      </trkpt>
      <trkpt lat="49.66217" lon="4.71368">
        <ele>271.19</ele>
        <time>2011-03-02T10:10:37Z</time>
      </trkpt>
      <trkpt lat="49.66215" lon="4.71367">
        <ele>271.17</ele>
        <time>2011-03-02T10:10:38Z</time>
      </trkpt>
      <trkpt lat="49.66213" lon="4.71367">
        <ele>271.08</ele>
        <time>2011-03-02T10:10:40Z</time>
      </trkpt>
      <trkpt lat="49.66212" lon="4.71366">
        <ele>271.13</ele>
        <time>2011-03-02T10:10:41Z</time>
      </trkpt>
      <trkpt lat="49.66212" lon="4.71366">
        <ele>271.18</ele>
        <time>2011-03-02T10:10:42Z</time>
      </trkpt>
      <trkpt lat="49.6621" lon="4.71364">
        <ele>270.6</ele>
        <time>2011-03-02T10:10:44Z</time>
      </trkpt>
      <trkpt lat="49.66209" lon="4.71363">
        <ele>270.28</ele>
        <time>2011-03-02T10:10:45Z</time>
      </trkpt>
      <trkpt lat="49.66207" lon="4.71361">
        <ele>269.8</ele>
        <time>2011-03-02T10:10:47Z</time>
      </trkpt>
      <trkpt lat="49.66206" lon="4.71361">
        <ele>269.635</ele>
        <time>2011-03-02T10:10:48Z</time>
      </trkpt>
      <trkpt lat="49.66203" lon="4.71361">
        <ele>269.453</ele>
        <time>2011-03-02T10:10:50Z</time>
      </trkpt>
      <trkpt lat="49.662" lon="4.71362">
        <ele>269.434</ele>
        <time>2011-03-02T10:10:52Z</time>
      </trkpt>
      <trkpt lat="49.66198" lon="4.71363">
        <ele>270.066</ele>
        <time>2011-03-02T10:10:54Z</time>
      </trkpt>
      <trkpt lat="49.66196" lon="4.71364">
        <ele>270.859</ele>
        <time>2011-03-02T10:10:55Z</time>
      </trkpt>
      <trkpt lat="49.66196" lon="4.71364">
        <ele>271.29</ele>
        <time>2011-03-02T10:10:56Z</time>
      </trkpt>
      <trkpt lat="49.66194" lon="4.71363">
        <ele>272.01</ele>
        <time>2011-03-02T10:10:58Z</time>
      </trkpt>
      <trkpt lat="49.66192" lon="4.71362">
        <ele>272.58</ele>
        <time>2011-03-02T10:11:00Z</time>
      </trkpt>
      <trkpt lat="49.66192" lon="4.71361">
        <ele>272.77</ele>
        <time>2011-03-02T10:11:01Z</time>
      </trkpt>
      <trkpt lat="49.66191" lon="4.71361">
        <ele>272.86</ele>
        <time>2011-03-02T10:11:02Z</time>
      </trkpt>
      <trkpt lat="49.66189" lon="4.71361">
        <ele>272.85</ele>
        <time>2011-03-02T10:11:04Z</time>
      </trkpt>
      <trkpt lat="49.66187" lon="4.71362">
        <ele>272.62</ele>
        <time>2011-03-02T10:11:06Z</time>
      </trkpt>
      <trkpt lat="49.66186" lon="4.71363">
        <ele>272.3</ele>
        <time>2011-03-02T10:11:08Z</time>
      </trkpt>
      <trkpt lat="49.66186" lon="4.71362">
        <ele>272.025</ele>
        <time>2011-03-02T10:11:10Z</time>
      </trkpt>
      <trkpt lat="49.66186" lon="4.71361">
        <ele>271.736</ele>
        <time>2011-03-02T10:11:12Z</time>
      </trkpt>
      <trkpt lat="49.66185" lon="4.71358">
        <ele>271.737</ele>
        <time>2011-03-02T10:11:13Z</time>
      </trkpt>
      <trkpt lat="49.66184" lon="4.71357">
        <ele>271.824</ele>
        <time>2011-03-02T10:11:14Z</time>
      </trkpt>
      <trkpt lat="49.66182" lon="4.71357">
        <ele>272.042</ele>
        <time>2011-03-02T10:11:16Z</time>
      </trkpt>
      <trkpt lat="49.66181" lon="4.71358">
        <ele>272.361</ele>
        <time>2011-03-02T10:11:17Z</time>
      </trkpt>
      <trkpt lat="49.6618" lon="4.71358">
        <ele>272.768</ele>
        <time>2011-03-02T10:11:18Z</time>
      </trkpt>
      <trkpt lat="49.66176" lon="4.7136">
        <ele>273.471</ele>
        <time>2011-03-02T10:11:20Z</time>
      </trkpt>
      <trkpt lat="49.66174" lon="4.71361">
        <ele>274.11</ele>
        <time>2011-03-02T10:11:22Z</time>
      </trkpt>
      <trkpt lat="49.66173" lon="4.71361">
        <ele>274.56</ele>
        <time>2011-03-02T10:11:23Z</time>
      </trkpt>
      <trkpt lat="49.66173" lon="4.71362">
        <ele>275.48</ele>
        <time>2011-03-02T10:11:25Z</time>
      </trkpt>
      <trkpt lat="49.66172" lon="4.71361">
        <ele>275.92</ele>
        <time>2011-03-02T10:11:26Z</time>
      </trkpt>
      <trkpt lat="49.66171" lon="4.71359">
        <ele>276.31</ele>
        <time>2011-03-02T10:11:28Z</time>
      </trkpt>
      <trkpt lat="49.66169" lon="4.71359">
        <ele>276.52</ele>
        <time>2011-03-02T10:11:30Z</time>
      </trkpt>
      <trkpt lat="49.66165" lon="4.71359">
        <ele>276.72</ele>
        <time>2011-03-02T10:11:32Z</time>
      </trkpt>
      <trkpt lat="49.66165" lon="4.71358">
        <ele>276.92</ele>
        <time>2011-03-02T10:11:34Z</time>
      </trkpt>
      <trkpt lat="49.66166" lon="4.71357">
        <ele>277.27</ele>
        <time>2011-03-02T10:11:36Z</time>
      </trkpt>
      <trkpt lat="49.66167" lon="4.71355">
        <ele>277.78</ele>
        <time>2011-03-02T10:11:37Z</time>
      </trkpt>
      <trkpt lat="49.66167" lon="4.71354">
        <ele>278.05</ele>
        <time>2011-03-02T10:11:38Z</time>
      </trkpt>
      <trkpt lat="49.66167" lon="4.71353">
        <ele>278.2</ele>
        <time>2011-03-02T10:11:39Z</time>
      </trkpt>
      <trkpt lat="49.66167" lon="4.71353">
        <ele>278.41</ele>
        <time>2011-03-02T10:11:41Z</time>
      </trkpt>
      <trkpt lat="49.66167" lon="4.71354">
        <ele>278.51</ele>
        <time>2011-03-02T10:11:42Z</time>
      </trkpt>
      <trkpt lat="49.66167" lon="4.71354">
        <ele>278.61</ele>
        <time>2011-03-02T10:11:43Z</time>
      </trkpt>
      <trkpt lat="49.66166" lon="4.71355">
        <ele>278.72</ele>
        <time>2011-03-02T10:11:45Z</time>
      </trkpt>
      <trkpt lat="49.66166" lon="4.71355">
        <ele>278.77</ele>
        <time>2011-03-02T10:11:46Z</time>
      </trkpt>
      <trkpt lat="49.66164" lon="4.71355">
        <ele>278.841</ele>
        <time>2011-03-02T10:11:48Z</time>
      </trkpt>
      <trkpt lat="49.66163" lon="4.71356">
        <ele>278.889</ele>
        <time>2011-03-02T10:11:50Z</time>
      </trkpt>
      <trkpt lat="49.66162" lon="4.71356">
        <ele>278.913</ele>
        <time>2011-03-02T10:11:51Z</time>
      </trkpt>
      <trkpt lat="49.66161" lon="4.71356">
        <ele>278.889</ele>
        <time>2011-03-02T10:11:52Z</time>
      </trkpt>
      <trkpt lat="49.66161" lon="4.71356">
        <ele>278.854</ele>
        <time>2011-03-02T10:11:53Z</time>
      </trkpt>
      <trkpt lat="49.66161" lon="4.71356">
        <ele>278.818</ele>
        <time>2011-03-02T10:11:55Z</time>
      </trkpt>
      <trkpt lat="49.66161" lon="4.71356">
        <ele>278.795</ele>
        <time>2011-03-02T10:11:56Z</time>
      </trkpt>
      <trkpt lat="49.66161" lon="4.71356">
        <ele>278.798</ele>
        <time>2011-03-02T10:11:57Z</time>
      </trkpt>
      <trkpt lat="49.66161" lon="4.71356">
        <ele>278.8</ele>
        <time>2011-03-02T10:11:59Z</time>
      </trkpt>
      <trkpt lat="49.66161" lon="4.71356">
        <ele>278.8</ele>
        <time>2011-03-02T10:12:00Z</time>
      </trkpt>
      <trkpt lat="49.66161" lon="4.71356">
        <ele>278.8</ele>
        <time>2011-03-02T10:12:01Z</time>
      </trkpt>
      <trkpt lat="49.6616" lon="4.71356">
        <ele>278.77</ele>
        <time>2011-03-02T10:12:03Z</time>
      </trkpt>
      <trkpt lat="49.66158" lon="4.71356">
        <ele>278.77</ele>
        <time>2011-03-02T10:12:05Z</time>
      </trkpt>
      <trkpt lat="49.66156" lon="4.71356">
        <ele>278.82</ele>
        <time>2011-03-02T10:12:06Z</time>
      </trkpt>
      <trkpt lat="49.66152" lon="4.71356">
        <ele>279.004</ele>
        <time>2011-03-02T10:12:08Z</time>
      </trkpt>
      <trkpt lat="49.6615" lon="4.71357">
        <ele>279.111</ele>
        <time>2011-03-02T10:12:09Z</time>
      </trkpt>
      <trkpt lat="49.66147" lon="4.71358">
        <ele>279.265</ele>
        <time>2011-03-02T10:12:11Z</time>
      </trkpt>
      <trkpt lat="49.66146" lon="4.71359">
        <ele>279.318</ele>
        <time>2011-03-02T10:12:12Z</time>
      </trkpt>
      <trkpt lat="49.66144" lon="4.71359">
        <ele>279.433</ele>
        <time>2011-03-02T10:12:13Z</time>
      </trkpt>
      <trkpt lat="49.66142" lon="4.71359">
        <ele>279.541</ele>
        <time>2011-03-02T10:12:14Z</time>
      </trkpt>
      <trkpt lat="49.66138" lon="4.71358">
        <ele>279.68</ele>
        <time>2011-03-02T10:12:16Z</time>
      </trkpt>
      <trkpt lat="49.66135" lon="4.71357">
        <ele>279.81</ele>
        <time>2011-03-02T10:12:17Z</time>
      </trkpt>
      <trkpt lat="49.6613" lon="4.71356">
        <ele>280.1</ele>
        <time>2011-03-02T10:12:19Z</time>
      </trkpt>
      <trkpt lat="49.66128" lon="4.71356">
        <ele>280.24</ele>
        <time>2011-03-02T10:12:20Z</time>
      </trkpt>
      <trkpt lat="49.66126" lon="4.71356">
        <ele>280.4</ele>
        <time>2011-03-02T10:12:21Z</time>
      </trkpt>
      <trkpt lat="49.66122" lon="4.71356">
        <ele>280.73</ele>
        <time>2011-03-02T10:12:23Z</time>
      </trkpt>
      <trkpt lat="49.66119" lon="4.71358">
        <ele>281.23</ele>
        <time>2011-03-02T10:12:25Z</time>
      </trkpt>
      <trkpt lat="49.66117" lon="4.71359">
        <ele>281.73</ele>
        <time>2011-03-02T10:12:27Z</time>
      </trkpt>
      <trkpt lat="49.66113" lon="4.71361">
        <ele>282.16</ele>
        <time>2011-03-02T10:12:29Z</time>
      </trkpt>
      <trkpt lat="49.66109" lon="4.71362">
        <ele>282.72</ele>
        <time>2011-03-02T10:12:31Z</time>
      </trkpt>
      <trkpt lat="49.66107" lon="4.71362">
        <ele>283.05</ele>
        <time>2011-03-02T10:12:32Z</time>
      </trkpt>
      <trkpt lat="49.66103" lon="4.71362">
        <ele>283.59</ele>
        <time>2011-03-02T10:12:34Z</time>
      </trkpt>
      <trkpt lat="49.66102" lon="4.71363">
        <ele>283.73</ele>
        <time>2011-03-02T10:12:35Z</time>
      </trkpt>
      <trkpt lat="49.661" lon="4.71363">
        <ele>283.82</ele>
        <time>2011-03-02T10:12:36Z</time>
      </trkpt>
      <trkpt lat="49.66098" lon="4.71364">
        <ele>284.03</ele>
        <time>2011-03-02T10:12:37Z</time>
      </trkpt>
      <trkpt lat="49.66094" lon="4.71365">
        <ele>284.23</ele>
        <time>2011-03-02T10:12:39Z</time>
      </trkpt>
      <trkpt lat="49.66091" lon="4.71366">
        <ele>284.32</ele>
        <time>2011-03-02T10:12:40Z</time>
      </trkpt>
      <trkpt lat="49.66089" lon="4.71366">
        <ele>284.38</ele>
        <time>2011-03-02T10:12:41Z</time>
      </trkpt>
      <trkpt lat="49.66085" lon="4.71365">
        <ele>284.61</ele>
        <time>2011-03-02T10:12:43Z</time>
      </trkpt>
      <trkpt lat="49.6608" lon="4.71364">
        <ele>285.07</ele>
        <time>2011-03-02T10:12:45Z</time>
      </trkpt>
      <trkpt lat="49.66076" lon="4.71363">
        <ele>285.41</ele>
        <time>2011-03-02T10:12:47Z</time>
      </trkpt>
      <trkpt lat="49.66075" lon="4.71363">
        <ele>285.51</ele>
        <time>2011-03-02T10:12:48Z</time>
      </trkpt>
      <trkpt lat="49.66073" lon="4.71362">
        <ele>285.27</ele>
        <time>2011-03-02T10:12:50Z</time>
      </trkpt>
      <trkpt lat="49.66072" lon="4.71361">
        <ele>285</ele>
        <time>2011-03-02T10:12:51Z</time>
      </trkpt>
      <trkpt lat="49.6607" lon="4.71361">
        <ele>284.68</ele>
        <time>2011-03-02T10:12:52Z</time>
      </trkpt>
      <trkpt lat="49.66064" lon="4.71362">
        <ele>284</ele>
        <time>2011-03-02T10:12:54Z</time>
      </trkpt>
      <trkpt lat="49.66061" lon="4.71363">
        <ele>283.72</ele>
        <time>2011-03-02T10:12:55Z</time>
      </trkpt>
      <trkpt lat="49.66056" lon="4.71364">
        <ele>283.11</ele>
        <time>2011-03-02T10:12:57Z</time>
      </trkpt>
      <trkpt lat="49.66053" lon="4.71364">
        <ele>282.79</ele>
        <time>2011-03-02T10:12:58Z</time>
      </trkpt>
      <trkpt lat="49.66051" lon="4.71364">
        <ele>282.55</ele>
        <time>2011-03-02T10:12:59Z</time>
      </trkpt>
      <trkpt lat="49.66046" lon="4.71364">
        <ele>282.2</ele>
        <time>2011-03-02T10:13:01Z</time>
      </trkpt>
      <trkpt lat="49.66044" lon="4.71364">
        <ele>282.09</ele>
        <time>2011-03-02T10:13:02Z</time>
      </trkpt>
      <trkpt lat="49.66039" lon="4.71366">
        <ele>282.02</ele>
        <time>2011-03-02T10:13:04Z</time>
      </trkpt>
      <trkpt lat="49.66036" lon="4.71367">
        <ele>281.98</ele>
        <time>2011-03-02T10:13:05Z</time>
      </trkpt>
      <trkpt lat="49.66034" lon="4.71369">
        <ele>282.02</ele>
        <time>2011-03-02T10:13:06Z</time>
      </trkpt>
      <trkpt lat="49.66031" lon="4.7137">
        <ele>282.07</ele>
        <time>2011-03-02T10:13:07Z</time>
      </trkpt>
      <trkpt lat="49.66027" lon="4.71372">
        <ele>282.22</ele>
        <time>2011-03-02T10:13:09Z</time>
      </trkpt>
      <trkpt lat="49.66022" lon="4.71373">
        <ele>282.3</ele>
        <time>2011-03-02T10:13:11Z</time>
      </trkpt>
      <trkpt lat="49.66018" lon="4.71374">
        <ele>282.42</ele>
        <time>2011-03-02T10:13:13Z</time>
      </trkpt>
      <trkpt lat="49.66015" lon="4.71375">
        <ele>282.49</ele>
        <time>2011-03-02T10:13:14Z</time>
      </trkpt>
      <trkpt lat="49.6601" lon="4.71377">
        <ele>282.76</ele>
        <time>2011-03-02T10:13:16Z</time>
      </trkpt>
      <trkpt lat="49.66005" lon="4.71379">
        <ele>283.05</ele>
        <time>2011-03-02T10:13:18Z</time>
      </trkpt>
      <trkpt lat="49.66" lon="4.7138">
        <ele>283.34</ele>
        <time>2011-03-02T10:13:20Z</time>
      </trkpt>
      <trkpt lat="49.65995" lon="4.71381">
        <ele>283.75</ele>
        <time>2011-03-02T10:13:22Z</time>
      </trkpt>
      <trkpt lat="49.65991" lon="4.71382">
        <ele>284.09</ele>
        <time>2011-03-02T10:13:24Z</time>
      </trkpt>
      <trkpt lat="49.65987" lon="4.71383">
        <ele>284.28</ele>
        <time>2011-03-02T10:13:26Z</time>
      </trkpt>
      <trkpt lat="49.65985" lon="4.71383">
        <ele>284.35</ele>
        <time>2011-03-02T10:13:27Z</time>
      </trkpt>
      <trkpt lat="49.65981" lon="4.71385">
        <ele>284.57</ele>
        <time>2011-03-02T10:13:29Z</time>
      </trkpt>
      <trkpt lat="49.65979" lon="4.71385">
        <ele>284.7</ele>
        <time>2011-03-02T10:13:30Z</time>
      </trkpt>
      <trkpt lat="49.65972" lon="4.71387">
        <ele>284.96</ele>
        <time>2011-03-02T10:13:32Z</time>
      </trkpt>
      <trkpt lat="49.65969" lon="4.71388">
        <ele>285.08</ele>
        <time>2011-03-02T10:13:33Z</time>
      </trkpt>
      <trkpt lat="49.65965" lon="4.71388">
        <ele>285.2</ele>
        <time>2011-03-02T10:13:34Z</time>
      </trkpt>
      <trkpt lat="49.6596" lon="4.7139">
        <ele>285.44</ele>
        <time>2011-03-02T10:13:36Z</time>
      </trkpt>
      <trkpt lat="49.65955" lon="4.71391">
        <ele>285.73</ele>
        <time>2011-03-02T10:13:38Z</time>
      </trkpt>
      <trkpt lat="49.65951" lon="4.71392">
        <ele>286.1</ele>
        <time>2011-03-02T10:13:40Z</time>
      </trkpt>
      <trkpt lat="49.65946" lon="4.71395">
        <ele>286.31</ele>
        <time>2011-03-02T10:13:42Z</time>
      </trkpt>
      <trkpt lat="49.65943" lon="4.71398">
        <ele>286.5</ele>
        <time>2011-03-02T10:13:44Z</time>
      </trkpt>
      <trkpt lat="49.65941" lon="4.71402">
        <ele>286.72</ele>
        <time>2011-03-02T10:13:46Z</time>
      </trkpt>
      <trkpt lat="49.65939" lon="4.71404">
        <ele>286.83</ele>
        <time>2011-03-02T10:13:48Z</time>
      </trkpt>
      <trkpt lat="49.65934" lon="4.71405">
        <ele>286.69</ele>
        <time>2011-03-02T10:13:50Z</time>
      </trkpt>
      <trkpt lat="49.65929" lon="4.71405">
        <ele>286.52</ele>
        <time>2011-03-02T10:13:52Z</time>
      </trkpt>
      <trkpt lat="49.65924" lon="4.71405">
        <ele>286.32</ele>
        <time>2011-03-02T10:13:54Z</time>
      </trkpt>
      <trkpt lat="49.65919" lon="4.71407">
        <ele>286.09</ele>
        <time>2011-03-02T10:13:56Z</time>
      </trkpt>
      <trkpt lat="49.65913" lon="4.71409">
        <ele>285.91</ele>
        <time>2011-03-02T10:13:58Z</time>
      </trkpt>
      <trkpt lat="49.65908" lon="4.71411">
        <ele>285.93</ele>
        <time>2011-03-02T10:14:00Z</time>
      </trkpt>
      <trkpt lat="49.65905" lon="4.71412">
        <ele>285.98</ele>
        <time>2011-03-02T10:14:01Z</time>
      </trkpt>
      <trkpt lat="49.65901" lon="4.71414">
        <ele>286.14</ele>
        <time>2011-03-02T10:14:03Z</time>
      </trkpt>
      <trkpt lat="49.65895" lon="4.71417">
        <ele>286.56</ele>
        <time>2011-03-02T10:14:05Z</time>
      </trkpt>
      <trkpt lat="49.65889" lon="4.71419">
        <ele>286.88</ele>
        <time>2011-03-02T10:14:07Z</time>
      </trkpt>
      <trkpt lat="49.65884" lon="4.71421">
        <ele>287.19</ele>
        <time>2011-03-02T10:14:09Z</time>
      </trkpt>
      <trkpt lat="49.65882" lon="4.71422">
        <ele>287.35</ele>
        <time>2011-03-02T10:14:10Z</time>
      </trkpt>
      <trkpt lat="49.65878" lon="4.71424">
        <ele>287.67</ele>
        <time>2011-03-02T10:14:13Z</time>
      </trkpt>
      <trkpt lat="49.65874" lon="4.71425">
        <ele>287.79</ele>
        <time>2011-03-02T10:14:14Z</time>
      </trkpt>
      <trkpt lat="49.6587" lon="4.71426">
        <ele>287.9</ele>
        <time>2011-03-02T10:14:16Z</time>
      </trkpt>
      <trkpt lat="49.65866" lon="4.71426">
        <ele>288.1</ele>
        <time>2011-03-02T10:14:18Z</time>
      </trkpt>
      <trkpt lat="49.65861" lon="4.71427">
        <ele>288.28</ele>
        <time>2011-03-02T10:14:20Z</time>
      </trkpt>
      <trkpt lat="49.65859" lon="4.71428">
        <ele>288.38</ele>
        <time>2011-03-02T10:14:21Z</time>
      </trkpt>
      <trkpt lat="49.65857" lon="4.71429">
        <ele>288.61</ele>
        <time>2011-03-02T10:14:22Z</time>
      </trkpt>
      <trkpt lat="49.65852" lon="4.71429">
        <ele>289.25</ele>
        <time>2011-03-02T10:14:24Z</time>
      </trkpt>
      <trkpt lat="49.65847" lon="4.71429">
        <ele>289.88</ele>
        <time>2011-03-02T10:14:26Z</time>
      </trkpt>
      <trkpt lat="49.65844" lon="4.71431">
        <ele>290.55</ele>
        <time>2011-03-02T10:14:28Z</time>
      </trkpt>
      <trkpt lat="49.65841" lon="4.71432">
        <ele>291.23</ele>
        <time>2011-03-02T10:14:30Z</time>
      </trkpt>
      <trkpt lat="49.65839" lon="4.71433">
        <ele>291.52</ele>
        <time>2011-03-02T10:14:31Z</time>
      </trkpt>
      <trkpt lat="49.65834" lon="4.71434">
        <ele>291.72</ele>
        <time>2011-03-02T10:14:33Z</time>
      </trkpt>
      <trkpt lat="49.65832" lon="4.71435">
        <ele>291.73</ele>
        <time>2011-03-02T10:14:34Z</time>
      </trkpt>
      <trkpt lat="49.6583" lon="4.71435">
        <ele>291.81</ele>
        <time>2011-03-02T10:14:35Z</time>
      </trkpt>
      <trkpt lat="49.65827" lon="4.71435">
        <ele>291.95</ele>
        <time>2011-03-02T10:14:36Z</time>
      </trkpt>
      <trkpt lat="49.65822" lon="4.71435">
        <ele>292.3</ele>
        <time>2011-03-02T10:14:38Z</time>
      </trkpt>
      <trkpt lat="49.65819" lon="4.71435">
        <ele>292.43</ele>
        <time>2011-03-02T10:14:39Z</time>
      </trkpt>
      <trkpt lat="49.65812" lon="4.71435">
        <ele>292.56</ele>
        <time>2011-03-02T10:14:41Z</time>
      </trkpt>
      <trkpt lat="49.65805" lon="4.71436">
        <ele>292.778</ele>
        <time>2011-03-02T10:14:43Z</time>
      </trkpt>
      <trkpt lat="49.65799" lon="4.71436">
        <ele>292.954</ele>
        <time>2011-03-02T10:14:45Z</time>
      </trkpt>
      <trkpt lat="49.65794" lon="4.71436">
        <ele>292.8</ele>
        <time>2011-03-02T10:14:47Z</time>
      </trkpt>
      <trkpt lat="49.65792" lon="4.71435">
        <ele>292.623</ele>
        <time>2011-03-02T10:14:48Z</time>
      </trkpt>
      <trkpt lat="49.6579" lon="4.71436">
        <ele>292.342</ele>
        <time>2011-03-02T10:14:50Z</time>
      </trkpt>
      <trkpt lat="49.65787" lon="4.71437">
        <ele>292.19</ele>
        <time>2011-03-02T10:14:52Z</time>
      </trkpt>
      <trkpt lat="49.65785" lon="4.71438">
        <ele>292.03</ele>
        <time>2011-03-02T10:14:54Z</time>
      </trkpt>
      <trkpt lat="49.65783" lon="4.71439">
        <ele>291.95</ele>
        <time>2011-03-02T10:14:55Z</time>
      </trkpt>
      <trkpt lat="49.65779" lon="4.71443">
        <ele>291.89</ele>
        <time>2011-03-02T10:14:57Z</time>
      </trkpt>
      <trkpt lat="49.65776" lon="4.71444">
        <ele>291.93</ele>
        <time>2011-03-02T10:14:58Z</time>
      </trkpt>
      <trkpt lat="49.65772" lon="4.71447">
        <ele>292.01</ele>
        <time>2011-03-02T10:15:00Z</time>
      </trkpt>
      <trkpt lat="49.65767" lon="4.7145">
        <ele>292.17</ele>
        <time>2011-03-02T10:15:02Z</time>
      </trkpt>
      <trkpt lat="49.65765" lon="4.71451">
        <ele>292.21</ele>
        <time>2011-03-02T10:15:03Z</time>
      </trkpt>
      <trkpt lat="49.6576" lon="4.71453">
        <ele>292.22</ele>
        <time>2011-03-02T10:15:05Z</time>
      </trkpt>
      <trkpt lat="49.65755" lon="4.71453">
        <ele>292.18</ele>
        <time>2011-03-02T10:15:07Z</time>
      </trkpt>
      <trkpt lat="49.65752" lon="4.71453">
        <ele>292.15</ele>
        <time>2011-03-02T10:15:08Z</time>
      </trkpt>
      <trkpt lat="49.6575" lon="4.71454">
        <ele>292.13</ele>
        <time>2011-03-02T10:15:09Z</time>
      </trkpt>
      <trkpt lat="49.65746" lon="4.71455">
        <ele>291.88</ele>
        <time>2011-03-02T10:15:11Z</time>
      </trkpt>
      <trkpt lat="49.65744" lon="4.71456">
        <ele>291.69</ele>
        <time>2011-03-02T10:15:12Z</time>
      </trkpt>
      <trkpt lat="49.65741" lon="4.71457">
        <ele>291.52</ele>
        <time>2011-03-02T10:15:14Z</time>
      </trkpt>
      <trkpt lat="49.65738" lon="4.71459">
        <ele>291.55</ele>
        <time>2011-03-02T10:15:16Z</time>
      </trkpt>
      <trkpt lat="49.65735" lon="4.71461">
        <ele>291.77</ele>
        <time>2011-03-02T10:15:18Z</time>
      </trkpt>
      <trkpt lat="49.65732" lon="4.71463">
        <ele>292.02</ele>
        <time>2011-03-02T10:15:20Z</time>
      </trkpt>
      <trkpt lat="49.65728" lon="4.71463">
        <ele>292.55</ele>
        <time>2011-03-02T10:15:22Z</time>
      </trkpt>
      <trkpt lat="49.65725" lon="4.71463">
        <ele>293.05</ele>
        <time>2011-03-02T10:15:24Z</time>
      </trkpt>
      <trkpt lat="49.65724" lon="4.71463">
        <ele>293.27</ele>
        <time>2011-03-02T10:15:25Z</time>
      </trkpt>
      <trkpt lat="49.6572" lon="4.71464">
        <ele>293.52</ele>
        <time>2011-03-02T10:15:27Z</time>
      </trkpt>
      <trkpt lat="49.65717" lon="4.71464">
        <ele>293.69</ele>
        <time>2011-03-02T10:15:29Z</time>
      </trkpt>
      <trkpt lat="49.65716" lon="4.71464">
        <ele>293.79</ele>
        <time>2011-03-02T10:15:31Z</time>
      </trkpt>
      <trkpt lat="49.65712" lon="4.71464">
        <ele>293.8</ele>
        <time>2011-03-02T10:15:32Z</time>
      </trkpt>
      <trkpt lat="49.6571" lon="4.71465">
        <ele>293.72</ele>
        <time>2011-03-02T10:15:33Z</time>
      </trkpt>
      <trkpt lat="49.65706" lon="4.71465">
        <ele>293.62</ele>
        <time>2011-03-02T10:15:35Z</time>
      </trkpt>
      <trkpt lat="49.65702" lon="4.71465">
        <ele>293.56</ele>
        <time>2011-03-02T10:15:37Z</time>
      </trkpt>
      <trkpt lat="49.657" lon="4.71466">
        <ele>293.56</ele>
        <time>2011-03-02T10:15:38Z</time>
      </trkpt>
      <trkpt lat="49.65697" lon="4.71467">
        <ele>293.68</ele>
        <time>2011-03-02T10:15:40Z</time>
      </trkpt>
      <trkpt lat="49.65693" lon="4.7147">
        <ele>294.08</ele>
        <time>2011-03-02T10:15:42Z</time>
      </trkpt>
      <trkpt lat="49.6569" lon="4.71473">
        <ele>294.59</ele>
        <time>2011-03-02T10:15:44Z</time>
      </trkpt>
      <trkpt lat="49.65686" lon="4.71475">
        <ele>295.17</ele>
        <time>2011-03-02T10:15:46Z</time>
      </trkpt>
      <trkpt lat="49.65682" lon="4.71477">
        <ele>295.86</ele>
        <time>2011-03-02T10:15:48Z</time>
      </trkpt>
      <trkpt lat="49.65679" lon="4.7148">
        <ele>296.52</ele>
        <time>2011-03-02T10:15:50Z</time>
      </trkpt>
      <trkpt lat="49.65676" lon="4.71484">
        <ele>297.06</ele>
        <time>2011-03-02T10:15:52Z</time>
      </trkpt>
      <trkpt lat="49.65673" lon="4.71487">
        <ele>297.74</ele>
        <time>2011-03-02T10:15:54Z</time>
      </trkpt>
      <trkpt lat="49.65671" lon="4.71489">
        <ele>298.27</ele>
        <time>2011-03-02T10:15:56Z</time>
      </trkpt>
      <trkpt lat="49.65669" lon="4.71492">
        <ele>298.62</ele>
        <time>2011-03-02T10:15:58Z</time>
      </trkpt>
      <trkpt lat="49.65666" lon="4.71494">
        <ele>298.63</ele>
        <time>2011-03-02T10:16:00Z</time>
      </trkpt>
      <trkpt lat="49.65664" lon="4.71495">
        <ele>298.54</ele>
        <time>2011-03-02T10:16:01Z</time>
      </trkpt>
      <trkpt lat="49.65661" lon="4.71495">
        <ele>298.41</ele>
        <time>2011-03-02T10:16:02Z</time>
      </trkpt>
      <trkpt lat="49.65656" lon="4.71497">
        <ele>297.99</ele>
        <time>2011-03-02T10:16:04Z</time>
      </trkpt>
      <trkpt lat="49.65654" lon="4.71499">
        <ele>297.99</ele>
        <time>2011-03-02T10:16:05Z</time>
      </trkpt>
      <trkpt lat="49.6565" lon="4.71503">
        <ele>297.98</ele>
        <time>2011-03-02T10:16:07Z</time>
      </trkpt>
      <trkpt lat="49.65644" lon="4.71507">
        <ele>298.07</ele>
        <time>2011-03-02T10:16:09Z</time>
      </trkpt>
      <trkpt lat="49.65642" lon="4.71509">
        <ele>298.22</ele>
        <time>2011-03-02T10:16:10Z</time>
      </trkpt>
      <trkpt lat="49.65636" lon="4.71514">
        <ele>298.88</ele>
        <time>2011-03-02T10:16:12Z</time>
      </trkpt>
      <trkpt lat="49.65631" lon="4.71519">
        <ele>299.74</ele>
        <time>2011-03-02T10:16:14Z</time>
      </trkpt>
      <trkpt lat="49.65628" lon="4.7152">
        <ele>299.98</ele>
        <time>2011-03-02T10:16:15Z</time>
      </trkpt>
      <trkpt lat="49.65623" lon="4.71524">
        <ele>300.53</ele>
        <time>2011-03-02T10:16:17Z</time>
      </trkpt>
      <trkpt lat="49.65621" lon="4.71525">
        <ele>300.86</ele>
        <time>2011-03-02T10:16:18Z</time>
      </trkpt>
      <trkpt lat="49.65617" lon="4.71528">
        <ele>301.83</ele>
        <time>2011-03-02T10:16:20Z</time>
      </trkpt>
      <trkpt lat="49.65614" lon="4.7153">
        <ele>302.56</ele>
        <time>2011-03-02T10:16:22Z</time>
      </trkpt>
      <trkpt lat="49.65608" lon="4.71535">
        <ele>303.96</ele>
        <time>2011-03-02T10:16:23Z</time>
      </trkpt>
      <trkpt lat="49.656" lon="4.71543">
        <ele>305.6</ele>
        <time>2011-03-02T10:16:25Z</time>
      </trkpt>
      <trkpt lat="49.65597" lon="4.71546">
        <ele>306.45</ele>
        <time>2011-03-02T10:16:26Z</time>
      </trkpt>
      <trkpt lat="49.65591" lon="4.71553">
        <ele>308.82</ele>
        <time>2011-03-02T10:16:28Z</time>
      </trkpt>
      <trkpt lat="49.65585" lon="4.7156">
        <ele>311.21</ele>
        <time>2011-03-02T10:16:30Z</time>
      </trkpt>
      <trkpt lat="49.65582" lon="4.71563">
        <ele>312.11</ele>
        <time>2011-03-02T10:16:31Z</time>
      </trkpt>
      <trkpt lat="49.65577" lon="4.71567">
        <ele>313.78</ele>
        <time>2011-03-02T10:16:33Z</time>
      </trkpt>
      <trkpt lat="49.65572" lon="4.71569">
        <ele>315.04</ele>
        <time>2011-03-02T10:16:35Z</time>
      </trkpt>
      <trkpt lat="49.6557" lon="4.7157">
        <ele>315.63</ele>
        <time>2011-03-02T10:16:36Z</time>
      </trkpt>
      <trkpt lat="49.65566" lon="4.71572">
        <ele>316.033</ele>
        <time>2011-03-02T10:16:37Z</time>
      </trkpt>
      <trkpt lat="49.65561" lon="4.71572">
        <ele>315.741</ele>
        <time>2011-03-02T10:16:39Z</time>
      </trkpt>
      <trkpt lat="49.65557" lon="4.71571">
        <ele>315.381</ele>
        <time>2011-03-02T10:16:40Z</time>
      </trkpt>
      <trkpt lat="49.65553" lon="4.7157">
        <ele>314.918</ele>
        <time>2011-03-02T10:16:41Z</time>
      </trkpt>
      <trkpt lat="49.65544" lon="4.71571">
        <ele>313.182</ele>
        <time>2011-03-02T10:16:43Z</time>
      </trkpt>
      <trkpt lat="49.65537" lon="4.71574">
        <ele>310.695</ele>
        <time>2011-03-02T10:16:45Z</time>
      </trkpt>
      <trkpt lat="49.65535" lon="4.71577">
        <ele>309.34</ele>
        <time>2011-03-02T10:16:46Z</time>
      </trkpt>
      <trkpt lat="49.6553" lon="4.71579">
        <ele>306.61</ele>
        <time>2011-03-02T10:16:48Z</time>
      </trkpt>
      <trkpt lat="49.65526" lon="4.7158">
        <ele>304.07</ele>
        <time>2011-03-02T10:16:50Z</time>
      </trkpt>
      <trkpt lat="49.65523" lon="4.71582">
        <ele>301.99</ele>
        <time>2011-03-02T10:16:52Z</time>
      </trkpt>
      <trkpt lat="49.65519" lon="4.71584">
        <ele>300.8</ele>
        <time>2011-03-02T10:16:54Z</time>
      </trkpt>
      <trkpt lat="49.65515" lon="4.71586">
        <ele>300.02</ele>
        <time>2011-03-02T10:16:55Z</time>
      </trkpt>
      <trkpt lat="49.65512" lon="4.71588">
        <ele>299.48</ele>
        <time>2011-03-02T10:16:57Z</time>
      </trkpt>
      <trkpt lat="49.6551" lon="4.71588">
        <ele>299.31</ele>
        <time>2011-03-02T10:16:58Z</time>
      </trkpt>
      <trkpt lat="49.65506" lon="4.7159">
        <ele>299.12</ele>
        <time>2011-03-02T10:17:00Z</time>
      </trkpt>
      <trkpt lat="49.65505" lon="4.71589">
        <ele>298.4</ele>
        <time>2011-03-02T10:17:02Z</time>
      </trkpt>
      <trkpt lat="49.65505" lon="4.71588">
        <ele>298.13</ele>
        <time>2011-03-02T10:17:03Z</time>
      </trkpt>
      <trkpt lat="49.65505" lon="4.71586">
        <ele>297.67</ele>
        <time>2011-03-02T10:17:05Z</time>
      </trkpt>
      <trkpt lat="49.65504" lon="4.71587">
        <ele>297.5</ele>
        <time>2011-03-02T10:17:06Z</time>
      </trkpt>
      <trkpt lat="49.65504" lon="4.71587">
        <ele>297.37</ele>
        <time>2011-03-02T10:17:07Z</time>
      </trkpt>
      <trkpt lat="49.65504" lon="4.71588">
        <ele>297.09</ele>
        <time>2011-03-02T10:17:09Z</time>
      </trkpt>
      <trkpt lat="49.65503" lon="4.71588">
        <ele>297.04</ele>
        <time>2011-03-02T10:17:11Z</time>
      </trkpt>
      <trkpt lat="49.65503" lon="4.71588">
        <ele>297.23</ele>
        <time>2011-03-02T10:17:13Z</time>
      </trkpt>
      <trkpt lat="49.65503" lon="4.71588">
        <ele>297.28</ele>
        <time>2011-03-02T10:17:15Z</time>
      </trkpt>
      <trkpt lat="49.65503" lon="4.71588">
        <ele>297.24</ele>
        <time>2011-03-02T10:17:16Z</time>
      </trkpt>
      <trkpt lat="49.65503" lon="4.71588">
        <ele>297.16</ele>
        <time>2011-03-02T10:17:17Z</time>
      </trkpt>
      <trkpt lat="49.65503" lon="4.71588">
        <ele>297.03</ele>
        <time>2011-03-02T10:17:18Z</time>
      </trkpt>
      <trkpt lat="49.65503" lon="4.71588">
        <ele>296.9</ele>
        <time>2011-03-02T10:17:19Z</time>
      </trkpt>
      <trkpt lat="49.65503" lon="4.71588">
        <ele>296.55</ele>
        <time>2011-03-02T10:17:21Z</time>
      </trkpt>
      <trkpt lat="49.65503" lon="4.71588">
        <ele>296.38</ele>
        <time>2011-03-02T10:17:22Z</time>
      </trkpt>
      <trkpt lat="49.65503" lon="4.71588">
        <ele>296.04</ele>
        <time>2011-03-02T10:17:24Z</time>
      </trkpt>
      <trkpt lat="49.65503" lon="4.71588">
        <ele>295.903</ele>
        <time>2011-03-02T10:17:25Z</time>
      </trkpt>
      <trkpt lat="49.65503" lon="4.71588">
        <ele>295.552</ele>
        <time>2011-03-02T10:17:26Z</time>
      </trkpt>
      <trkpt lat="49.65502" lon="4.71588">
        <ele>295.19</ele>
        <time>2011-03-02T10:17:27Z</time>
      </trkpt>
      <trkpt lat="49.65502" lon="4.71588">
        <ele>294.873</ele>
        <time>2011-03-02T10:17:28Z</time>
      </trkpt>
      <trkpt lat="49.655" lon="4.71588">
        <ele>294.171</ele>
        <time>2011-03-02T10:17:30Z</time>
      </trkpt>
      <trkpt lat="49.65496" lon="4.71589">
        <ele>293.47</ele>
        <time>2011-03-02T10:17:32Z</time>
      </trkpt>
      <trkpt lat="49.65492" lon="4.71591">
        <ele>292.812</ele>
        <time>2011-03-02T10:17:34Z</time>
      </trkpt>
      <trkpt lat="49.65488" lon="4.71592">
        <ele>292.27</ele>
        <time>2011-03-02T10:17:36Z</time>
      </trkpt>
      <trkpt lat="49.65483" lon="4.71593">
        <ele>291.7</ele>
        <time>2011-03-02T10:17:38Z</time>
      </trkpt>
      <trkpt lat="49.65478" lon="4.71591">
        <ele>291.33</ele>
        <time>2011-03-02T10:17:40Z</time>
      </trkpt>
      <trkpt lat="49.65477" lon="4.71588">
        <ele>291.18</ele>
        <time>2011-03-02T10:17:41Z</time>
      </trkpt>
      <trkpt lat="49.65472" lon="4.71589">
        <ele>291.39</ele>
        <time>2011-03-02T10:17:43Z</time>
      </trkpt>
      <trkpt lat="49.6547" lon="4.71591">
        <ele>291.52</ele>
        <time>2011-03-02T10:17:44Z</time>
      </trkpt>
      <trkpt lat="49.65467" lon="4.71593">
        <ele>292.17</ele>
        <time>2011-03-02T10:17:46Z</time>
      </trkpt>
      <trkpt lat="49.65467" lon="4.71591">
        <ele>292.89</ele>
        <time>2011-03-02T10:17:48Z</time>
      </trkpt>
      <trkpt lat="49.65467" lon="4.71589">
        <ele>293.26</ele>
        <time>2011-03-02T10:17:49Z</time>
      </trkpt>
      <trkpt lat="49.65467" lon="4.71589">
        <ele>293.62</ele>
        <time>2011-03-02T10:17:50Z</time>
      </trkpt>
      <trkpt lat="49.65467" lon="4.71589">
        <ele>293.98</ele>
        <time>2011-03-02T10:17:51Z</time>
      </trkpt>
      <trkpt lat="49.65467" lon="4.71589">
        <ele>294.21</ele>
        <time>2011-03-02T10:17:53Z</time>
      </trkpt>
      <trkpt lat="49.65467" lon="4.71589">
        <ele>294.28</ele>
        <time>2011-03-02T10:17:54Z</time>
      </trkpt>
      <trkpt lat="49.65467" lon="4.71589">
        <ele>294.33</ele>
        <time>2011-03-02T10:17:56Z</time>
      </trkpt>
      <trkpt lat="49.65464" lon="4.71587">
        <ele>294.29</ele>
        <time>2011-03-02T10:17:58Z</time>
      </trkpt>
      <trkpt lat="49.65462" lon="4.71586">
        <ele>294.25</ele>
        <time>2011-03-02T10:17:59Z</time>
      </trkpt>
      <trkpt lat="49.65459" lon="4.71585">
        <ele>294.2</ele>
        <time>2011-03-02T10:18:00Z</time>
      </trkpt>
      <trkpt lat="49.65453" lon="4.71583">
        <ele>293.86</ele>
        <time>2011-03-02T10:18:02Z</time>
      </trkpt>
      <trkpt lat="49.65447" lon="4.71581">
        <ele>293.39</ele>
        <time>2011-03-02T10:18:04Z</time>
      </trkpt>
      <trkpt lat="49.6544" lon="4.71578">
        <ele>292.72</ele>
        <time>2011-03-02T10:18:06Z</time>
      </trkpt>
      <trkpt lat="49.65434" lon="4.71575">
        <ele>291.96</ele>
        <time>2011-03-02T10:18:08Z</time>
      </trkpt>
      <trkpt lat="49.65428" lon="4.71572">
        <ele>291.21</ele>
        <time>2011-03-02T10:18:10Z</time>
      </trkpt>
      <trkpt lat="49.65422" lon="4.71569">
        <ele>290.75</ele>
        <time>2011-03-02T10:18:12Z</time>
      </trkpt>
      <trkpt lat="49.65419" lon="4.71568">
        <ele>290.56</ele>
        <time>2011-03-02T10:18:13Z</time>
      </trkpt>
      <trkpt lat="49.65413" lon="4.71565">
        <ele>290.41</ele>
        <time>2011-03-02T10:18:15Z</time>
      </trkpt>
      <trkpt lat="49.65408" lon="4.71563">
        <ele>290.53</ele>
        <time>2011-03-02T10:18:17Z</time>
      </trkpt>
      <trkpt lat="49.65406" lon="4.71562">
        <ele>290.6</ele>
        <time>2011-03-02T10:18:18Z</time>
      </trkpt>
      <trkpt lat="49.65401" lon="4.71559">
        <ele>290.7</ele>
        <time>2011-03-02T10:18:20Z</time>
      </trkpt>
      <trkpt lat="49.65397" lon="4.71555">
        <ele>290.71</ele>
        <time>2011-03-02T10:18:22Z</time>
      </trkpt>
      <trkpt lat="49.65393" lon="4.7155">
        <ele>290.69</ele>
        <time>2011-03-02T10:18:24Z</time>
      </trkpt>
      <trkpt lat="49.65391" lon="4.71547">
        <ele>290.64</ele>
        <time>2011-03-02T10:18:25Z</time>
      </trkpt>
      <trkpt lat="49.65389" lon="4.71545">
        <ele>290.58</ele>
        <time>2011-03-02T10:18:26Z</time>
      </trkpt>
      <trkpt lat="49.65383" lon="4.71538">
        <ele>290.43</ele>
        <time>2011-03-02T10:18:28Z</time>
      </trkpt>
      <trkpt lat="49.65381" lon="4.71535">
        <ele>290.35</ele>
        <time>2011-03-02T10:18:29Z</time>
      </trkpt>
      <trkpt lat="49.65376" lon="4.71531">
        <ele>290.33</ele>
        <time>2011-03-02T10:18:31Z</time>
      </trkpt>
      <trkpt lat="49.65371" lon="4.71528">
        <ele>290.42</ele>
        <time>2011-03-02T10:18:33Z</time>
      </trkpt>
      <trkpt lat="49.65367" lon="4.71524">
        <ele>290.55</ele>
        <time>2011-03-02T10:18:35Z</time>
      </trkpt>
      <trkpt lat="49.65362" lon="4.7152">
        <ele>290.63</ele>
        <time>2011-03-02T10:18:37Z</time>
      </trkpt>
      <trkpt lat="49.6536" lon="4.71518">
        <ele>290.61</ele>
        <time>2011-03-02T10:18:38Z</time>
      </trkpt>
      <trkpt lat="49.65357" lon="4.71514">
        <ele>290.57</ele>
        <time>2011-03-02T10:18:40Z</time>
      </trkpt>
      <trkpt lat="49.65354" lon="4.71509">
        <ele>290.36</ele>
        <time>2011-03-02T10:18:42Z</time>
      </trkpt>
      <trkpt lat="49.6535" lon="4.71503">
        <ele>290.02</ele>
        <time>2011-03-02T10:18:44Z</time>
      </trkpt>
      <trkpt lat="49.65346" lon="4.71499">
        <ele>289.79</ele>
        <time>2011-03-02T10:18:46Z</time>
      </trkpt>
      <trkpt lat="49.65344" lon="4.71497">
        <ele>289.73</ele>
        <time>2011-03-02T10:18:47Z</time>
      </trkpt>
      <trkpt lat="49.65341" lon="4.71494">
        <ele>289.67</ele>
        <time>2011-03-02T10:18:49Z</time>
      </trkpt>
      <trkpt lat="49.65338" lon="4.7149">
        <ele>289.7</ele>
        <time>2011-03-02T10:18:51Z</time>
      </trkpt>
      <trkpt lat="49.65334" lon="4.71487">
        <ele>289.88</ele>
        <time>2011-03-02T10:18:53Z</time>
      </trkpt>
      <trkpt lat="49.65332" lon="4.71485">
        <ele>289.95</ele>
        <time>2011-03-02T10:18:54Z</time>
      </trkpt>
      <trkpt lat="49.65328" lon="4.71483">
        <ele>289.94</ele>
        <time>2011-03-02T10:18:56Z</time>
      </trkpt>
      <trkpt lat="49.65324" lon="4.7148">
        <ele>289.9</ele>
        <time>2011-03-02T10:18:58Z</time>
      </trkpt>
      <trkpt lat="49.6532" lon="4.71477">
        <ele>289.87</ele>
        <time>2011-03-02T10:19:00Z</time>
      </trkpt>
      <trkpt lat="49.65315" lon="4.71474">
        <ele>289.93</ele>
        <time>2011-03-02T10:19:02Z</time>
      </trkpt>
      <trkpt lat="49.65312" lon="4.71472">
        <ele>290</ele>
        <time>2011-03-02T10:19:03Z</time>
      </trkpt>
      <trkpt lat="49.65308" lon="4.7147">
        <ele>290.22</ele>
        <time>2011-03-02T10:19:05Z</time>
      </trkpt>
      <trkpt lat="49.65305" lon="4.71466">
        <ele>290.6</ele>
        <time>2011-03-02T10:19:07Z</time>
      </trkpt>
      <trkpt lat="49.65303" lon="4.71464">
        <ele>290.77</ele>
        <time>2011-03-02T10:19:08Z</time>
      </trkpt>
      <trkpt lat="49.65299" lon="4.71461">
        <ele>291.06</ele>
        <time>2011-03-02T10:19:10Z</time>
      </trkpt>
      <trkpt lat="49.65295" lon="4.71457">
        <ele>291.17</ele>
        <time>2011-03-02T10:19:12Z</time>
      </trkpt>
      <trkpt lat="49.65293" lon="4.71455">
        <ele>291.18</ele>
        <time>2011-03-02T10:19:13Z</time>
      </trkpt>
      <trkpt lat="49.65291" lon="4.71454">
        <ele>291.19</ele>
        <time>2011-03-02T10:19:14Z</time>
      </trkpt>
      <trkpt lat="49.6529" lon="4.71453">
        <ele>291.19</ele>
        <time>2011-03-02T10:19:15Z</time>
      </trkpt>
      <trkpt lat="49.65287" lon="4.71453">
        <ele>291.13</ele>
        <time>2011-03-02T10:19:17Z</time>
      </trkpt>
      <trkpt lat="49.65287" lon="4.71454">
        <ele>291.14</ele>
        <time>2011-03-02T10:19:18Z</time>
      </trkpt>
      <trkpt lat="49.65288" lon="4.71457">
        <ele>291.32</ele>
        <time>2011-03-02T10:19:20Z</time>
      </trkpt>
      <trkpt lat="49.65289" lon="4.71459">
        <ele>291.41</ele>
        <time>2011-03-02T10:19:21Z</time>
      </trkpt>
      <trkpt lat="49.6529" lon="4.71463">
        <ele>291.51</ele>
        <time>2011-03-02T10:19:22Z</time>
      </trkpt>
      <trkpt lat="49.65292" lon="4.7147">
        <ele>291.69</ele>
        <time>2011-03-02T10:19:24Z</time>
      </trkpt>
      <trkpt lat="49.65293" lon="4.71473">
        <ele>291.79</ele>
        <time>2011-03-02T10:19:25Z</time>
      </trkpt>
      <trkpt lat="49.65294" lon="4.71475">
        <ele>291.89</ele>
        <time>2011-03-02T10:19:26Z</time>
      </trkpt>
      <trkpt lat="49.65296" lon="4.71479">
        <ele>292.02</ele>
        <time>2011-03-02T10:19:28Z</time>
      </trkpt>
      <trkpt lat="49.65298" lon="4.71486">
        <ele>291.86</ele>
        <time>2011-03-02T10:19:30Z</time>
      </trkpt>
      <trkpt lat="49.653" lon="4.71494">
        <ele>291.64</ele>
        <time>2011-03-02T10:19:32Z</time>
      </trkpt>
      <trkpt lat="49.65304" lon="4.71503">
        <ele>291.4</ele>
        <time>2011-03-02T10:19:34Z</time>
      </trkpt>
      <trkpt lat="49.65307" lon="4.71513">
        <ele>291.12</ele>
        <time>2011-03-02T10:19:36Z</time>
      </trkpt>
      <trkpt lat="49.65309" lon="4.71519">
        <ele>290.92</ele>
        <time>2011-03-02T10:19:37Z</time>
      </trkpt>
      <trkpt lat="49.65313" lon="4.7153">
        <ele>290.63</ele>
        <time>2011-03-02T10:19:39Z</time>
      </trkpt>
      <trkpt lat="49.65316" lon="4.71536">
        <ele>290.53</ele>
        <time>2011-03-02T10:19:40Z</time>
      </trkpt>
      <trkpt lat="49.65318" lon="4.71542">
        <ele>290.44</ele>
        <time>2011-03-02T10:19:41Z</time>
      </trkpt>
      <trkpt lat="49.65323" lon="4.71554">
        <ele>290.23</ele>
        <time>2011-03-02T10:19:43Z</time>
      </trkpt>
      <trkpt lat="49.65326" lon="4.71568">
        <ele>289.99</ele>
        <time>2011-03-02T10:19:45Z</time>
      </trkpt>
      <trkpt lat="49.6533" lon="4.71582">
        <ele>289.8</ele>
        <time>2011-03-02T10:19:47Z</time>
      </trkpt>
      <trkpt lat="49.65332" lon="4.7159">
        <ele>289.74</ele>
        <time>2011-03-02T10:19:48Z</time>
      </trkpt>
      <trkpt lat="49.65337" lon="4.71604">
        <ele>289.5</ele>
        <time>2011-03-02T10:19:50Z</time>
      </trkpt>
      <trkpt lat="49.65343" lon="4.71619">
        <ele>289.27</ele>
        <time>2011-03-02T10:19:52Z</time>
      </trkpt>
      <trkpt lat="49.65349" lon="4.71634">
        <ele>289.28</ele>
        <time>2011-03-02T10:19:54Z</time>
      </trkpt>
      <trkpt lat="49.65352" lon="4.71642">
        <ele>289.35</ele>
        <time>2011-03-02T10:19:55Z</time>
      </trkpt>
      <trkpt lat="49.65354" lon="4.7165">
        <ele>289.46</ele>
        <time>2011-03-02T10:19:56Z</time>
      </trkpt>
      <trkpt lat="49.6536" lon="4.71664">
        <ele>289.7</ele>
        <time>2011-03-02T10:19:58Z</time>
      </trkpt>
      <trkpt lat="49.65365" lon="4.71679">
        <ele>290.09</ele>
        <time>2011-03-02T10:20:00Z</time>
      </trkpt>
      <trkpt lat="49.6537" lon="4.71692">
        <ele>290.47</ele>
        <time>2011-03-02T10:20:03Z</time>
      </trkpt>
      <trkpt lat="49.65375" lon="4.71704">
        <ele>290.68</ele>
        <time>2011-03-02T10:20:04Z</time>
      </trkpt>
      <trkpt lat="49.65377" lon="4.7171">
        <ele>290.805</ele>
        <time>2011-03-02T10:20:05Z</time>
      </trkpt>
      <trkpt lat="49.65379" lon="4.71716">
        <ele>290.886</ele>
        <time>2011-03-02T10:20:06Z</time>
      </trkpt>
      <trkpt lat="49.65383" lon="4.71727">
        <ele>290.968</ele>
        <time>2011-03-02T10:20:08Z</time>
      </trkpt>
      <trkpt lat="49.65385" lon="4.71739">
        <ele>291.002</ele>
        <time>2011-03-02T10:20:10Z</time>
      </trkpt>
      <trkpt lat="49.65387" lon="4.71744">
        <ele>290.945</ele>
        <time>2011-03-02T10:20:11Z</time>
      </trkpt>
      <trkpt lat="49.65392" lon="4.71758">
        <ele>290.741</ele>
        <time>2011-03-02T10:20:13Z</time>
      </trkpt>
      <trkpt lat="49.65396" lon="4.71772">
        <ele>290.27</ele>
        <time>2011-03-02T10:20:15Z</time>
      </trkpt>
      <trkpt lat="49.65399" lon="4.71784">
        <ele>289.783</ele>
        <time>2011-03-02T10:20:16Z</time>
      </trkpt>
      <trkpt lat="49.654" lon="4.71788">
        <ele>289.446</ele>
        <time>2011-03-02T10:20:17Z</time>
      </trkpt>
      <trkpt lat="49.65403" lon="4.718">
        <ele>288.467</ele>
        <time>2011-03-02T10:20:19Z</time>
      </trkpt>
      <trkpt lat="49.65408" lon="4.71812">
        <ele>287.413</ele>
        <time>2011-03-02T10:20:21Z</time>
      </trkpt>
      <trkpt lat="49.65409" lon="4.71817">
        <ele>286.957</ele>
        <time>2011-03-02T10:20:22Z</time>
      </trkpt>
      <trkpt lat="49.65413" lon="4.71827">
        <ele>286.163</ele>
        <time>2011-03-02T10:20:23Z</time>
      </trkpt>
      <trkpt lat="49.65416" lon="4.7184">
        <ele>285.65</ele>
        <time>2011-03-02T10:20:25Z</time>
      </trkpt>
      <trkpt lat="49.65418" lon="4.71855">
        <ele>285.06</ele>
        <time>2011-03-02T10:20:27Z</time>
      </trkpt>
      <trkpt lat="49.65419" lon="4.71869">
        <ele>284.78</ele>
        <time>2011-03-02T10:20:28Z</time>
      </trkpt>
      <trkpt lat="49.65422" lon="4.7188">
        <ele>284.34</ele>
        <time>2011-03-02T10:20:30Z</time>
      </trkpt>
      <trkpt lat="49.65424" lon="4.71885">
        <ele>284.13</ele>
        <time>2011-03-02T10:20:31Z</time>
      </trkpt>
      <trkpt lat="49.65427" lon="4.71896">
        <ele>283.63</ele>
        <time>2011-03-02T10:20:33Z</time>
      </trkpt>
      <trkpt lat="49.65429" lon="4.71902">
        <ele>283.39</ele>
        <time>2011-03-02T10:20:34Z</time>
      </trkpt>
      <trkpt lat="49.6543" lon="4.71908">
        <ele>283.03</ele>
        <time>2011-03-02T10:20:35Z</time>
      </trkpt>
      <trkpt lat="49.65433" lon="4.71923">
        <ele>282.12</ele>
        <time>2011-03-02T10:20:37Z</time>
      </trkpt>
      <trkpt lat="49.65435" lon="4.71928">
        <ele>281.96</ele>
        <time>2011-03-02T10:20:38Z</time>
      </trkpt>
      <trkpt lat="49.65437" lon="4.71936">
        <ele>281.67</ele>
        <time>2011-03-02T10:20:39Z</time>
      </trkpt>
      <trkpt lat="49.65439" lon="4.71946">
        <ele>281.53</ele>
        <time>2011-03-02T10:20:41Z</time>
      </trkpt>
      <trkpt lat="49.65442" lon="4.71957">
        <ele>281.67</ele>
        <time>2011-03-02T10:20:43Z</time>
      </trkpt>
      <trkpt lat="49.65443" lon="4.71963">
        <ele>281.87</ele>
        <time>2011-03-02T10:20:44Z</time>
      </trkpt>
      <trkpt lat="49.65444" lon="4.71968">
        <ele>282.08</ele>
        <time>2011-03-02T10:20:45Z</time>
      </trkpt>
      <trkpt lat="49.65447" lon="4.71981">
        <ele>282.64</ele>
        <time>2011-03-02T10:20:47Z</time>
      </trkpt>
      <trkpt lat="49.65448" lon="4.71985">
        <ele>282.85</ele>
        <time>2011-03-02T10:20:48Z</time>
      </trkpt>
      <trkpt lat="49.65448" lon="4.71989">
        <ele>283.15</ele>
        <time>2011-03-02T10:20:49Z</time>
      </trkpt>
      <trkpt lat="49.6545" lon="4.71996">
        <ele>283.76</ele>
        <time>2011-03-02T10:20:50Z</time>
      </trkpt>
      <trkpt lat="49.65452" lon="4.72004">
        <ele>284.55</ele>
        <time>2011-03-02T10:20:52Z</time>
      </trkpt>
      <trkpt lat="49.65453" lon="4.72008">
        <ele>285.04</ele>
        <time>2011-03-02T10:20:53Z</time>
      </trkpt>
      <trkpt lat="49.65455" lon="4.72016">
        <ele>286.07</ele>
        <time>2011-03-02T10:20:54Z</time>
      </trkpt>
      <trkpt lat="49.65456" lon="4.72025">
        <ele>287.03</ele>
        <time>2011-03-02T10:20:56Z</time>
      </trkpt>
      <trkpt lat="49.65457" lon="4.7203">
        <ele>287.31</ele>
        <time>2011-03-02T10:20:57Z</time>
      </trkpt>
      <trkpt lat="49.65461" lon="4.72041">
        <ele>287.69</ele>
        <time>2011-03-02T10:20:59Z</time>
      </trkpt>
      <trkpt lat="49.65464" lon="4.72054">
        <ele>287.53</ele>
        <time>2011-03-02T10:21:01Z</time>
      </trkpt>
      <trkpt lat="49.65467" lon="4.7207">
        <ele>287.48</ele>
        <time>2011-03-02T10:21:03Z</time>
      </trkpt>
      <trkpt lat="49.65469" lon="4.72077">
        <ele>287.69</ele>
        <time>2011-03-02T10:21:04Z</time>
      </trkpt>
      <trkpt lat="49.65473" lon="4.72089">
        <ele>288.19</ele>
        <time>2011-03-02T10:21:06Z</time>
      </trkpt>
      <trkpt lat="49.65474" lon="4.72095">
        <ele>288.52</ele>
        <time>2011-03-02T10:21:07Z</time>
      </trkpt>
      <trkpt lat="49.65476" lon="4.72105">
        <ele>289.37</ele>
        <time>2011-03-02T10:21:09Z</time>
      </trkpt>
      <trkpt lat="49.65476" lon="4.72114">
        <ele>290.25</ele>
        <time>2011-03-02T10:21:11Z</time>
      </trkpt>
      <trkpt lat="49.65477" lon="4.72123">
        <ele>290.6</ele>
        <time>2011-03-02T10:21:13Z</time>
      </trkpt>
      <trkpt lat="49.65478" lon="4.72127">
        <ele>290.55</ele>
        <time>2011-03-02T10:21:14Z</time>
      </trkpt>
      <trkpt lat="49.65479" lon="4.72132">
        <ele>290.5</ele>
        <time>2011-03-02T10:21:15Z</time>
      </trkpt>
      <trkpt lat="49.65479" lon="4.72136">
        <ele>290.45</ele>
        <time>2011-03-02T10:21:16Z</time>
      </trkpt>
      <trkpt lat="49.65482" lon="4.72142">
        <ele>290.4</ele>
        <time>2011-03-02T10:21:18Z</time>
      </trkpt>
      <trkpt lat="49.65484" lon="4.72144">
        <ele>290.34</ele>
        <time>2011-03-02T10:21:19Z</time>
      </trkpt>
      <trkpt lat="49.65486" lon="4.72149">
        <ele>290.44</ele>
        <time>2011-03-02T10:21:21Z</time>
      </trkpt>
      <trkpt lat="49.65487" lon="4.72156">
        <ele>290.76</ele>
        <time>2011-03-02T10:21:22Z</time>
      </trkpt>
      <trkpt lat="49.65487" lon="4.72164">
        <ele>291</ele>
        <time>2011-03-02T10:21:24Z</time>
      </trkpt>
      <trkpt lat="49.65487" lon="4.72173">
        <ele>291.21</ele>
        <time>2011-03-02T10:21:26Z</time>
      </trkpt>
      <trkpt lat="49.65487" lon="4.72178">
        <ele>291.29</ele>
        <time>2011-03-02T10:21:27Z</time>
      </trkpt>
      <trkpt lat="49.65487" lon="4.72187">
        <ele>291.31</ele>
        <time>2011-03-02T10:21:29Z</time>
      </trkpt>
      <trkpt lat="49.65487" lon="4.72195">
        <ele>290.72</ele>
        <time>2011-03-02T10:21:31Z</time>
      </trkpt>
      <trkpt lat="49.65487" lon="4.72198">
        <ele>290.31</ele>
        <time>2011-03-02T10:21:32Z</time>
      </trkpt>
      <trkpt lat="49.65487" lon="4.72202">
        <ele>289.49</ele>
        <time>2011-03-02T10:21:33Z</time>
      </trkpt>
      <trkpt lat="49.65489" lon="4.72208">
        <ele>288.9</ele>
        <time>2011-03-02T10:21:35Z</time>
      </trkpt>
      <trkpt lat="49.65493" lon="4.72213">
        <ele>288.43</ele>
        <time>2011-03-02T10:21:36Z</time>
      </trkpt>
      <trkpt lat="49.65495" lon="4.7222">
        <ele>288.5</ele>
        <time>2011-03-02T10:21:38Z</time>
      </trkpt>
      <trkpt lat="49.65494" lon="4.72226">
        <ele>289.08</ele>
        <time>2011-03-02T10:21:41Z</time>
      </trkpt>
      <trkpt lat="49.65493" lon="4.72232">
        <ele>289.66</ele>
        <time>2011-03-02T10:21:42Z</time>
      </trkpt>
      <trkpt lat="49.65493" lon="4.72239">
        <ele>289.34</ele>
        <time>2011-03-02T10:21:44Z</time>
      </trkpt>
      <trkpt lat="49.65495" lon="4.72247">
        <ele>288.7</ele>
        <time>2011-03-02T10:21:46Z</time>
      </trkpt>
      <trkpt lat="49.65496" lon="4.72251">
        <ele>288.29</ele>
        <time>2011-03-02T10:21:47Z</time>
      </trkpt>
      <trkpt lat="49.65498" lon="4.72255">
        <ele>287.86</ele>
        <time>2011-03-02T10:21:48Z</time>
      </trkpt>
      <trkpt lat="49.655" lon="4.72264">
        <ele>287.02</ele>
        <time>2011-03-02T10:21:50Z</time>
      </trkpt>
      <trkpt lat="49.65502" lon="4.72269">
        <ele>286.65</ele>
        <time>2011-03-02T10:21:51Z</time>
      </trkpt>
      <trkpt lat="49.65505" lon="4.72279">
        <ele>286.21</ele>
        <time>2011-03-02T10:21:52Z</time>
      </trkpt>
      <trkpt lat="49.65508" lon="4.7229">
        <ele>286.255</ele>
        <time>2011-03-02T10:21:54Z</time>
      </trkpt>
      <trkpt lat="49.65511" lon="4.72301">
        <ele>286.323</ele>
        <time>2011-03-02T10:21:56Z</time>
      </trkpt>
      <trkpt lat="49.65513" lon="4.72309">
        <ele>286.472</ele>
        <time>2011-03-02T10:21:57Z</time>
      </trkpt>
      <trkpt lat="49.65515" lon="4.72317">
        <ele>286.419</ele>
        <time>2011-03-02T10:21:59Z</time>
      </trkpt>
      <trkpt lat="49.65516" lon="4.72322">
        <ele>286.483</ele>
        <time>2011-03-02T10:22:00Z</time>
      </trkpt>
      <trkpt lat="49.65518" lon="4.72327">
        <ele>286.536</ele>
        <time>2011-03-02T10:22:01Z</time>
      </trkpt>
      <trkpt lat="49.65521" lon="4.72335">
        <ele>286.646</ele>
        <time>2011-03-02T10:22:02Z</time>
      </trkpt>
      <trkpt lat="49.65523" lon="4.7234">
        <ele>286.7</ele>
        <time>2011-03-02T10:22:03Z</time>
      </trkpt>
      <trkpt lat="49.65525" lon="4.72344">
        <ele>286.78</ele>
        <time>2011-03-02T10:22:04Z</time>
      </trkpt>
      <trkpt lat="49.65529" lon="4.72353">
        <ele>287.05</ele>
        <time>2011-03-02T10:22:06Z</time>
      </trkpt>
      <trkpt lat="49.65531" lon="4.72358">
        <ele>287.21</ele>
        <time>2011-03-02T10:22:07Z</time>
      </trkpt>
      <trkpt lat="49.65536" lon="4.72366">
        <ele>287.2</ele>
        <time>2011-03-02T10:22:09Z</time>
      </trkpt>
      <trkpt lat="49.65537" lon="4.72371">
        <ele>287.11</ele>
        <time>2011-03-02T10:22:10Z</time>
      </trkpt>
      <trkpt lat="49.65538" lon="4.72378">
        <ele>287.01</ele>
        <time>2011-03-02T10:22:12Z</time>
      </trkpt>
      <trkpt lat="49.65536" lon="4.72382">
        <ele>286.95</ele>
        <time>2011-03-02T10:22:14Z</time>
      </trkpt>
      <trkpt lat="49.65533" lon="4.72383">
        <ele>286.66</ele>
        <time>2011-03-02T10:22:16Z</time>
      </trkpt>
      <trkpt lat="49.6553" lon="4.72382">
        <ele>286.28</ele>
        <time>2011-03-02T10:22:18Z</time>
      </trkpt>
      <trkpt lat="49.65527" lon="4.72382">
        <ele>286.13</ele>
        <time>2011-03-02T10:22:20Z</time>
      </trkpt>
      <trkpt lat="49.65522" lon="4.72381">
        <ele>285.738</ele>
        <time>2011-03-02T10:22:22Z</time>
      </trkpt>
      <trkpt lat="49.65517" lon="4.72379">
        <ele>285.155</ele>
        <time>2011-03-02T10:22:23Z</time>
      </trkpt>
      <trkpt lat="49.65514" lon="4.72378">
        <ele>284.809</ele>
        <time>2011-03-02T10:22:24Z</time>
      </trkpt>
      <trkpt lat="49.65512" lon="4.72376">
        <ele>284.471</ele>
        <time>2011-03-02T10:22:25Z</time>
      </trkpt>
      <trkpt lat="49.6551" lon="4.72374">
        <ele>284.132</ele>
        <time>2011-03-02T10:22:26Z</time>
      </trkpt>
      <trkpt lat="49.65504" lon="4.72371">
        <ele>283.447</ele>
        <time>2011-03-02T10:22:28Z</time>
      </trkpt>
      <trkpt lat="49.65498" lon="4.7237">
        <ele>282.93</ele>
        <time>2011-03-02T10:22:30Z</time>
      </trkpt>
      <trkpt lat="49.65494" lon="4.72368">
        <ele>282.94</ele>
        <time>2011-03-02T10:22:32Z</time>
      </trkpt>
      <trkpt lat="49.65491" lon="4.72365">
        <ele>283.13</ele>
        <time>2011-03-02T10:22:34Z</time>
      </trkpt>
      <trkpt lat="49.65487" lon="4.72363">
        <ele>283.47</ele>
        <time>2011-03-02T10:22:36Z</time>
      </trkpt>
      <trkpt lat="49.65485" lon="4.72362">
        <ele>283.67</ele>
        <time>2011-03-02T10:22:37Z</time>
      </trkpt>
      <trkpt lat="49.65481" lon="4.72361">
        <ele>284.08</ele>
        <time>2011-03-02T10:22:38Z</time>
      </trkpt>
      <trkpt lat="49.65478" lon="4.72359">
        <ele>284.47</ele>
        <time>2011-03-02T10:22:40Z</time>
      </trkpt>
      <trkpt lat="49.65476" lon="4.72359">
        <ele>284.87</ele>
        <time>2011-03-02T10:22:41Z</time>
      </trkpt>
      <trkpt lat="49.65476" lon="4.72359">
        <ele>285.06</ele>
        <time>2011-03-02T10:22:42Z</time>
      </trkpt>
      <trkpt lat="49.65475" lon="4.7236">
        <ele>285.34</ele>
        <time>2011-03-02T10:22:44Z</time>
      </trkpt>
      <trkpt lat="49.65473" lon="4.72361">
        <ele>285.48</ele>
        <time>2011-03-02T10:22:46Z</time>
      </trkpt>
      <trkpt lat="49.65471" lon="4.72362">
        <ele>285.54</ele>
        <time>2011-03-02T10:22:47Z</time>
      </trkpt>
      <trkpt lat="49.65468" lon="4.72363">
        <ele>285.64</ele>
        <time>2011-03-02T10:22:48Z</time>
      </trkpt>
      <trkpt lat="49.65463" lon="4.72363">
        <ele>285.76</ele>
        <time>2011-03-02T10:22:50Z</time>
      </trkpt>
      <trkpt lat="49.65459" lon="4.72363">
        <ele>285.91</ele>
        <time>2011-03-02T10:22:52Z</time>
      </trkpt>
      <trkpt lat="49.65453" lon="4.7236">
        <ele>286.41</ele>
        <time>2011-03-02T10:22:54Z</time>
      </trkpt>
      <trkpt lat="49.65449" lon="4.72357">
        <ele>286.72</ele>
        <time>2011-03-02T10:22:55Z</time>
      </trkpt>
      <trkpt lat="49.65444" lon="4.72354">
        <ele>286.63</ele>
        <time>2011-03-02T10:22:57Z</time>
      </trkpt>
      <trkpt lat="49.6544" lon="4.72352">
        <ele>286.43</ele>
        <time>2011-03-02T10:22:58Z</time>
      </trkpt>
      <trkpt lat="49.65436" lon="4.72351">
        <ele>286.25</ele>
        <time>2011-03-02T10:23:00Z</time>
      </trkpt>
      <trkpt lat="49.65432" lon="4.72351">
        <ele>286.05</ele>
        <time>2011-03-02T10:23:02Z</time>
      </trkpt>
      <trkpt lat="49.65428" lon="4.72351">
        <ele>285.93</ele>
        <time>2011-03-02T10:23:03Z</time>
      </trkpt>
      <trkpt lat="49.65424" lon="4.72351">
        <ele>286.03</ele>
        <time>2011-03-02T10:23:05Z</time>
      </trkpt>
      <trkpt lat="49.65417" lon="4.7235">
        <ele>286.29</ele>
        <time>2011-03-02T10:23:07Z</time>
      </trkpt>
      <trkpt lat="49.65414" lon="4.7235">
        <ele>286.44</ele>
        <time>2011-03-02T10:23:08Z</time>
      </trkpt>
      <trkpt lat="49.65407" lon="4.72349">
        <ele>286.62</ele>
        <time>2011-03-02T10:23:10Z</time>
      </trkpt>
      <trkpt lat="49.65399" lon="4.72348">
        <ele>286.86</ele>
        <time>2011-03-02T10:23:12Z</time>
      </trkpt>
      <trkpt lat="49.65395" lon="4.72348">
        <ele>286.99</ele>
        <time>2011-03-02T10:23:13Z</time>
      </trkpt>
      <trkpt lat="49.65388" lon="4.72346">
        <ele>287.3</ele>
        <time>2011-03-02T10:23:14Z</time>
      </trkpt>
      <trkpt lat="49.65381" lon="4.72344">
        <ele>287.68</ele>
        <time>2011-03-02T10:23:16Z</time>
      </trkpt>
      <trkpt lat="49.65376" lon="4.72343">
        <ele>287.89</ele>
        <time>2011-03-02T10:23:17Z</time>
      </trkpt>
      <trkpt lat="49.6537" lon="4.72341">
        <ele>288.07</ele>
        <time>2011-03-02T10:23:19Z</time>
      </trkpt>
      <trkpt lat="49.65366" lon="4.72339">
        <ele>288.2</ele>
        <time>2011-03-02T10:23:20Z</time>
      </trkpt>
      <trkpt lat="49.65356" lon="4.72336">
        <ele>288.4</ele>
        <time>2011-03-02T10:23:22Z</time>
      </trkpt>
      <trkpt lat="49.65349" lon="4.72337">
        <ele>288.34</ele>
        <time>2011-03-02T10:23:23Z</time>
      </trkpt>
      <trkpt lat="49.6534" lon="4.72337">
        <ele>287.98</ele>
        <time>2011-03-02T10:23:25Z</time>
      </trkpt>
      <trkpt lat="49.6533" lon="4.72336">
        <ele>287.61</ele>
        <time>2011-03-02T10:23:27Z</time>
      </trkpt>
      <trkpt lat="49.65321" lon="4.72334">
        <ele>287.23</ele>
        <time>2011-03-02T10:23:28Z</time>
      </trkpt>
      <trkpt lat="49.65312" lon="4.72332">
        <ele>286.91</ele>
        <time>2011-03-02T10:23:30Z</time>
      </trkpt>
      <trkpt lat="49.65303" lon="4.72329">
        <ele>286.45</ele>
        <time>2011-03-02T10:23:32Z</time>
      </trkpt>
      <trkpt lat="49.65296" lon="4.72327">
        <ele>286.25</ele>
        <time>2011-03-02T10:23:33Z</time>
      </trkpt>
      <trkpt lat="49.65292" lon="4.72326">
        <ele>286.09</ele>
        <time>2011-03-02T10:23:34Z</time>
      </trkpt>
      <trkpt lat="49.65285" lon="4.72321">
        <ele>285.61</ele>
        <time>2011-03-02T10:23:36Z</time>
      </trkpt>
      <trkpt lat="49.65281" lon="4.72318">
        <ele>285.34</ele>
        <time>2011-03-02T10:23:37Z</time>
      </trkpt>
      <trkpt lat="49.65275" lon="4.72313">
        <ele>284.87</ele>
        <time>2011-03-02T10:23:38Z</time>
      </trkpt>
      <trkpt lat="49.65268" lon="4.72309">
        <ele>284.47</ele>
        <time>2011-03-02T10:23:40Z</time>
      </trkpt>
      <trkpt lat="49.65264" lon="4.72306">
        <ele>284.15</ele>
        <time>2011-03-02T10:23:41Z</time>
      </trkpt>
      <trkpt lat="49.65253" lon="4.72298">
        <ele>283.29</ele>
        <time>2011-03-02T10:23:43Z</time>
      </trkpt>
      <trkpt lat="49.65247" lon="4.72293">
        <ele>282.81</ele>
        <time>2011-03-02T10:23:44Z</time>
      </trkpt>
      <trkpt lat="49.65238" lon="4.72286">
        <ele>281.81</ele>
        <time>2011-03-02T10:23:45Z</time>
      </trkpt>
      <trkpt lat="49.65231" lon="4.7228">
        <ele>280.56</ele>
        <time>2011-03-02T10:23:47Z</time>
      </trkpt>
      <trkpt lat="49.65224" lon="4.72276">
        <ele>279.665</ele>
        <time>2011-03-02T10:23:48Z</time>
      </trkpt>
      <trkpt lat="49.65219" lon="4.72273">
        <ele>279.413</ele>
        <time>2011-03-02T10:23:49Z</time>
      </trkpt>
      <trkpt lat="49.6521" lon="4.72268">
        <ele>279.242</ele>
        <time>2011-03-02T10:23:51Z</time>
      </trkpt>
      <trkpt lat="49.65199" lon="4.72262">
        <ele>279.388</ele>
        <time>2011-03-02T10:23:53Z</time>
      </trkpt>
      <trkpt lat="49.65194" lon="4.72259">
        <ele>279.714</ele>
        <time>2011-03-02T10:23:54Z</time>
      </trkpt>
      <trkpt lat="49.65187" lon="4.72255">
        <ele>280.515</ele>
        <time>2011-03-02T10:23:55Z</time>
      </trkpt>
      <trkpt lat="49.65183" lon="4.72254">
        <ele>281.09</ele>
        <time>2011-03-02T10:23:56Z</time>
      </trkpt>
      <trkpt lat="49.6518" lon="4.72253">
        <ele>281.45</ele>
        <time>2011-03-02T10:23:57Z</time>
      </trkpt>
      <trkpt lat="49.65174" lon="4.72251">
        <ele>281.93</ele>
        <time>2011-03-02T10:23:59Z</time>
      </trkpt>
      <trkpt lat="49.65171" lon="4.7225">
        <ele>282.05</ele>
        <time>2011-03-02T10:24:00Z</time>
      </trkpt>
      <trkpt lat="49.65166" lon="4.72249">
        <ele>282.12</ele>
        <time>2011-03-02T10:24:01Z</time>
      </trkpt>
      <trkpt lat="49.65164" lon="4.72248">
        <ele>281.81</ele>
        <time>2011-03-02T10:24:03Z</time>
      </trkpt>
      <trkpt lat="49.65158" lon="4.72247">
        <ele>281.01</ele>
        <time>2011-03-02T10:24:04Z</time>
      </trkpt>
      <trkpt lat="49.65152" lon="4.72246">
        <ele>280.18</ele>
        <time>2011-03-02T10:24:06Z</time>
      </trkpt>
      <trkpt lat="49.65145" lon="4.72247">
        <ele>279.46</ele>
        <time>2011-03-02T10:24:08Z</time>
      </trkpt>
      <trkpt lat="49.65139" lon="4.72248">
        <ele>278.46</ele>
        <time>2011-03-02T10:24:10Z</time>
      </trkpt>
      <trkpt lat="49.65136" lon="4.72248">
        <ele>277.98</ele>
        <time>2011-03-02T10:24:11Z</time>
      </trkpt>
      <trkpt lat="49.65131" lon="4.72249">
        <ele>277.23</ele>
        <time>2011-03-02T10:24:12Z</time>
      </trkpt>
      <trkpt lat="49.65126" lon="4.72248">
        <ele>276.81</ele>
        <time>2011-03-02T10:24:14Z</time>
      </trkpt>
      <trkpt lat="49.65121" lon="4.72247">
        <ele>276.44</ele>
        <time>2011-03-02T10:24:15Z</time>
      </trkpt>
      <trkpt lat="49.65115" lon="4.72248">
        <ele>276.5</ele>
        <time>2011-03-02T10:24:17Z</time>
      </trkpt>
      <trkpt lat="49.65112" lon="4.72248">
        <ele>276.68</ele>
        <time>2011-03-02T10:24:18Z</time>
      </trkpt>
      <trkpt lat="49.65108" lon="4.72249">
        <ele>276.83</ele>
        <time>2011-03-02T10:24:19Z</time>
      </trkpt>
      <trkpt lat="49.65101" lon="4.72249">
        <ele>277.18</ele>
        <time>2011-03-02T10:24:21Z</time>
      </trkpt>
      <trkpt lat="49.65095" lon="4.72249">
        <ele>277.44</ele>
        <time>2011-03-02T10:24:22Z</time>
      </trkpt>
      <trkpt lat="49.65091" lon="4.7225">
        <ele>277.47</ele>
        <time>2011-03-02T10:24:24Z</time>
      </trkpt>
      <trkpt lat="49.6509" lon="4.7225">
        <ele>277.23</ele>
        <time>2011-03-02T10:24:25Z</time>
      </trkpt>
      <trkpt lat="49.65087" lon="4.7225">
        <ele>276.77</ele>
        <time>2011-03-02T10:24:26Z</time>
      </trkpt>
      <trkpt lat="49.65083" lon="4.72251">
        <ele>276.33</ele>
        <time>2011-03-02T10:24:28Z</time>
      </trkpt>
      <trkpt lat="49.6508" lon="4.72252">
        <ele>276</ele>
        <time>2011-03-02T10:24:29Z</time>
      </trkpt>
      <trkpt lat="49.65077" lon="4.72253">
        <ele>275.63</ele>
        <time>2011-03-02T10:24:30Z</time>
      </trkpt>
      <trkpt lat="49.65069" lon="4.72256">
        <ele>274.81</ele>
        <time>2011-03-02T10:24:32Z</time>
      </trkpt>
      <trkpt lat="49.65063" lon="4.72257">
        <ele>274.29</ele>
        <time>2011-03-02T10:24:34Z</time>
      </trkpt>
      <trkpt lat="49.65058" lon="4.72258">
        <ele>273.87</ele>
        <time>2011-03-02T10:24:35Z</time>
      </trkpt>
      <trkpt lat="49.65053" lon="4.72259">
        <ele>273.58</ele>
        <time>2011-03-02T10:24:37Z</time>
      </trkpt>
      <trkpt lat="49.6505" lon="4.7226">
        <ele>273.55</ele>
        <time>2011-03-02T10:24:38Z</time>
      </trkpt>
      <trkpt lat="49.65043" lon="4.72262">
        <ele>273.44</ele>
        <time>2011-03-02T10:24:40Z</time>
      </trkpt>
      <trkpt lat="49.65037" lon="4.72263">
        <ele>273.1</ele>
        <time>2011-03-02T10:24:42Z</time>
      </trkpt>
      <trkpt lat="49.65035" lon="4.72263">
        <ele>272.82</ele>
        <time>2011-03-02T10:24:43Z</time>
      </trkpt>
      <trkpt lat="49.6503" lon="4.72265">
        <ele>272.29</ele>
        <time>2011-03-02T10:24:44Z</time>
      </trkpt>
      <trkpt lat="49.65025" lon="4.72266">
        <ele>271.82</ele>
        <time>2011-03-02T10:24:46Z</time>
      </trkpt>
      <trkpt lat="49.65021" lon="4.72266">
        <ele>271.58</ele>
        <time>2011-03-02T10:24:47Z</time>
      </trkpt>
      <trkpt lat="49.65014" lon="4.72267">
        <ele>271.23</ele>
        <time>2011-03-02T10:24:48Z</time>
      </trkpt>
      <trkpt lat="49.65007" lon="4.72267">
        <ele>271.19</ele>
        <time>2011-03-02T10:24:50Z</time>
      </trkpt>
      <trkpt lat="49.64999" lon="4.72268">
        <ele>271.52</ele>
        <time>2011-03-02T10:24:52Z</time>
      </trkpt>
      <trkpt lat="49.64996" lon="4.72268">
        <ele>271.55</ele>
        <time>2011-03-02T10:24:53Z</time>
      </trkpt>
      <trkpt lat="49.64994" lon="4.72269">
        <ele>271.54</ele>
        <time>2011-03-02T10:24:54Z</time>
      </trkpt>
      <trkpt lat="49.64992" lon="4.7227">
        <ele>271.57</ele>
        <time>2011-03-02T10:24:55Z</time>
      </trkpt>
      <trkpt lat="49.64988" lon="4.72274">
        <ele>271.81</ele>
        <time>2011-03-02T10:24:57Z</time>
      </trkpt>
      <trkpt lat="49.64986" lon="4.72276">
        <ele>271.88</ele>
        <time>2011-03-02T10:24:58Z</time>
      </trkpt>
      <trkpt lat="49.64982" lon="4.7228">
        <ele>272.11</ele>
        <time>2011-03-02T10:24:59Z</time>
      </trkpt>
      <trkpt lat="49.64979" lon="4.72284">
        <ele>272.66</ele>
        <time>2011-03-02T10:25:01Z</time>
      </trkpt>
      <trkpt lat="49.64976" lon="4.72288">
        <ele>273.69</ele>
        <time>2011-03-02T10:25:03Z</time>
      </trkpt>
      <trkpt lat="49.64975" lon="4.7229">
        <ele>274.19</ele>
        <time>2011-03-02T10:25:04Z</time>
      </trkpt>
      <trkpt lat="49.64971" lon="4.72294">
        <ele>275.21</ele>
        <time>2011-03-02T10:25:05Z</time>
      </trkpt>
      <trkpt lat="49.64966" lon="4.72299">
        <ele>276.47</ele>
        <time>2011-03-02T10:25:07Z</time>
      </trkpt>
      <trkpt lat="49.64961" lon="4.72303">
        <ele>277.69</ele>
        <time>2011-03-02T10:25:08Z</time>
      </trkpt>
      <trkpt lat="49.64956" lon="4.72308">
        <ele>278.589</ele>
        <time>2011-03-02T10:25:10Z</time>
      </trkpt>
      <trkpt lat="49.64954" lon="4.72311">
        <ele>279.053</ele>
        <time>2011-03-02T10:25:11Z</time>
      </trkpt>
      <trkpt lat="49.64949" lon="4.72317">
        <ele>279.88</ele>
        <time>2011-03-02T10:25:12Z</time>
      </trkpt>
      <trkpt lat="49.64946" lon="4.72319">
        <ele>280.217</ele>
        <time>2011-03-02T10:25:13Z</time>
      </trkpt>
      <trkpt lat="49.64942" lon="4.72324">
        <ele>280.982</ele>
        <time>2011-03-02T10:25:15Z</time>
      </trkpt>
      <trkpt lat="49.64939" lon="4.72329">
        <ele>281.72</ele>
        <time>2011-03-02T10:25:17Z</time>
      </trkpt>
      <trkpt lat="49.64939" lon="4.72331">
        <ele>282.2</ele>
        <time>2011-03-02T10:25:18Z</time>
      </trkpt>
      <trkpt lat="49.64938" lon="4.72335">
        <ele>282.99</ele>
        <time>2011-03-02T10:25:19Z</time>
      </trkpt>
      <trkpt lat="49.64936" lon="4.72342">
        <ele>283.59</ele>
        <time>2011-03-02T10:25:21Z</time>
      </trkpt>
      <trkpt lat="49.64932" lon="4.72351">
        <ele>283.54</ele>
        <time>2011-03-02T10:25:23Z</time>
      </trkpt>
      <trkpt lat="49.64927" lon="4.72358">
        <ele>283.6</ele>
        <time>2011-03-02T10:25:25Z</time>
      </trkpt>
      <trkpt lat="49.64925" lon="4.72361">
        <ele>283.64</ele>
        <time>2011-03-02T10:25:26Z</time>
      </trkpt>
      <trkpt lat="49.64924" lon="4.72363">
        <ele>283.67</ele>
        <time>2011-03-02T10:25:27Z</time>
      </trkpt>
      <trkpt lat="49.6492" lon="4.72366">
        <ele>283.73</ele>
        <time>2011-03-02T10:25:28Z</time>
      </trkpt>
      <trkpt lat="49.64916" lon="4.72371">
        <ele>283.9</ele>
        <time>2011-03-02T10:25:30Z</time>
      </trkpt>
      <trkpt lat="49.64911" lon="4.72377">
        <ele>284.85</ele>
        <time>2011-03-02T10:25:32Z</time>
      </trkpt>
      <trkpt lat="49.6491" lon="4.7238">
        <ele>285.02</ele>
        <time>2011-03-02T10:25:33Z</time>
      </trkpt>
      <trkpt lat="49.64908" lon="4.72384">
        <ele>285.21</ele>
        <time>2011-03-02T10:25:34Z</time>
      </trkpt>
      <trkpt lat="49.64906" lon="4.72388">
        <ele>285.3</ele>
        <time>2011-03-02T10:25:36Z</time>
      </trkpt>
      <trkpt lat="49.64905" lon="4.72388">
        <ele>285.43</ele>
        <time>2011-03-02T10:25:37Z</time>
      </trkpt>
      <trkpt lat="49.64903" lon="4.7239">
        <ele>285.724</ele>
        <time>2011-03-02T10:25:39Z</time>
      </trkpt>
      <trkpt lat="49.64902" lon="4.72392">
        <ele>285.925</ele>
        <time>2011-03-02T10:25:40Z</time>
      </trkpt>
      <trkpt lat="49.64899" lon="4.72398">
        <ele>286.565</ele>
        <time>2011-03-02T10:25:42Z</time>
      </trkpt>
      <trkpt lat="49.64898" lon="4.72399">
        <ele>286.958</ele>
        <time>2011-03-02T10:25:43Z</time>
      </trkpt>
      <trkpt lat="49.64895" lon="4.72401">
        <ele>287.868</ele>
        <time>2011-03-02T10:25:44Z</time>
      </trkpt>
      <trkpt lat="49.6489" lon="4.72403">
        <ele>288.439</ele>
        <time>2011-03-02T10:25:46Z</time>
      </trkpt>
      <trkpt lat="49.64885" lon="4.72405">
        <ele>288.88</ele>
        <time>2011-03-02T10:25:47Z</time>
      </trkpt>
      <trkpt lat="49.64882" lon="4.72406">
        <ele>289.09</ele>
        <time>2011-03-02T10:25:48Z</time>
      </trkpt>
      <trkpt lat="49.6488" lon="4.72407">
        <ele>289.28</ele>
        <time>2011-03-02T10:25:49Z</time>
      </trkpt>
      <trkpt lat="49.64873" lon="4.7241">
        <ele>289.12</ele>
        <time>2011-03-02T10:25:51Z</time>
      </trkpt>
      <trkpt lat="49.64869" lon="4.72412">
        <ele>288.96</ele>
        <time>2011-03-02T10:25:52Z</time>
      </trkpt>
      <trkpt lat="49.64862" lon="4.72413">
        <ele>288.7</ele>
        <time>2011-03-02T10:25:53Z</time>
      </trkpt>
      <trkpt lat="49.64857" lon="4.72415">
        <ele>288.58</ele>
        <time>2011-03-02T10:25:55Z</time>
      </trkpt>
      <trkpt lat="49.64851" lon="4.72416">
        <ele>288.27</ele>
        <time>2011-03-02T10:25:57Z</time>
      </trkpt>
      <trkpt lat="49.64847" lon="4.72417">
        <ele>287.82</ele>
        <time>2011-03-02T10:25:59Z</time>
      </trkpt>
      <trkpt lat="49.64844" lon="4.72417">
        <ele>287.66</ele>
        <time>2011-03-02T10:26:00Z</time>
      </trkpt>
      <trkpt lat="49.64842" lon="4.72417">
        <ele>287.55</ele>
        <time>2011-03-02T10:26:01Z</time>
      </trkpt>
      <trkpt lat="49.64836" lon="4.72418">
        <ele>287.21</ele>
        <time>2011-03-02T10:26:03Z</time>
      </trkpt>
      <trkpt lat="49.64832" lon="4.72418">
        <ele>287</ele>
        <time>2011-03-02T10:26:04Z</time>
      </trkpt>
      <trkpt lat="49.64825" lon="4.72419">
        <ele>286.6</ele>
        <time>2011-03-02T10:26:06Z</time>
      </trkpt>
      <trkpt lat="49.64818" lon="4.7242">
        <ele>286.32</ele>
        <time>2011-03-02T10:26:08Z</time>
      </trkpt>
      <trkpt lat="49.64812" lon="4.72419">
        <ele>286.05</ele>
        <time>2011-03-02T10:26:10Z</time>
      </trkpt>
      <trkpt lat="49.64809" lon="4.72419">
        <ele>285.93</ele>
        <time>2011-03-02T10:26:11Z</time>
      </trkpt>
      <trkpt lat="49.64807" lon="4.72419">
        <ele>285.79</ele>
        <time>2011-03-02T10:26:12Z</time>
      </trkpt>
      <trkpt lat="49.64804" lon="4.72418">
        <ele>285.47</ele>
        <time>2011-03-02T10:26:14Z</time>
      </trkpt>
      <trkpt lat="49.64796" lon="4.72419">
        <ele>285.4</ele>
        <time>2011-03-02T10:26:16Z</time>
      </trkpt>
      <trkpt lat="49.64791" lon="4.72422">
        <ele>285.66</ele>
        <time>2011-03-02T10:26:18Z</time>
      </trkpt>
      <trkpt lat="49.64787" lon="4.72426">
        <ele>285.99</ele>
        <time>2011-03-02T10:26:19Z</time>
      </trkpt>
      <trkpt lat="49.64784" lon="4.72426">
        <ele>286.56</ele>
        <time>2011-03-02T10:26:21Z</time>
      </trkpt>
      <trkpt lat="49.64782" lon="4.72426">
        <ele>286.9</ele>
        <time>2011-03-02T10:26:22Z</time>
      </trkpt>
      <trkpt lat="49.64778" lon="4.72424">
        <ele>287.42</ele>
        <time>2011-03-02T10:26:24Z</time>
      </trkpt>
      <trkpt lat="49.64777" lon="4.72424">
        <ele>287.46</ele>
        <time>2011-03-02T10:26:25Z</time>
      </trkpt>
      <trkpt lat="49.64775" lon="4.72423">
        <ele>286.95</ele>
        <time>2011-03-02T10:26:27Z</time>
      </trkpt>
      <trkpt lat="49.64775" lon="4.72423">
        <ele>286.51</ele>
        <time>2011-03-02T10:26:28Z</time>
      </trkpt>
      <trkpt lat="49.64774" lon="4.72423">
        <ele>285.97</ele>
        <time>2011-03-02T10:26:29Z</time>
      </trkpt>
      <trkpt lat="49.64772" lon="4.72424">
        <ele>284.72</ele>
        <time>2011-03-02T10:26:30Z</time>
      </trkpt>
      <trkpt lat="49.6477" lon="4.72425">
        <ele>283.47</ele>
        <time>2011-03-02T10:26:32Z</time>
      </trkpt>
      <trkpt lat="49.64768" lon="4.72428">
        <ele>282.45</ele>
        <time>2011-03-02T10:26:34Z</time>
      </trkpt>
      <trkpt lat="49.64767" lon="4.7243">
        <ele>282.16</ele>
        <time>2011-03-02T10:26:35Z</time>
      </trkpt>
      <trkpt lat="49.64766" lon="4.72433">
        <ele>281.86</ele>
        <time>2011-03-02T10:26:37Z</time>
      </trkpt>
      <trkpt lat="49.64765" lon="4.72437">
        <ele>281.75</ele>
        <time>2011-03-02T10:26:39Z</time>
      </trkpt>
      <trkpt lat="49.64763" lon="4.7244">
        <ele>281.59</ele>
        <time>2011-03-02T10:26:40Z</time>
      </trkpt>
      <trkpt lat="49.64759" lon="4.72441">
        <ele>281.34</ele>
        <time>2011-03-02T10:26:42Z</time>
      </trkpt>
      <trkpt lat="49.64755" lon="4.72441">
        <ele>281.212</ele>
        <time>2011-03-02T10:26:43Z</time>
      </trkpt>
      <trkpt lat="49.64752" lon="4.72442">
        <ele>281.403</ele>
        <time>2011-03-02T10:26:45Z</time>
      </trkpt>
      <trkpt lat="49.64748" lon="4.72444">
        <ele>281.84</ele>
        <time>2011-03-02T10:26:47Z</time>
      </trkpt>
      <trkpt lat="49.64746" lon="4.72444">
        <ele>282.072</ele>
        <time>2011-03-02T10:26:48Z</time>
      </trkpt>
      <trkpt lat="49.6474" lon="4.72444">
        <ele>282.423</ele>
        <time>2011-03-02T10:26:50Z</time>
      </trkpt>
      <trkpt lat="49.64734" lon="4.72444">
        <ele>282.63</ele>
        <time>2011-03-02T10:26:52Z</time>
      </trkpt>
      <trkpt lat="49.64731" lon="4.72444">
        <ele>282.44</ele>
        <time>2011-03-02T10:26:53Z</time>
      </trkpt>
      <trkpt lat="49.64727" lon="4.72444">
        <ele>281.84</ele>
        <time>2011-03-02T10:26:54Z</time>
      </trkpt>
      <trkpt lat="49.64723" lon="4.72445">
        <ele>281.21</ele>
        <time>2011-03-02T10:26:56Z</time>
      </trkpt>
      <trkpt lat="49.64722" lon="4.72446">
        <ele>280.95</ele>
        <time>2011-03-02T10:26:57Z</time>
      </trkpt>
      <trkpt lat="49.64719" lon="4.72448">
        <ele>280.44</ele>
        <time>2011-03-02T10:26:59Z</time>
      </trkpt>
      <trkpt lat="49.64717" lon="4.72449">
        <ele>280.1</ele>
        <time>2011-03-02T10:27:00Z</time>
      </trkpt>
      <trkpt lat="49.64716" lon="4.72451">
        <ele>279.78</ele>
        <time>2011-03-02T10:27:02Z</time>
      </trkpt>
      <trkpt lat="49.64715" lon="4.72453">
        <ele>279.53</ele>
        <time>2011-03-02T10:27:03Z</time>
      </trkpt>
      <trkpt lat="49.64712" lon="4.72457">
        <ele>279</ele>
        <time>2011-03-02T10:27:04Z</time>
      </trkpt>
      <trkpt lat="49.64709" lon="4.72461">
        <ele>278.4</ele>
        <time>2011-03-02T10:27:06Z</time>
      </trkpt>
      <trkpt lat="49.64707" lon="4.72462">
        <ele>278.07</ele>
        <time>2011-03-02T10:27:07Z</time>
      </trkpt>
      <trkpt lat="49.64703" lon="4.72466">
        <ele>277.41</ele>
        <time>2011-03-02T10:27:09Z</time>
      </trkpt>
      <trkpt lat="49.64701" lon="4.72468">
        <ele>277.16</ele>
        <time>2011-03-02T10:27:10Z</time>
      </trkpt>
      <trkpt lat="49.64699" lon="4.7247">
        <ele>277.16</ele>
        <time>2011-03-02T10:27:12Z</time>
      </trkpt>
      <trkpt lat="49.64698" lon="4.72471">
        <ele>277.21</ele>
        <time>2011-03-02T10:27:13Z</time>
      </trkpt>
      <trkpt lat="49.64697" lon="4.72471">
        <ele>277.2</ele>
        <time>2011-03-02T10:27:14Z</time>
      </trkpt>
      <trkpt lat="49.64696" lon="4.7247">
        <ele>277.25</ele>
        <time>2011-03-02T10:27:15Z</time>
      </trkpt>
      <trkpt lat="49.64694" lon="4.7247">
        <ele>277.39</ele>
        <time>2011-03-02T10:27:17Z</time>
      </trkpt>
      <trkpt lat="49.6469" lon="4.72468">
        <ele>277.43</ele>
        <time>2011-03-02T10:27:19Z</time>
      </trkpt>
      <trkpt lat="49.64687" lon="4.72468">
        <ele>277.41</ele>
        <time>2011-03-02T10:27:20Z</time>
      </trkpt>
      <trkpt lat="49.64684" lon="4.72468">
        <ele>277.32</ele>
        <time>2011-03-02T10:27:21Z</time>
      </trkpt>
      <trkpt lat="49.64677" lon="4.72469">
        <ele>277.18</ele>
        <time>2011-03-02T10:27:23Z</time>
      </trkpt>
      <trkpt lat="49.64675" lon="4.7247">
        <ele>277.1</ele>
        <time>2011-03-02T10:27:24Z</time>
      </trkpt>
      <trkpt lat="49.64672" lon="4.72473">
        <ele>277.02</ele>
        <time>2011-03-02T10:27:26Z</time>
      </trkpt>
      <trkpt lat="49.64671" lon="4.72476">
        <ele>277</ele>
        <time>2011-03-02T10:27:27Z</time>
      </trkpt>
      <trkpt lat="49.64669" lon="4.72479">
        <ele>277.35</ele>
        <time>2011-03-02T10:27:29Z</time>
      </trkpt>
      <trkpt lat="49.64667" lon="4.7248">
        <ele>277.86</ele>
        <time>2011-03-02T10:27:31Z</time>
      </trkpt>
      <trkpt lat="49.64666" lon="4.72481">
        <ele>278.09</ele>
        <time>2011-03-02T10:27:32Z</time>
      </trkpt>
      <trkpt lat="49.64666" lon="4.72482">
        <ele>278.39</ele>
        <time>2011-03-02T10:27:33Z</time>
      </trkpt>
      <trkpt lat="49.64664" lon="4.72483">
        <ele>278.87</ele>
        <time>2011-03-02T10:27:34Z</time>
      </trkpt>
      <trkpt lat="49.64661" lon="4.72485">
        <ele>279.19</ele>
        <time>2011-03-02T10:27:36Z</time>
      </trkpt>
      <trkpt lat="49.64659" lon="4.72486">
        <ele>279.28</ele>
        <time>2011-03-02T10:27:37Z</time>
      </trkpt>
      <trkpt lat="49.64655" lon="4.72488">
        <ele>279.34</ele>
        <time>2011-03-02T10:27:39Z</time>
      </trkpt>
      <trkpt lat="49.64653" lon="4.72491">
        <ele>279.41</ele>
        <time>2011-03-02T10:27:40Z</time>
      </trkpt>
      <trkpt lat="49.64654" lon="4.72496">
        <ele>280.032</ele>
        <time>2011-03-02T10:27:42Z</time>
      </trkpt>
      <trkpt lat="49.64656" lon="4.72501">
        <ele>281.004</ele>
        <time>2011-03-02T10:27:43Z</time>
      </trkpt>
      <trkpt lat="49.64658" lon="4.72505">
        <ele>282.208</ele>
        <time>2011-03-02T10:27:45Z</time>
      </trkpt>
      <trkpt lat="49.6466" lon="4.72509">
        <ele>284.062</ele>
        <time>2011-03-02T10:27:47Z</time>
      </trkpt>
      <trkpt lat="49.6466" lon="4.72511">
        <ele>285.13</ele>
        <time>2011-03-02T10:27:49Z</time>
      </trkpt>
      <trkpt lat="49.64661" lon="4.72513">
        <ele>285.56</ele>
        <time>2011-03-02T10:27:50Z</time>
      </trkpt>
      <trkpt lat="49.64662" lon="4.72515">
        <ele>285.79</ele>
        <time>2011-03-02T10:27:51Z</time>
      </trkpt>
      <trkpt lat="49.64663" lon="4.72517">
        <ele>285.92</ele>
        <time>2011-03-02T10:27:52Z</time>
      </trkpt>
      <trkpt lat="49.64665" lon="4.72525">
        <ele>285.655</ele>
        <time>2011-03-02T10:27:54Z</time>
      </trkpt>
      <trkpt lat="49.64668" lon="4.72533">
        <ele>285.211</ele>
        <time>2011-03-02T10:27:56Z</time>
      </trkpt>
      <trkpt lat="49.64669" lon="4.72541">
        <ele>284.796</ele>
        <time>2011-03-02T10:27:57Z</time>
      </trkpt>
      <trkpt lat="49.6467" lon="4.72548">
        <ele>284.232</ele>
        <time>2011-03-02T10:27:59Z</time>
      </trkpt>
      <trkpt lat="49.6467" lon="4.72552">
        <ele>283.656</ele>
        <time>2011-03-02T10:28:00Z</time>
      </trkpt>
      <trkpt lat="49.6467" lon="4.72558">
        <ele>283.383</ele>
        <time>2011-03-02T10:28:02Z</time>
      </trkpt>
      <trkpt lat="49.64669" lon="4.72562">
        <ele>283.342</ele>
        <time>2011-03-02T10:28:03Z</time>
      </trkpt>
      <trkpt lat="49.64668" lon="4.72568">
        <ele>283.256</ele>
        <time>2011-03-02T10:28:04Z</time>
      </trkpt>
      <trkpt lat="49.64668" lon="4.72572">
        <ele>283.104</ele>
        <time>2011-03-02T10:28:05Z</time>
      </trkpt>
      <trkpt lat="49.6467" lon="4.72579">
        <ele>282.804</ele>
        <time>2011-03-02T10:28:07Z</time>
      </trkpt>
      <trkpt lat="49.64671" lon="4.72585">
        <ele>282.665</ele>
        <time>2011-03-02T10:28:08Z</time>
      </trkpt>
      <trkpt lat="49.64671" lon="4.72591">
        <ele>282.527</ele>
        <time>2011-03-02T10:28:09Z</time>
      </trkpt>
      <trkpt lat="49.64672" lon="4.726">
        <ele>282.382</ele>
        <time>2011-03-02T10:28:10Z</time>
      </trkpt>
      <trkpt lat="49.64672" lon="4.72609">
        <ele>282.43</ele>
        <time>2011-03-02T10:28:12Z</time>
      </trkpt>
      <trkpt lat="49.64672" lon="4.72613">
        <ele>282.44</ele>
        <time>2011-03-02T10:28:13Z</time>
      </trkpt>
      <trkpt lat="49.64674" lon="4.72622">
        <ele>282.503</ele>
        <time>2011-03-02T10:28:15Z</time>
      </trkpt>
      <trkpt lat="49.64675" lon="4.72629">
        <ele>282.41</ele>
        <time>2011-03-02T10:28:17Z</time>
      </trkpt>
      <trkpt lat="49.64676" lon="4.72632">
        <ele>282.276</ele>
        <time>2011-03-02T10:28:18Z</time>
      </trkpt>
      <trkpt lat="49.64677" lon="4.72638">
        <ele>281.924</ele>
        <time>2011-03-02T10:28:19Z</time>
      </trkpt>
      <trkpt lat="49.64678" lon="4.72645">
        <ele>280.248</ele>
        <time>2011-03-02T10:28:21Z</time>
      </trkpt>
      <trkpt lat="49.64678" lon="4.72649">
        <ele>279.141</ele>
        <time>2011-03-02T10:28:22Z</time>
      </trkpt>
      <trkpt lat="49.64679" lon="4.72653">
        <ele>278.014</ele>
        <time>2011-03-02T10:28:23Z</time>
      </trkpt>
      <trkpt lat="49.6468" lon="4.7266">
        <ele>276.2</ele>
        <time>2011-03-02T10:28:24Z</time>
      </trkpt>
      <trkpt lat="49.64682" lon="4.72665">
        <ele>274.223</ele>
        <time>2011-03-02T10:28:26Z</time>
      </trkpt>
      <trkpt lat="49.64683" lon="4.72668">
        <ele>273.397</ele>
        <time>2011-03-02T10:28:27Z</time>
      </trkpt>
      <trkpt lat="49.64686" lon="4.72673">
        <ele>272.263</ele>
        <time>2011-03-02T10:28:28Z</time>
      </trkpt>
      <trkpt lat="49.64687" lon="4.72679">
        <ele>272.134</ele>
        <time>2011-03-02T10:28:30Z</time>
      </trkpt>
      <trkpt lat="49.64687" lon="4.72682">
        <ele>272.175</ele>
        <time>2011-03-02T10:28:31Z</time>
      </trkpt>
      <trkpt lat="49.64687" lon="4.72688">
        <ele>272.24</ele>
        <time>2011-03-02T10:28:32Z</time>
      </trkpt>
      <trkpt lat="49.64687" lon="4.72692">
        <ele>272.27</ele>
        <time>2011-03-02T10:28:33Z</time>
      </trkpt>
      <trkpt lat="49.64687" lon="4.727">
        <ele>272.5</ele>
        <time>2011-03-02T10:28:35Z</time>
      </trkpt>
      <trkpt lat="49.64688" lon="4.72711">
        <ele>273.21</ele>
        <time>2011-03-02T10:28:37Z</time>
      </trkpt>
      <trkpt lat="49.64688" lon="4.72722">
        <ele>273.96</ele>
        <time>2011-03-02T10:28:39Z</time>
      </trkpt>
      <trkpt lat="49.64689" lon="4.72727">
        <ele>274.29</ele>
        <time>2011-03-02T10:28:40Z</time>
      </trkpt>
      <trkpt lat="49.6469" lon="4.72731">
        <ele>274.39</ele>
        <time>2011-03-02T10:28:41Z</time>
      </trkpt>
      <trkpt lat="49.64691" lon="4.72737">
        <ele>274.71</ele>
        <time>2011-03-02T10:28:42Z</time>
      </trkpt>
      <trkpt lat="49.64693" lon="4.72741">
        <ele>275.06</ele>
        <time>2011-03-02T10:28:44Z</time>
      </trkpt>
      <trkpt lat="49.64693" lon="4.72743">
        <ele>275.09</ele>
        <time>2011-03-02T10:28:45Z</time>
      </trkpt>
      <trkpt lat="49.64694" lon="4.72745">
        <ele>275.134</ele>
        <time>2011-03-02T10:28:46Z</time>
      </trkpt>
      <trkpt lat="49.64696" lon="4.72749">
        <ele>275.246</ele>
        <time>2011-03-02T10:28:47Z</time>
      </trkpt>
      <trkpt lat="49.64699" lon="4.72755">
        <ele>276.043</ele>
        <time>2011-03-02T10:28:49Z</time>
      </trkpt>
      <trkpt lat="49.64701" lon="4.72758">
        <ele>276.678</ele>
        <time>2011-03-02T10:28:50Z</time>
      </trkpt>
      <trkpt lat="49.64704" lon="4.72765">
        <ele>277.831</ele>
        <time>2011-03-02T10:28:51Z</time>
      </trkpt>
      <trkpt lat="49.64705" lon="4.72771">
        <ele>279.03</ele>
        <time>2011-03-02T10:28:53Z</time>
      </trkpt>
      <trkpt lat="49.64705" lon="4.72774">
        <ele>279.434</ele>
        <time>2011-03-02T10:28:55Z</time>
      </trkpt>
      <trkpt lat="49.64707" lon="4.72778">
        <ele>280.258</ele>
        <time>2011-03-02T10:28:56Z</time>
      </trkpt>
      <trkpt lat="49.6471" lon="4.72781">
        <ele>281.077</ele>
        <time>2011-03-02T10:28:57Z</time>
      </trkpt>
      <trkpt lat="49.64711" lon="4.72782">
        <ele>281.483</ele>
        <time>2011-03-02T10:28:58Z</time>
      </trkpt>
      <trkpt lat="49.64713" lon="4.72785">
        <ele>282.379</ele>
        <time>2011-03-02T10:29:00Z</time>
      </trkpt>
      <trkpt lat="49.64716" lon="4.72789">
        <ele>283.117</ele>
        <time>2011-03-02T10:29:02Z</time>
      </trkpt>
      <trkpt lat="49.6472" lon="4.72791">
        <ele>283.677</ele>
        <time>2011-03-02T10:29:04Z</time>
      </trkpt>
      <trkpt lat="49.64722" lon="4.72792">
        <ele>284.028</ele>
        <time>2011-03-02T10:29:05Z</time>
      </trkpt>
      <trkpt lat="49.64724" lon="4.72793">
        <ele>284.46</ele>
        <time>2011-03-02T10:29:06Z</time>
      </trkpt>
      <trkpt lat="49.64729" lon="4.72794">
        <ele>284.955</ele>
        <time>2011-03-02T10:29:08Z</time>
      </trkpt>
      <trkpt lat="49.64732" lon="4.72798">
        <ele>285.036</ele>
        <time>2011-03-02T10:29:10Z</time>
      </trkpt>
      <trkpt lat="49.64736" lon="4.72806">
        <ele>284.742</ele>
        <time>2011-03-02T10:29:12Z</time>
      </trkpt>
      <trkpt lat="49.6474" lon="4.72816">
        <ele>284.04</ele>
        <time>2011-03-02T10:29:14Z</time>
      </trkpt>
      <trkpt lat="49.64745" lon="4.72826">
        <ele>282.91</ele>
        <time>2011-03-02T10:29:16Z</time>
      </trkpt>
      <trkpt lat="49.6475" lon="4.72834">
        <ele>281.72</ele>
        <time>2011-03-02T10:29:17Z</time>
      </trkpt>
      <trkpt lat="49.64756" lon="4.72842">
        <ele>280.87</ele>
        <time>2011-03-02T10:29:19Z</time>
      </trkpt>
      <trkpt lat="49.64759" lon="4.72846">
        <ele>280.62</ele>
        <time>2011-03-02T10:29:20Z</time>
      </trkpt>
      <trkpt lat="49.64768" lon="4.72859">
        <ele>280.12</ele>
        <time>2011-03-02T10:29:22Z</time>
      </trkpt>
      <trkpt lat="49.64775" lon="4.72867">
        <ele>279.88</ele>
        <time>2011-03-02T10:29:24Z</time>
      </trkpt>
      <trkpt lat="49.64784" lon="4.72874">
        <ele>279.78</ele>
        <time>2011-03-02T10:29:26Z</time>
      </trkpt>
      <trkpt lat="49.64788" lon="4.72877">
        <ele>279.8</ele>
        <time>2011-03-02T10:29:27Z</time>
      </trkpt>
      <trkpt lat="49.64792" lon="4.72881">
        <ele>279.72</ele>
        <time>2011-03-02T10:29:28Z</time>
      </trkpt>
      <trkpt lat="49.64795" lon="4.72883">
        <ele>279.78</ele>
        <time>2011-03-02T10:29:29Z</time>
      </trkpt>
      <trkpt lat="49.648" lon="4.72887">
        <ele>280.14</ele>
        <time>2011-03-02T10:29:31Z</time>
      </trkpt>
      <trkpt lat="49.64805" lon="4.72892">
        <ele>280.69</ele>
        <time>2011-03-02T10:29:33Z</time>
      </trkpt>
      <trkpt lat="49.64808" lon="4.72895">
        <ele>281</ele>
        <time>2011-03-02T10:29:34Z</time>
      </trkpt>
      <trkpt lat="49.64813" lon="4.72899">
        <ele>281.55</ele>
        <time>2011-03-02T10:29:36Z</time>
      </trkpt>
      <trkpt lat="49.64818" lon="4.72904">
        <ele>282.29</ele>
        <time>2011-03-02T10:29:38Z</time>
      </trkpt>
      <trkpt lat="49.6482" lon="4.72906">
        <ele>282.64</ele>
        <time>2011-03-02T10:29:39Z</time>
      </trkpt>
      <trkpt lat="49.64823" lon="4.72909">
        <ele>282.99</ele>
        <time>2011-03-02T10:29:40Z</time>
      </trkpt>
      <trkpt lat="49.64828" lon="4.72915">
        <ele>283.67</ele>
        <time>2011-03-02T10:29:42Z</time>
      </trkpt>
      <trkpt lat="49.64834" lon="4.72922">
        <ele>284.27</ele>
        <time>2011-03-02T10:29:44Z</time>
      </trkpt>
      <trkpt lat="49.6484" lon="4.72929">
        <ele>284.7</ele>
        <time>2011-03-02T10:29:46Z</time>
      </trkpt>
      <trkpt lat="49.64846" lon="4.72936">
        <ele>284.83</ele>
        <time>2011-03-02T10:29:48Z</time>
      </trkpt>
      <trkpt lat="49.64851" lon="4.72943">
        <ele>284.81</ele>
        <time>2011-03-02T10:29:50Z</time>
      </trkpt>
      <trkpt lat="49.64853" lon="4.72947">
        <ele>284.86</ele>
        <time>2011-03-02T10:29:51Z</time>
      </trkpt>
      <trkpt lat="49.64856" lon="4.72954">
        <ele>284.98</ele>
        <time>2011-03-02T10:29:52Z</time>
      </trkpt>
      <trkpt lat="49.64858" lon="4.72957">
        <ele>285.06</ele>
        <time>2011-03-02T10:29:53Z</time>
      </trkpt>
      <trkpt lat="49.64862" lon="4.72964">
        <ele>285.37</ele>
        <time>2011-03-02T10:29:55Z</time>
      </trkpt>
      <trkpt lat="49.64864" lon="4.72967">
        <ele>285.58</ele>
        <time>2011-03-02T10:29:56Z</time>
      </trkpt>
      <trkpt lat="49.64868" lon="4.72974">
        <ele>285.86</ele>
        <time>2011-03-02T10:29:58Z</time>
      </trkpt>
      <trkpt lat="49.64872" lon="4.72981">
        <ele>285.66</ele>
        <time>2011-03-02T10:30:00Z</time>
      </trkpt>
      <trkpt lat="49.64877" lon="4.72987">
        <ele>285.26</ele>
        <time>2011-03-02T10:30:02Z</time>
      </trkpt>
      <trkpt lat="49.64881" lon="4.72993">
        <ele>284.66</ele>
        <time>2011-03-02T10:30:04Z</time>
      </trkpt>
      <trkpt lat="49.64883" lon="4.72995">
        <ele>284.3</ele>
        <time>2011-03-02T10:30:05Z</time>
      </trkpt>
      <trkpt lat="49.64887" lon="4.73">
        <ele>283.5</ele>
        <time>2011-03-02T10:30:07Z</time>
      </trkpt>
      <trkpt lat="49.64889" lon="4.73002">
        <ele>283.16</ele>
        <time>2011-03-02T10:30:08Z</time>
      </trkpt>
      <trkpt lat="49.64892" lon="4.73008">
        <ele>282.8</ele>
        <time>2011-03-02T10:30:09Z</time>
      </trkpt>
      <trkpt lat="49.64894" lon="4.73011">
        <ele>282.66</ele>
        <time>2011-03-02T10:30:10Z</time>
      </trkpt>
      <trkpt lat="49.64897" lon="4.73018">
        <ele>282.46</ele>
        <time>2011-03-02T10:30:12Z</time>
      </trkpt>
      <trkpt lat="49.64901" lon="4.73028">
        <ele>282.25</ele>
        <time>2011-03-02T10:30:14Z</time>
      </trkpt>
      <trkpt lat="49.64905" lon="4.73033">
        <ele>281.67</ele>
        <time>2011-03-02T10:30:16Z</time>
      </trkpt>
      <trkpt lat="49.64908" lon="4.73036">
        <ele>280.86</ele>
        <time>2011-03-02T10:30:17Z</time>
      </trkpt>
      <trkpt lat="49.64912" lon="4.7304">
        <ele>279.94</ele>
        <time>2011-03-02T10:30:19Z</time>
      </trkpt>
      <trkpt lat="49.64917" lon="4.73047">
        <ele>279.08</ele>
        <time>2011-03-02T10:30:21Z</time>
      </trkpt>
      <trkpt lat="49.6492" lon="4.73051">
        <ele>278.73</ele>
        <time>2011-03-02T10:30:22Z</time>
      </trkpt>
      <trkpt lat="49.64925" lon="4.73057">
        <ele>278.18</ele>
        <time>2011-03-02T10:30:23Z</time>
      </trkpt>
      <trkpt lat="49.64927" lon="4.73061">
        <ele>278.03</ele>
        <time>2011-03-02T10:30:24Z</time>
      </trkpt>
      <trkpt lat="49.64933" lon="4.73068">
        <ele>277.5</ele>
        <time>2011-03-02T10:30:26Z</time>
      </trkpt>
      <trkpt lat="49.64939" lon="4.73076">
        <ele>277</ele>
        <time>2011-03-02T10:30:28Z</time>
      </trkpt>
      <trkpt lat="49.64941" lon="4.7308">
        <ele>276.77</ele>
        <time>2011-03-02T10:30:29Z</time>
      </trkpt>
      <trkpt lat="49.64943" lon="4.73085">
        <ele>276.41</ele>
        <time>2011-03-02T10:30:30Z</time>
      </trkpt>
      <trkpt lat="49.64949" lon="4.73093">
        <ele>275.46</ele>
        <time>2011-03-02T10:30:32Z</time>
      </trkpt>
      <trkpt lat="49.64955" lon="4.73102">
        <ele>274.53</ele>
        <time>2011-03-02T10:30:34Z</time>
      </trkpt>
      <trkpt lat="49.64963" lon="4.73112">
        <ele>273.56</ele>
        <time>2011-03-02T10:30:36Z</time>
      </trkpt>
      <trkpt lat="49.64966" lon="4.73116">
        <ele>273.18</ele>
        <time>2011-03-02T10:30:37Z</time>
      </trkpt>
      <trkpt lat="49.64973" lon="4.73128">
        <ele>272.57</ele>
        <time>2011-03-02T10:30:39Z</time>
      </trkpt>
      <trkpt lat="49.64981" lon="4.73142">
        <ele>272.08</ele>
        <time>2011-03-02T10:30:41Z</time>
      </trkpt>
      <trkpt lat="49.64984" lon="4.7315">
        <ele>271.62</ele>
        <time>2011-03-02T10:30:42Z</time>
      </trkpt>
      <trkpt lat="49.6499" lon="4.73166">
        <ele>270.32</ele>
        <time>2011-03-02T10:30:44Z</time>
      </trkpt>
      <trkpt lat="49.64996" lon="4.73184">
        <ele>268.31</ele>
        <time>2011-03-02T10:30:46Z</time>
      </trkpt>
      <trkpt lat="49.64998" lon="4.73194">
        <ele>267.12</ele>
        <time>2011-03-02T10:30:47Z</time>
      </trkpt>
      <trkpt lat="49.65005" lon="4.73213">
        <ele>264.19</ele>
        <time>2011-03-02T10:30:49Z</time>
      </trkpt>
      <trkpt lat="49.65013" lon="4.73232">
        <ele>260.08</ele>
        <time>2011-03-02T10:30:51Z</time>
      </trkpt>
      <trkpt lat="49.65018" lon="4.73238">
        <ele>258.03</ele>
        <time>2011-03-02T10:30:53Z</time>
      </trkpt>
      <trkpt lat="49.65021" lon="4.73242">
        <ele>257.39</ele>
        <time>2011-03-02T10:30:54Z</time>
      </trkpt>
      <trkpt lat="49.65024" lon="4.73247">
        <ele>256.57</ele>
        <time>2011-03-02T10:30:55Z</time>
      </trkpt>
      <trkpt lat="49.65028" lon="4.7326">
        <ele>255.482</ele>
        <time>2011-03-02T10:30:57Z</time>
      </trkpt>
      <trkpt lat="49.65031" lon="4.73273">
        <ele>253.85</ele>
        <time>2011-03-02T10:30:59Z</time>
      </trkpt>
      <trkpt lat="49.65033" lon="4.7328">
        <ele>252.872</ele>
        <time>2011-03-02T10:31:00Z</time>
      </trkpt>
      <trkpt lat="49.65035" lon="4.73286">
        <ele>251.788</ele>
        <time>2011-03-02T10:31:01Z</time>
      </trkpt>
      <trkpt lat="49.65038" lon="4.73296">
        <ele>249.255</ele>
        <time>2011-03-02T10:31:02Z</time>
      </trkpt>
      <trkpt lat="49.65039" lon="4.733">
        <ele>247.776</ele>
        <time>2011-03-02T10:31:03Z</time>
      </trkpt>
      <trkpt lat="49.65042" lon="4.73305">
        <ele>245.31</ele>
        <time>2011-03-02T10:31:05Z</time>
      </trkpt>
      <trkpt lat="49.65045" lon="4.73308">
        <ele>244.31</ele>
        <time>2011-03-02T10:31:06Z</time>
      </trkpt>
      <trkpt lat="49.6505" lon="4.73312">
        <ele>242.84</ele>
        <time>2011-03-02T10:31:08Z</time>
      </trkpt>
      <trkpt lat="49.65055" lon="4.73316">
        <ele>241.76</ele>
        <time>2011-03-02T10:31:10Z</time>
      </trkpt>
      <trkpt lat="49.65058" lon="4.73321">
        <ele>240.45</ele>
        <time>2011-03-02T10:31:12Z</time>
      </trkpt>
      <trkpt lat="49.65058" lon="4.73322">
        <ele>239.72</ele>
        <time>2011-03-02T10:31:13Z</time>
      </trkpt>
      <trkpt lat="49.65058" lon="4.73326">
        <ele>238.51</ele>
        <time>2011-03-02T10:31:14Z</time>
      </trkpt>
      <trkpt lat="49.65059" lon="4.73331">
        <ele>237.86</ele>
        <time>2011-03-02T10:31:16Z</time>
      </trkpt>
      <trkpt lat="49.65059" lon="4.73339">
        <ele>237.56</ele>
        <time>2011-03-02T10:31:18Z</time>
      </trkpt>
      <trkpt lat="49.6506" lon="4.73342">
        <ele>237.64</ele>
        <time>2011-03-02T10:31:19Z</time>
      </trkpt>
      <trkpt lat="49.6506" lon="4.73349">
        <ele>238.38</ele>
        <time>2011-03-02T10:31:21Z</time>
      </trkpt>
      <trkpt lat="49.6506" lon="4.73356">
        <ele>238.874</ele>
        <time>2011-03-02T10:31:23Z</time>
      </trkpt>
      <trkpt lat="49.6506" lon="4.7336">
        <ele>239.184</ele>
        <time>2011-03-02T10:31:24Z</time>
      </trkpt>
      <trkpt lat="49.65061" lon="4.73367">
        <ele>239.77</ele>
        <time>2011-03-02T10:31:25Z</time>
      </trkpt>
      <trkpt lat="49.65061" lon="4.73376">
        <ele>240.224</ele>
        <time>2011-03-02T10:31:27Z</time>
      </trkpt>
      <trkpt lat="49.65061" lon="4.7338">
        <ele>240.4</ele>
        <time>2011-03-02T10:31:28Z</time>
      </trkpt>
      <trkpt lat="49.65062" lon="4.73387">
        <ele>241.18</ele>
        <time>2011-03-02T10:31:29Z</time>
      </trkpt>
      <trkpt lat="49.65062" lon="4.73396">
        <ele>241.89</ele>
        <time>2011-03-02T10:31:31Z</time>
      </trkpt>
      <trkpt lat="49.65062" lon="4.73404">
        <ele>242.58</ele>
        <time>2011-03-02T10:31:33Z</time>
      </trkpt>
      <trkpt lat="49.65062" lon="4.73406">
        <ele>242.8</ele>
        <time>2011-03-02T10:31:34Z</time>
      </trkpt>
      <trkpt lat="49.65061" lon="4.73409">
        <ele>242.98</ele>
        <time>2011-03-02T10:31:35Z</time>
      </trkpt>
      <trkpt lat="49.65061" lon="4.73412">
        <ele>243.18</ele>
        <time>2011-03-02T10:31:37Z</time>
      </trkpt>
      <trkpt lat="49.6506" lon="4.73414">
        <ele>243.28</ele>
        <time>2011-03-02T10:31:38Z</time>
      </trkpt>
      <trkpt lat="49.65058" lon="4.73417">
        <ele>243.5</ele>
        <time>2011-03-02T10:31:39Z</time>
      </trkpt>
      <trkpt lat="49.65057" lon="4.7342">
        <ele>243.66</ele>
        <time>2011-03-02T10:31:40Z</time>
      </trkpt>
      <trkpt lat="49.65055" lon="4.73426">
        <ele>244.26</ele>
        <time>2011-03-02T10:31:42Z</time>
      </trkpt>
      <trkpt lat="49.65054" lon="4.73429">
        <ele>244.75</ele>
        <time>2011-03-02T10:31:43Z</time>
      </trkpt>
      <trkpt lat="49.65053" lon="4.73436">
        <ele>245.74</ele>
        <time>2011-03-02T10:31:45Z</time>
      </trkpt>
      <trkpt lat="49.6505" lon="4.73447">
        <ele>247.03</ele>
        <time>2011-03-02T10:31:47Z</time>
      </trkpt>
      <trkpt lat="49.65048" lon="4.73453">
        <ele>247.63</ele>
        <time>2011-03-02T10:31:49Z</time>
      </trkpt>
      <trkpt lat="49.65046" lon="4.73457">
        <ele>247.9</ele>
        <time>2011-03-02T10:31:50Z</time>
      </trkpt>
      <trkpt lat="49.65045" lon="4.73462">
        <ele>248.4</ele>
        <time>2011-03-02T10:31:52Z</time>
      </trkpt>
      <trkpt lat="49.65045" lon="4.73467">
        <ele>248.82</ele>
        <time>2011-03-02T10:31:53Z</time>
      </trkpt>
      <trkpt lat="49.65046" lon="4.73473">
        <ele>248.87</ele>
        <time>2011-03-02T10:31:55Z</time>
      </trkpt>
      <trkpt lat="49.65046" lon="4.7348">
        <ele>248.96</ele>
        <time>2011-03-02T10:31:57Z</time>
      </trkpt>
      <trkpt lat="49.65045" lon="4.73487">
        <ele>249.19</ele>
        <time>2011-03-02T10:31:58Z</time>
      </trkpt>
      <trkpt lat="49.65043" lon="4.73493">
        <ele>249.06</ele>
        <time>2011-03-02T10:32:00Z</time>
      </trkpt>
      <trkpt lat="49.6504" lon="4.73499">
        <ele>249.37</ele>
        <time>2011-03-02T10:32:02Z</time>
      </trkpt>
      <trkpt lat="49.65038" lon="4.73501">
        <ele>250.22</ele>
        <time>2011-03-02T10:32:03Z</time>
      </trkpt>
      <trkpt lat="49.65035" lon="4.73504">
        <ele>250.9</ele>
        <time>2011-03-02T10:32:05Z</time>
      </trkpt>
      <trkpt lat="49.65034" lon="4.73506">
        <ele>251.28</ele>
        <time>2011-03-02T10:32:06Z</time>
      </trkpt>
      <trkpt lat="49.65031" lon="4.7351">
        <ele>252.03</ele>
        <time>2011-03-02T10:32:07Z</time>
      </trkpt>
      <trkpt lat="49.65029" lon="4.73513">
        <ele>252.77</ele>
        <time>2011-03-02T10:32:09Z</time>
      </trkpt>
      <trkpt lat="49.65029" lon="4.73515">
        <ele>253.16</ele>
        <time>2011-03-02T10:32:10Z</time>
      </trkpt>
      <trkpt lat="49.65027" lon="4.73519">
        <ele>253.99</ele>
        <time>2011-03-02T10:32:12Z</time>
      </trkpt>
      <trkpt lat="49.65027" lon="4.73525">
        <ele>254.97</ele>
        <time>2011-03-02T10:32:14Z</time>
      </trkpt>
      <trkpt lat="49.65028" lon="4.73528">
        <ele>255.37</ele>
        <time>2011-03-02T10:32:15Z</time>
      </trkpt>
      <trkpt lat="49.65028" lon="4.73532">
        <ele>255.61</ele>
        <time>2011-03-02T10:32:16Z</time>
      </trkpt>
      <trkpt lat="49.65029" lon="4.7354">
        <ele>255.94</ele>
        <time>2011-03-02T10:32:17Z</time>
      </trkpt>
      <trkpt lat="49.6503" lon="4.73545">
        <ele>256.14</ele>
        <time>2011-03-02T10:32:19Z</time>
      </trkpt>
      <trkpt lat="49.6503" lon="4.73551">
        <ele>255.666</ele>
        <time>2011-03-02T10:32:21Z</time>
      </trkpt>
      <trkpt lat="49.6503" lon="4.73554">
        <ele>255.053</ele>
        <time>2011-03-02T10:32:22Z</time>
      </trkpt>
      <trkpt lat="49.6503" lon="4.7356">
        <ele>253.684</ele>
        <time>2011-03-02T10:32:24Z</time>
      </trkpt>
      <trkpt lat="49.65031" lon="4.73564">
        <ele>253.063</ele>
        <time>2011-03-02T10:32:25Z</time>
      </trkpt>
      <trkpt lat="49.65032" lon="4.73569">
        <ele>252.71</ele>
        <time>2011-03-02T10:32:27Z</time>
      </trkpt>
      <trkpt lat="49.65032" lon="4.73575">
        <ele>252.53</ele>
        <time>2011-03-02T10:32:28Z</time>
      </trkpt>
      <trkpt lat="49.65031" lon="4.73579">
        <ele>252.551</ele>
        <time>2011-03-02T10:32:30Z</time>
      </trkpt>
      <trkpt lat="49.6503" lon="4.73581">
        <ele>252.881</ele>
        <time>2011-03-02T10:32:31Z</time>
      </trkpt>
      <trkpt lat="49.65031" lon="4.73586">
        <ele>253.645</ele>
        <time>2011-03-02T10:32:33Z</time>
      </trkpt>
      <trkpt lat="49.65032" lon="4.7359">
        <ele>254.2</ele>
        <time>2011-03-02T10:32:34Z</time>
      </trkpt>
      <trkpt lat="49.65032" lon="4.73594">
        <ele>254.18</ele>
        <time>2011-03-02T10:32:36Z</time>
      </trkpt>
      <trkpt lat="49.65032" lon="4.73596">
        <ele>254.16</ele>
        <time>2011-03-02T10:32:37Z</time>
      </trkpt>
      <trkpt lat="49.65032" lon="4.73601">
        <ele>254.16</ele>
        <time>2011-03-02T10:32:39Z</time>
      </trkpt>
      <trkpt lat="49.65032" lon="4.73607">
        <ele>254.18</ele>
        <time>2011-03-02T10:32:41Z</time>
      </trkpt>
      <trkpt lat="49.65032" lon="4.73611">
        <ele>253.99</ele>
        <time>2011-03-02T10:32:43Z</time>
      </trkpt>
      <trkpt lat="49.65031" lon="4.73615">
        <ele>253.66</ele>
        <time>2011-03-02T10:32:45Z</time>
      </trkpt>
      <trkpt lat="49.65032" lon="4.73619">
        <ele>253.4</ele>
        <time>2011-03-02T10:32:47Z</time>
      </trkpt>
      <trkpt lat="49.65033" lon="4.73622">
        <ele>253.19</ele>
        <time>2011-03-02T10:32:49Z</time>
      </trkpt>
      <trkpt lat="49.65034" lon="4.73625">
        <ele>253.12</ele>
        <time>2011-03-02T10:32:51Z</time>
      </trkpt>
      <trkpt lat="49.65035" lon="4.73626">
        <ele>253.21</ele>
        <time>2011-03-02T10:32:52Z</time>
      </trkpt>
      <trkpt lat="49.65036" lon="4.7363">
        <ele>253.73</ele>
        <time>2011-03-02T10:32:54Z</time>
      </trkpt>
      <trkpt lat="49.65039" lon="4.73638">
        <ele>254.38</ele>
        <time>2011-03-02T10:32:56Z</time>
      </trkpt>
      <trkpt lat="49.6504" lon="4.73639">
        <ele>254.7</ele>
        <time>2011-03-02T10:32:57Z</time>
      </trkpt>
      <trkpt lat="49.65042" lon="4.73642">
        <ele>255.445</ele>
        <time>2011-03-02T10:32:58Z</time>
      </trkpt>
      <trkpt lat="49.65043" lon="4.73645">
        <ele>255.996</ele>
        <time>2011-03-02T10:33:00Z</time>
      </trkpt>
      <trkpt lat="49.65044" lon="4.7365">
        <ele>256.296</ele>
        <time>2011-03-02T10:33:01Z</time>
      </trkpt>
      <trkpt lat="49.65044" lon="4.73653">
        <ele>256.698</ele>
        <time>2011-03-02T10:33:03Z</time>
      </trkpt>
      <trkpt lat="49.65046" lon="4.73657">
        <ele>256.86</ele>
        <time>2011-03-02T10:33:05Z</time>
      </trkpt>
      <trkpt lat="49.65047" lon="4.73658">
        <ele>256.874</ele>
        <time>2011-03-02T10:33:06Z</time>
      </trkpt>
      <trkpt lat="49.65049" lon="4.73661">
        <ele>256.903</ele>
        <time>2011-03-02T10:33:07Z</time>
      </trkpt>
      <trkpt lat="49.65052" lon="4.73664">
        <ele>257.098</ele>
        <time>2011-03-02T10:33:09Z</time>
      </trkpt>
      <trkpt lat="49.65053" lon="4.73666">
        <ele>257.131</ele>
        <time>2011-03-02T10:33:10Z</time>
      </trkpt>
      <trkpt lat="49.65055" lon="4.73673">
        <ele>257.06</ele>
        <time>2011-03-02T10:33:12Z</time>
      </trkpt>
      <trkpt lat="49.65056" lon="4.73679">
        <ele>257.16</ele>
        <time>2011-03-02T10:33:13Z</time>
      </trkpt>
      <trkpt lat="49.65056" lon="4.73684">
        <ele>257.514</ele>
        <time>2011-03-02T10:33:15Z</time>
      </trkpt>
      <trkpt lat="49.65056" lon="4.73686">
        <ele>257.665</ele>
        <time>2011-03-02T10:33:16Z</time>
      </trkpt>
      <trkpt lat="49.65058" lon="4.7369">
        <ele>258.03</ele>
        <time>2011-03-02T10:33:18Z</time>
      </trkpt>
      <trkpt lat="49.6506" lon="4.73695">
        <ele>258.494</ele>
        <time>2011-03-02T10:33:20Z</time>
      </trkpt>
      <trkpt lat="49.65061" lon="4.73698">
        <ele>258.616</ele>
        <time>2011-03-02T10:33:21Z</time>
      </trkpt>
      <trkpt lat="49.65062" lon="4.73704">
        <ele>258.923</ele>
        <time>2011-03-02T10:33:22Z</time>
      </trkpt>
      <trkpt lat="49.65064" lon="4.73709">
        <ele>259.163</ele>
        <time>2011-03-02T10:33:24Z</time>
      </trkpt>
      <trkpt lat="49.65064" lon="4.73711">
        <ele>259.219</ele>
        <time>2011-03-02T10:33:25Z</time>
      </trkpt>
      <trkpt lat="49.65066" lon="4.73715">
        <ele>258.759</ele>
        <time>2011-03-02T10:33:27Z</time>
      </trkpt>
      <trkpt lat="49.65067" lon="4.73718">
        <ele>258.187</ele>
        <time>2011-03-02T10:33:29Z</time>
      </trkpt>
      <trkpt lat="49.65069" lon="4.73721">
        <ele>257.768</ele>
        <time>2011-03-02T10:33:31Z</time>
      </trkpt>
      <trkpt lat="49.65071" lon="4.73725">
        <ele>257.039</ele>
        <time>2011-03-02T10:33:33Z</time>
      </trkpt>
      <trkpt lat="49.65072" lon="4.73732">
        <ele>256.428</ele>
        <time>2011-03-02T10:33:35Z</time>
      </trkpt>
      <trkpt lat="49.65074" lon="4.73739">
        <ele>256.372</ele>
        <time>2011-03-02T10:33:37Z</time>
      </trkpt>
      <trkpt lat="49.65077" lon="4.73745">
        <ele>256.404</ele>
        <time>2011-03-02T10:33:39Z</time>
      </trkpt>
      <trkpt lat="49.6508" lon="4.73747">
        <ele>256.49</ele>
        <time>2011-03-02T10:33:40Z</time>
      </trkpt>
      <trkpt lat="49.65084" lon="4.73754">
        <ele>257.16</ele>
        <time>2011-03-02T10:33:42Z</time>
      </trkpt>
      <trkpt lat="49.65085" lon="4.73757">
        <ele>257.35</ele>
        <time>2011-03-02T10:33:43Z</time>
      </trkpt>
      <trkpt lat="49.65085" lon="4.73764">
        <ele>257.92</ele>
        <time>2011-03-02T10:33:45Z</time>
      </trkpt>
      <trkpt lat="49.65085" lon="4.73768">
        <ele>258.5</ele>
        <time>2011-03-02T10:33:46Z</time>
      </trkpt>
      <trkpt lat="49.65085" lon="4.73773">
        <ele>259.62</ele>
        <time>2011-03-02T10:33:48Z</time>
      </trkpt>
      <trkpt lat="49.65086" lon="4.73778">
        <ele>260.69</ele>
        <time>2011-03-02T10:33:50Z</time>
      </trkpt>
      <trkpt lat="49.65086" lon="4.73781">
        <ele>261.3</ele>
        <time>2011-03-02T10:33:51Z</time>
      </trkpt>
      <trkpt lat="49.65087" lon="4.73787">
        <ele>262.5</ele>
        <time>2011-03-02T10:33:52Z</time>
      </trkpt>
      <trkpt lat="49.65087" lon="4.73789">
        <ele>263.02</ele>
        <time>2011-03-02T10:33:53Z</time>
      </trkpt>
      <trkpt lat="49.65087" lon="4.73792">
        <ele>262.916</ele>
        <time>2011-03-02T10:33:55Z</time>
      </trkpt>
      <trkpt lat="49.65087" lon="4.73794">
        <ele>262.784</ele>
        <time>2011-03-02T10:33:57Z</time>
      </trkpt>
      <trkpt lat="49.65086" lon="4.73795">
        <ele>262.744</ele>
        <time>2011-03-02T10:33:58Z</time>
      </trkpt>
      <trkpt lat="49.65086" lon="4.73796">
        <ele>262.629</ele>
        <time>2011-03-02T10:33:59Z</time>
      </trkpt>
      <trkpt lat="49.65086" lon="4.73796">
        <ele>262.585</ele>
        <time>2011-03-02T10:34:00Z</time>
      </trkpt>
      <trkpt lat="49.65085" lon="4.73798">
        <ele>262.81</ele>
        <time>2011-03-02T10:34:02Z</time>
      </trkpt>
      <trkpt lat="49.65085" lon="4.73802">
        <ele>263.62</ele>
        <time>2011-03-02T10:34:03Z</time>
      </trkpt>
      <trkpt lat="49.65085" lon="4.7381">
        <ele>264.24</ele>
        <time>2011-03-02T10:34:05Z</time>
      </trkpt>
      <trkpt lat="49.65085" lon="4.73814">
        <ele>264.44</ele>
        <time>2011-03-02T10:34:06Z</time>
      </trkpt>
      <trkpt lat="49.65085" lon="4.73824">
        <ele>264.93</ele>
        <time>2011-03-02T10:34:08Z</time>
      </trkpt>
      <trkpt lat="49.65086" lon="4.73828">
        <ele>265.25</ele>
        <time>2011-03-02T10:34:09Z</time>
      </trkpt>
      <trkpt lat="49.65087" lon="4.73839">
        <ele>265.59</ele>
        <time>2011-03-02T10:34:11Z</time>
      </trkpt>
      <trkpt lat="49.65088" lon="4.73842">
        <ele>265.41</ele>
        <time>2011-03-02T10:34:13Z</time>
      </trkpt>
      <trkpt lat="49.65088" lon="4.73847">
        <ele>265.61</ele>
        <time>2011-03-02T10:34:15Z</time>
      </trkpt>
      <trkpt lat="49.65088" lon="4.73851">
        <ele>265.72</ele>
        <time>2011-03-02T10:34:16Z</time>
      </trkpt>
      <trkpt lat="49.65087" lon="4.73855">
        <ele>265.7</ele>
        <time>2011-03-02T10:34:17Z</time>
      </trkpt>
      <trkpt lat="49.65083" lon="4.73862">
        <ele>265.62</ele>
        <time>2011-03-02T10:34:19Z</time>
      </trkpt>
      <trkpt lat="49.65082" lon="4.73865">
        <ele>265.93</ele>
        <time>2011-03-02T10:34:21Z</time>
      </trkpt>
      <trkpt lat="49.65082" lon="4.73867">
        <ele>266.1</ele>
        <time>2011-03-02T10:34:22Z</time>
      </trkpt>
      <trkpt lat="49.65082" lon="4.73871">
        <ele>266.43</ele>
        <time>2011-03-02T10:34:23Z</time>
      </trkpt>
      <trkpt lat="49.6508" lon="4.73874">
        <ele>266.79</ele>
        <time>2011-03-02T10:34:25Z</time>
      </trkpt>
      <trkpt lat="49.6508" lon="4.73877">
        <ele>266.95</ele>
        <time>2011-03-02T10:34:26Z</time>
      </trkpt>
      <trkpt lat="49.65079" lon="4.7388">
        <ele>267.07</ele>
        <time>2011-03-02T10:34:27Z</time>
      </trkpt>
      <trkpt lat="49.65078" lon="4.73884">
        <ele>267.24</ele>
        <time>2011-03-02T10:34:28Z</time>
      </trkpt>
      <trkpt lat="49.65078" lon="4.73889">
        <ele>267.22</ele>
        <time>2011-03-02T10:34:30Z</time>
      </trkpt>
      <trkpt lat="49.65078" lon="4.73891">
        <ele>267.6</ele>
        <time>2011-03-02T10:34:32Z</time>
      </trkpt>
      <trkpt lat="49.65077" lon="4.73894">
        <ele>268.01</ele>
        <time>2011-03-02T10:34:33Z</time>
      </trkpt>
      <trkpt lat="49.65077" lon="4.73897">
        <ele>268.52</ele>
        <time>2011-03-02T10:34:35Z</time>
      </trkpt>
      <trkpt lat="49.65077" lon="4.73901">
        <ele>269.15</ele>
        <time>2011-03-02T10:34:36Z</time>
      </trkpt>
      <trkpt lat="49.65078" lon="4.73903">
        <ele>269.52</ele>
        <time>2011-03-02T10:34:37Z</time>
      </trkpt>
      <trkpt lat="49.65079" lon="4.73906">
        <ele>270.03</ele>
        <time>2011-03-02T10:34:39Z</time>
      </trkpt>
      <trkpt lat="49.65079" lon="4.73906">
        <ele>270.11</ele>
        <time>2011-03-02T10:34:40Z</time>
      </trkpt>
      <trkpt lat="49.6508" lon="4.73908">
        <ele>270.31</ele>
        <time>2011-03-02T10:34:42Z</time>
      </trkpt>
      <trkpt lat="49.65081" lon="4.7391">
        <ele>270.24</ele>
        <time>2011-03-02T10:34:44Z</time>
      </trkpt>
      <trkpt lat="49.65079" lon="4.73911">
        <ele>270.23</ele>
        <time>2011-03-02T10:34:46Z</time>
      </trkpt>
      <trkpt lat="49.65078" lon="4.7391">
        <ele>270.3</ele>
        <time>2011-03-02T10:34:47Z</time>
      </trkpt>
      <trkpt lat="49.65076" lon="4.7391">
        <ele>270.67</ele>
        <time>2011-03-02T10:34:48Z</time>
      </trkpt>
      <trkpt lat="49.65074" lon="4.73911">
        <ele>271.31</ele>
        <time>2011-03-02T10:34:50Z</time>
      </trkpt>
      <trkpt lat="49.65074" lon="4.73912">
        <ele>271.72</ele>
        <time>2011-03-02T10:34:51Z</time>
      </trkpt>
      <trkpt lat="49.65074" lon="4.73914">
        <ele>272.63</ele>
        <time>2011-03-02T10:34:53Z</time>
      </trkpt>
      <trkpt lat="49.65074" lon="4.73914">
        <ele>273.38</ele>
        <time>2011-03-02T10:34:54Z</time>
      </trkpt>
      <trkpt lat="49.65074" lon="4.73914">
        <ele>273.98</ele>
        <time>2011-03-02T10:34:56Z</time>
      </trkpt>
      <trkpt lat="49.65074" lon="4.73915">
        <ele>274.35</ele>
        <time>2011-03-02T10:34:58Z</time>
      </trkpt>
      <trkpt lat="49.65074" lon="4.73915">
        <ele>274.5</ele>
        <time>2011-03-02T10:34:59Z</time>
      </trkpt>
      <trkpt lat="49.65074" lon="4.73915">
        <ele>274.67</ele>
        <time>2011-03-02T10:35:00Z</time>
      </trkpt>
      <trkpt lat="49.65073" lon="4.73915">
        <ele>274.84</ele>
        <time>2011-03-02T10:35:02Z</time>
      </trkpt>
      <trkpt lat="49.65073" lon="4.73915">
        <ele>274.99</ele>
        <time>2011-03-02T10:35:04Z</time>
      </trkpt>
      <trkpt lat="49.65073" lon="4.73915">
        <ele>275.06</ele>
        <time>2011-03-02T10:35:05Z</time>
      </trkpt>
      <trkpt lat="49.65073" lon="4.73915">
        <ele>275.09</ele>
        <time>2011-03-02T10:35:06Z</time>
      </trkpt>
      <trkpt lat="49.65073" lon="4.73915">
        <ele>275.12</ele>
        <time>2011-03-02T10:35:08Z</time>
      </trkpt>
      <trkpt lat="49.65074" lon="4.73915">
        <ele>275.09</ele>
        <time>2011-03-02T10:35:10Z</time>
      </trkpt>
      <trkpt lat="49.65074" lon="4.73918">
        <ele>275.23</ele>
        <time>2011-03-02T10:35:12Z</time>
      </trkpt>
      <trkpt lat="49.65074" lon="4.7392">
        <ele>275.4</ele>
        <time>2011-03-02T10:35:13Z</time>
      </trkpt>
      <trkpt lat="49.65074" lon="4.73925">
        <ele>275.81</ele>
        <time>2011-03-02T10:35:14Z</time>
      </trkpt>
      <trkpt lat="49.65076" lon="4.73927">
        <ele>276.51</ele>
        <time>2011-03-02T10:35:16Z</time>
      </trkpt>
      <trkpt lat="49.6508" lon="4.73928">
        <ele>277.01</ele>
        <time>2011-03-02T10:35:18Z</time>
      </trkpt>
      <trkpt lat="49.65083" lon="4.73928">
        <ele>277.53</ele>
        <time>2011-03-02T10:35:19Z</time>
      </trkpt>
      <trkpt lat="49.65085" lon="4.73928">
        <ele>277.62</ele>
        <time>2011-03-02T10:35:20Z</time>
      </trkpt>
      <trkpt lat="49.65087" lon="4.73928">
        <ele>277.72</ele>
        <time>2011-03-02T10:35:23Z</time>
      </trkpt>
      <trkpt lat="49.6509" lon="4.7393">
        <ele>277.81</ele>
        <time>2011-03-02T10:35:24Z</time>
      </trkpt>
      <trkpt lat="49.6509" lon="4.73933">
        <ele>278.09</ele>
        <time>2011-03-02T10:35:26Z</time>
      </trkpt>
      <trkpt lat="49.6509" lon="4.73938">
        <ele>278.47</ele>
        <time>2011-03-02T10:35:27Z</time>
      </trkpt>
      <trkpt lat="49.6509" lon="4.73942">
        <ele>278.72</ele>
        <time>2011-03-02T10:35:29Z</time>
      </trkpt>
      <trkpt lat="49.6509" lon="4.73943">
        <ele>278.85</ele>
        <time>2011-03-02T10:35:30Z</time>
      </trkpt>
      <trkpt lat="49.65089" lon="4.73944">
        <ele>278.99</ele>
        <time>2011-03-02T10:35:31Z</time>
      </trkpt>
      <trkpt lat="49.65088" lon="4.73947">
        <ele>279.09</ele>
        <time>2011-03-02T10:35:33Z</time>
      </trkpt>
      <trkpt lat="49.65087" lon="4.7395">
        <ele>278.87</ele>
        <time>2011-03-02T10:35:35Z</time>
      </trkpt>
      <trkpt lat="49.65086" lon="4.73952">
        <ele>278.67</ele>
        <time>2011-03-02T10:35:37Z</time>
      </trkpt>
      <trkpt lat="49.65086" lon="4.73952">
        <ele>278.63</ele>
        <time>2011-03-02T10:35:38Z</time>
      </trkpt>
      <trkpt lat="49.65086" lon="4.73952">
        <ele>278.62</ele>
        <time>2011-03-02T10:35:40Z</time>
      </trkpt>
      <trkpt lat="49.65086" lon="4.73952">
        <ele>278.52</ele>
        <time>2011-03-02T10:35:42Z</time>
      </trkpt>
      <trkpt lat="49.65086" lon="4.73952">
        <ele>278.54</ele>
        <time>2011-03-02T10:35:44Z</time>
      </trkpt>
      <trkpt lat="49.65086" lon="4.73952">
        <ele>278.55</ele>
        <time>2011-03-02T10:35:45Z</time>
      </trkpt>
      <trkpt lat="49.65086" lon="4.73952">
        <ele>278.53</ele>
        <time>2011-03-02T10:35:47Z</time>
      </trkpt>
      <trkpt lat="49.65086" lon="4.73952">
        <ele>278.51</ele>
        <time>2011-03-02T10:35:49Z</time>
      </trkpt>
      <trkpt lat="49.65086" lon="4.73952">
        <ele>278.5</ele>
        <time>2011-03-02T10:35:50Z</time>
      </trkpt>
      <trkpt lat="49.65086" lon="4.73952">
        <ele>278.5</ele>
        <time>2011-03-02T10:35:51Z</time>
      </trkpt>
      <trkpt lat="49.65086" lon="4.73951">
        <ele>278.36</ele>
        <time>2011-03-02T10:35:53Z</time>
      </trkpt>
      <trkpt lat="49.65086" lon="4.73951">
        <ele>278.24</ele>
        <time>2011-03-02T10:35:55Z</time>
      </trkpt>
      <trkpt lat="49.65086" lon="4.73951">
        <ele>278.12</ele>
        <time>2011-03-02T10:35:57Z</time>
      </trkpt>
      <trkpt lat="49.65086" lon="4.73951">
        <ele>278</ele>
        <time>2011-03-02T10:35:58Z</time>
      </trkpt>
      <trkpt lat="49.65086" lon="4.73952">
        <ele>277.94</ele>
        <time>2011-03-02T10:36:00Z</time>
      </trkpt>
      <trkpt lat="49.65086" lon="4.73954">
        <ele>278.07</ele>
        <time>2011-03-02T10:36:01Z</time>
      </trkpt>
      <trkpt lat="49.65086" lon="4.73956">
        <ele>278.29</ele>
        <time>2011-03-02T10:36:02Z</time>
      </trkpt>
      <trkpt lat="49.65086" lon="4.73964">
        <ele>278.955</ele>
        <time>2011-03-02T10:36:04Z</time>
      </trkpt>
      <trkpt lat="49.65088" lon="4.73969">
        <ele>279.673</ele>
        <time>2011-03-02T10:36:05Z</time>
      </trkpt>
      <trkpt lat="49.65091" lon="4.73974">
        <ele>280.159</ele>
        <time>2011-03-02T10:36:07Z</time>
      </trkpt>
      <trkpt lat="49.65093" lon="4.73977">
        <ele>280.384</ele>
        <time>2011-03-02T10:36:08Z</time>
      </trkpt>
      <trkpt lat="49.65095" lon="4.73983">
        <ele>280.594</ele>
        <time>2011-03-02T10:36:09Z</time>
      </trkpt>
      <trkpt lat="49.65096" lon="4.73985">
        <ele>280.54</ele>
        <time>2011-03-02T10:36:10Z</time>
      </trkpt>
      <trkpt lat="49.65097" lon="4.73991">
        <ele>279.81</ele>
        <time>2011-03-02T10:36:12Z</time>
      </trkpt>
      <trkpt lat="49.65097" lon="4.73997">
        <ele>278.85</ele>
        <time>2011-03-02T10:36:14Z</time>
      </trkpt>
      <trkpt lat="49.65097" lon="4.74">
        <ele>278.26</ele>
        <time>2011-03-02T10:36:15Z</time>
      </trkpt>
      <trkpt lat="49.65098" lon="4.74002">
        <ele>277.915</ele>
        <time>2011-03-02T10:36:16Z</time>
      </trkpt>
      <trkpt lat="49.65099" lon="4.74008">
        <ele>277.166</ele>
        <time>2011-03-02T10:36:18Z</time>
      </trkpt>
      <trkpt lat="49.651" lon="4.74014">
        <ele>276.44</ele>
        <time>2011-03-02T10:36:19Z</time>
      </trkpt>
      <trkpt lat="49.651" lon="4.74018">
        <ele>275.483</ele>
        <time>2011-03-02T10:36:21Z</time>
      </trkpt>
      <trkpt lat="49.651" lon="4.74021">
        <ele>274.597</ele>
        <time>2011-03-02T10:36:23Z</time>
      </trkpt>
      <trkpt lat="49.65101" lon="4.74022">
        <ele>274.24</ele>
        <time>2011-03-02T10:36:24Z</time>
      </trkpt>
      <trkpt lat="49.65101" lon="4.74024">
        <ele>273.595</ele>
        <time>2011-03-02T10:36:25Z</time>
      </trkpt>
      <trkpt lat="49.65102" lon="4.74025">
        <ele>272.847</ele>
        <time>2011-03-02T10:36:27Z</time>
      </trkpt>
      <trkpt lat="49.65102" lon="4.74027">
        <ele>272.6</ele>
        <time>2011-03-02T10:36:28Z</time>
      </trkpt>
      <trkpt lat="49.65103" lon="4.7403">
        <ele>272.08</ele>
        <time>2011-03-02T10:36:29Z</time>
      </trkpt>
      <trkpt lat="49.65102" lon="4.74034">
        <ele>271.68</ele>
        <time>2011-03-02T10:36:31Z</time>
      </trkpt>
      <trkpt lat="49.65101" lon="4.74036">
        <ele>271.62</ele>
        <time>2011-03-02T10:36:32Z</time>
      </trkpt>
      <trkpt lat="49.651" lon="4.7404">
        <ele>271.5</ele>
        <time>2011-03-02T10:36:34Z</time>
      </trkpt>
      <trkpt lat="49.651" lon="4.74041">
        <ele>271.34</ele>
        <time>2011-03-02T10:36:35Z</time>
      </trkpt>
      <trkpt lat="49.65101" lon="4.74044">
        <ele>270.68</ele>
        <time>2011-03-02T10:36:37Z</time>
      </trkpt>
      <trkpt lat="49.65102" lon="4.7405">
        <ele>270.068</ele>
        <time>2011-03-02T10:36:39Z</time>
      </trkpt>
      <trkpt lat="49.65103" lon="4.74054">
        <ele>269.729</ele>
        <time>2011-03-02T10:36:40Z</time>
      </trkpt>
      <trkpt lat="49.65104" lon="4.7406">
        <ele>268.923</ele>
        <time>2011-03-02T10:36:41Z</time>
      </trkpt>
      <trkpt lat="49.65104" lon="4.74062">
        <ele>268.494</ele>
        <time>2011-03-02T10:36:42Z</time>
      </trkpt>
      <trkpt lat="49.65104" lon="4.74066">
        <ele>268.566</ele>
        <time>2011-03-02T10:36:44Z</time>
      </trkpt>
      <trkpt lat="49.65105" lon="4.74069">
        <ele>268.837</ele>
        <time>2011-03-02T10:36:45Z</time>
      </trkpt>
      <trkpt lat="49.65105" lon="4.74072">
        <ele>269.251</ele>
        <time>2011-03-02T10:36:46Z</time>
      </trkpt>
      <trkpt lat="49.65106" lon="4.74077">
        <ele>270.141</ele>
        <time>2011-03-02T10:36:47Z</time>
      </trkpt>
      <trkpt lat="49.65105" lon="4.7408">
        <ele>270.947</ele>
        <time>2011-03-02T10:36:49Z</time>
      </trkpt>
      <trkpt lat="49.65105" lon="4.74081">
        <ele>271.29</ele>
        <time>2011-03-02T10:36:50Z</time>
      </trkpt>
      <trkpt lat="49.65104" lon="4.74083">
        <ele>271.75</ele>
        <time>2011-03-02T10:36:51Z</time>
      </trkpt>
      <trkpt lat="49.65103" lon="4.74085">
        <ele>272.29</ele>
        <time>2011-03-02T10:36:52Z</time>
      </trkpt>
      <trkpt lat="49.65103" lon="4.74087">
        <ele>272.51</ele>
        <time>2011-03-02T10:36:54Z</time>
      </trkpt>
      <trkpt lat="49.65103" lon="4.74088">
        <ele>272.63</ele>
        <time>2011-03-02T10:36:55Z</time>
      </trkpt>
      <trkpt lat="49.65103" lon="4.74096">
        <ele>272.69</ele>
        <time>2011-03-02T10:36:57Z</time>
      </trkpt>
      <trkpt lat="49.65101" lon="4.74108">
        <ele>272.48</ele>
        <time>2011-03-02T10:36:59Z</time>
      </trkpt>
      <trkpt lat="49.651" lon="4.74113">
        <ele>272.41</ele>
        <time>2011-03-02T10:37:00Z</time>
      </trkpt>
      <trkpt lat="49.65098" lon="4.7412">
        <ele>272.28</ele>
        <time>2011-03-02T10:37:01Z</time>
      </trkpt>
      <trkpt lat="49.65098" lon="4.74124">
        <ele>272.34</ele>
        <time>2011-03-02T10:37:02Z</time>
      </trkpt>
      <trkpt lat="49.65098" lon="4.74135">
        <ele>272.18</ele>
        <time>2011-03-02T10:37:04Z</time>
      </trkpt>
      <trkpt lat="49.65098" lon="4.7415">
        <ele>271.65</ele>
        <time>2011-03-02T10:37:06Z</time>
      </trkpt>
      <trkpt lat="49.65098" lon="4.74156">
        <ele>271.45</ele>
        <time>2011-03-02T10:37:07Z</time>
      </trkpt>
      <trkpt lat="49.65097" lon="4.74164">
        <ele>271.03</ele>
        <time>2011-03-02T10:37:08Z</time>
      </trkpt>
      <trkpt lat="49.65097" lon="4.74172">
        <ele>270.72</ele>
        <time>2011-03-02T10:37:10Z</time>
      </trkpt>
      <trkpt lat="49.65097" lon="4.74177">
        <ele>270.43</ele>
        <time>2011-03-02T10:37:11Z</time>
      </trkpt>
      <trkpt lat="49.65097" lon="4.74183">
        <ele>270</ele>
        <time>2011-03-02T10:37:12Z</time>
      </trkpt>
      <trkpt lat="49.65098" lon="4.74193">
        <ele>269.86</ele>
        <time>2011-03-02T10:37:14Z</time>
      </trkpt>
      <trkpt lat="49.65098" lon="4.74198">
        <ele>269.93</ele>
        <time>2011-03-02T10:37:15Z</time>
      </trkpt>
      <trkpt lat="49.65097" lon="4.74207">
        <ele>270.13</ele>
        <time>2011-03-02T10:37:17Z</time>
      </trkpt>
      <trkpt lat="49.65095" lon="4.74216">
        <ele>270.33</ele>
        <time>2011-03-02T10:37:19Z</time>
      </trkpt>
      <trkpt lat="49.65093" lon="4.74225">
        <ele>270.78</ele>
        <time>2011-03-02T10:37:21Z</time>
      </trkpt>
      <trkpt lat="49.65092" lon="4.74233">
        <ele>271.67</ele>
        <time>2011-03-02T10:37:23Z</time>
      </trkpt>
      <trkpt lat="49.65092" lon="4.74243">
        <ele>272.39</ele>
        <time>2011-03-02T10:37:25Z</time>
      </trkpt>
      <trkpt lat="49.6509" lon="4.74254">
        <ele>273.46</ele>
        <time>2011-03-02T10:37:27Z</time>
      </trkpt>
      <trkpt lat="49.65087" lon="4.74265">
        <ele>275.14</ele>
        <time>2011-03-02T10:37:29Z</time>
      </trkpt>
      <trkpt lat="49.65083" lon="4.74276">
        <ele>276.66</ele>
        <time>2011-03-02T10:37:31Z</time>
      </trkpt>
      <trkpt lat="49.65079" lon="4.74285">
        <ele>277.572</ele>
        <time>2011-03-02T10:37:33Z</time>
      </trkpt>
      <trkpt lat="49.65076" lon="4.74291">
        <ele>278.817</ele>
        <time>2011-03-02T10:37:34Z</time>
      </trkpt>
      <trkpt lat="49.65075" lon="4.74295">
        <ele>279.395</ele>
        <time>2011-03-02T10:37:35Z</time>
      </trkpt>
      <trkpt lat="49.65074" lon="4.74304">
        <ele>279.562</ele>
        <time>2011-03-02T10:37:37Z</time>
      </trkpt>
      <trkpt lat="49.65073" lon="4.74316">
        <ele>278.002</ele>
        <time>2011-03-02T10:37:39Z</time>
      </trkpt>
      <trkpt lat="49.6507" lon="4.74327">
        <ele>276.906</ele>
        <time>2011-03-02T10:37:41Z</time>
      </trkpt>
      <trkpt lat="49.65067" lon="4.74332">
        <ele>276.635</ele>
        <time>2011-03-02T10:37:43Z</time>
      </trkpt>
      <trkpt lat="49.65062" lon="4.74336">
        <ele>276.022</ele>
        <time>2011-03-02T10:37:45Z</time>
      </trkpt>
      <trkpt lat="49.65058" lon="4.74343">
        <ele>275.105</ele>
        <time>2011-03-02T10:37:47Z</time>
      </trkpt>
      <trkpt lat="49.65054" lon="4.74354">
        <ele>275.309</ele>
        <time>2011-03-02T10:37:49Z</time>
      </trkpt>
      <trkpt lat="49.6505" lon="4.74365">
        <ele>275.704</ele>
        <time>2011-03-02T10:37:51Z</time>
      </trkpt>
      <trkpt lat="49.65049" lon="4.7437">
        <ele>275.73</ele>
        <time>2011-03-02T10:37:52Z</time>
      </trkpt>
      <trkpt lat="49.65049" lon="4.74373">
        <ele>275.74</ele>
        <time>2011-03-02T10:37:53Z</time>
      </trkpt>
      <trkpt lat="49.65049" lon="4.74377">
        <ele>275.83</ele>
        <time>2011-03-02T10:37:54Z</time>
      </trkpt>
      <trkpt lat="49.6505" lon="4.74379">
        <ele>275.95</ele>
        <time>2011-03-02T10:37:56Z</time>
      </trkpt>
      <trkpt lat="49.65052" lon="4.74384">
        <ele>275.87</ele>
        <time>2011-03-02T10:37:57Z</time>
      </trkpt>
      <trkpt lat="49.65055" lon="4.74389">
        <ele>275.11</ele>
        <time>2011-03-02T10:37:59Z</time>
      </trkpt>
      <trkpt lat="49.65057" lon="4.74393">
        <ele>274.42</ele>
        <time>2011-03-02T10:38:00Z</time>
      </trkpt>
      <trkpt lat="49.65059" lon="4.74397">
        <ele>273.55</ele>
        <time>2011-03-02T10:38:02Z</time>
      </trkpt>
      <trkpt lat="49.65061" lon="4.74399">
        <ele>272.66</ele>
        <time>2011-03-02T10:38:03Z</time>
      </trkpt>
      <trkpt lat="49.65064" lon="4.74402">
        <ele>271.95</ele>
        <time>2011-03-02T10:38:05Z</time>
      </trkpt>
      <trkpt lat="49.65068" lon="4.74404">
        <ele>271.32</ele>
        <time>2011-03-02T10:38:07Z</time>
      </trkpt>
      <trkpt lat="49.65073" lon="4.74407">
        <ele>270.78</ele>
        <time>2011-03-02T10:38:09Z</time>
      </trkpt>
      <trkpt lat="49.6508" lon="4.74411">
        <ele>270.65</ele>
        <time>2011-03-02T10:38:11Z</time>
      </trkpt>
      <trkpt lat="49.65086" lon="4.74415">
        <ele>270.69</ele>
        <time>2011-03-02T10:38:12Z</time>
      </trkpt>
      <trkpt lat="49.65092" lon="4.74421">
        <ele>270.72</ele>
        <time>2011-03-02T10:38:14Z</time>
      </trkpt>
      <trkpt lat="49.65095" lon="4.74424">
        <ele>270.861</ele>
        <time>2011-03-02T10:38:15Z</time>
      </trkpt>
      <trkpt lat="49.65105" lon="4.74435">
        <ele>271.391</ele>
        <time>2011-03-02T10:38:17Z</time>
      </trkpt>
      <trkpt lat="49.65109" lon="4.7444">
        <ele>271.65</ele>
        <time>2011-03-02T10:38:18Z</time>
      </trkpt>
      <trkpt lat="49.65116" lon="4.7445">
        <ele>272.046</ele>
        <time>2011-03-02T10:38:19Z</time>
      </trkpt>
      <trkpt lat="49.65122" lon="4.74461">
        <ele>272.52</ele>
        <time>2011-03-02T10:38:21Z</time>
      </trkpt>
      <trkpt lat="49.65125" lon="4.74466">
        <ele>272.61</ele>
        <time>2011-03-02T10:38:22Z</time>
      </trkpt>
      <trkpt lat="49.65132" lon="4.74481">
        <ele>272.56</ele>
        <time>2011-03-02T10:38:24Z</time>
      </trkpt>
      <trkpt lat="49.65135" lon="4.74488">
        <ele>272.35</ele>
        <time>2011-03-02T10:38:25Z</time>
      </trkpt>
      <trkpt lat="49.65142" lon="4.74502">
        <ele>271.64</ele>
        <time>2011-03-02T10:38:27Z</time>
      </trkpt>
      <trkpt lat="49.65147" lon="4.74508">
        <ele>271.06</ele>
        <time>2011-03-02T10:38:28Z</time>
      </trkpt>
      <trkpt lat="49.65157" lon="4.74522">
        <ele>269.71</ele>
        <time>2011-03-02T10:38:30Z</time>
      </trkpt>
      <trkpt lat="49.65162" lon="4.74528">
        <ele>269.06</ele>
        <time>2011-03-02T10:38:31Z</time>
      </trkpt>
      <trkpt lat="49.65167" lon="4.74534">
        <ele>268.49</ele>
        <time>2011-03-02T10:38:32Z</time>
      </trkpt>
      <trkpt lat="49.65176" lon="4.74545">
        <ele>267.48</ele>
        <time>2011-03-02T10:38:34Z</time>
      </trkpt>
      <trkpt lat="49.65185" lon="4.74557">
        <ele>266.4</ele>
        <time>2011-03-02T10:38:36Z</time>
      </trkpt>
      <trkpt lat="49.65195" lon="4.74569">
        <ele>265.33</ele>
        <time>2011-03-02T10:38:38Z</time>
      </trkpt>
      <trkpt lat="49.65205" lon="4.74584">
        <ele>264.01</ele>
        <time>2011-03-02T10:38:40Z</time>
      </trkpt>
      <trkpt lat="49.65217" lon="4.746">
        <ele>262.5</ele>
        <time>2011-03-02T10:38:42Z</time>
      </trkpt>
      <trkpt lat="49.65222" lon="4.74607">
        <ele>261.75</ele>
        <time>2011-03-02T10:38:43Z</time>
      </trkpt>
      <trkpt lat="49.6523" lon="4.74619">
        <ele>260.36</ele>
        <time>2011-03-02T10:38:44Z</time>
      </trkpt>
      <trkpt lat="49.65234" lon="4.74626">
        <ele>259.72</ele>
        <time>2011-03-02T10:38:45Z</time>
      </trkpt>
      <trkpt lat="49.65239" lon="4.74634">
        <ele>258.839</ele>
        <time>2011-03-02T10:38:46Z</time>
      </trkpt>
      <trkpt lat="49.65253" lon="4.74653">
        <ele>257.759</ele>
        <time>2011-03-02T10:38:48Z</time>
      </trkpt>
      <trkpt lat="49.65261" lon="4.74663">
        <ele>257.388</ele>
        <time>2011-03-02T10:38:49Z</time>
      </trkpt>
      <trkpt lat="49.65277" lon="4.74681">
        <ele>256.824</ele>
        <time>2011-03-02T10:38:51Z</time>
      </trkpt>
      <trkpt lat="49.65285" lon="4.7469">
        <ele>256.268</ele>
        <time>2011-03-02T10:38:52Z</time>
      </trkpt>
      <trkpt lat="49.65299" lon="4.74709">
        <ele>254.983</ele>
        <time>2011-03-02T10:38:54Z</time>
      </trkpt>
      <trkpt lat="49.65312" lon="4.74732">
        <ele>253.57</ele>
        <time>2011-03-02T10:38:56Z</time>
      </trkpt>
      <trkpt lat="49.65324" lon="4.74754">
        <ele>252.04</ele>
        <time>2011-03-02T10:38:58Z</time>
      </trkpt>
      <trkpt lat="49.65329" lon="4.74764">
        <ele>251.3</ele>
        <time>2011-03-02T10:38:59Z</time>
      </trkpt>
      <trkpt lat="49.65339" lon="4.74782">
        <ele>249.91</ele>
        <time>2011-03-02T10:39:01Z</time>
      </trkpt>
      <trkpt lat="49.65344" lon="4.74793">
        <ele>249.17</ele>
        <time>2011-03-02T10:39:02Z</time>
      </trkpt>
      <trkpt lat="49.65348" lon="4.74803">
        <ele>248.95</ele>
        <time>2011-03-02T10:39:04Z</time>
      </trkpt>
      <trkpt lat="49.65354" lon="4.74813">
        <ele>248.67</ele>
        <time>2011-03-02T10:39:06Z</time>
      </trkpt>
      <trkpt lat="49.65362" lon="4.74823">
        <ele>248.41</ele>
        <time>2011-03-02T10:39:08Z</time>
      </trkpt>
      <trkpt lat="49.65371" lon="4.74833">
        <ele>247.81</ele>
        <time>2011-03-02T10:39:10Z</time>
      </trkpt>
      <trkpt lat="49.65379" lon="4.74841">
        <ele>246.92</ele>
        <time>2011-03-02T10:39:12Z</time>
      </trkpt>
      <trkpt lat="49.65385" lon="4.74848">
        <ele>245.95</ele>
        <time>2011-03-02T10:39:13Z</time>
      </trkpt>
      <trkpt lat="49.65393" lon="4.74854">
        <ele>244.99</ele>
        <time>2011-03-02T10:39:15Z</time>
      </trkpt>
      <trkpt lat="49.654" lon="4.74858">
        <ele>244.02</ele>
        <time>2011-03-02T10:39:17Z</time>
      </trkpt>
      <trkpt lat="49.65409" lon="4.74861">
        <ele>242.66</ele>
        <time>2011-03-02T10:39:19Z</time>
      </trkpt>
      <trkpt lat="49.65413" lon="4.74863">
        <ele>241.97</ele>
        <time>2011-03-02T10:39:20Z</time>
      </trkpt>
      <trkpt lat="49.65421" lon="4.74864">
        <ele>240.77</ele>
        <time>2011-03-02T10:39:22Z</time>
      </trkpt>
      <trkpt lat="49.65431" lon="4.74863">
        <ele>239.26</ele>
        <time>2011-03-02T10:39:24Z</time>
      </trkpt>
      <trkpt lat="49.65444" lon="4.7486">
        <ele>237.73</ele>
        <time>2011-03-02T10:39:26Z</time>
      </trkpt>
      <trkpt lat="49.65457" lon="4.74857">
        <ele>236.777</ele>
        <time>2011-03-02T10:39:28Z</time>
      </trkpt>
      <trkpt lat="49.65463" lon="4.74855">
        <ele>236.366</ele>
        <time>2011-03-02T10:39:29Z</time>
      </trkpt>
      <trkpt lat="49.65472" lon="4.74852">
        <ele>235.534</ele>
        <time>2011-03-02T10:39:30Z</time>
      </trkpt>
      <trkpt lat="49.65481" lon="4.74848">
        <ele>234.734</ele>
        <time>2011-03-02T10:39:32Z</time>
      </trkpt>
      <trkpt lat="49.65486" lon="4.74845">
        <ele>234.462</ele>
        <time>2011-03-02T10:39:33Z</time>
      </trkpt>
      <trkpt lat="49.65496" lon="4.74839">
        <ele>233.73</ele>
        <time>2011-03-02T10:39:34Z</time>
      </trkpt>
      <trkpt lat="49.65503" lon="4.74836">
        <ele>233.1</ele>
        <time>2011-03-02T10:39:36Z</time>
      </trkpt>
      <trkpt lat="49.65507" lon="4.74837">
        <ele>232.73</ele>
        <time>2011-03-02T10:39:37Z</time>
      </trkpt>
      <trkpt lat="49.65513" lon="4.7484">
        <ele>232.19</ele>
        <time>2011-03-02T10:39:38Z</time>
      </trkpt>
      <trkpt lat="49.65523" lon="4.74851">
        <ele>230.49</ele>
        <time>2011-03-02T10:39:40Z</time>
      </trkpt>
      <trkpt lat="49.65531" lon="4.74862">
        <ele>228.37</ele>
        <time>2011-03-02T10:39:42Z</time>
      </trkpt>
      <trkpt lat="49.65534" lon="4.74869">
        <ele>226.1</ele>
        <time>2011-03-02T10:39:43Z</time>
      </trkpt>
      <trkpt lat="49.65537" lon="4.74879">
        <ele>224.12</ele>
        <time>2011-03-02T10:39:45Z</time>
      </trkpt>
      <trkpt lat="49.65541" lon="4.74895">
        <ele>222.67</ele>
        <time>2011-03-02T10:39:47Z</time>
      </trkpt>
      <trkpt lat="49.65545" lon="4.74913">
        <ele>222.04</ele>
        <time>2011-03-02T10:39:49Z</time>
      </trkpt>
      <trkpt lat="49.65547" lon="4.74921">
        <ele>221.78</ele>
        <time>2011-03-02T10:39:50Z</time>
      </trkpt>
      <trkpt lat="49.65547" lon="4.74936">
        <ele>221.82</ele>
        <time>2011-03-02T10:39:52Z</time>
      </trkpt>
      <trkpt lat="49.65545" lon="4.7495">
        <ele>221.84</ele>
        <time>2011-03-02T10:39:54Z</time>
      </trkpt>
      <trkpt lat="49.65543" lon="4.74962">
        <ele>221.74</ele>
        <time>2011-03-02T10:39:55Z</time>
      </trkpt>
      <trkpt lat="49.65541" lon="4.74975">
        <ele>221.44</ele>
        <time>2011-03-02T10:39:57Z</time>
      </trkpt>
      <trkpt lat="49.6554" lon="4.74984">
        <ele>221.34</ele>
        <time>2011-03-02T10:39:58Z</time>
      </trkpt>
      <trkpt lat="49.65538" lon="4.74995">
        <ele>221.31</ele>
        <time>2011-03-02T10:39:59Z</time>
      </trkpt>
      <trkpt lat="49.65532" lon="4.75019">
        <ele>221.43</ele>
        <time>2011-03-02T10:40:01Z</time>
      </trkpt>
      <trkpt lat="49.65529" lon="4.75031">
        <ele>221.6</ele>
        <time>2011-03-02T10:40:02Z</time>
      </trkpt>
      <trkpt lat="49.65523" lon="4.75048">
        <ele>221.95</ele>
        <time>2011-03-02T10:40:03Z</time>
      </trkpt>
      <trkpt lat="49.65521" lon="4.75057">
        <ele>222.13</ele>
        <time>2011-03-02T10:40:04Z</time>
      </trkpt>
      <trkpt lat="49.65518" lon="4.75075">
        <ele>222.81</ele>
        <time>2011-03-02T10:40:06Z</time>
      </trkpt>
      <trkpt lat="49.65515" lon="4.75092">
        <ele>223.55</ele>
        <time>2011-03-02T10:40:07Z</time>
      </trkpt>
      <trkpt lat="49.6551" lon="4.75106">
        <ele>224.12</ele>
        <time>2011-03-02T10:40:09Z</time>
      </trkpt>
      <trkpt lat="49.65506" lon="4.75112">
        <ele>224.34</ele>
        <time>2011-03-02T10:40:10Z</time>
      </trkpt>
      <trkpt lat="49.655" lon="4.75124">
        <ele>224.83</ele>
        <time>2011-03-02T10:40:11Z</time>
      </trkpt>
      <trkpt lat="49.65497" lon="4.75129">
        <ele>225.01</ele>
        <time>2011-03-02T10:40:12Z</time>
      </trkpt>
      <trkpt lat="49.65492" lon="4.75138">
        <ele>224.75</ele>
        <time>2011-03-02T10:40:14Z</time>
      </trkpt>
      <trkpt lat="49.65486" lon="4.75149">
        <ele>224</ele>
        <time>2011-03-02T10:40:16Z</time>
      </trkpt>
      <trkpt lat="49.6548" lon="4.75158">
        <ele>222.52</ele>
        <time>2011-03-02T10:40:18Z</time>
      </trkpt>
      <trkpt lat="49.65473" lon="4.7517">
        <ele>220.92</ele>
        <time>2011-03-02T10:40:20Z</time>
      </trkpt>
      <trkpt lat="49.65468" lon="4.75183">
        <ele>219.1</ele>
        <time>2011-03-02T10:40:22Z</time>
      </trkpt>
      <trkpt lat="49.65467" lon="4.75191">
        <ele>218.3</ele>
        <time>2011-03-02T10:40:23Z</time>
      </trkpt>
      <trkpt lat="49.65465" lon="4.75202">
        <ele>216.72</ele>
        <time>2011-03-02T10:40:24Z</time>
      </trkpt>
      <trkpt lat="49.65465" lon="4.75206">
        <ele>216.06</ele>
        <time>2011-03-02T10:40:25Z</time>
      </trkpt>
      <trkpt lat="49.65465" lon="4.75214">
        <ele>214.66</ele>
        <time>2011-03-02T10:40:27Z</time>
      </trkpt>
      <trkpt lat="49.65467" lon="4.75226">
        <ele>212.94</ele>
        <time>2011-03-02T10:40:29Z</time>
      </trkpt>
      <trkpt lat="49.65467" lon="4.75232">
        <ele>211.99</ele>
        <time>2011-03-02T10:40:30Z</time>
      </trkpt>
      <trkpt lat="49.65466" lon="4.75242">
        <ele>210.2</ele>
        <time>2011-03-02T10:40:32Z</time>
      </trkpt>
      <trkpt lat="49.65464" lon="4.7525">
        <ele>208.09</ele>
        <time>2011-03-02T10:40:34Z</time>
      </trkpt>
      <trkpt lat="49.65462" lon="4.75256">
        <ele>206.38</ele>
        <time>2011-03-02T10:40:36Z</time>
      </trkpt>
      <trkpt lat="49.6546" lon="4.75262">
        <ele>204.98</ele>
        <time>2011-03-02T10:40:37Z</time>
      </trkpt>
      <trkpt lat="49.65457" lon="4.75269">
        <ele>203.813</ele>
        <time>2011-03-02T10:40:39Z</time>
      </trkpt>
      <trkpt lat="49.65455" lon="4.75275">
        <ele>203.343</ele>
        <time>2011-03-02T10:40:40Z</time>
      </trkpt>
      <trkpt lat="49.65451" lon="4.75285">
        <ele>202.591</ele>
        <time>2011-03-02T10:40:42Z</time>
      </trkpt>
      <trkpt lat="49.65448" lon="4.7529">
        <ele>202.224</ele>
        <time>2011-03-02T10:40:43Z</time>
      </trkpt>
      <trkpt lat="49.65446" lon="4.7529">
        <ele>202.225</ele>
        <time>2011-03-02T10:40:44Z</time>
      </trkpt>
      <trkpt lat="49.65445" lon="4.7529">
        <ele>202.32</ele>
        <time>2011-03-02T10:40:45Z</time>
      </trkpt>
      <trkpt lat="49.65445" lon="4.7529">
        <ele>202.91</ele>
        <time>2011-03-02T10:40:47Z</time>
      </trkpt>
      <trkpt lat="49.65445" lon="4.75291">
        <ele>203.37</ele>
        <time>2011-03-02T10:40:48Z</time>
      </trkpt>
      <trkpt lat="49.65445" lon="4.75293">
        <ele>204.25</ele>
        <time>2011-03-02T10:40:50Z</time>
      </trkpt>
      <trkpt lat="49.65444" lon="4.75294">
        <ele>204.58</ele>
        <time>2011-03-02T10:40:51Z</time>
      </trkpt>
      <trkpt lat="49.65443" lon="4.75293">
        <ele>204.5</ele>
        <time>2011-03-02T10:40:52Z</time>
      </trkpt>
      <trkpt lat="49.6544" lon="4.7529">
        <ele>204.31</ele>
        <time>2011-03-02T10:40:54Z</time>
      </trkpt>
      <trkpt lat="49.65439" lon="4.75289">
        <ele>204.05</ele>
        <time>2011-03-02T10:40:55Z</time>
      </trkpt>
      <trkpt lat="49.65439" lon="4.75289">
        <ele>203.43</ele>
        <time>2011-03-02T10:40:57Z</time>
      </trkpt>
      <trkpt lat="49.6544" lon="4.75289">
        <ele>203.04</ele>
        <time>2011-03-02T10:40:58Z</time>
      </trkpt>
      <trkpt lat="49.6544" lon="4.75289">
        <ele>202.57</ele>
        <time>2011-03-02T10:41:00Z</time>
      </trkpt>
      <trkpt lat="49.6544" lon="4.75289">
        <ele>202.49</ele>
        <time>2011-03-02T10:41:01Z</time>
      </trkpt>
      <trkpt lat="49.6544" lon="4.75288">
        <ele>202.38</ele>
        <time>2011-03-02T10:41:03Z</time>
      </trkpt>
      <trkpt lat="49.6544" lon="4.75288">
        <ele>202.42</ele>
        <time>2011-03-02T10:41:05Z</time>
      </trkpt>
      <trkpt lat="49.6544" lon="4.75288">
        <ele>202.55</ele>
        <time>2011-03-02T10:41:07Z</time>
      </trkpt>
      <trkpt lat="49.6544" lon="4.75289">
        <ele>202.68</ele>
        <time>2011-03-02T10:41:09Z</time>
      </trkpt>
      <trkpt lat="49.6544" lon="4.75289">
        <ele>202.81</ele>
        <time>2011-03-02T10:41:11Z</time>
      </trkpt>
      <trkpt lat="49.6544" lon="4.75289">
        <ele>202.93</ele>
        <time>2011-03-02T10:41:12Z</time>
      </trkpt>
      <trkpt lat="49.6544" lon="4.75289">
        <ele>202.93</ele>
        <time>2011-03-02T10:41:13Z</time>
      </trkpt>
      <trkpt lat="49.6544" lon="4.75289">
        <ele>202.91</ele>
        <time>2011-03-02T10:41:15Z</time>
      </trkpt>
      <trkpt lat="49.6544" lon="4.75289">
        <ele>202.9</ele>
        <time>2011-03-02T10:41:16Z</time>
      </trkpt>
      <trkpt lat="49.6544" lon="4.75289">
        <ele>202.9</ele>
        <time>2011-03-02T10:41:17Z</time>
      </trkpt>
      <trkpt lat="49.6544" lon="4.75289">
        <ele>202.9</ele>
        <time>2011-03-02T10:41:19Z</time>
      </trkpt>
      <trkpt lat="49.6544" lon="4.75288">
        <ele>202.9</ele>
        <time>2011-03-02T10:41:20Z</time>
      </trkpt>
      <trkpt lat="49.6544" lon="4.75288">
        <ele>202.9</ele>
        <time>2011-03-02T10:41:21Z</time>
      </trkpt>
      <trkpt lat="49.6544" lon="4.75288">
        <ele>202.94</ele>
        <time>2011-03-02T10:41:23Z</time>
      </trkpt>
      <trkpt lat="49.6544" lon="4.75288">
        <ele>202.96</ele>
        <time>2011-03-02T10:41:24Z</time>
      </trkpt>
      <trkpt lat="49.6544" lon="4.75288">
        <ele>203</ele>
        <time>2011-03-02T10:41:26Z</time>
      </trkpt>
      <trkpt lat="49.6544" lon="4.75288">
        <ele>203.04</ele>
        <time>2011-03-02T10:41:28Z</time>
      </trkpt>
      <trkpt lat="49.6544" lon="4.75288">
        <ele>203.06</ele>
        <time>2011-03-02T10:41:29Z</time>
      </trkpt>
      <trkpt lat="49.6544" lon="4.75288">
        <ele>203.1</ele>
        <time>2011-03-02T10:41:30Z</time>
      </trkpt>
      <trkpt lat="49.6544" lon="4.75288">
        <ele>203.1</ele>
        <time>2011-03-02T10:41:32Z</time>
      </trkpt>
      <trkpt lat="49.6544" lon="4.75288">
        <ele>203.1</ele>
        <time>2011-03-02T10:41:33Z</time>
      </trkpt>
      <trkpt lat="49.6544" lon="4.75288">
        <ele>203.1</ele>
        <time>2011-03-02T10:41:35Z</time>
      </trkpt>
      <trkpt lat="49.6544" lon="4.75288">
        <ele>203.1</ele>
        <time>2011-03-02T10:41:37Z</time>
      </trkpt>
      <trkpt lat="49.6544" lon="4.75288">
        <ele>203.1</ele>
        <time>2011-03-02T10:41:39Z</time>
      </trkpt>
      <trkpt lat="49.6544" lon="4.75288">
        <ele>203.1</ele>
        <time>2011-03-02T10:41:40Z</time>
      </trkpt>
      <trkpt lat="49.6544" lon="4.75288">
        <ele>203.1</ele>
        <time>2011-03-02T10:41:41Z</time>
      </trkpt>
      <trkpt lat="49.6544" lon="4.75288">
        <ele>203.1</ele>
        <time>2011-03-02T10:41:42Z</time>
      </trkpt>
      <trkpt lat="49.6544" lon="4.75288">
        <ele>203.09</ele>
        <time>2011-03-02T10:41:44Z</time>
      </trkpt>
      <trkpt lat="49.6544" lon="4.75288">
        <ele>203.08</ele>
        <time>2011-03-02T10:41:45Z</time>
      </trkpt>
      <trkpt lat="49.6544" lon="4.75288">
        <ele>203.06</ele>
        <time>2011-03-02T10:41:46Z</time>
      </trkpt>
      <trkpt lat="49.6544" lon="4.75288">
        <ele>203.04</ele>
        <time>2011-03-02T10:41:48Z</time>
      </trkpt>
      <trkpt lat="49.6544" lon="4.75288">
        <ele>203.02</ele>
        <time>2011-03-02T10:41:50Z</time>
      </trkpt>
      <trkpt lat="49.6544" lon="4.75288">
        <ele>203</ele>
        <time>2011-03-02T10:41:52Z</time>
      </trkpt>
      <trkpt lat="49.6544" lon="4.75288">
        <ele>203</ele>
        <time>2011-03-02T10:41:53Z</time>
      </trkpt>
      <trkpt lat="49.6544" lon="4.75288">
        <ele>203</ele>
        <time>2011-03-02T10:41:55Z</time>
      </trkpt>
      <trkpt lat="49.6544" lon="4.75288">
        <ele>203</ele>
        <time>2011-03-02T10:41:56Z</time>
      </trkpt>
      <trkpt lat="49.6544" lon="4.75288">
        <ele>203</ele>
        <time>2011-03-02T10:41:58Z</time>
      </trkpt>
      <trkpt lat="49.6544" lon="4.75288">
        <ele>203</ele>
        <time>2011-03-02T10:42:00Z</time>
      </trkpt>
      <trkpt lat="49.6544" lon="4.75288">
        <ele>202.99</ele>
        <time>2011-03-02T10:42:01Z</time>
      </trkpt>
      <trkpt lat="49.6544" lon="4.75288">
        <ele>202.97</ele>
        <time>2011-03-02T10:42:02Z</time>
      </trkpt>
      <trkpt lat="49.6544" lon="4.75288">
        <ele>202.96</ele>
        <time>2011-03-02T10:42:03Z</time>
      </trkpt>
      <trkpt lat="49.65444" lon="4.75289">
        <ele>204.062</ele>
        <time>2011-03-02T10:42:05Z</time>
      </trkpt>
      <trkpt lat="49.65452" lon="4.7529">
        <ele>205.79</ele>
        <time>2011-03-02T10:42:07Z</time>
      </trkpt>
      <trkpt lat="49.65457" lon="4.75291">
        <ele>206.471</ele>
        <time>2011-03-02T10:42:08Z</time>
      </trkpt>
      <trkpt lat="49.65465" lon="4.75293">
        <ele>207.397</ele>
        <time>2011-03-02T10:42:10Z</time>
      </trkpt>
      <trkpt lat="49.65471" lon="4.75295">
        <ele>208.037</ele>
        <time>2011-03-02T10:42:12Z</time>
      </trkpt>
      <trkpt lat="49.65476" lon="4.75299">
        <ele>208.37</ele>
        <time>2011-03-02T10:42:14Z</time>
      </trkpt>
      <trkpt lat="49.65481" lon="4.75302">
        <ele>208.3</ele>
        <time>2011-03-02T10:42:16Z</time>
      </trkpt>
      <trkpt lat="49.65483" lon="4.75304">
        <ele>207.99</ele>
        <time>2011-03-02T10:42:17Z</time>
      </trkpt>
      <trkpt lat="49.65487" lon="4.75309">
        <ele>207.28</ele>
        <time>2011-03-02T10:42:19Z</time>
      </trkpt>
      <trkpt lat="49.65493" lon="4.75317">
        <ele>206.64</ele>
        <time>2011-03-02T10:42:21Z</time>
      </trkpt>
      <trkpt lat="49.65495" lon="4.75321">
        <ele>206.356</ele>
        <time>2011-03-02T10:42:22Z</time>
      </trkpt>
      <trkpt lat="49.655" lon="4.75327">
        <ele>206.066</ele>
        <time>2011-03-02T10:42:24Z</time>
      </trkpt>
      <trkpt lat="49.65503" lon="4.75329">
        <ele>206.184</ele>
        <time>2011-03-02T10:42:25Z</time>
      </trkpt>
      <trkpt lat="49.65506" lon="4.7533">
        <ele>207.023</ele>
        <time>2011-03-02T10:42:27Z</time>
      </trkpt>
      <trkpt lat="49.65511" lon="4.75334">
        <ele>208.722</ele>
        <time>2011-03-02T10:42:29Z</time>
      </trkpt>
      <trkpt lat="49.65513" lon="4.75339">
        <ele>209.47</ele>
        <time>2011-03-02T10:42:31Z</time>
      </trkpt>
      <trkpt lat="49.65516" lon="4.75342">
        <ele>210.43</ele>
        <time>2011-03-02T10:42:33Z</time>
      </trkpt>
      <trkpt lat="49.6552" lon="4.75344">
        <ele>211.37</ele>
        <time>2011-03-02T10:42:35Z</time>
      </trkpt>
      <trkpt lat="49.65525" lon="4.75346">
        <ele>211.607</ele>
        <time>2011-03-02T10:42:37Z</time>
      </trkpt>
      <trkpt lat="49.65532" lon="4.7535">
        <ele>212.314</ele>
        <time>2011-03-02T10:42:39Z</time>
      </trkpt>
      <trkpt lat="49.65537" lon="4.75352">
        <ele>212.694</ele>
        <time>2011-03-02T10:42:41Z</time>
      </trkpt>
      <trkpt lat="49.65544" lon="4.75354">
        <ele>212.289</ele>
        <time>2011-03-02T10:42:43Z</time>
      </trkpt>
      <trkpt lat="49.65547" lon="4.75354">
        <ele>211.656</ele>
        <time>2011-03-02T10:42:44Z</time>
      </trkpt>
      <trkpt lat="49.65555" lon="4.75354">
        <ele>209.415</ele>
        <time>2011-03-02T10:42:46Z</time>
      </trkpt>
      <trkpt lat="49.65563" lon="4.75353">
        <ele>206.44</ele>
        <time>2011-03-02T10:42:48Z</time>
      </trkpt>
      <trkpt lat="49.65568" lon="4.75353">
        <ele>202.91</ele>
        <time>2011-03-02T10:42:49Z</time>
      </trkpt>
      <trkpt lat="49.6557" lon="4.75353">
        <ele>198.87</ele>
        <time>2011-03-02T10:42:51Z</time>
      </trkpt>
      <trkpt lat="49.65573" lon="4.75354">
        <ele>195.64</ele>
        <time>2011-03-02T10:42:53Z</time>
      </trkpt>
      <trkpt lat="49.65578" lon="4.75354">
        <ele>192.88</ele>
        <time>2011-03-02T10:42:55Z</time>
      </trkpt>
      <trkpt lat="49.65582" lon="4.75354">
        <ele>191.42</ele>
        <time>2011-03-02T10:42:57Z</time>
      </trkpt>
      <trkpt lat="49.65586" lon="4.75355">
        <ele>190.02</ele>
        <time>2011-03-02T10:42:58Z</time>
      </trkpt>
      <trkpt lat="49.65589" lon="4.75357">
        <ele>189.05</ele>
        <time>2011-03-02T10:43:00Z</time>
      </trkpt>
      <trkpt lat="49.65591" lon="4.75357">
        <ele>188.47</ele>
        <time>2011-03-02T10:43:01Z</time>
      </trkpt>
      <trkpt lat="49.65593" lon="4.75358">
        <ele>187.34</ele>
        <time>2011-03-02T10:43:02Z</time>
      </trkpt>
      <trkpt lat="49.65594" lon="4.75358">
        <ele>186.8</ele>
        <time>2011-03-02T10:43:03Z</time>
      </trkpt>
      <trkpt lat="49.65596" lon="4.75359">
        <ele>185.95</ele>
        <time>2011-03-02T10:43:05Z</time>
      </trkpt>
      <trkpt lat="49.65599" lon="4.75361">
        <ele>184.86</ele>
        <time>2011-03-02T10:43:07Z</time>
      </trkpt>
      <trkpt lat="49.65601" lon="4.75362">
        <ele>184.1</ele>
        <time>2011-03-02T10:43:08Z</time>
      </trkpt>
      <trkpt lat="49.65605" lon="4.7536">
        <ele>183.66</ele>
        <time>2011-03-02T10:43:10Z</time>
      </trkpt>
      <trkpt lat="49.65607" lon="4.75359">
        <ele>183.427</ele>
        <time>2011-03-02T10:43:11Z</time>
      </trkpt>
      <trkpt lat="49.65612" lon="4.75356">
        <ele>183.062</ele>
        <time>2011-03-02T10:43:13Z</time>
      </trkpt>
      <trkpt lat="49.65614" lon="4.75355">
        <ele>182.821</ele>
        <time>2011-03-02T10:43:14Z</time>
      </trkpt>
      <trkpt lat="49.65615" lon="4.75352">
        <ele>182.464</ele>
        <time>2011-03-02T10:43:16Z</time>
      </trkpt>
      <trkpt lat="49.65615" lon="4.75351">
        <ele>182.435</ele>
        <time>2011-03-02T10:43:17Z</time>
      </trkpt>
      <trkpt lat="49.65615" lon="4.75349">
        <ele>182.927</ele>
        <time>2011-03-02T10:43:19Z</time>
      </trkpt>
      <trkpt lat="49.65616" lon="4.75349">
        <ele>183.191</ele>
        <time>2011-03-02T10:43:20Z</time>
      </trkpt>
      <trkpt lat="49.65618" lon="4.75349">
        <ele>183.618</ele>
        <time>2011-03-02T10:43:22Z</time>
      </trkpt>
      <trkpt lat="49.65619" lon="4.75349">
        <ele>184.013</ele>
        <time>2011-03-02T10:43:24Z</time>
      </trkpt>
      <trkpt lat="49.65622" lon="4.75346">
        <ele>184.206</ele>
        <time>2011-03-02T10:43:26Z</time>
      </trkpt>
      <trkpt lat="49.65626" lon="4.75343">
        <ele>184.263</ele>
        <time>2011-03-02T10:43:27Z</time>
      </trkpt>
      <trkpt lat="49.65628" lon="4.75342">
        <ele>184.388</ele>
        <time>2011-03-02T10:43:29Z</time>
      </trkpt>
      <trkpt lat="49.65632" lon="4.75342">
        <ele>184.95</ele>
        <time>2011-03-02T10:43:31Z</time>
      </trkpt>
      <trkpt lat="49.65633" lon="4.7534">
        <ele>185.319</ele>
        <time>2011-03-02T10:43:32Z</time>
      </trkpt>
      <trkpt lat="49.65635" lon="4.75339">
        <ele>185.93</ele>
        <time>2011-03-02T10:43:33Z</time>
      </trkpt>
      <trkpt lat="49.6564" lon="4.75336">
        <ele>186.98</ele>
        <time>2011-03-02T10:43:35Z</time>
      </trkpt>
      <trkpt lat="49.65647" lon="4.75335">
        <ele>188.23</ele>
        <time>2011-03-02T10:43:37Z</time>
      </trkpt>
      <trkpt lat="49.65651" lon="4.75336">
        <ele>188.16</ele>
        <time>2011-03-02T10:43:39Z</time>
      </trkpt>
      <trkpt lat="49.65655" lon="4.75336">
        <ele>187.51</ele>
        <time>2011-03-02T10:43:40Z</time>
      </trkpt>
      <trkpt lat="49.65661" lon="4.75336">
        <ele>186.51</ele>
        <time>2011-03-02T10:43:42Z</time>
      </trkpt>
      <trkpt lat="49.65667" lon="4.75334">
        <ele>185.42</ele>
        <time>2011-03-02T10:43:44Z</time>
      </trkpt>
      <trkpt lat="49.6567" lon="4.75333">
        <ele>184.76</ele>
        <time>2011-03-02T10:43:45Z</time>
      </trkpt>
      <trkpt lat="49.65679" lon="4.75328">
        <ele>183.55</ele>
        <time>2011-03-02T10:43:47Z</time>
      </trkpt>
      <trkpt lat="49.65682" lon="4.75327">
        <ele>183.17</ele>
        <time>2011-03-02T10:43:48Z</time>
      </trkpt>
      <trkpt lat="49.65687" lon="4.75325">
        <ele>182.38</ele>
        <time>2011-03-02T10:43:49Z</time>
      </trkpt>
      <trkpt lat="49.65693" lon="4.75323">
        <ele>181.54</ele>
        <time>2011-03-02T10:43:51Z</time>
      </trkpt>
      <trkpt lat="49.65696" lon="4.75322">
        <ele>181.14</ele>
        <time>2011-03-02T10:43:52Z</time>
      </trkpt>
      <trkpt lat="49.65703" lon="4.75321">
        <ele>180.56</ele>
        <time>2011-03-02T10:43:53Z</time>
      </trkpt>
      <trkpt lat="49.65707" lon="4.75321">
        <ele>180.26</ele>
        <time>2011-03-02T10:43:54Z</time>
      </trkpt>
      <trkpt lat="49.65714" lon="4.7532">
        <ele>179.78</ele>
        <time>2011-03-02T10:43:56Z</time>
      </trkpt>
      <trkpt lat="49.65721" lon="4.7532">
        <ele>179.33</ele>
        <time>2011-03-02T10:43:57Z</time>
      </trkpt>
      <trkpt lat="49.65727" lon="4.75321">
        <ele>178.89</ele>
        <time>2011-03-02T10:43:59Z</time>
      </trkpt>
      <trkpt lat="49.65735" lon="4.75322">
        <ele>178.66</ele>
        <time>2011-03-02T10:44:01Z</time>
      </trkpt>
      <trkpt lat="49.65739" lon="4.75323">
        <ele>178.65</ele>
        <time>2011-03-02T10:44:02Z</time>
      </trkpt>
      <trkpt lat="49.65743" lon="4.75324">
        <ele>178.66</ele>
        <time>2011-03-02T10:44:03Z</time>
      </trkpt>
      <trkpt lat="49.65749" lon="4.75326">
        <ele>178.73</ele>
        <time>2011-03-02T10:44:04Z</time>
      </trkpt>
      <trkpt lat="49.65756" lon="4.75327">
        <ele>178.91</ele>
        <time>2011-03-02T10:44:06Z</time>
      </trkpt>
      <trkpt lat="49.65762" lon="4.75328">
        <ele>179.31</ele>
        <time>2011-03-02T10:44:07Z</time>
      </trkpt>
      <trkpt lat="49.65769" lon="4.75328">
        <ele>179.72</ele>
        <time>2011-03-02T10:44:09Z</time>
      </trkpt>
      <trkpt lat="49.65776" lon="4.7533">
        <ele>179.8</ele>
        <time>2011-03-02T10:44:11Z</time>
      </trkpt>
      <trkpt lat="49.6578" lon="4.75331">
        <ele>179.844</ele>
        <time>2011-03-02T10:44:12Z</time>
      </trkpt>
      <trkpt lat="49.65786" lon="4.75333">
        <ele>179.971</ele>
        <time>2011-03-02T10:44:14Z</time>
      </trkpt>
      <trkpt lat="49.65792" lon="4.75334">
        <ele>179.917</ele>
        <time>2011-03-02T10:44:15Z</time>
      </trkpt>
      <trkpt lat="49.65797" lon="4.75336">
        <ele>179.75</ele>
        <time>2011-03-02T10:44:17Z</time>
      </trkpt>
      <trkpt lat="49.65805" lon="4.75338">
        <ele>179.55</ele>
        <time>2011-03-02T10:44:19Z</time>
      </trkpt>
      <trkpt lat="49.65807" lon="4.75339">
        <ele>179.5</ele>
        <time>2011-03-02T10:44:20Z</time>
      </trkpt>
      <trkpt lat="49.65814" lon="4.75341">
        <ele>179.45</ele>
        <time>2011-03-02T10:44:22Z</time>
      </trkpt>
      <trkpt lat="49.65821" lon="4.75343">
        <ele>179.45</ele>
        <time>2011-03-02T10:44:24Z</time>
      </trkpt>
      <trkpt lat="49.65826" lon="4.75345">
        <ele>179.43</ele>
        <time>2011-03-02T10:44:25Z</time>
      </trkpt>
      <trkpt lat="49.65834" lon="4.75349">
        <ele>179.64</ele>
        <time>2011-03-02T10:44:27Z</time>
      </trkpt>
      <trkpt lat="49.65836" lon="4.7535">
        <ele>179.85</ele>
        <time>2011-03-02T10:44:28Z</time>
      </trkpt>
      <trkpt lat="49.6584" lon="4.75352">
        <ele>180.26</ele>
        <time>2011-03-02T10:44:29Z</time>
      </trkpt>
      <trkpt lat="49.65843" lon="4.75354">
        <ele>180.57</ele>
        <time>2011-03-02T10:44:31Z</time>
      </trkpt>
      <trkpt lat="49.65846" lon="4.75357">
        <ele>180.88</ele>
        <time>2011-03-02T10:44:33Z</time>
      </trkpt>
      <trkpt lat="49.65848" lon="4.75359">
        <ele>181.04</ele>
        <time>2011-03-02T10:44:34Z</time>
      </trkpt>
      <trkpt lat="49.65851" lon="4.75361">
        <ele>181.533</ele>
        <time>2011-03-02T10:44:35Z</time>
      </trkpt>
      <trkpt lat="49.65853" lon="4.75364">
        <ele>182.788</ele>
        <time>2011-03-02T10:44:37Z</time>
      </trkpt>
      <trkpt lat="49.65855" lon="4.75367">
        <ele>184.559</ele>
        <time>2011-03-02T10:44:39Z</time>
      </trkpt>
      <trkpt lat="49.65856" lon="4.75369">
        <ele>185</ele>
        <time>2011-03-02T10:44:40Z</time>
      </trkpt>
      <trkpt lat="49.65858" lon="4.7537">
        <ele>185.438</ele>
        <time>2011-03-02T10:44:41Z</time>
      </trkpt>
      <trkpt lat="49.65863" lon="4.75371">
        <ele>186.14</ele>
        <time>2011-03-02T10:44:43Z</time>
      </trkpt>
      <trkpt lat="49.65865" lon="4.75372">
        <ele>186.69</ele>
        <time>2011-03-02T10:44:44Z</time>
      </trkpt>
      <trkpt lat="49.65871" lon="4.75376">
        <ele>187.73</ele>
        <time>2011-03-02T10:44:46Z</time>
      </trkpt>
      <trkpt lat="49.65875" lon="4.75379">
        <ele>188.57</ele>
        <time>2011-03-02T10:44:47Z</time>
      </trkpt>
      <trkpt lat="49.6588" lon="4.75381">
        <ele>189.47</ele>
        <time>2011-03-02T10:44:49Z</time>
      </trkpt>
      <trkpt lat="49.65882" lon="4.75382">
        <ele>189.95</ele>
        <time>2011-03-02T10:44:50Z</time>
      </trkpt>
      <trkpt lat="49.65887" lon="4.75385">
        <ele>191.08</ele>
        <time>2011-03-02T10:44:52Z</time>
      </trkpt>
      <trkpt lat="49.6589" lon="4.75387">
        <ele>191.98</ele>
        <time>2011-03-02T10:44:53Z</time>
      </trkpt>
      <trkpt lat="49.65892" lon="4.75389">
        <ele>192.74</ele>
        <time>2011-03-02T10:44:55Z</time>
      </trkpt>
      <trkpt lat="49.65893" lon="4.75389">
        <ele>193.15</ele>
        <time>2011-03-02T10:44:56Z</time>
      </trkpt>
      <trkpt lat="49.65896" lon="4.75389">
        <ele>193.9</ele>
        <time>2011-03-02T10:44:58Z</time>
      </trkpt>
      <trkpt lat="49.65898" lon="4.75389">
        <ele>194.23</ele>
        <time>2011-03-02T10:44:59Z</time>
      </trkpt>
      <trkpt lat="49.65904" lon="4.7539">
        <ele>194.64</ele>
        <time>2011-03-02T10:45:01Z</time>
      </trkpt>
      <trkpt lat="49.65906" lon="4.75391">
        <ele>194.68</ele>
        <time>2011-03-02T10:45:02Z</time>
      </trkpt>
      <trkpt lat="49.6591" lon="4.75393">
        <ele>194.71</ele>
        <time>2011-03-02T10:45:03Z</time>
      </trkpt>
      <trkpt lat="49.65915" lon="4.75394">
        <ele>194.62</ele>
        <time>2011-03-02T10:45:05Z</time>
      </trkpt>
      <trkpt lat="49.65917" lon="4.75394">
        <ele>194.56</ele>
        <time>2011-03-02T10:45:06Z</time>
      </trkpt>
      <trkpt lat="49.6592" lon="4.75393">
        <ele>194.35</ele>
        <time>2011-03-02T10:45:07Z</time>
      </trkpt>
      <trkpt lat="49.65923" lon="4.75394">
        <ele>193.88</ele>
        <time>2011-03-02T10:45:09Z</time>
      </trkpt>
      <trkpt lat="49.65925" lon="4.75394">
        <ele>193.62</ele>
        <time>2011-03-02T10:45:10Z</time>
      </trkpt>
      <trkpt lat="49.65928" lon="4.75395">
        <ele>193.01</ele>
        <time>2011-03-02T10:45:12Z</time>
      </trkpt>
      <trkpt lat="49.65929" lon="4.75395">
        <ele>192.55</ele>
        <time>2011-03-02T10:45:13Z</time>
      </trkpt>
      <trkpt lat="49.6593" lon="4.75396">
        <ele>192.06</ele>
        <time>2011-03-02T10:45:14Z</time>
      </trkpt>
      <trkpt lat="49.65932" lon="4.75396">
        <ele>191.2</ele>
        <time>2011-03-02T10:45:15Z</time>
      </trkpt>
      <trkpt lat="49.65934" lon="4.75397">
        <ele>190.358</ele>
        <time>2011-03-02T10:45:17Z</time>
      </trkpt>
      <trkpt lat="49.65937" lon="4.75398">
        <ele>189.838</ele>
        <time>2011-03-02T10:45:18Z</time>
      </trkpt>
      <trkpt lat="49.6594" lon="4.75399">
        <ele>189.735</ele>
        <time>2011-03-02T10:45:20Z</time>
      </trkpt>
      <trkpt lat="49.65943" lon="4.754">
        <ele>190.058</ele>
        <time>2011-03-02T10:45:21Z</time>
      </trkpt>
      <trkpt lat="49.65946" lon="4.75402">
        <ele>190.536</ele>
        <time>2011-03-02T10:45:23Z</time>
      </trkpt>
      <trkpt lat="49.65949" lon="4.75403">
        <ele>190.82</ele>
        <time>2011-03-02T10:45:24Z</time>
      </trkpt>
      <trkpt lat="49.65953" lon="4.75405">
        <ele>191.74</ele>
        <time>2011-03-02T10:45:26Z</time>
      </trkpt>
      <trkpt lat="49.65957" lon="4.75407">
        <ele>192.65</ele>
        <time>2011-03-02T10:45:27Z</time>
      </trkpt>
      <trkpt lat="49.6596" lon="4.75409">
        <ele>193.4</ele>
        <time>2011-03-02T10:45:29Z</time>
      </trkpt>
      <trkpt lat="49.65966" lon="4.7541">
        <ele>193.96</ele>
        <time>2011-03-02T10:45:31Z</time>
      </trkpt>
      <trkpt lat="49.65968" lon="4.7541">
        <ele>194.02</ele>
        <time>2011-03-02T10:45:32Z</time>
      </trkpt>
      <trkpt lat="49.65972" lon="4.75409">
        <ele>193.83</ele>
        <time>2011-03-02T10:45:34Z</time>
      </trkpt>
      <trkpt lat="49.65975" lon="4.75409">
        <ele>193.796</ele>
        <time>2011-03-02T10:45:36Z</time>
      </trkpt>
      <trkpt lat="49.65978" lon="4.75409">
        <ele>193.627</ele>
        <time>2011-03-02T10:45:37Z</time>
      </trkpt>
      <trkpt lat="49.6598" lon="4.7541">
        <ele>193.539</ele>
        <time>2011-03-02T10:45:39Z</time>
      </trkpt>
      <trkpt lat="49.65984" lon="4.75411">
        <ele>193.871</ele>
        <time>2011-03-02T10:45:41Z</time>
      </trkpt>
      <trkpt lat="49.65987" lon="4.75412">
        <ele>193.96</ele>
        <time>2011-03-02T10:45:43Z</time>
      </trkpt>
      <trkpt lat="49.65989" lon="4.75412">
        <ele>193.74</ele>
        <time>2011-03-02T10:45:44Z</time>
      </trkpt>
      <trkpt lat="49.65992" lon="4.75411">
        <ele>193.33</ele>
        <time>2011-03-02T10:45:45Z</time>
      </trkpt>
      <trkpt lat="49.65997" lon="4.75413">
        <ele>193.864</ele>
        <time>2011-03-02T10:45:47Z</time>
      </trkpt>
      <trkpt lat="49.66004" lon="4.75414">
        <ele>194.667</ele>
        <time>2011-03-02T10:45:49Z</time>
      </trkpt>
      <trkpt lat="49.66008" lon="4.75416">
        <ele>195.27</ele>
        <time>2011-03-02T10:45:50Z</time>
      </trkpt>
      <trkpt lat="49.66014" lon="4.75418">
        <ele>196.214</ele>
        <time>2011-03-02T10:45:52Z</time>
      </trkpt>
      <trkpt lat="49.66021" lon="4.75421">
        <ele>197.229</ele>
        <time>2011-03-02T10:45:54Z</time>
      </trkpt>
      <trkpt lat="49.66027" lon="4.75424">
        <ele>198.721</ele>
        <time>2011-03-02T10:45:55Z</time>
      </trkpt>
      <trkpt lat="49.66037" lon="4.75428">
        <ele>200.958</ele>
        <time>2011-03-02T10:45:57Z</time>
      </trkpt>
      <trkpt lat="49.66049" lon="4.75433">
        <ele>203.446</ele>
        <time>2011-03-02T10:45:59Z</time>
      </trkpt>
      <trkpt lat="49.66056" lon="4.75436">
        <ele>204.683</ele>
        <time>2011-03-02T10:46:00Z</time>
      </trkpt>
      <trkpt lat="49.66069" lon="4.75443">
        <ele>206.35</ele>
        <time>2011-03-02T10:46:02Z</time>
      </trkpt>
      <trkpt lat="49.66079" lon="4.75447">
        <ele>207.084</ele>
        <time>2011-03-02T10:46:03Z</time>
      </trkpt>
      <trkpt lat="49.66083" lon="4.75448">
        <ele>207.575</ele>
        <time>2011-03-02T10:46:04Z</time>
      </trkpt>
      <trkpt lat="49.66087" lon="4.7545">
        <ele>208.112</ele>
        <time>2011-03-02T10:46:05Z</time>
      </trkpt>
      <trkpt lat="49.66099" lon="4.75453">
        <ele>208.873</ele>
        <time>2011-03-02T10:46:07Z</time>
      </trkpt>
      <trkpt lat="49.66112" lon="4.75457">
        <ele>209.163</ele>
        <time>2011-03-02T10:46:09Z</time>
      </trkpt>
      <trkpt lat="49.66119" lon="4.75459">
        <ele>209.288</ele>
        <time>2011-03-02T10:46:10Z</time>
      </trkpt>
      <trkpt lat="49.66128" lon="4.75462">
        <ele>209.73</ele>
        <time>2011-03-02T10:46:11Z</time>
      </trkpt>
      <trkpt lat="49.66139" lon="4.75466">
        <ele>209.85</ele>
        <time>2011-03-02T10:46:13Z</time>
      </trkpt>
      <trkpt lat="49.66145" lon="4.75468">
        <ele>209.83</ele>
        <time>2011-03-02T10:46:14Z</time>
      </trkpt>
      <trkpt lat="49.6616" lon="4.75473">
        <ele>209.33</ele>
        <time>2011-03-02T10:46:16Z</time>
      </trkpt>
      <trkpt lat="49.66176" lon="4.7548">
        <ele>207.626</ele>
        <time>2011-03-02T10:46:18Z</time>
      </trkpt>
      <trkpt lat="49.66191" lon="4.75489">
        <ele>206.732</ele>
        <time>2011-03-02T10:46:20Z</time>
      </trkpt>
      <trkpt lat="49.66206" lon="4.75497">
        <ele>205.942</ele>
        <time>2011-03-02T10:46:22Z</time>
      </trkpt>
      <trkpt lat="49.66214" lon="4.75502">
        <ele>205.663</ele>
        <time>2011-03-02T10:46:23Z</time>
      </trkpt>
      <trkpt lat="49.66227" lon="4.75509">
        <ele>205.154</ele>
        <time>2011-03-02T10:46:24Z</time>
      </trkpt>
      <trkpt lat="49.66235" lon="4.75512">
        <ele>204.863</ele>
        <time>2011-03-02T10:46:25Z</time>
      </trkpt>
      <trkpt lat="49.66251" lon="4.75514">
        <ele>203.421</ele>
        <time>2011-03-02T10:46:27Z</time>
      </trkpt>
      <trkpt lat="49.66261" lon="4.75514">
        <ele>202.444</ele>
        <time>2011-03-02T10:46:28Z</time>
      </trkpt>
      <trkpt lat="49.66276" lon="4.75513">
        <ele>200.52</ele>
        <time>2011-03-02T10:46:29Z</time>
      </trkpt>
      <trkpt lat="49.6629" lon="4.75508">
        <ele>199.21</ele>
        <time>2011-03-02T10:46:31Z</time>
      </trkpt>
      <trkpt lat="49.66307" lon="4.75503">
        <ele>197.77</ele>
        <time>2011-03-02T10:46:33Z</time>
      </trkpt>
      <trkpt lat="49.66326" lon="4.75503">
        <ele>196.44</ele>
        <time>2011-03-02T10:46:35Z</time>
      </trkpt>
      <trkpt lat="49.66347" lon="4.75504">
        <ele>194.168</ele>
        <time>2011-03-02T10:46:37Z</time>
      </trkpt>
      <trkpt lat="49.66365" lon="4.75508">
        <ele>192.819</ele>
        <time>2011-03-02T10:46:39Z</time>
      </trkpt>
      <trkpt lat="49.66374" lon="4.75512">
        <ele>192.318</ele>
        <time>2011-03-02T10:46:40Z</time>
      </trkpt>
      <trkpt lat="49.66382" lon="4.75518">
        <ele>191.923</ele>
        <time>2011-03-02T10:46:41Z</time>
      </trkpt>
      <trkpt lat="49.66395" lon="4.75537">
        <ele>191.392</ele>
        <time>2011-03-02T10:46:43Z</time>
      </trkpt>
      <trkpt lat="49.664" lon="4.75547">
        <ele>191.187</ele>
        <time>2011-03-02T10:46:44Z</time>
      </trkpt>
      <trkpt lat="49.66408" lon="4.75567">
        <ele>190.58</ele>
        <time>2011-03-02T10:46:46Z</time>
      </trkpt>
      <trkpt lat="49.66414" lon="4.75586">
        <ele>189.76</ele>
        <time>2011-03-02T10:46:48Z</time>
      </trkpt>
      <trkpt lat="49.66417" lon="4.75596">
        <ele>189.39</ele>
        <time>2011-03-02T10:46:49Z</time>
      </trkpt>
      <trkpt lat="49.6642" lon="4.75606">
        <ele>189.09</ele>
        <time>2011-03-02T10:46:50Z</time>
      </trkpt>
      <trkpt lat="49.66427" lon="4.75624">
        <ele>188.46</ele>
        <time>2011-03-02T10:46:52Z</time>
      </trkpt>
      <trkpt lat="49.66434" lon="4.75641">
        <ele>187.76</ele>
        <time>2011-03-02T10:46:54Z</time>
      </trkpt>
      <trkpt lat="49.66437" lon="4.75649">
        <ele>187.4</ele>
        <time>2011-03-02T10:46:55Z</time>
      </trkpt>
      <trkpt lat="49.66444" lon="4.75668">
        <ele>186.68</ele>
        <time>2011-03-02T10:46:57Z</time>
      </trkpt>
      <trkpt lat="49.66453" lon="4.75686">
        <ele>185.94</ele>
        <time>2011-03-02T10:46:59Z</time>
      </trkpt>
      <trkpt lat="49.66464" lon="4.75702">
        <ele>184.99</ele>
        <time>2011-03-02T10:47:01Z</time>
      </trkpt>
      <trkpt lat="49.66477" lon="4.75718">
        <ele>183.996</ele>
        <time>2011-03-02T10:47:03Z</time>
      </trkpt>
      <trkpt lat="49.66484" lon="4.75725">
        <ele>183.593</ele>
        <time>2011-03-02T10:47:04Z</time>
      </trkpt>
      <trkpt lat="49.66499" lon="4.75738">
        <ele>182.845</ele>
        <time>2011-03-02T10:47:06Z</time>
      </trkpt>
      <trkpt lat="49.66507" lon="4.75743">
        <ele>182.148</ele>
        <time>2011-03-02T10:47:07Z</time>
      </trkpt>
      <trkpt lat="49.66523" lon="4.75751">
        <ele>181.064</ele>
        <time>2011-03-02T10:47:09Z</time>
      </trkpt>
      <trkpt lat="49.66537" lon="4.75757">
        <ele>179.951</ele>
        <time>2011-03-02T10:47:11Z</time>
      </trkpt>
      <trkpt lat="49.66544" lon="4.7576">
        <ele>179.575</ele>
        <time>2011-03-02T10:47:12Z</time>
      </trkpt>
      <trkpt lat="49.66557" lon="4.75765">
        <ele>179.27</ele>
        <time>2011-03-02T10:47:14Z</time>
      </trkpt>
      <trkpt lat="49.66563" lon="4.75767">
        <ele>179.122</ele>
        <time>2011-03-02T10:47:15Z</time>
      </trkpt>
      <trkpt lat="49.66569" lon="4.75769">
        <ele>178.912</ele>
        <time>2011-03-02T10:47:16Z</time>
      </trkpt>
      <trkpt lat="49.66581" lon="4.75773">
        <ele>178.385</ele>
        <time>2011-03-02T10:47:18Z</time>
      </trkpt>
      <trkpt lat="49.66593" lon="4.75776">
        <ele>177.659</ele>
        <time>2011-03-02T10:47:20Z</time>
      </trkpt>
      <trkpt lat="49.66605" lon="4.7578">
        <ele>176.953</ele>
        <time>2011-03-02T10:47:22Z</time>
      </trkpt>
      <trkpt lat="49.66616" lon="4.75784">
        <ele>176.2</ele>
        <time>2011-03-02T10:47:24Z</time>
      </trkpt>
      <trkpt lat="49.66624" lon="4.75787">
        <ele>175.47</ele>
        <time>2011-03-02T10:47:25Z</time>
      </trkpt>
      <trkpt lat="49.66631" lon="4.7579">
        <ele>174.88</ele>
        <time>2011-03-02T10:47:27Z</time>
      </trkpt>
      <trkpt lat="49.6664" lon="4.75792">
        <ele>174.45</ele>
        <time>2011-03-02T10:47:29Z</time>
      </trkpt>
      <trkpt lat="49.66644" lon="4.75794">
        <ele>174.29</ele>
        <time>2011-03-02T10:47:30Z</time>
      </trkpt>
      <trkpt lat="49.66648" lon="4.75795">
        <ele>174.1</ele>
        <time>2011-03-02T10:47:31Z</time>
      </trkpt>
      <trkpt lat="49.66654" lon="4.75798">
        <ele>173.88</ele>
        <time>2011-03-02T10:47:32Z</time>
      </trkpt>
      <trkpt lat="49.66661" lon="4.758">
        <ele>173.72</ele>
        <time>2011-03-02T10:47:34Z</time>
      </trkpt>
      <trkpt lat="49.66664" lon="4.75801">
        <ele>173.61</ele>
        <time>2011-03-02T10:47:35Z</time>
      </trkpt>
      <trkpt lat="49.66673" lon="4.75802">
        <ele>173.23</ele>
        <time>2011-03-02T10:47:37Z</time>
      </trkpt>
      <trkpt lat="49.66676" lon="4.75803">
        <ele>173.06</ele>
        <time>2011-03-02T10:47:38Z</time>
      </trkpt>
      <trkpt lat="49.6668" lon="4.75803">
        <ele>172.66</ele>
        <time>2011-03-02T10:47:39Z</time>
      </trkpt>
      <trkpt lat="49.66687" lon="4.75805">
        <ele>172.09</ele>
        <time>2011-03-02T10:47:41Z</time>
      </trkpt>
      <trkpt lat="49.66691" lon="4.75805">
        <ele>171.81</ele>
        <time>2011-03-02T10:47:42Z</time>
      </trkpt>
      <trkpt lat="49.66699" lon="4.75806">
        <ele>171.26</ele>
        <time>2011-03-02T10:47:43Z</time>
      </trkpt>
      <trkpt lat="49.66707" lon="4.75808">
        <ele>170.61</ele>
        <time>2011-03-02T10:47:45Z</time>
      </trkpt>
      <trkpt lat="49.6671" lon="4.7581">
        <ele>170.32</ele>
        <time>2011-03-02T10:47:46Z</time>
      </trkpt>
      <trkpt lat="49.66719" lon="4.75812">
        <ele>170.21</ele>
        <time>2011-03-02T10:47:48Z</time>
      </trkpt>
      <trkpt lat="49.66726" lon="4.75814">
        <ele>170.43</ele>
        <time>2011-03-02T10:47:49Z</time>
      </trkpt>
      <trkpt lat="49.66734" lon="4.75816">
        <ele>170.33</ele>
        <time>2011-03-02T10:47:51Z</time>
      </trkpt>
      <trkpt lat="49.66737" lon="4.75817">
        <ele>170.29</ele>
        <time>2011-03-02T10:47:52Z</time>
      </trkpt>
      <trkpt lat="49.66744" lon="4.7582">
        <ele>170.3</ele>
        <time>2011-03-02T10:47:53Z</time>
      </trkpt>
      <trkpt lat="49.6675" lon="4.75822">
        <ele>169.91</ele>
        <time>2011-03-02T10:47:55Z</time>
      </trkpt>
      <trkpt lat="49.66753" lon="4.75823">
        <ele>169.35</ele>
        <time>2011-03-02T10:47:56Z</time>
      </trkpt>
      <trkpt lat="49.6676" lon="4.75825">
        <ele>168.21</ele>
        <time>2011-03-02T10:47:57Z</time>
      </trkpt>
      <trkpt lat="49.66763" lon="4.75825">
        <ele>167.73</ele>
        <time>2011-03-02T10:47:58Z</time>
      </trkpt>
      <trkpt lat="49.66766" lon="4.75826">
        <ele>167.39</ele>
        <time>2011-03-02T10:47:59Z</time>
      </trkpt>
      <trkpt lat="49.66773" lon="4.75829">
        <ele>166.63</ele>
        <time>2011-03-02T10:48:01Z</time>
      </trkpt>
      <trkpt lat="49.66777" lon="4.7583">
        <ele>166.25</ele>
        <time>2011-03-02T10:48:02Z</time>
      </trkpt>
      <trkpt lat="49.66783" lon="4.75832">
        <ele>165.73</ele>
        <time>2011-03-02T10:48:03Z</time>
      </trkpt>
      <trkpt lat="49.6679" lon="4.75834">
        <ele>165.51</ele>
        <time>2011-03-02T10:48:05Z</time>
      </trkpt>
      <trkpt lat="49.66796" lon="4.75837">
        <ele>165.42</ele>
        <time>2011-03-02T10:48:07Z</time>
      </trkpt>
      <trkpt lat="49.668" lon="4.75839">
        <ele>165.43</ele>
        <time>2011-03-02T10:48:08Z</time>
      </trkpt>
      <trkpt lat="49.66804" lon="4.7584">
        <ele>165.45</ele>
        <time>2011-03-02T10:48:09Z</time>
      </trkpt>
      <trkpt lat="49.66812" lon="4.75841">
        <ele>165.76</ele>
        <time>2011-03-02T10:48:11Z</time>
      </trkpt>
      <trkpt lat="49.66815" lon="4.75842">
        <ele>166.1</ele>
        <time>2011-03-02T10:48:12Z</time>
      </trkpt>
      <trkpt lat="49.66821" lon="4.75843">
        <ele>166.84</ele>
        <time>2011-03-02T10:48:13Z</time>
      </trkpt>
      <trkpt lat="49.66824" lon="4.75844">
        <ele>167.2</ele>
        <time>2011-03-02T10:48:14Z</time>
      </trkpt>
      <trkpt lat="49.66831" lon="4.75846">
        <ele>167.84</ele>
        <time>2011-03-02T10:48:16Z</time>
      </trkpt>
      <trkpt lat="49.66839" lon="4.75849">
        <ele>167.99</ele>
        <time>2011-03-02T10:48:18Z</time>
      </trkpt>
      <trkpt lat="49.66845" lon="4.7585">
        <ele>168.02</ele>
        <time>2011-03-02T10:48:19Z</time>
      </trkpt>
      <trkpt lat="49.66853" lon="4.75852">
        <ele>167.82</ele>
        <time>2011-03-02T10:48:21Z</time>
      </trkpt>
      <trkpt lat="49.66861" lon="4.75856">
        <ele>167.89</ele>
        <time>2011-03-02T10:48:23Z</time>
      </trkpt>
      <trkpt lat="49.66865" lon="4.75859">
        <ele>167.89</ele>
        <time>2011-03-02T10:48:24Z</time>
      </trkpt>
      <trkpt lat="49.6687" lon="4.75862">
        <ele>167.89</ele>
        <time>2011-03-02T10:48:26Z</time>
      </trkpt>
      <trkpt lat="49.66879" lon="4.75871">
        <ele>167.97</ele>
        <time>2011-03-02T10:48:27Z</time>
      </trkpt>
      <trkpt lat="49.66884" lon="4.75875">
        <ele>167.88</ele>
        <time>2011-03-02T10:48:28Z</time>
      </trkpt>
      <trkpt lat="49.66889" lon="4.75879">
        <ele>167.74</ele>
        <time>2011-03-02T10:48:29Z</time>
      </trkpt>
      <trkpt lat="49.66898" lon="4.75886">
        <ele>167.2</ele>
        <time>2011-03-02T10:48:31Z</time>
      </trkpt>
      <trkpt lat="49.66907" lon="4.75892">
        <ele>166.32</ele>
        <time>2011-03-02T10:48:33Z</time>
      </trkpt>
      <trkpt lat="49.66912" lon="4.75895">
        <ele>165.95</ele>
        <time>2011-03-02T10:48:34Z</time>
      </trkpt>
      <trkpt lat="49.66919" lon="4.75901">
        <ele>165.35</ele>
        <time>2011-03-02T10:48:36Z</time>
      </trkpt>
      <trkpt lat="49.66923" lon="4.75904">
        <ele>165.14</ele>
        <time>2011-03-02T10:48:37Z</time>
      </trkpt>
      <trkpt lat="49.66928" lon="4.75909">
        <ele>164.84</ele>
        <time>2011-03-02T10:48:38Z</time>
      </trkpt>
      <trkpt lat="49.66931" lon="4.75911">
        <ele>164.65</ele>
        <time>2011-03-02T10:48:39Z</time>
      </trkpt>
      <trkpt lat="49.66934" lon="4.75913">
        <ele>164.53</ele>
        <time>2011-03-02T10:48:40Z</time>
      </trkpt>
      <trkpt lat="49.66942" lon="4.75917">
        <ele>164.22</ele>
        <time>2011-03-02T10:48:42Z</time>
      </trkpt>
      <trkpt lat="49.66952" lon="4.75921">
        <ele>163.82</ele>
        <time>2011-03-02T10:48:44Z</time>
      </trkpt>
      <trkpt lat="49.66957" lon="4.75923">
        <ele>163.62</ele>
        <time>2011-03-02T10:48:45Z</time>
      </trkpt>
      <trkpt lat="49.66966" lon="4.75928">
        <ele>163.44</ele>
        <time>2011-03-02T10:48:47Z</time>
      </trkpt>
      <trkpt lat="49.66976" lon="4.75934">
        <ele>163.38</ele>
        <time>2011-03-02T10:48:49Z</time>
      </trkpt>
      <trkpt lat="49.66987" lon="4.75939">
        <ele>163.37</ele>
        <time>2011-03-02T10:48:51Z</time>
      </trkpt>
      <trkpt lat="49.66999" lon="4.75943">
        <ele>163.4</ele>
        <time>2011-03-02T10:48:53Z</time>
      </trkpt>
      <trkpt lat="49.67005" lon="4.75945">
        <ele>163.35</ele>
        <time>2011-03-02T10:48:54Z</time>
      </trkpt>
      <trkpt lat="49.67017" lon="4.75949">
        <ele>163.06</ele>
        <time>2011-03-02T10:48:56Z</time>
      </trkpt>
      <trkpt lat="49.67029" lon="4.75953">
        <ele>162.63</ele>
        <time>2011-03-02T10:48:58Z</time>
      </trkpt>
      <trkpt lat="49.67036" lon="4.75954">
        <ele>162.41</ele>
        <time>2011-03-02T10:48:59Z</time>
      </trkpt>
      <trkpt lat="49.67046" lon="4.75957">
        <ele>161.96</ele>
        <time>2011-03-02T10:49:00Z</time>
      </trkpt>
      <trkpt lat="49.67056" lon="4.75962">
        <ele>161.44</ele>
        <time>2011-03-02T10:49:02Z</time>
      </trkpt>
      <trkpt lat="49.67066" lon="4.75967">
        <ele>161.05</ele>
        <time>2011-03-02T10:49:04Z</time>
      </trkpt>
      <trkpt lat="49.67071" lon="4.7597">
        <ele>160.91</ele>
        <time>2011-03-02T10:49:05Z</time>
      </trkpt>
      <trkpt lat="49.67077" lon="4.75973">
        <ele>160.78</ele>
        <time>2011-03-02T10:49:06Z</time>
      </trkpt>
      <trkpt lat="49.67087" lon="4.75978">
        <ele>160.73</ele>
        <time>2011-03-02T10:49:08Z</time>
      </trkpt>
      <trkpt lat="49.67096" lon="4.75983">
        <ele>160.69</ele>
        <time>2011-03-02T10:49:10Z</time>
      </trkpt>
      <trkpt lat="49.67108" lon="4.75988">
        <ele>160.76</ele>
        <time>2011-03-02T10:49:12Z</time>
      </trkpt>
      <trkpt lat="49.67117" lon="4.75991">
        <ele>160.94</ele>
        <time>2011-03-02T10:49:14Z</time>
      </trkpt>
      <trkpt lat="49.67127" lon="4.75996">
        <ele>161.14</ele>
        <time>2011-03-02T10:49:16Z</time>
      </trkpt>
      <trkpt lat="49.67136" lon="4.75999">
        <ele>161.3</ele>
        <time>2011-03-02T10:49:17Z</time>
      </trkpt>
      <trkpt lat="49.6714" lon="4.76">
        <ele>161.34</ele>
        <time>2011-03-02T10:49:18Z</time>
      </trkpt>
      <trkpt lat="49.67145" lon="4.76001">
        <ele>161.35</ele>
        <time>2011-03-02T10:49:19Z</time>
      </trkpt>
      <trkpt lat="49.67154" lon="4.76001">
        <ele>161.45</ele>
        <time>2011-03-02T10:49:21Z</time>
      </trkpt>
      <trkpt lat="49.6716" lon="4.75999">
        <ele>161.5</ele>
        <time>2011-03-02T10:49:22Z</time>
      </trkpt>
      <trkpt lat="49.67166" lon="4.75995">
        <ele>161.75</ele>
        <time>2011-03-02T10:49:24Z</time>
      </trkpt>
      <trkpt lat="49.6717" lon="4.75992">
        <ele>162.04</ele>
        <time>2011-03-02T10:49:25Z</time>
      </trkpt>
      <trkpt lat="49.67178" lon="4.75985">
        <ele>162.8</ele>
        <time>2011-03-02T10:49:27Z</time>
      </trkpt>
      <trkpt lat="49.67185" lon="4.75979">
        <ele>163.6</ele>
        <time>2011-03-02T10:49:28Z</time>
      </trkpt>
      <trkpt lat="49.67192" lon="4.75971">
        <ele>164.3</ele>
        <time>2011-03-02T10:49:30Z</time>
      </trkpt>
      <trkpt lat="49.67199" lon="4.75962">
        <ele>164.88</ele>
        <time>2011-03-02T10:49:32Z</time>
      </trkpt>
      <trkpt lat="49.67207" lon="4.75955">
        <ele>165.03</ele>
        <time>2011-03-02T10:49:34Z</time>
      </trkpt>
      <trkpt lat="49.67211" lon="4.75951">
        <ele>164.97</ele>
        <time>2011-03-02T10:49:35Z</time>
      </trkpt>
      <trkpt lat="49.67221" lon="4.75943">
        <ele>164.75</ele>
        <time>2011-03-02T10:49:37Z</time>
      </trkpt>
      <trkpt lat="49.67231" lon="4.75935">
        <ele>164.55</ele>
        <time>2011-03-02T10:49:39Z</time>
      </trkpt>
      <trkpt lat="49.67236" lon="4.75931">
        <ele>164.43</ele>
        <time>2011-03-02T10:49:40Z</time>
      </trkpt>
      <trkpt lat="49.67241" lon="4.75926">
        <ele>164.341</ele>
        <time>2011-03-02T10:49:41Z</time>
      </trkpt>
      <trkpt lat="49.67251" lon="4.75918">
        <ele>164.106</ele>
        <time>2011-03-02T10:49:43Z</time>
      </trkpt>
      <trkpt lat="49.6726" lon="4.75906">
        <ele>163.798</ele>
        <time>2011-03-02T10:49:45Z</time>
      </trkpt>
      <trkpt lat="49.67265" lon="4.759">
        <ele>163.635</ele>
        <time>2011-03-02T10:49:46Z</time>
      </trkpt>
      <trkpt lat="49.67274" lon="4.75885">
        <ele>162.698</ele>
        <time>2011-03-02T10:49:48Z</time>
      </trkpt>
      <trkpt lat="49.67283" lon="4.7587">
        <ele>161.854</ele>
        <time>2011-03-02T10:49:50Z</time>
      </trkpt>
      <trkpt lat="49.67287" lon="4.75863">
        <ele>161.727</ele>
        <time>2011-03-02T10:49:51Z</time>
      </trkpt>
      <trkpt lat="49.67294" lon="4.75848">
        <ele>161.505</ele>
        <time>2011-03-02T10:49:53Z</time>
      </trkpt>
      <trkpt lat="49.67297" lon="4.75841">
        <ele>161.418</ele>
        <time>2011-03-02T10:49:54Z</time>
      </trkpt>
      <trkpt lat="49.673" lon="4.75833">
        <ele>161.334</ele>
        <time>2011-03-02T10:49:55Z</time>
      </trkpt>
      <trkpt lat="49.67305" lon="4.75816">
        <ele>161.204</ele>
        <time>2011-03-02T10:49:57Z</time>
      </trkpt>
      <trkpt lat="49.67308" lon="4.75797">
        <ele>161.044</ele>
        <time>2011-03-02T10:49:59Z</time>
      </trkpt>
      <trkpt lat="49.6731" lon="4.75782">
        <ele>160.835</ele>
        <time>2011-03-02T10:50:00Z</time>
      </trkpt>
      <trkpt lat="49.67312" lon="4.75766">
        <ele>161.01</ele>
        <time>2011-03-02T10:50:02Z</time>
      </trkpt>
      <trkpt lat="49.67313" lon="4.7576">
        <ele>161.16</ele>
        <time>2011-03-02T10:50:03Z</time>
      </trkpt>
      <trkpt lat="49.67315" lon="4.75746">
        <ele>161.368</ele>
        <time>2011-03-02T10:50:05Z</time>
      </trkpt>
      <trkpt lat="49.67314" lon="4.75731">
        <ele>161.303</ele>
        <time>2011-03-02T10:50:07Z</time>
      </trkpt>
      <trkpt lat="49.67313" lon="4.75722">
        <ele>161.269</ele>
        <time>2011-03-02T10:50:08Z</time>
      </trkpt>
      <trkpt lat="49.67312" lon="4.75707">
        <ele>161.1</ele>
        <time>2011-03-02T10:50:10Z</time>
      </trkpt>
      <trkpt lat="49.67312" lon="4.75699">
        <ele>161.108</ele>
        <time>2011-03-02T10:50:11Z</time>
      </trkpt>
      <trkpt lat="49.67313" lon="4.75683">
        <ele>161.2</ele>
        <time>2011-03-02T10:50:13Z</time>
      </trkpt>
      <trkpt lat="49.67313" lon="4.75668">
        <ele>161.292</ele>
        <time>2011-03-02T10:50:14Z</time>
      </trkpt>
      <trkpt lat="49.67313" lon="4.75655">
        <ele>161.64</ele>
        <time>2011-03-02T10:50:16Z</time>
      </trkpt>
      <trkpt lat="49.67311" lon="4.75651">
        <ele>161.834</ele>
        <time>2011-03-02T10:50:17Z</time>
      </trkpt>
      <trkpt lat="49.67308" lon="4.75643">
        <ele>162.335</ele>
        <time>2011-03-02T10:50:18Z</time>
      </trkpt>
      <trkpt lat="49.67307" lon="4.75634">
        <ele>162.53</ele>
        <time>2011-03-02T10:50:20Z</time>
      </trkpt>
      <trkpt lat="49.67309" lon="4.75628">
        <ele>162.6</ele>
        <time>2011-03-02T10:50:21Z</time>
      </trkpt>
      <trkpt lat="49.67312" lon="4.75621">
        <ele>162.67</ele>
        <time>2011-03-02T10:50:22Z</time>
      </trkpt>
      <trkpt lat="49.67315" lon="4.75616">
        <ele>162.71</ele>
        <time>2011-03-02T10:50:23Z</time>
      </trkpt>
      <trkpt lat="49.67321" lon="4.75612">
        <ele>162.67</ele>
        <time>2011-03-02T10:50:25Z</time>
      </trkpt>
      <trkpt lat="49.67326" lon="4.75616">
        <ele>162.69</ele>
        <time>2011-03-02T10:50:27Z</time>
      </trkpt>
      <trkpt lat="49.6733" lon="4.75621">
        <ele>162.77</ele>
        <time>2011-03-02T10:50:28Z</time>
      </trkpt>
      <trkpt lat="49.67332" lon="4.75624">
        <ele>162.76</ele>
        <time>2011-03-02T10:50:29Z</time>
      </trkpt>
      <trkpt lat="49.67337" lon="4.7563">
        <ele>162.68</ele>
        <time>2011-03-02T10:50:31Z</time>
      </trkpt>
      <trkpt lat="49.67343" lon="4.75635">
        <ele>163.22</ele>
        <time>2011-03-02T10:50:33Z</time>
      </trkpt>
      <trkpt lat="49.67345" lon="4.75637">
        <ele>163.39</ele>
        <time>2011-03-02T10:50:34Z</time>
      </trkpt>
      <trkpt lat="49.6735" lon="4.75643">
        <ele>163.49</ele>
        <time>2011-03-02T10:50:36Z</time>
      </trkpt>
      <trkpt lat="49.67353" lon="4.75647">
        <ele>163.42</ele>
        <time>2011-03-02T10:50:37Z</time>
      </trkpt>
      <trkpt lat="49.67357" lon="4.75656">
        <ele>163.28</ele>
        <time>2011-03-02T10:50:38Z</time>
      </trkpt>
      <trkpt lat="49.67362" lon="4.75666">
        <ele>162.78</ele>
        <time>2011-03-02T10:50:40Z</time>
      </trkpt>
      <trkpt lat="49.67364" lon="4.75671">
        <ele>162.15</ele>
        <time>2011-03-02T10:50:41Z</time>
      </trkpt>
      <trkpt lat="49.67367" lon="4.75681">
        <ele>160.96</ele>
        <time>2011-03-02T10:50:42Z</time>
      </trkpt>
      <trkpt lat="49.67369" lon="4.75691">
        <ele>160.088</ele>
        <time>2011-03-02T10:50:44Z</time>
      </trkpt>
      <trkpt lat="49.6737" lon="4.75695">
        <ele>159.778</ele>
        <time>2011-03-02T10:50:45Z</time>
      </trkpt>
      <trkpt lat="49.67373" lon="4.75706">
        <ele>159.138</ele>
        <time>2011-03-02T10:50:47Z</time>
      </trkpt>
      <trkpt lat="49.67374" lon="4.75709">
        <ele>159.233</ele>
        <time>2011-03-02T10:50:48Z</time>
      </trkpt>
      <trkpt lat="49.67376" lon="4.75715">
        <ele>159.693</ele>
        <time>2011-03-02T10:50:49Z</time>
      </trkpt>
      <trkpt lat="49.67378" lon="4.75718">
        <ele>159.973</ele>
        <time>2011-03-02T10:50:50Z</time>
      </trkpt>
      <trkpt lat="49.67379" lon="4.75721">
        <ele>160.26</ele>
        <time>2011-03-02T10:50:51Z</time>
      </trkpt>
      <trkpt lat="49.6738" lon="4.75725">
        <ele>160.45</ele>
        <time>2011-03-02T10:50:52Z</time>
      </trkpt>
      <trkpt lat="49.67383" lon="4.75733">
        <ele>161.07</ele>
        <time>2011-03-02T10:50:54Z</time>
      </trkpt>
      <trkpt lat="49.67385" lon="4.75736">
        <ele>161.5</ele>
        <time>2011-03-02T10:50:55Z</time>
      </trkpt>
      <trkpt lat="49.67387" lon="4.75742">
        <ele>162.14</ele>
        <time>2011-03-02T10:50:56Z</time>
      </trkpt>
      <trkpt lat="49.67388" lon="4.75748">
        <ele>162.51</ele>
        <time>2011-03-02T10:50:58Z</time>
      </trkpt>
      <trkpt lat="49.6739" lon="4.75755">
        <ele>162.77</ele>
        <time>2011-03-02T10:51:00Z</time>
      </trkpt>
      <trkpt lat="49.67391" lon="4.75762">
        <ele>162.97</ele>
        <time>2011-03-02T10:51:01Z</time>
      </trkpt>
      <trkpt lat="49.67392" lon="4.75768">
        <ele>162.85</ele>
        <time>2011-03-02T10:51:03Z</time>
      </trkpt>
      <trkpt lat="49.67393" lon="4.75775">
        <ele>162.92</ele>
        <time>2011-03-02T10:51:05Z</time>
      </trkpt>
      <trkpt lat="49.67395" lon="4.75778">
        <ele>163.03</ele>
        <time>2011-03-02T10:51:06Z</time>
      </trkpt>
      <trkpt lat="49.67396" lon="4.75781">
        <ele>163.14</ele>
        <time>2011-03-02T10:51:07Z</time>
      </trkpt>
      <trkpt lat="49.67397" lon="4.75788">
        <ele>163.4</ele>
        <time>2011-03-02T10:51:09Z</time>
      </trkpt>
      <trkpt lat="49.67398" lon="4.75794">
        <ele>163.63</ele>
        <time>2011-03-02T10:51:11Z</time>
      </trkpt>
      <trkpt lat="49.67399" lon="4.75798">
        <ele>163.73</ele>
        <time>2011-03-02T10:51:12Z</time>
      </trkpt>
      <trkpt lat="49.67399" lon="4.75801">
        <ele>163.76</ele>
        <time>2011-03-02T10:51:13Z</time>
      </trkpt>
      <trkpt lat="49.674" lon="4.75806">
        <ele>163.69</ele>
        <time>2011-03-02T10:51:15Z</time>
      </trkpt>
      <trkpt lat="49.67402" lon="4.75812">
        <ele>163.76</ele>
        <time>2011-03-02T10:51:17Z</time>
      </trkpt>
      <trkpt lat="49.67403" lon="4.75815">
        <ele>163.93</ele>
        <time>2011-03-02T10:51:18Z</time>
      </trkpt>
      <trkpt lat="49.67406" lon="4.75823">
        <ele>164.53</ele>
        <time>2011-03-02T10:51:20Z</time>
      </trkpt>
      <trkpt lat="49.67407" lon="4.75829">
        <ele>164.88</ele>
        <time>2011-03-02T10:51:22Z</time>
      </trkpt>
      <trkpt lat="49.67408" lon="4.75833">
        <ele>164.98</ele>
        <time>2011-03-02T10:51:23Z</time>
      </trkpt>
      <trkpt lat="49.6741" lon="4.75837">
        <ele>165.11</ele>
        <time>2011-03-02T10:51:24Z</time>
      </trkpt>
      <trkpt lat="49.67411" lon="4.75839">
        <ele>165.12</ele>
        <time>2011-03-02T10:51:25Z</time>
      </trkpt>
      <trkpt lat="49.67414" lon="4.75842">
        <ele>164.69</ele>
        <time>2011-03-02T10:51:27Z</time>
      </trkpt>
      <trkpt lat="49.67415" lon="4.75845">
        <ele>164.36</ele>
        <time>2011-03-02T10:51:28Z</time>
      </trkpt>
      <trkpt lat="49.67416" lon="4.75849">
        <ele>163.75</ele>
        <time>2011-03-02T10:51:29Z</time>
      </trkpt>
      <trkpt lat="49.67416" lon="4.75853">
        <ele>163.19</ele>
        <time>2011-03-02T10:51:31Z</time>
      </trkpt>
      <trkpt lat="49.67417" lon="4.75859">
        <ele>162.45</ele>
        <time>2011-03-02T10:51:33Z</time>
      </trkpt>
      <trkpt lat="49.67419" lon="4.75863">
        <ele>162.16</ele>
        <time>2011-03-02T10:51:35Z</time>
      </trkpt>
      <trkpt lat="49.6742" lon="4.75869">
        <ele>162.06</ele>
        <time>2011-03-02T10:51:37Z</time>
      </trkpt>
      <trkpt lat="49.6742" lon="4.75875">
        <ele>162.03</ele>
        <time>2011-03-02T10:51:38Z</time>
      </trkpt>
      <trkpt lat="49.6742" lon="4.7588">
        <ele>162.05</ele>
        <time>2011-03-02T10:51:40Z</time>
      </trkpt>
      <trkpt lat="49.6742" lon="4.75882">
        <ele>162.06</ele>
        <time>2011-03-02T10:51:41Z</time>
      </trkpt>
      <trkpt lat="49.6742" lon="4.75884">
        <ele>162.07</ele>
        <time>2011-03-02T10:51:42Z</time>
      </trkpt>
      <trkpt lat="49.6742" lon="4.75889">
        <ele>162.11</ele>
        <time>2011-03-02T10:51:43Z</time>
      </trkpt>
      <trkpt lat="49.67422" lon="4.75894">
        <ele>162.19</ele>
        <time>2011-03-02T10:51:45Z</time>
      </trkpt>
      <trkpt lat="49.67422" lon="4.75898">
        <ele>162.27</ele>
        <time>2011-03-02T10:51:46Z</time>
      </trkpt>
      <trkpt lat="49.67424" lon="4.75907">
        <ele>162.39</ele>
        <time>2011-03-02T10:51:48Z</time>
      </trkpt>
      <trkpt lat="49.67425" lon="4.75915">
        <ele>162.64</ele>
        <time>2011-03-02T10:51:50Z</time>
      </trkpt>
      <trkpt lat="49.67428" lon="4.7592">
        <ele>163.07</ele>
        <time>2011-03-02T10:51:52Z</time>
      </trkpt>
      <trkpt lat="49.67429" lon="4.75922">
        <ele>163.34</ele>
        <time>2011-03-02T10:51:53Z</time>
      </trkpt>
      <trkpt lat="49.67431" lon="4.75924">
        <ele>163.7</ele>
        <time>2011-03-02T10:51:54Z</time>
      </trkpt>
      <trkpt lat="49.67434" lon="4.75928">
        <ele>164.15</ele>
        <time>2011-03-02T10:51:55Z</time>
      </trkpt>
      <trkpt lat="49.67437" lon="4.75932">
        <ele>163.68</ele>
        <time>2011-03-02T10:51:57Z</time>
      </trkpt>
      <trkpt lat="49.67439" lon="4.75935">
        <ele>162.86</ele>
        <time>2011-03-02T10:51:58Z</time>
      </trkpt>
      <trkpt lat="49.6744" lon="4.75938">
        <ele>161.72</ele>
        <time>2011-03-02T10:52:00Z</time>
      </trkpt>
      <trkpt lat="49.67442" lon="4.75942">
        <ele>159.64</ele>
        <time>2011-03-02T10:52:02Z</time>
      </trkpt>
      <trkpt lat="49.67443" lon="4.75943">
        <ele>159.17</ele>
        <time>2011-03-02T10:52:03Z</time>
      </trkpt>
      <trkpt lat="49.67445" lon="4.75945">
        <ele>158.78</ele>
        <time>2011-03-02T10:52:04Z</time>
      </trkpt>
      <trkpt lat="49.67447" lon="4.75948">
        <ele>158.75</ele>
        <time>2011-03-02T10:52:06Z</time>
      </trkpt>
      <trkpt lat="49.67449" lon="4.7595">
        <ele>158.99</ele>
        <time>2011-03-02T10:52:07Z</time>
      </trkpt>
      <trkpt lat="49.67451" lon="4.75954">
        <ele>159.3</ele>
        <time>2011-03-02T10:52:09Z</time>
      </trkpt>
      <trkpt lat="49.67453" lon="4.75958">
        <ele>159.7</ele>
        <time>2011-03-02T10:52:10Z</time>
      </trkpt>
      <trkpt lat="49.67455" lon="4.75962">
        <ele>160.32</ele>
        <time>2011-03-02T10:52:12Z</time>
      </trkpt>
      <trkpt lat="49.67457" lon="4.75966">
        <ele>160.86</ele>
        <time>2011-03-02T10:52:13Z</time>
      </trkpt>
      <trkpt lat="49.67459" lon="4.75968">
        <ele>161.14</ele>
        <time>2011-03-02T10:52:14Z</time>
      </trkpt>
      <trkpt lat="49.67462" lon="4.75972">
        <ele>161.64</ele>
        <time>2011-03-02T10:52:16Z</time>
      </trkpt>
      <trkpt lat="49.67465" lon="4.75976">
        <ele>162.09</ele>
        <time>2011-03-02T10:52:17Z</time>
      </trkpt>
      <trkpt lat="49.67468" lon="4.75982">
        <ele>162.12</ele>
        <time>2011-03-02T10:52:19Z</time>
      </trkpt>
      <trkpt lat="49.6747" lon="4.75985">
        <ele>162.06</ele>
        <time>2011-03-02T10:52:20Z</time>
      </trkpt>
      <trkpt lat="49.67472" lon="4.75988">
        <ele>162.01</ele>
        <time>2011-03-02T10:52:21Z</time>
      </trkpt>
      <trkpt lat="49.67476" lon="4.75994">
        <ele>162.02</ele>
        <time>2011-03-02T10:52:23Z</time>
      </trkpt>
      <trkpt lat="49.6748" lon="4.76">
        <ele>162</ele>
        <time>2011-03-02T10:52:25Z</time>
      </trkpt>
      <trkpt lat="49.67481" lon="4.76003">
        <ele>161.95</ele>
        <time>2011-03-02T10:52:26Z</time>
      </trkpt>
      <trkpt lat="49.67483" lon="4.76007">
        <ele>162.01</ele>
        <time>2011-03-02T10:52:27Z</time>
      </trkpt>
      <trkpt lat="49.67486" lon="4.76012">
        <ele>162.17</ele>
        <time>2011-03-02T10:52:29Z</time>
      </trkpt>
      <trkpt lat="49.67488" lon="4.76017">
        <ele>162.34</ele>
        <time>2011-03-02T10:52:31Z</time>
      </trkpt>
      <trkpt lat="49.6749" lon="4.7602">
        <ele>162.37</ele>
        <time>2011-03-02T10:52:32Z</time>
      </trkpt>
      <trkpt lat="49.67492" lon="4.76025">
        <ele>162.46</ele>
        <time>2011-03-02T10:52:34Z</time>
      </trkpt>
      <trkpt lat="49.67493" lon="4.76028">
        <ele>162.6</ele>
        <time>2011-03-02T10:52:35Z</time>
      </trkpt>
      <trkpt lat="49.67496" lon="4.76032">
        <ele>162.9</ele>
        <time>2011-03-02T10:52:37Z</time>
      </trkpt>
      <trkpt lat="49.67499" lon="4.76035">
        <ele>163.2</ele>
        <time>2011-03-02T10:52:38Z</time>
      </trkpt>
      <trkpt lat="49.675" lon="4.76036">
        <ele>163.33</ele>
        <time>2011-03-02T10:52:39Z</time>
      </trkpt>
      <trkpt lat="49.67503" lon="4.7604">
        <ele>163.5</ele>
        <time>2011-03-02T10:52:41Z</time>
      </trkpt>
      <trkpt lat="49.67509" lon="4.76046">
        <ele>163.56</ele>
        <time>2011-03-02T10:52:43Z</time>
      </trkpt>
      <trkpt lat="49.67511" lon="4.76049">
        <ele>163.5</ele>
        <time>2011-03-02T10:52:44Z</time>
      </trkpt>
      <trkpt lat="49.67515" lon="4.76054">
        <ele>163.35</ele>
        <time>2011-03-02T10:52:45Z</time>
      </trkpt>
      <trkpt lat="49.67519" lon="4.76061">
        <ele>162.69</ele>
        <time>2011-03-02T10:52:47Z</time>
      </trkpt>
      <trkpt lat="49.67524" lon="4.76069">
        <ele>161.7</ele>
        <time>2011-03-02T10:52:48Z</time>
      </trkpt>
      <trkpt lat="49.67527" lon="4.76073">
        <ele>161.31</ele>
        <time>2011-03-02T10:52:49Z</time>
      </trkpt>
      <trkpt lat="49.67529" lon="4.76076">
        <ele>161.07</ele>
        <time>2011-03-02T10:52:50Z</time>
      </trkpt>
      <trkpt lat="49.67532" lon="4.76078">
        <ele>160.9</ele>
        <time>2011-03-02T10:52:51Z</time>
      </trkpt>
      <trkpt lat="49.67538" lon="4.76085">
        <ele>160.46</ele>
        <time>2011-03-02T10:52:53Z</time>
      </trkpt>
      <trkpt lat="49.67543" lon="4.76092">
        <ele>160.52</ele>
        <time>2011-03-02T10:52:55Z</time>
      </trkpt>
      <trkpt lat="49.67548" lon="4.76099">
        <ele>161.53</ele>
        <time>2011-03-02T10:52:57Z</time>
      </trkpt>
      <trkpt lat="49.6755" lon="4.76103">
        <ele>162.04</ele>
        <time>2011-03-02T10:52:58Z</time>
      </trkpt>
      <trkpt lat="49.67553" lon="4.76112">
        <ele>162.87</ele>
        <time>2011-03-02T10:53:00Z</time>
      </trkpt>
      <trkpt lat="49.67555" lon="4.76117">
        <ele>163.21</ele>
        <time>2011-03-02T10:53:01Z</time>
      </trkpt>
      <trkpt lat="49.67558" lon="4.76129">
        <ele>163.99</ele>
        <time>2011-03-02T10:53:03Z</time>
      </trkpt>
      <trkpt lat="49.6756" lon="4.76135">
        <ele>164.21</ele>
        <time>2011-03-02T10:53:04Z</time>
      </trkpt>
      <trkpt lat="49.67565" lon="4.76147">
        <ele>164.3</ele>
        <time>2011-03-02T10:53:06Z</time>
      </trkpt>
      <trkpt lat="49.67567" lon="4.76154">
        <ele>164.26</ele>
        <time>2011-03-02T10:53:07Z</time>
      </trkpt>
      <trkpt lat="49.67571" lon="4.76165">
        <ele>163.99</ele>
        <time>2011-03-02T10:53:09Z</time>
      </trkpt>
      <trkpt lat="49.67576" lon="4.76175">
        <ele>163.48</ele>
        <time>2011-03-02T10:53:11Z</time>
      </trkpt>
      <trkpt lat="49.67578" lon="4.76181">
        <ele>163.21</ele>
        <time>2011-03-02T10:53:12Z</time>
      </trkpt>
      <trkpt lat="49.67582" lon="4.76191">
        <ele>162.71</ele>
        <time>2011-03-02T10:53:14Z</time>
      </trkpt>
      <trkpt lat="49.67586" lon="4.762">
        <ele>162.26</ele>
        <time>2011-03-02T10:53:16Z</time>
      </trkpt>
      <trkpt lat="49.67592" lon="4.76207">
        <ele>161.68</ele>
        <time>2011-03-02T10:53:18Z</time>
      </trkpt>
      <trkpt lat="49.67594" lon="4.76211">
        <ele>161.38</ele>
        <time>2011-03-02T10:53:19Z</time>
      </trkpt>
      <trkpt lat="49.67596" lon="4.76214">
        <ele>161.13</ele>
        <time>2011-03-02T10:53:20Z</time>
      </trkpt>
      <trkpt lat="49.676" lon="4.76219">
        <ele>160.69</ele>
        <time>2011-03-02T10:53:22Z</time>
      </trkpt>
      <trkpt lat="49.67604" lon="4.76225">
        <ele>160.31</ele>
        <time>2011-03-02T10:53:24Z</time>
      </trkpt>
      <trkpt lat="49.67606" lon="4.76228">
        <ele>160.18</ele>
        <time>2011-03-02T10:53:25Z</time>
      </trkpt>
      <trkpt lat="49.67611" lon="4.76235">
        <ele>160.3</ele>
        <time>2011-03-02T10:53:27Z</time>
      </trkpt>
      <trkpt lat="49.67615" lon="4.76241">
        <ele>160.62</ele>
        <time>2011-03-02T10:53:29Z</time>
      </trkpt>
      <trkpt lat="49.67618" lon="4.76244">
        <ele>160.82</ele>
        <time>2011-03-02T10:53:30Z</time>
      </trkpt>
      <trkpt lat="49.67624" lon="4.76249">
        <ele>161.09</ele>
        <time>2011-03-02T10:53:32Z</time>
      </trkpt>
      <trkpt lat="49.6763" lon="4.76254">
        <ele>161.25</ele>
        <time>2011-03-02T10:53:34Z</time>
      </trkpt>
      <trkpt lat="49.67636" lon="4.7626">
        <ele>161.28</ele>
        <time>2011-03-02T10:53:36Z</time>
      </trkpt>
      <trkpt lat="49.67643" lon="4.76267">
        <ele>161.14</ele>
        <time>2011-03-02T10:53:38Z</time>
      </trkpt>
      <trkpt lat="49.67649" lon="4.76274">
        <ele>160.86</ele>
        <time>2011-03-02T10:53:40Z</time>
      </trkpt>
      <trkpt lat="49.67655" lon="4.76281">
        <ele>160.61</ele>
        <time>2011-03-02T10:53:42Z</time>
      </trkpt>
      <trkpt lat="49.6766" lon="4.76288">
        <ele>160.67</ele>
        <time>2011-03-02T10:53:44Z</time>
      </trkpt>
      <trkpt lat="49.67662" lon="4.76292">
        <ele>160.79</ele>
        <time>2011-03-02T10:53:45Z</time>
      </trkpt>
      <trkpt lat="49.67665" lon="4.76295">
        <ele>160.91</ele>
        <time>2011-03-02T10:53:46Z</time>
      </trkpt>
      <trkpt lat="49.67669" lon="4.76303">
        <ele>161.33</ele>
        <time>2011-03-02T10:53:48Z</time>
      </trkpt>
      <trkpt lat="49.67671" lon="4.76306">
        <ele>161.65</ele>
        <time>2011-03-02T10:53:49Z</time>
      </trkpt>
      <trkpt lat="49.67674" lon="4.76312">
        <ele>162.51</ele>
        <time>2011-03-02T10:53:51Z</time>
      </trkpt>
      <trkpt lat="49.67678" lon="4.76318">
        <ele>163.47</ele>
        <time>2011-03-02T10:53:53Z</time>
      </trkpt>
      <trkpt lat="49.67679" lon="4.7632">
        <ele>163.83</ele>
        <time>2011-03-02T10:53:54Z</time>
      </trkpt>
      <trkpt lat="49.67682" lon="4.76325">
        <ele>164.6</ele>
        <time>2011-03-02T10:53:56Z</time>
      </trkpt>
      <trkpt lat="49.67685" lon="4.76332">
        <ele>165.35</ele>
        <time>2011-03-02T10:53:58Z</time>
      </trkpt>
      <trkpt lat="49.67689" lon="4.76339">
        <ele>166.07</ele>
        <time>2011-03-02T10:54:00Z</time>
      </trkpt>
      <trkpt lat="49.67692" lon="4.76343">
        <ele>166.35</ele>
        <time>2011-03-02T10:54:01Z</time>
      </trkpt>
      <trkpt lat="49.67697" lon="4.76351">
        <ele>166.2</ele>
        <time>2011-03-02T10:54:03Z</time>
      </trkpt>
      <trkpt lat="49.67699" lon="4.76355">
        <ele>166.07</ele>
        <time>2011-03-02T10:54:04Z</time>
      </trkpt>
      <trkpt lat="49.67703" lon="4.76363">
        <ele>165.99</ele>
        <time>2011-03-02T10:54:06Z</time>
      </trkpt>
      <trkpt lat="49.67707" lon="4.76372">
        <ele>166.05</ele>
        <time>2011-03-02T10:54:08Z</time>
      </trkpt>
      <trkpt lat="49.6771" lon="4.7638">
        <ele>165.9</ele>
        <time>2011-03-02T10:54:10Z</time>
      </trkpt>
      <trkpt lat="49.67713" lon="4.76387">
        <ele>165.97</ele>
        <time>2011-03-02T10:54:12Z</time>
      </trkpt>
      <trkpt lat="49.67714" lon="4.7639">
        <ele>166.2</ele>
        <time>2011-03-02T10:54:13Z</time>
      </trkpt>
      <trkpt lat="49.67716" lon="4.76396">
        <ele>166.7</ele>
        <time>2011-03-02T10:54:15Z</time>
      </trkpt>
      <trkpt lat="49.67718" lon="4.76403">
        <ele>167.09</ele>
        <time>2011-03-02T10:54:17Z</time>
      </trkpt>
      <trkpt lat="49.67719" lon="4.76406">
        <ele>167.22</ele>
        <time>2011-03-02T10:54:18Z</time>
      </trkpt>
      <trkpt lat="49.67723" lon="4.76412">
        <ele>167.48</ele>
        <time>2011-03-02T10:54:20Z</time>
      </trkpt>
      <trkpt lat="49.67725" lon="4.76415">
        <ele>167.61</ele>
        <time>2011-03-02T10:54:21Z</time>
      </trkpt>
      <trkpt lat="49.67726" lon="4.76418">
        <ele>167.74</ele>
        <time>2011-03-02T10:54:22Z</time>
      </trkpt>
      <trkpt lat="49.67728" lon="4.76422">
        <ele>167.93</ele>
        <time>2011-03-02T10:54:23Z</time>
      </trkpt>
      <trkpt lat="49.67732" lon="4.7643">
        <ele>168.19</ele>
        <time>2011-03-02T10:54:25Z</time>
      </trkpt>
      <trkpt lat="49.67734" lon="4.76433">
        <ele>168.36</ele>
        <time>2011-03-02T10:54:26Z</time>
      </trkpt>
      <trkpt lat="49.67738" lon="4.7644">
        <ele>168.82</ele>
        <time>2011-03-02T10:54:28Z</time>
      </trkpt>
      <trkpt lat="49.67739" lon="4.76443">
        <ele>169.17</ele>
        <time>2011-03-02T10:54:29Z</time>
      </trkpt>
      <trkpt lat="49.67742" lon="4.7645">
        <ele>170.04</ele>
        <time>2011-03-02T10:54:31Z</time>
      </trkpt>
      <trkpt lat="49.67746" lon="4.76456">
        <ele>170.86</ele>
        <time>2011-03-02T10:54:33Z</time>
      </trkpt>
      <trkpt lat="49.67748" lon="4.76459">
        <ele>171.2</ele>
        <time>2011-03-02T10:54:34Z</time>
      </trkpt>
      <trkpt lat="49.67751" lon="4.76463">
        <ele>171.61</ele>
        <time>2011-03-02T10:54:36Z</time>
      </trkpt>
      <trkpt lat="49.67755" lon="4.76468">
        <ele>171.68</ele>
        <time>2011-03-02T10:54:38Z</time>
      </trkpt>
      <trkpt lat="49.67757" lon="4.76471">
        <ele>171.61</ele>
        <time>2011-03-02T10:54:39Z</time>
      </trkpt>
      <trkpt lat="49.67761" lon="4.76477">
        <ele>171.17</ele>
        <time>2011-03-02T10:54:41Z</time>
      </trkpt>
      <trkpt lat="49.67763" lon="4.76479">
        <ele>170.81</ele>
        <time>2011-03-02T10:54:42Z</time>
      </trkpt>
      <trkpt lat="49.67765" lon="4.76481">
        <ele>170.41</ele>
        <time>2011-03-02T10:54:43Z</time>
      </trkpt>
      <trkpt lat="49.67771" lon="4.76486">
        <ele>169.65</ele>
        <time>2011-03-02T10:54:45Z</time>
      </trkpt>
      <trkpt lat="49.67774" lon="4.76488">
        <ele>169.27</ele>
        <time>2011-03-02T10:54:46Z</time>
      </trkpt>
      <trkpt lat="49.67778" lon="4.76492">
        <ele>168.59</ele>
        <time>2011-03-02T10:54:48Z</time>
      </trkpt>
      <trkpt lat="49.67781" lon="4.76494">
        <ele>168.23</ele>
        <time>2011-03-02T10:54:49Z</time>
      </trkpt>
      <trkpt lat="49.67785" lon="4.76498">
        <ele>167.81</ele>
        <time>2011-03-02T10:54:51Z</time>
      </trkpt>
      <trkpt lat="49.6779" lon="4.76502">
        <ele>167.72</ele>
        <time>2011-03-02T10:54:53Z</time>
      </trkpt>
      <trkpt lat="49.67792" lon="4.76504">
        <ele>167.67</ele>
        <time>2011-03-02T10:54:54Z</time>
      </trkpt>
      <trkpt lat="49.67796" lon="4.76507">
        <ele>167.62</ele>
        <time>2011-03-02T10:54:56Z</time>
      </trkpt>
      <trkpt lat="49.678" lon="4.76511">
        <ele>167.72</ele>
        <time>2011-03-02T10:54:58Z</time>
      </trkpt>
      <trkpt lat="49.67806" lon="4.76517">
        <ele>167.8</ele>
        <time>2011-03-02T10:55:00Z</time>
      </trkpt>
      <trkpt lat="49.67816" lon="4.76524">
        <ele>167.8</ele>
        <time>2011-03-02T10:55:02Z</time>
      </trkpt>
      <trkpt lat="49.67824" lon="4.76531">
        <ele>168.02</ele>
        <time>2011-03-02T10:55:04Z</time>
      </trkpt>
      <trkpt lat="49.6783" lon="4.76534">
        <ele>168.52</ele>
        <time>2011-03-02T10:55:06Z</time>
      </trkpt>
      <trkpt lat="49.67836" lon="4.76538">
        <ele>169.1</ele>
        <time>2011-03-02T10:55:08Z</time>
      </trkpt>
      <trkpt lat="49.67841" lon="4.76542">
        <ele>169.69</ele>
        <time>2011-03-02T10:55:10Z</time>
      </trkpt>
      <trkpt lat="49.67844" lon="4.76544">
        <ele>169.99</ele>
        <time>2011-03-02T10:55:11Z</time>
      </trkpt>
      <trkpt lat="49.67846" lon="4.76546">
        <ele>170.18</ele>
        <time>2011-03-02T10:55:12Z</time>
      </trkpt>
      <trkpt lat="49.67849" lon="4.76548">
        <ele>170.32</ele>
        <time>2011-03-02T10:55:13Z</time>
      </trkpt>
      <trkpt lat="49.67856" lon="4.76553">
        <ele>170.08</ele>
        <time>2011-03-02T10:55:15Z</time>
      </trkpt>
      <trkpt lat="49.67859" lon="4.76556">
        <ele>169.76</ele>
        <time>2011-03-02T10:55:16Z</time>
      </trkpt>
      <trkpt lat="49.67865" lon="4.76562">
        <ele>169.392</ele>
        <time>2011-03-02T10:55:18Z</time>
      </trkpt>
      <trkpt lat="49.67868" lon="4.76566">
        <ele>168.52</ele>
        <time>2011-03-02T10:55:19Z</time>
      </trkpt>
      <trkpt lat="49.67876" lon="4.76575">
        <ele>166.617</ele>
        <time>2011-03-02T10:55:21Z</time>
      </trkpt>
      <trkpt lat="49.67886" lon="4.76583">
        <ele>164.52</ele>
        <time>2011-03-02T10:55:23Z</time>
      </trkpt>
      <trkpt lat="49.67891" lon="4.76588">
        <ele>163.586</ele>
        <time>2011-03-02T10:55:24Z</time>
      </trkpt>
      <trkpt lat="49.67902" lon="4.76597">
        <ele>161.708</ele>
        <time>2011-03-02T10:55:26Z</time>
      </trkpt>
      <trkpt lat="49.67906" lon="4.766">
        <ele>161.416</ele>
        <time>2011-03-02T10:55:27Z</time>
      </trkpt>
      <trkpt lat="49.67911" lon="4.76603">
        <ele>161.2</ele>
        <time>2011-03-02T10:55:28Z</time>
      </trkpt>
      <trkpt lat="49.67917" lon="4.76607">
        <ele>160.17</ele>
        <time>2011-03-02T10:55:29Z</time>
      </trkpt>
      <trkpt lat="49.67927" lon="4.76615">
        <ele>157.86</ele>
        <time>2011-03-02T10:55:31Z</time>
      </trkpt>
      <trkpt lat="49.67938" lon="4.76622">
        <ele>155.64</ele>
        <time>2011-03-02T10:55:33Z</time>
      </trkpt>
      <trkpt lat="49.67947" lon="4.76627">
        <ele>153.57</ele>
        <time>2011-03-02T10:55:35Z</time>
      </trkpt>
      <trkpt lat="49.67951" lon="4.76628">
        <ele>152.56</ele>
        <time>2011-03-02T10:55:36Z</time>
      </trkpt>
      <trkpt lat="49.67955" lon="4.7663">
        <ele>151.736</ele>
        <time>2011-03-02T10:55:37Z</time>
      </trkpt>
      <trkpt lat="49.67964" lon="4.76632">
        <ele>150.223</ele>
        <time>2011-03-02T10:55:39Z</time>
      </trkpt>
      <trkpt lat="49.67973" lon="4.76632">
        <ele>149.58</ele>
        <time>2011-03-02T10:55:41Z</time>
      </trkpt>
      <trkpt lat="49.67981" lon="4.76629">
        <ele>149.18</ele>
        <time>2011-03-02T10:55:43Z</time>
      </trkpt>
      <trkpt lat="49.6799" lon="4.76626">
        <ele>148.659</ele>
        <time>2011-03-02T10:55:45Z</time>
      </trkpt>
      <trkpt lat="49.67998" lon="4.76624">
        <ele>148.395</ele>
        <time>2011-03-02T10:55:47Z</time>
      </trkpt>
      <trkpt lat="49.68005" lon="4.76623">
        <ele>148.138</ele>
        <time>2011-03-02T10:55:49Z</time>
      </trkpt>
      <trkpt lat="49.68009" lon="4.76623">
        <ele>147.967</ele>
        <time>2011-03-02T10:55:50Z</time>
      </trkpt>
      <trkpt lat="49.68017" lon="4.76622">
        <ele>147.306</ele>
        <time>2011-03-02T10:55:52Z</time>
      </trkpt>
      <trkpt lat="49.6802" lon="4.76621">
        <ele>146.688</ele>
        <time>2011-03-02T10:55:53Z</time>
      </trkpt>
      <trkpt lat="49.68027" lon="4.76619">
        <ele>144.73</ele>
        <time>2011-03-02T10:55:55Z</time>
      </trkpt>
      <trkpt lat="49.68031" lon="4.76619">
        <ele>144.68</ele>
        <time>2011-03-02T10:55:56Z</time>
      </trkpt>
      <trkpt lat="49.68037" lon="4.76617">
        <ele>144.49</ele>
        <time>2011-03-02T10:55:58Z</time>
      </trkpt>
      <trkpt lat="49.68039" lon="4.76616">
        <ele>144.29</ele>
        <time>2011-03-02T10:55:59Z</time>
      </trkpt>
      <trkpt lat="49.68045" lon="4.76615">
        <ele>143.85</ele>
        <time>2011-03-02T10:56:01Z</time>
      </trkpt>
      <trkpt lat="49.68047" lon="4.76615">
        <ele>143.58</ele>
        <time>2011-03-02T10:56:02Z</time>
      </trkpt>
      <trkpt lat="49.68052" lon="4.76614">
        <ele>142.96</ele>
        <time>2011-03-02T10:56:04Z</time>
      </trkpt>
      <trkpt lat="49.68058" lon="4.76612">
        <ele>142.27</ele>
        <time>2011-03-02T10:56:06Z</time>
      </trkpt>
      <trkpt lat="49.68065" lon="4.76611">
        <ele>141.46</ele>
        <time>2011-03-02T10:56:08Z</time>
      </trkpt>
      <trkpt lat="49.68071" lon="4.76609">
        <ele>140.49</ele>
        <time>2011-03-02T10:56:10Z</time>
      </trkpt>
      <trkpt lat="49.68074" lon="4.76607">
        <ele>139.95</ele>
        <time>2011-03-02T10:56:11Z</time>
      </trkpt>
      <trkpt lat="49.6808" lon="4.76604">
        <ele>139</ele>
        <time>2011-03-02T10:56:13Z</time>
      </trkpt>
      <trkpt lat="49.68087" lon="4.76602">
        <ele>138.813</ele>
        <time>2011-03-02T10:56:15Z</time>
      </trkpt>
      <trkpt lat="49.68095" lon="4.76601">
        <ele>139.621</ele>
        <time>2011-03-02T10:56:17Z</time>
      </trkpt>
      <trkpt lat="49.68101" lon="4.76601">
        <ele>140.215</ele>
        <time>2011-03-02T10:56:19Z</time>
      </trkpt>
      <trkpt lat="49.68106" lon="4.76602">
        <ele>140.692</ele>
        <time>2011-03-02T10:56:21Z</time>
      </trkpt>
      <trkpt lat="49.68109" lon="4.76603">
        <ele>140.889</ele>
        <time>2011-03-02T10:56:22Z</time>
      </trkpt>
      <trkpt lat="49.68115" lon="4.76602">
        <ele>141.67</ele>
        <time>2011-03-02T10:56:24Z</time>
      </trkpt>
      <trkpt lat="49.68119" lon="4.76601">
        <ele>142</ele>
        <time>2011-03-02T10:56:25Z</time>
      </trkpt>
      <trkpt lat="49.68122" lon="4.766">
        <ele>142.163</ele>
        <time>2011-03-02T10:56:26Z</time>
      </trkpt>
      <trkpt lat="49.68126" lon="4.76599">
        <ele>142.426</ele>
        <time>2011-03-02T10:56:27Z</time>
      </trkpt>
      <trkpt lat="49.68132" lon="4.76597">
        <ele>142.963</ele>
        <time>2011-03-02T10:56:29Z</time>
      </trkpt>
      <trkpt lat="49.68139" lon="4.76595">
        <ele>143.544</ele>
        <time>2011-03-02T10:56:31Z</time>
      </trkpt>
      <trkpt lat="49.68148" lon="4.76593">
        <ele>144.004</ele>
        <time>2011-03-02T10:56:33Z</time>
      </trkpt>
      <trkpt lat="49.68152" lon="4.76592">
        <ele>144.212</ele>
        <time>2011-03-02T10:56:34Z</time>
      </trkpt>
      <trkpt lat="49.68155" lon="4.76592">
        <ele>144.442</ele>
        <time>2011-03-02T10:56:35Z</time>
      </trkpt>
      <trkpt lat="49.68162" lon="4.76594">
        <ele>144.77</ele>
        <time>2011-03-02T10:56:37Z</time>
      </trkpt>
      <trkpt lat="49.68168" lon="4.76597">
        <ele>144.99</ele>
        <time>2011-03-02T10:56:39Z</time>
      </trkpt>
      <trkpt lat="49.68171" lon="4.76599">
        <ele>145.01</ele>
        <time>2011-03-02T10:56:40Z</time>
      </trkpt>
      <trkpt lat="49.68174" lon="4.76601">
        <ele>145</ele>
        <time>2011-03-02T10:56:41Z</time>
      </trkpt>
      <trkpt lat="49.68179" lon="4.76605">
        <ele>144.77</ele>
        <time>2011-03-02T10:56:43Z</time>
      </trkpt>
      <trkpt lat="49.68181" lon="4.76608">
        <ele>144.57</ele>
        <time>2011-03-02T10:56:44Z</time>
      </trkpt>
      <trkpt lat="49.68185" lon="4.76612">
        <ele>143.97</ele>
        <time>2011-03-02T10:56:46Z</time>
      </trkpt>
      <trkpt lat="49.68187" lon="4.76615">
        <ele>143.74</ele>
        <time>2011-03-02T10:56:47Z</time>
      </trkpt>
      <trkpt lat="49.68191" lon="4.7662">
        <ele>143.44</ele>
        <time>2011-03-02T10:56:49Z</time>
      </trkpt>
      <trkpt lat="49.68195" lon="4.76625">
        <ele>143.39</ele>
        <time>2011-03-02T10:56:51Z</time>
      </trkpt>
      <trkpt lat="49.68197" lon="4.76627">
        <ele>143.65</ele>
        <time>2011-03-02T10:56:52Z</time>
      </trkpt>
      <trkpt lat="49.682" lon="4.76631">
        <ele>145.27</ele>
        <time>2011-03-02T10:56:54Z</time>
      </trkpt>
      <trkpt lat="49.68201" lon="4.76633">
        <ele>146.26</ele>
        <time>2011-03-02T10:56:55Z</time>
      </trkpt>
      <trkpt lat="49.68204" lon="4.76638">
        <ele>148.2</ele>
        <time>2011-03-02T10:56:57Z</time>
      </trkpt>
      <trkpt lat="49.68208" lon="4.76642">
        <ele>150.03</ele>
        <time>2011-03-02T10:56:59Z</time>
      </trkpt>
      <trkpt lat="49.68212" lon="4.76646">
        <ele>151.95</ele>
        <time>2011-03-02T10:57:01Z</time>
      </trkpt>
      <trkpt lat="49.68214" lon="4.76648">
        <ele>153</ele>
        <time>2011-03-02T10:57:02Z</time>
      </trkpt>
      <trkpt lat="49.68215" lon="4.76651">
        <ele>153.74</ele>
        <time>2011-03-02T10:57:03Z</time>
      </trkpt>
      <trkpt lat="49.68219" lon="4.76655">
        <ele>155.06</ele>
        <time>2011-03-02T10:57:05Z</time>
      </trkpt>
      <trkpt lat="49.68222" lon="4.76658">
        <ele>156.39</ele>
        <time>2011-03-02T10:57:07Z</time>
      </trkpt>
      <trkpt lat="49.68225" lon="4.76662">
        <ele>157.6</ele>
        <time>2011-03-02T10:57:09Z</time>
      </trkpt>
      <trkpt lat="49.68228" lon="4.76666">
        <ele>158.3</ele>
        <time>2011-03-02T10:57:11Z</time>
      </trkpt>
      <trkpt lat="49.6823" lon="4.76668">
        <ele>158.25</ele>
        <time>2011-03-02T10:57:12Z</time>
      </trkpt>
      <trkpt lat="49.68232" lon="4.76671">
        <ele>158.02</ele>
        <time>2011-03-02T10:57:13Z</time>
      </trkpt>
      <trkpt lat="49.68235" lon="4.76676">
        <ele>157.06</ele>
        <time>2011-03-02T10:57:15Z</time>
      </trkpt>
      <trkpt lat="49.68238" lon="4.76679">
        <ele>155.98</ele>
        <time>2011-03-02T10:57:17Z</time>
      </trkpt>
      <trkpt lat="49.6824" lon="4.76681">
        <ele>155.48</ele>
        <time>2011-03-02T10:57:18Z</time>
      </trkpt>
      <trkpt lat="49.68242" lon="4.76684">
        <ele>154.95</ele>
        <time>2011-03-02T10:57:20Z</time>
      </trkpt>
      <trkpt lat="49.68245" lon="4.76688">
        <ele>154.74</ele>
        <time>2011-03-02T10:57:22Z</time>
      </trkpt>
      <trkpt lat="49.68247" lon="4.76691">
        <ele>154.97</ele>
        <time>2011-03-02T10:57:24Z</time>
      </trkpt>
      <trkpt lat="49.68247" lon="4.76693">
        <ele>155.17</ele>
        <time>2011-03-02T10:57:25Z</time>
      </trkpt>
      <trkpt lat="49.68249" lon="4.76697">
        <ele>155.83</ele>
        <time>2011-03-02T10:57:27Z</time>
      </trkpt>
      <trkpt lat="49.68249" lon="4.76699">
        <ele>156.2</ele>
        <time>2011-03-02T10:57:28Z</time>
      </trkpt>
      <trkpt lat="49.6825" lon="4.76701">
        <ele>156.75</ele>
        <time>2011-03-02T10:57:29Z</time>
      </trkpt>
      <trkpt lat="49.68253" lon="4.76704">
        <ele>157.93</ele>
        <time>2011-03-02T10:57:31Z</time>
      </trkpt>
      <trkpt lat="49.68254" lon="4.76706">
        <ele>158.52</ele>
        <time>2011-03-02T10:57:32Z</time>
      </trkpt>
      <trkpt lat="49.68255" lon="4.76707">
        <ele>159.11</ele>
        <time>2011-03-02T10:57:33Z</time>
      </trkpt>
      <trkpt lat="49.68258" lon="4.76709">
        <ele>160.25</ele>
        <time>2011-03-02T10:57:35Z</time>
      </trkpt>
      <trkpt lat="49.68261" lon="4.7671">
        <ele>161.15</ele>
        <time>2011-03-02T10:57:37Z</time>
      </trkpt>
      <trkpt lat="49.68265" lon="4.76712">
        <ele>161.68</ele>
        <time>2011-03-02T10:57:39Z</time>
      </trkpt>
      <trkpt lat="49.68267" lon="4.76714">
        <ele>161.86</ele>
        <time>2011-03-02T10:57:40Z</time>
      </trkpt>
      <trkpt lat="49.68271" lon="4.76717">
        <ele>162.32</ele>
        <time>2011-03-02T10:57:42Z</time>
      </trkpt>
      <trkpt lat="49.68277" lon="4.76721">
        <ele>162.8</ele>
        <time>2011-03-02T10:57:44Z</time>
      </trkpt>
      <trkpt lat="49.68283" lon="4.76725">
        <ele>163.32</ele>
        <time>2011-03-02T10:57:46Z</time>
      </trkpt>
      <trkpt lat="49.68288" lon="4.76731">
        <ele>163.88</ele>
        <time>2011-03-02T10:57:48Z</time>
      </trkpt>
      <trkpt lat="49.68291" lon="4.76733">
        <ele>164.1</ele>
        <time>2011-03-02T10:57:49Z</time>
      </trkpt>
      <trkpt lat="49.68296" lon="4.76741">
        <ele>163.994</ele>
        <time>2011-03-02T10:57:51Z</time>
      </trkpt>
      <trkpt lat="49.68299" lon="4.76746">
        <ele>163.695</ele>
        <time>2011-03-02T10:57:52Z</time>
      </trkpt>
      <trkpt lat="49.68307" lon="4.76755">
        <ele>162.785</ele>
        <time>2011-03-02T10:57:54Z</time>
      </trkpt>
      <trkpt lat="49.68313" lon="4.76763">
        <ele>161.725</ele>
        <time>2011-03-02T10:57:56Z</time>
      </trkpt>
      <trkpt lat="49.68316" lon="4.76766">
        <ele>161.182</ele>
        <time>2011-03-02T10:57:57Z</time>
      </trkpt>
      <trkpt lat="49.68321" lon="4.76772">
        <ele>160.13</ele>
        <time>2011-03-02T10:57:59Z</time>
      </trkpt>
      <trkpt lat="49.68326" lon="4.76777">
        <ele>159.78</ele>
        <time>2011-03-02T10:58:01Z</time>
      </trkpt>
      <trkpt lat="49.68331" lon="4.76781">
        <ele>160.39</ele>
        <time>2011-03-02T10:58:03Z</time>
      </trkpt>
      <trkpt lat="49.68336" lon="4.76785">
        <ele>161.22</ele>
        <time>2011-03-02T10:58:05Z</time>
      </trkpt>
      <trkpt lat="49.68341" lon="4.76791">
        <ele>161.9</ele>
        <time>2011-03-02T10:58:07Z</time>
      </trkpt>
      <trkpt lat="49.68342" lon="4.76794">
        <ele>162.17</ele>
        <time>2011-03-02T10:58:08Z</time>
      </trkpt>
      <trkpt lat="49.68345" lon="4.76798">
        <ele>162.35</ele>
        <time>2011-03-02T10:58:09Z</time>
      </trkpt>
      <trkpt lat="49.6835" lon="4.76806">
        <ele>162.34</ele>
        <time>2011-03-02T10:58:11Z</time>
      </trkpt>
      <trkpt lat="49.68357" lon="4.76816">
        <ele>161.71</ele>
        <time>2011-03-02T10:58:13Z</time>
      </trkpt>
      <trkpt lat="49.6836" lon="4.7682">
        <ele>161.41</ele>
        <time>2011-03-02T10:58:14Z</time>
      </trkpt>
      <trkpt lat="49.68367" lon="4.76829">
        <ele>161.03</ele>
        <time>2011-03-02T10:58:17Z</time>
      </trkpt>
      <trkpt lat="49.68374" lon="4.76836">
        <ele>160.77</ele>
        <time>2011-03-02T10:58:18Z</time>
      </trkpt>
      <trkpt lat="49.68382" lon="4.76842">
        <ele>160.62</ele>
        <time>2011-03-02T10:58:20Z</time>
      </trkpt>
      <trkpt lat="49.68392" lon="4.76847">
        <ele>160.89</ele>
        <time>2011-03-02T10:58:22Z</time>
      </trkpt>
      <trkpt lat="49.68401" lon="4.76852">
        <ele>161.26</ele>
        <time>2011-03-02T10:58:24Z</time>
      </trkpt>
      <trkpt lat="49.68406" lon="4.76855">
        <ele>161.33</ele>
        <time>2011-03-02T10:58:25Z</time>
      </trkpt>
      <trkpt lat="49.68417" lon="4.76863">
        <ele>161.12</ele>
        <time>2011-03-02T10:58:27Z</time>
      </trkpt>
      <trkpt lat="49.68428" lon="4.7687">
        <ele>160.8</ele>
        <time>2011-03-02T10:58:29Z</time>
      </trkpt>
      <trkpt lat="49.68438" lon="4.76873">
        <ele>160.27</ele>
        <time>2011-03-02T10:58:31Z</time>
      </trkpt>
      <trkpt lat="49.68443" lon="4.76872">
        <ele>159.9</ele>
        <time>2011-03-02T10:58:32Z</time>
      </trkpt>
      <trkpt lat="49.68455" lon="4.76862">
        <ele>158.395</ele>
        <time>2011-03-02T10:58:34Z</time>
      </trkpt>
      <trkpt lat="49.6846" lon="4.76855">
        <ele>157.384</ele>
        <time>2011-03-02T10:58:35Z</time>
      </trkpt>
      <trkpt lat="49.68471" lon="4.76838">
        <ele>155.732</ele>
        <time>2011-03-02T10:58:37Z</time>
      </trkpt>
      <trkpt lat="49.68476" lon="4.7683">
        <ele>154.99</ele>
        <time>2011-03-02T10:58:38Z</time>
      </trkpt>
      <trkpt lat="49.68487" lon="4.76816">
        <ele>153.635</ele>
        <time>2011-03-02T10:58:40Z</time>
      </trkpt>
      <trkpt lat="49.685" lon="4.7681">
        <ele>152.46</ele>
        <time>2011-03-02T10:58:42Z</time>
      </trkpt>
      <trkpt lat="49.68507" lon="4.7681">
        <ele>151.72</ele>
        <time>2011-03-02T10:58:43Z</time>
      </trkpt>
      <trkpt lat="49.68522" lon="4.76813">
        <ele>150.84</ele>
        <time>2011-03-02T10:58:45Z</time>
      </trkpt>
      <trkpt lat="49.68535" lon="4.76819">
        <ele>150.22</ele>
        <time>2011-03-02T10:58:47Z</time>
      </trkpt>
      <trkpt lat="49.68548" lon="4.76826">
        <ele>149.79</ele>
        <time>2011-03-02T10:58:49Z</time>
      </trkpt>
      <trkpt lat="49.68554" lon="4.7683">
        <ele>149.62</ele>
        <time>2011-03-02T10:58:50Z</time>
      </trkpt>
      <trkpt lat="49.68568" lon="4.76836">
        <ele>149.46</ele>
        <time>2011-03-02T10:58:52Z</time>
      </trkpt>
      <trkpt lat="49.68582" lon="4.76841">
        <ele>149.56</ele>
        <time>2011-03-02T10:58:54Z</time>
      </trkpt>
      <trkpt lat="49.6859" lon="4.76844">
        <ele>149.58</ele>
        <time>2011-03-02T10:58:55Z</time>
      </trkpt>
      <trkpt lat="49.68607" lon="4.76852">
        <ele>149.62</ele>
        <time>2011-03-02T10:58:57Z</time>
      </trkpt>
      <trkpt lat="49.68624" lon="4.76859">
        <ele>149.72</ele>
        <time>2011-03-02T10:58:59Z</time>
      </trkpt>
      <trkpt lat="49.68633" lon="4.76861">
        <ele>149.75</ele>
        <time>2011-03-02T10:59:00Z</time>
      </trkpt>
      <trkpt lat="49.6865" lon="4.76867">
        <ele>149.58</ele>
        <time>2011-03-02T10:59:02Z</time>
      </trkpt>
      <trkpt lat="49.68667" lon="4.76874">
        <ele>149.13</ele>
        <time>2011-03-02T10:59:04Z</time>
      </trkpt>
      <trkpt lat="49.68675" lon="4.76877">
        <ele>148.93</ele>
        <time>2011-03-02T10:59:05Z</time>
      </trkpt>
      <trkpt lat="49.68691" lon="4.76883">
        <ele>148.54</ele>
        <time>2011-03-02T10:59:07Z</time>
      </trkpt>
      <trkpt lat="49.68707" lon="4.76889">
        <ele>148.1</ele>
        <time>2011-03-02T10:59:09Z</time>
      </trkpt>
      <trkpt lat="49.68721" lon="4.76895">
        <ele>147.69</ele>
        <time>2011-03-02T10:59:11Z</time>
      </trkpt>
      <trkpt lat="49.68735" lon="4.76901">
        <ele>147.58</ele>
        <time>2011-03-02T10:59:13Z</time>
      </trkpt>
      <trkpt lat="49.68748" lon="4.76906">
        <ele>147.6</ele>
        <time>2011-03-02T10:59:15Z</time>
      </trkpt>
      <trkpt lat="49.68761" lon="4.76911">
        <ele>147.64</ele>
        <time>2011-03-02T10:59:17Z</time>
      </trkpt>
      <trkpt lat="49.68773" lon="4.76914">
        <ele>148.07</ele>
        <time>2011-03-02T10:59:19Z</time>
      </trkpt>
      <trkpt lat="49.68781" lon="4.76916">
        <ele>148.59</ele>
        <time>2011-03-02T10:59:20Z</time>
      </trkpt>
      <trkpt lat="49.6879" lon="4.76918">
        <ele>149.02</ele>
        <time>2011-03-02T10:59:22Z</time>
      </trkpt>
      <trkpt lat="49.68801" lon="4.76922">
        <ele>149.428</ele>
        <time>2011-03-02T10:59:24Z</time>
      </trkpt>
      <trkpt lat="49.68806" lon="4.76925">
        <ele>149.639</ele>
        <time>2011-03-02T10:59:25Z</time>
      </trkpt>
      <trkpt lat="49.68811" lon="4.76927">
        <ele>149.804</ele>
        <time>2011-03-02T10:59:26Z</time>
      </trkpt>
      <trkpt lat="49.68821" lon="4.76931">
        <ele>149.711</ele>
        <time>2011-03-02T10:59:28Z</time>
      </trkpt>
      <trkpt lat="49.68831" lon="4.76933">
        <ele>149.578</ele>
        <time>2011-03-02T10:59:30Z</time>
      </trkpt>
      <trkpt lat="49.68841" lon="4.76934">
        <ele>149.464</ele>
        <time>2011-03-02T10:59:32Z</time>
      </trkpt>
      <trkpt lat="49.68849" lon="4.76934">
        <ele>149.314</ele>
        <time>2011-03-02T10:59:34Z</time>
      </trkpt>
      <trkpt lat="49.68857" lon="4.76933">
        <ele>148.93</ele>
        <time>2011-03-02T10:59:36Z</time>
      </trkpt>
      <trkpt lat="49.68865" lon="4.76932">
        <ele>148.49</ele>
        <time>2011-03-02T10:59:38Z</time>
      </trkpt>
      <trkpt lat="49.68873" lon="4.7693">
        <ele>148.195</ele>
        <time>2011-03-02T10:59:40Z</time>
      </trkpt>
      <trkpt lat="49.68882" lon="4.76927">
        <ele>147.862</ele>
        <time>2011-03-02T10:59:42Z</time>
      </trkpt>
      <trkpt lat="49.68892" lon="4.76924">
        <ele>147.59</ele>
        <time>2011-03-02T10:59:44Z</time>
      </trkpt>
      <trkpt lat="49.68896" lon="4.76922">
        <ele>147.548</ele>
        <time>2011-03-02T10:59:46Z</time>
      </trkpt>
      <trkpt lat="49.68904" lon="4.76917">
        <ele>147.525</ele>
        <time>2011-03-02T10:59:47Z</time>
      </trkpt>
      <trkpt lat="49.68908" lon="4.76915">
        <ele>147.46</ele>
        <time>2011-03-02T10:59:48Z</time>
      </trkpt>
      <trkpt lat="49.68916" lon="4.7691">
        <ele>147.1</ele>
        <time>2011-03-02T10:59:50Z</time>
      </trkpt>
      <trkpt lat="49.68924" lon="4.76903">
        <ele>146.72</ele>
        <time>2011-03-02T10:59:52Z</time>
      </trkpt>
      <trkpt lat="49.68929" lon="4.769">
        <ele>146.5</ele>
        <time>2011-03-02T10:59:53Z</time>
      </trkpt>
      <trkpt lat="49.68937" lon="4.76893">
        <ele>146</ele>
        <time>2011-03-02T10:59:55Z</time>
      </trkpt>
      <trkpt lat="49.68945" lon="4.76886">
        <ele>145.59</ele>
        <time>2011-03-02T10:59:57Z</time>
      </trkpt>
      <trkpt lat="49.68952" lon="4.76879">
        <ele>145.31</ele>
        <time>2011-03-02T10:59:59Z</time>
      </trkpt>
      <trkpt lat="49.68956" lon="4.76875">
        <ele>145.17</ele>
        <time>2011-03-02T11:00:00Z</time>
      </trkpt>
      <trkpt lat="49.68964" lon="4.76868">
        <ele>144.95</ele>
        <time>2011-03-02T11:00:02Z</time>
      </trkpt>
      <trkpt lat="49.68972" lon="4.7686">
        <ele>144.8</ele>
        <time>2011-03-02T11:00:04Z</time>
      </trkpt>
      <trkpt lat="49.68975" lon="4.76857">
        <ele>144.75</ele>
        <time>2011-03-02T11:00:05Z</time>
      </trkpt>
      <trkpt lat="49.68983" lon="4.76849">
        <ele>144.52</ele>
        <time>2011-03-02T11:00:07Z</time>
      </trkpt>
      <trkpt lat="49.68987" lon="4.76846">
        <ele>144.41</ele>
        <time>2011-03-02T11:00:08Z</time>
      </trkpt>
      <trkpt lat="49.68995" lon="4.76839">
        <ele>144.25</ele>
        <time>2011-03-02T11:00:10Z</time>
      </trkpt>
      <trkpt lat="49.69003" lon="4.76832">
        <ele>144.11</ele>
        <time>2011-03-02T11:00:12Z</time>
      </trkpt>
      <trkpt lat="49.69007" lon="4.76829">
        <ele>144.06</ele>
        <time>2011-03-02T11:00:13Z</time>
      </trkpt>
      <trkpt lat="49.69016" lon="4.76823">
        <ele>143.95</ele>
        <time>2011-03-02T11:00:15Z</time>
      </trkpt>
      <trkpt lat="49.6902" lon="4.7682">
        <ele>143.97</ele>
        <time>2011-03-02T11:00:16Z</time>
      </trkpt>
      <trkpt lat="49.69024" lon="4.76817">
        <ele>144.03</ele>
        <time>2011-03-02T11:00:17Z</time>
      </trkpt>
      <trkpt lat="49.69032" lon="4.76811">
        <ele>144.16</ele>
        <time>2011-03-02T11:00:19Z</time>
      </trkpt>
      <trkpt lat="49.6904" lon="4.76806">
        <ele>144.33</ele>
        <time>2011-03-02T11:00:21Z</time>
      </trkpt>
      <trkpt lat="49.69045" lon="4.76804">
        <ele>144.42</ele>
        <time>2011-03-02T11:00:22Z</time>
      </trkpt>
      <trkpt lat="49.69053" lon="4.768">
        <ele>144.56</ele>
        <time>2011-03-02T11:00:24Z</time>
      </trkpt>
      <trkpt lat="49.69057" lon="4.76798">
        <ele>144.61</ele>
        <time>2011-03-02T11:00:25Z</time>
      </trkpt>
      <trkpt lat="49.69065" lon="4.76795">
        <ele>144.81</ele>
        <time>2011-03-02T11:00:27Z</time>
      </trkpt>
      <trkpt lat="49.69072" lon="4.76792">
        <ele>145.24</ele>
        <time>2011-03-02T11:00:29Z</time>
      </trkpt>
      <trkpt lat="49.6908" lon="4.76789">
        <ele>145.55</ele>
        <time>2011-03-02T11:00:31Z</time>
      </trkpt>
      <trkpt lat="49.69084" lon="4.76788">
        <ele>145.8</ele>
        <time>2011-03-02T11:00:32Z</time>
      </trkpt>
      <trkpt lat="49.69092" lon="4.76785">
        <ele>146.33</ele>
        <time>2011-03-02T11:00:33Z</time>
      </trkpt>
      <trkpt lat="49.69096" lon="4.76784">
        <ele>146.54</ele>
        <time>2011-03-02T11:00:34Z</time>
      </trkpt>
      <trkpt lat="49.69102" lon="4.76783">
        <ele>146.76</ele>
        <time>2011-03-02T11:00:36Z</time>
      </trkpt>
      <trkpt lat="49.69108" lon="4.76782">
        <ele>146.71</ele>
        <time>2011-03-02T11:00:37Z</time>
      </trkpt>
      <trkpt lat="49.69115" lon="4.76781">
        <ele>146.77</ele>
        <time>2011-03-02T11:00:39Z</time>
      </trkpt>
      <trkpt lat="49.6912" lon="4.7678">
        <ele>146.61</ele>
        <time>2011-03-02T11:00:40Z</time>
      </trkpt>
      <trkpt lat="49.69126" lon="4.7678">
        <ele>146.53</ele>
        <time>2011-03-02T11:00:42Z</time>
      </trkpt>
      <trkpt lat="49.6913" lon="4.7678">
        <ele>146.62</ele>
        <time>2011-03-02T11:00:43Z</time>
      </trkpt>
      <trkpt lat="49.69139" lon="4.7678">
        <ele>147.02</ele>
        <time>2011-03-02T11:00:45Z</time>
      </trkpt>
      <trkpt lat="49.69142" lon="4.76779">
        <ele>147.3</ele>
        <time>2011-03-02T11:00:46Z</time>
      </trkpt>
      <trkpt lat="49.69149" lon="4.76779">
        <ele>148</ele>
        <time>2011-03-02T11:00:48Z</time>
      </trkpt>
      <trkpt lat="49.69155" lon="4.76779">
        <ele>148.74</ele>
        <time>2011-03-02T11:00:49Z</time>
      </trkpt>
      <trkpt lat="49.69161" lon="4.7678">
        <ele>149.35</ele>
        <time>2011-03-02T11:00:51Z</time>
      </trkpt>
      <trkpt lat="49.69164" lon="4.76779">
        <ele>149.66</ele>
        <time>2011-03-02T11:00:52Z</time>
      </trkpt>
      <trkpt lat="49.69169" lon="4.76778">
        <ele>150.2</ele>
        <time>2011-03-02T11:00:53Z</time>
      </trkpt>
      <trkpt lat="49.69174" lon="4.76777">
        <ele>150.41</ele>
        <time>2011-03-02T11:00:55Z</time>
      </trkpt>
      <trkpt lat="49.69177" lon="4.76777">
        <ele>150.48</ele>
        <time>2011-03-02T11:00:56Z</time>
      </trkpt>
      <trkpt lat="49.69181" lon="4.76777">
        <ele>150.53</ele>
        <time>2011-03-02T11:00:57Z</time>
      </trkpt>
      <trkpt lat="49.69187" lon="4.76777">
        <ele>150.58</ele>
        <time>2011-03-02T11:00:59Z</time>
      </trkpt>
      <trkpt lat="49.69193" lon="4.76776">
        <ele>150.59</ele>
        <time>2011-03-02T11:01:00Z</time>
      </trkpt>
      <trkpt lat="49.69199" lon="4.76775">
        <ele>150.444</ele>
        <time>2011-03-02T11:01:02Z</time>
      </trkpt>
      <trkpt lat="49.69204" lon="4.76774">
        <ele>150.015</ele>
        <time>2011-03-02T11:01:04Z</time>
      </trkpt>
      <trkpt lat="49.69206" lon="4.76773">
        <ele>149.868</ele>
        <time>2011-03-02T11:01:05Z</time>
      </trkpt>
      <trkpt lat="49.69214" lon="4.76771">
        <ele>149.792</ele>
        <time>2011-03-02T11:01:07Z</time>
      </trkpt>
      <trkpt lat="49.69221" lon="4.76769">
        <ele>150.78</ele>
        <time>2011-03-02T11:01:09Z</time>
      </trkpt>
      <trkpt lat="49.69229" lon="4.76767">
        <ele>152.116</ele>
        <time>2011-03-02T11:01:11Z</time>
      </trkpt>
      <trkpt lat="49.69235" lon="4.76766">
        <ele>153.564</ele>
        <time>2011-03-02T11:01:12Z</time>
      </trkpt>
      <trkpt lat="49.69241" lon="4.76766">
        <ele>154.075</ele>
        <time>2011-03-02T11:01:14Z</time>
      </trkpt>
      <trkpt lat="49.69244" lon="4.76766">
        <ele>154.25</ele>
        <time>2011-03-02T11:01:15Z</time>
      </trkpt>
      <trkpt lat="49.69252" lon="4.76765">
        <ele>154.02</ele>
        <time>2011-03-02T11:01:17Z</time>
      </trkpt>
      <trkpt lat="49.69258" lon="4.76766">
        <ele>153.54</ele>
        <time>2011-03-02T11:01:19Z</time>
      </trkpt>
      <trkpt lat="49.69264" lon="4.76766">
        <ele>153.09</ele>
        <time>2011-03-02T11:01:20Z</time>
      </trkpt>
      <trkpt lat="49.6927" lon="4.76767">
        <ele>153.32</ele>
        <time>2011-03-02T11:01:22Z</time>
      </trkpt>
      <trkpt lat="49.69277" lon="4.76766">
        <ele>153.84</ele>
        <time>2011-03-02T11:01:24Z</time>
      </trkpt>
      <trkpt lat="49.69281" lon="4.76765">
        <ele>154.19</ele>
        <time>2011-03-02T11:01:25Z</time>
      </trkpt>
      <trkpt lat="49.69289" lon="4.76764">
        <ele>154.83</ele>
        <time>2011-03-02T11:01:27Z</time>
      </trkpt>
      <trkpt lat="49.69294" lon="4.76764">
        <ele>155.01</ele>
        <time>2011-03-02T11:01:28Z</time>
      </trkpt>
      <trkpt lat="49.69299" lon="4.76765">
        <ele>155.27</ele>
        <time>2011-03-02T11:01:30Z</time>
      </trkpt>
      <trkpt lat="49.69302" lon="4.76765">
        <ele>155.31</ele>
        <time>2011-03-02T11:01:31Z</time>
      </trkpt>
      <trkpt lat="49.69308" lon="4.76765">
        <ele>155.21</ele>
        <time>2011-03-02T11:01:32Z</time>
      </trkpt>
      <trkpt lat="49.69313" lon="4.76765">
        <ele>155.08</ele>
        <time>2011-03-02T11:01:34Z</time>
      </trkpt>
      <trkpt lat="49.69318" lon="4.76766">
        <ele>155.17</ele>
        <time>2011-03-02T11:01:35Z</time>
      </trkpt>
      <trkpt lat="49.69324" lon="4.76765">
        <ele>155.33</ele>
        <time>2011-03-02T11:01:37Z</time>
      </trkpt>
      <trkpt lat="49.69329" lon="4.76765">
        <ele>155.58</ele>
        <time>2011-03-02T11:01:38Z</time>
      </trkpt>
      <trkpt lat="49.69336" lon="4.76763">
        <ele>155.79</ele>
        <time>2011-03-02T11:01:40Z</time>
      </trkpt>
      <trkpt lat="49.69344" lon="4.76761">
        <ele>155.97</ele>
        <time>2011-03-02T11:01:42Z</time>
      </trkpt>
      <trkpt lat="49.69349" lon="4.7676">
        <ele>156.1</ele>
        <time>2011-03-02T11:01:44Z</time>
      </trkpt>
      <trkpt lat="49.69356" lon="4.76758">
        <ele>155.84</ele>
        <time>2011-03-02T11:01:45Z</time>
      </trkpt>
      <trkpt lat="49.69363" lon="4.76757">
        <ele>155.46</ele>
        <time>2011-03-02T11:01:47Z</time>
      </trkpt>
      <trkpt lat="49.69366" lon="4.76756">
        <ele>155.53</ele>
        <time>2011-03-02T11:01:48Z</time>
      </trkpt>
      <trkpt lat="49.69371" lon="4.76754">
        <ele>155.71</ele>
        <time>2011-03-02T11:01:49Z</time>
      </trkpt>
      <trkpt lat="49.69376" lon="4.76754">
        <ele>155.91</ele>
        <time>2011-03-02T11:01:51Z</time>
      </trkpt>
      <trkpt lat="49.69382" lon="4.76753">
        <ele>156.14</ele>
        <time>2011-03-02T11:01:53Z</time>
      </trkpt>
      <trkpt lat="49.69387" lon="4.76753">
        <ele>156.45</ele>
        <time>2011-03-02T11:01:54Z</time>
      </trkpt>
      <trkpt lat="49.69394" lon="4.76754">
        <ele>156.76</ele>
        <time>2011-03-02T11:01:56Z</time>
      </trkpt>
      <trkpt lat="49.69401" lon="4.76755">
        <ele>156.82</ele>
        <time>2011-03-02T11:01:58Z</time>
      </trkpt>
      <trkpt lat="49.69407" lon="4.76755">
        <ele>156.75</ele>
        <time>2011-03-02T11:01:59Z</time>
      </trkpt>
      <trkpt lat="49.69411" lon="4.76754">
        <ele>156.72</ele>
        <time>2011-03-02T11:02:01Z</time>
      </trkpt>
      <trkpt lat="49.69413" lon="4.76753">
        <ele>156.78</ele>
        <time>2011-03-02T11:02:02Z</time>
      </trkpt>
      <trkpt lat="49.69417" lon="4.76751">
        <ele>157.13</ele>
        <time>2011-03-02T11:02:04Z</time>
      </trkpt>
      <trkpt lat="49.69421" lon="4.7675">
        <ele>157.6</ele>
        <time>2011-03-02T11:02:05Z</time>
      </trkpt>
      <trkpt lat="49.69425" lon="4.7675">
        <ele>158.13</ele>
        <time>2011-03-02T11:02:07Z</time>
      </trkpt>
      <trkpt lat="49.69431" lon="4.76752">
        <ele>158.45</ele>
        <time>2011-03-02T11:02:09Z</time>
      </trkpt>
      <trkpt lat="49.69437" lon="4.76754">
        <ele>158.31</ele>
        <time>2011-03-02T11:02:11Z</time>
      </trkpt>
      <trkpt lat="49.6944" lon="4.76755">
        <ele>158.13</ele>
        <time>2011-03-02T11:02:12Z</time>
      </trkpt>
      <trkpt lat="49.69446" lon="4.76757">
        <ele>157.37</ele>
        <time>2011-03-02T11:02:14Z</time>
      </trkpt>
      <trkpt lat="49.6945" lon="4.76758">
        <ele>156.96</ele>
        <time>2011-03-02T11:02:15Z</time>
      </trkpt>
      <trkpt lat="49.69455" lon="4.76759">
        <ele>156.16</ele>
        <time>2011-03-02T11:02:17Z</time>
      </trkpt>
      <trkpt lat="49.69458" lon="4.76759">
        <ele>155.88</ele>
        <time>2011-03-02T11:02:18Z</time>
      </trkpt>
      <trkpt lat="49.69464" lon="4.76761">
        <ele>155.48</ele>
        <time>2011-03-02T11:02:20Z</time>
      </trkpt>
      <trkpt lat="49.6947" lon="4.76762">
        <ele>155</ele>
        <time>2011-03-02T11:02:21Z</time>
      </trkpt>
      <trkpt lat="49.69476" lon="4.76765">
        <ele>154.88</ele>
        <time>2011-03-02T11:02:23Z</time>
      </trkpt>
      <trkpt lat="49.69478" lon="4.76767">
        <ele>154.88</ele>
        <time>2011-03-02T11:02:24Z</time>
      </trkpt>
      <trkpt lat="49.69481" lon="4.76768">
        <ele>154.87</ele>
        <time>2011-03-02T11:02:25Z</time>
      </trkpt>
      <trkpt lat="49.69486" lon="4.76772">
        <ele>154.77</ele>
        <time>2011-03-02T11:02:27Z</time>
      </trkpt>
      <trkpt lat="49.69488" lon="4.76775">
        <ele>154.7</ele>
        <time>2011-03-02T11:02:28Z</time>
      </trkpt>
      <trkpt lat="49.6949" lon="4.76781">
        <ele>154.64</ele>
        <time>2011-03-02T11:02:30Z</time>
      </trkpt>
      <trkpt lat="49.69491" lon="4.76785">
        <ele>154.59</ele>
        <time>2011-03-02T11:02:31Z</time>
      </trkpt>
      <trkpt lat="49.69493" lon="4.76792">
        <ele>154.41</ele>
        <time>2011-03-02T11:02:33Z</time>
      </trkpt>
      <trkpt lat="49.69493" lon="4.76801">
        <ele>154.19</ele>
        <time>2011-03-02T11:02:35Z</time>
      </trkpt>
      <trkpt lat="49.69493" lon="4.76811">
        <ele>153.99</ele>
        <time>2011-03-02T11:02:37Z</time>
      </trkpt>
      <trkpt lat="49.69491" lon="4.76822">
        <ele>153.63</ele>
        <time>2011-03-02T11:02:39Z</time>
      </trkpt>
      <trkpt lat="49.69488" lon="4.76832">
        <ele>153.08</ele>
        <time>2011-03-02T11:02:40Z</time>
      </trkpt>
      <trkpt lat="49.69486" lon="4.76844">
        <ele>152.48</ele>
        <time>2011-03-02T11:02:42Z</time>
      </trkpt>
      <trkpt lat="49.69482" lon="4.76861">
        <ele>152.22</ele>
        <time>2011-03-02T11:02:44Z</time>
      </trkpt>
      <trkpt lat="49.6948" lon="4.76871">
        <ele>152.21</ele>
        <time>2011-03-02T11:02:45Z</time>
      </trkpt>
      <trkpt lat="49.69478" lon="4.76882">
        <ele>152.179</ele>
        <time>2011-03-02T11:02:46Z</time>
      </trkpt>
      <trkpt lat="49.69475" lon="4.769">
        <ele>152.428</ele>
        <time>2011-03-02T11:02:47Z</time>
      </trkpt>
      <trkpt lat="49.69473" lon="4.7691">
        <ele>152.646</ele>
        <time>2011-03-02T11:02:48Z</time>
      </trkpt>
      <trkpt lat="49.69468" lon="4.76931">
        <ele>153.189</ele>
        <time>2011-03-02T11:02:50Z</time>
      </trkpt>
      <trkpt lat="49.69463" lon="4.76956">
        <ele>153.276</ele>
        <time>2011-03-02T11:02:52Z</time>
      </trkpt>
      <trkpt lat="49.69459" lon="4.76976">
        <ele>152.983</ele>
        <time>2011-03-02T11:02:53Z</time>
      </trkpt>
      <trkpt lat="49.69456" lon="4.76985">
        <ele>152.752</ele>
        <time>2011-03-02T11:02:54Z</time>
      </trkpt>
      <trkpt lat="49.69454" lon="4.76994">
        <ele>152.5</ele>
        <time>2011-03-02T11:02:55Z</time>
      </trkpt>
      <trkpt lat="49.69451" lon="4.77015">
        <ele>151.91</ele>
        <time>2011-03-02T11:02:57Z</time>
      </trkpt>
      <trkpt lat="49.69449" lon="4.77026">
        <ele>151.67</ele>
        <time>2011-03-02T11:02:58Z</time>
      </trkpt>
      <trkpt lat="49.69445" lon="4.77047">
        <ele>151.06</ele>
        <time>2011-03-02T11:03:00Z</time>
      </trkpt>
      <trkpt lat="49.69441" lon="4.77068">
        <ele>150.12</ele>
        <time>2011-03-02T11:03:02Z</time>
      </trkpt>
      <trkpt lat="49.69438" lon="4.77078">
        <ele>149.58</ele>
        <time>2011-03-02T11:03:03Z</time>
      </trkpt>
      <trkpt lat="49.69436" lon="4.77088">
        <ele>149.08</ele>
        <time>2011-03-02T11:03:04Z</time>
      </trkpt>
      <trkpt lat="49.69434" lon="4.77107">
        <ele>148.16</ele>
        <time>2011-03-02T11:03:06Z</time>
      </trkpt>
      <trkpt lat="49.69434" lon="4.77115">
        <ele>147.71</ele>
        <time>2011-03-02T11:03:07Z</time>
      </trkpt>
      <trkpt lat="49.69438" lon="4.77127">
        <ele>146.86</ele>
        <time>2011-03-02T11:03:09Z</time>
      </trkpt>
      <trkpt lat="49.69441" lon="4.77131">
        <ele>146.72</ele>
        <time>2011-03-02T11:03:10Z</time>
      </trkpt>
      <trkpt lat="49.69444" lon="4.77135">
        <ele>146.69</ele>
        <time>2011-03-02T11:03:11Z</time>
      </trkpt>
      <trkpt lat="49.69453" lon="4.77142">
        <ele>146.75</ele>
        <time>2011-03-02T11:03:13Z</time>
      </trkpt>
      <trkpt lat="49.69458" lon="4.77146">
        <ele>146.8</ele>
        <time>2011-03-02T11:03:14Z</time>
      </trkpt>
      <trkpt lat="49.69463" lon="4.77149">
        <ele>146.85</ele>
        <time>2011-03-02T11:03:15Z</time>
      </trkpt>
      <trkpt lat="49.69476" lon="4.77154">
        <ele>146.99</ele>
        <time>2011-03-02T11:03:17Z</time>
      </trkpt>
      <trkpt lat="49.69488" lon="4.77159">
        <ele>147.16</ele>
        <time>2011-03-02T11:03:19Z</time>
      </trkpt>
      <trkpt lat="49.69494" lon="4.77162">
        <ele>147.18</ele>
        <time>2011-03-02T11:03:20Z</time>
      </trkpt>
      <trkpt lat="49.69504" lon="4.77171">
        <ele>146.97</ele>
        <time>2011-03-02T11:03:22Z</time>
      </trkpt>
      <trkpt lat="49.69515" lon="4.7718">
        <ele>146.7</ele>
        <time>2011-03-02T11:03:24Z</time>
      </trkpt>
      <trkpt lat="49.6952" lon="4.77184">
        <ele>146.44</ele>
        <time>2011-03-02T11:03:25Z</time>
      </trkpt>
      <trkpt lat="49.6953" lon="4.77193">
        <ele>145.91</ele>
        <time>2011-03-02T11:03:27Z</time>
      </trkpt>
      <trkpt lat="49.69534" lon="4.77197">
        <ele>145.7</ele>
        <time>2011-03-02T11:03:28Z</time>
      </trkpt>
      <trkpt lat="49.69541" lon="4.77205">
        <ele>145.24</ele>
        <time>2011-03-02T11:03:30Z</time>
      </trkpt>
      <trkpt lat="49.69544" lon="4.77209">
        <ele>145.05</ele>
        <time>2011-03-02T11:03:31Z</time>
      </trkpt>
      <trkpt lat="49.69549" lon="4.77213">
        <ele>145.01</ele>
        <time>2011-03-02T11:03:32Z</time>
      </trkpt>
      <trkpt lat="49.69551" lon="4.77213">
        <ele>145.1</ele>
        <time>2011-03-02T11:03:33Z</time>
      </trkpt>
      <trkpt lat="49.69553" lon="4.77211">
        <ele>145.39</ele>
        <time>2011-03-02T11:03:34Z</time>
      </trkpt>
      <trkpt lat="49.69556" lon="4.77201">
        <ele>145.97</ele>
        <time>2011-03-02T11:03:36Z</time>
      </trkpt>
      <trkpt lat="49.69556" lon="4.77192">
        <ele>146.33</ele>
        <time>2011-03-02T11:03:38Z</time>
      </trkpt>
      <trkpt lat="49.69554" lon="4.77191">
        <ele>146.58</ele>
        <time>2011-03-02T11:03:40Z</time>
      </trkpt>
      <trkpt lat="49.69552" lon="4.77196">
        <ele>146.56</ele>
        <time>2011-03-02T11:03:42Z</time>
      </trkpt>
      <trkpt lat="49.69552" lon="4.77198">
        <ele>146.42</ele>
        <time>2011-03-02T11:03:43Z</time>
      </trkpt>
      <trkpt lat="49.69553" lon="4.77204">
        <ele>145.99</ele>
        <time>2011-03-02T11:03:45Z</time>
      </trkpt>
      <trkpt lat="49.69556" lon="4.7721">
        <ele>145.77</ele>
        <time>2011-03-02T11:03:47Z</time>
      </trkpt>
      <trkpt lat="49.69557" lon="4.77213">
        <ele>145.79</ele>
        <time>2011-03-02T11:03:48Z</time>
      </trkpt>
      <trkpt lat="49.69558" lon="4.7722">
        <ele>146.01</ele>
        <time>2011-03-02T11:03:50Z</time>
      </trkpt>
      <trkpt lat="49.69559" lon="4.77223">
        <ele>146.11</ele>
        <time>2011-03-02T11:03:51Z</time>
      </trkpt>
      <trkpt lat="49.69559" lon="4.77228">
        <ele>146.28</ele>
        <time>2011-03-02T11:03:53Z</time>
      </trkpt>
      <trkpt lat="49.69558" lon="4.7723">
        <ele>146.52</ele>
        <time>2011-03-02T11:03:55Z</time>
      </trkpt>
      <trkpt lat="49.69559" lon="4.77231">
        <ele>146.3</ele>
        <time>2011-03-02T11:03:57Z</time>
      </trkpt>
      <trkpt lat="49.69562" lon="4.77232">
        <ele>146.31</ele>
        <time>2011-03-02T11:03:59Z</time>
      </trkpt>
      <trkpt lat="49.69564" lon="4.77232">
        <ele>146.33</ele>
        <time>2011-03-02T11:04:00Z</time>
      </trkpt>
      <trkpt lat="49.69565" lon="4.77234">
        <ele>146.33</ele>
        <time>2011-03-02T11:04:01Z</time>
      </trkpt>
      <trkpt lat="49.69566" lon="4.77235">
        <ele>146.28</ele>
        <time>2011-03-02T11:04:03Z</time>
      </trkpt>
      <trkpt lat="49.69565" lon="4.77236">
        <ele>146.379</ele>
        <time>2011-03-02T11:04:04Z</time>
      </trkpt>
      <trkpt lat="49.69565" lon="4.77236">
        <ele>146.418</ele>
        <time>2011-03-02T11:04:06Z</time>
      </trkpt>
      <trkpt lat="49.69564" lon="4.77235">
        <ele>146.313</ele>
        <time>2011-03-02T11:04:08Z</time>
      </trkpt>
      <trkpt lat="49.69564" lon="4.77234">
        <ele>146.257</ele>
        <time>2011-03-02T11:04:09Z</time>
      </trkpt>
      <trkpt lat="49.69563" lon="4.77232">
        <ele>146.333</ele>
        <time>2011-03-02T11:04:11Z</time>
      </trkpt>
      <trkpt lat="49.69563" lon="4.77232">
        <ele>146.327</ele>
        <time>2011-03-02T11:04:12Z</time>
      </trkpt>
      <trkpt lat="49.69562" lon="4.77231">
        <ele>146.43</ele>
        <time>2011-03-02T11:04:14Z</time>
      </trkpt>
      <trkpt lat="49.69562" lon="4.77232">
        <ele>146.5</ele>
        <time>2011-03-02T11:04:15Z</time>
      </trkpt>
      <trkpt lat="49.69562" lon="4.77232">
        <ele>146.56</ele>
        <time>2011-03-02T11:04:16Z</time>
      </trkpt>
      <trkpt lat="49.69562" lon="4.77232">
        <ele>146.68</ele>
        <time>2011-03-02T11:04:17Z</time>
      </trkpt>
      <trkpt lat="49.69562" lon="4.77232">
        <ele>146.93</ele>
        <time>2011-03-02T11:04:19Z</time>
      </trkpt>
      <trkpt lat="49.69562" lon="4.77232">
        <ele>147.11</ele>
        <time>2011-03-02T11:04:21Z</time>
      </trkpt>
      <trkpt lat="49.69562" lon="4.77232">
        <ele>147.11</ele>
        <time>2011-03-02T11:04:22Z</time>
      </trkpt>
      <trkpt lat="49.69562" lon="4.77232">
        <ele>147.1</ele>
        <time>2011-03-02T11:04:24Z</time>
      </trkpt>
      <trkpt lat="49.69562" lon="4.77232">
        <ele>147.1</ele>
        <time>2011-03-02T11:04:25Z</time>
      </trkpt>
      <trkpt lat="49.69562" lon="4.77232">
        <ele>147.1</ele>
        <time>2011-03-02T11:04:27Z</time>
      </trkpt>
      <trkpt lat="49.69562" lon="4.77232">
        <ele>147.1</ele>
        <time>2011-03-02T11:04:28Z</time>
      </trkpt>
      <trkpt lat="49.69562" lon="4.77232">
        <ele>147.1</ele>
        <time>2011-03-02T11:04:30Z</time>
      </trkpt>
      <trkpt lat="49.69562" lon="4.77232">
        <ele>147.1</ele>
        <time>2011-03-02T11:04:31Z</time>
      </trkpt>
      <trkpt lat="49.69562" lon="4.77232">
        <ele>147.1</ele>
        <time>2011-03-02T11:04:32Z</time>
      </trkpt>
      <trkpt lat="49.69562" lon="4.77232">
        <ele>147.12</ele>
        <time>2011-03-02T11:04:34Z</time>
      </trkpt>
      <trkpt lat="49.69562" lon="4.77232">
        <ele>147.14</ele>
        <time>2011-03-02T11:04:35Z</time>
      </trkpt>
      <trkpt lat="49.69562" lon="4.77232">
        <ele>147.157</ele>
        <time>2011-03-02T11:04:37Z</time>
      </trkpt>
      <trkpt lat="49.69562" lon="4.77232">
        <ele>147.177</ele>
        <time>2011-03-02T11:04:38Z</time>
      </trkpt>
      <trkpt lat="49.69562" lon="4.77232">
        <ele>147.2</ele>
        <time>2011-03-02T11:04:40Z</time>
      </trkpt>
      <trkpt lat="49.69562" lon="4.77232">
        <ele>147.2</ele>
        <time>2011-03-02T11:04:41Z</time>
      </trkpt>
      <trkpt lat="49.69562" lon="4.77232">
        <ele>147.2</ele>
        <time>2011-03-02T11:04:43Z</time>
      </trkpt>
      <trkpt lat="49.69562" lon="4.77232">
        <ele>147.2</ele>
        <time>2011-03-02T11:04:44Z</time>
      </trkpt>
      <trkpt lat="49.69562" lon="4.77232">
        <ele>147.2</ele>
        <time>2011-03-02T11:04:45Z</time>
      </trkpt>
      <trkpt lat="49.69562" lon="4.77232">
        <ele>147.2</ele>
        <time>2011-03-02T11:04:47Z</time>
      </trkpt>
      <trkpt lat="49.69562" lon="4.77232">
        <ele>147.2</ele>
        <time>2011-03-02T11:04:48Z</time>
      </trkpt>
      <trkpt lat="49.69562" lon="4.77232">
        <ele>147.2</ele>
        <time>2011-03-02T11:04:50Z</time>
      </trkpt>
      <trkpt lat="49.69562" lon="4.77232">
        <ele>147.2</ele>
        <time>2011-03-02T11:04:52Z</time>
      </trkpt>
      <trkpt lat="49.69562" lon="4.77232">
        <ele>147.2</ele>
        <time>2011-03-02T11:04:53Z</time>
      </trkpt>
      <trkpt lat="49.69562" lon="4.77232">
        <ele>147.2</ele>
        <time>2011-03-02T11:04:55Z</time>
      </trkpt>
      <trkpt lat="49.69562" lon="4.77232">
        <ele>147.2</ele>
        <time>2011-03-02T11:04:57Z</time>
      </trkpt>
      <trkpt lat="49.69562" lon="4.77232">
        <ele>147.2</ele>
        <time>2011-03-02T11:04:58Z</time>
      </trkpt>
      <trkpt lat="49.69562" lon="4.77232">
        <ele>147.2</ele>
        <time>2011-03-02T11:04:59Z</time>
      </trkpt>
      <trkpt lat="49.69562" lon="4.77231">
        <ele>147.195</ele>
        <time>2011-03-02T11:05:01Z</time>
      </trkpt>
      <trkpt lat="49.69562" lon="4.77229">
        <ele>147.189</ele>
        <time>2011-03-02T11:05:02Z</time>
      </trkpt>
      <trkpt lat="49.69563" lon="4.77228">
        <ele>147.147</ele>
        <time>2011-03-02T11:05:03Z</time>
      </trkpt>
      <trkpt lat="49.69564" lon="4.77225">
        <ele>146.975</ele>
        <time>2011-03-02T11:05:04Z</time>
      </trkpt>
      <trkpt lat="49.69564" lon="4.77225">
        <ele>146.625</ele>
        <time>2011-03-02T11:05:06Z</time>
      </trkpt>
      <trkpt lat="49.69564" lon="4.77225">
        <ele>146.413</ele>
        <time>2011-03-02T11:05:07Z</time>
      </trkpt>
      <trkpt lat="49.69563" lon="4.77225">
        <ele>146.2</ele>
        <time>2011-03-02T11:05:08Z</time>
      </trkpt>
      <trkpt lat="49.69563" lon="4.77226">
        <ele>145.888</ele>
        <time>2011-03-02T11:05:10Z</time>
      </trkpt>
      <trkpt lat="49.69564" lon="4.77227">
        <ele>145.833</ele>
        <time>2011-03-02T11:05:11Z</time>
      </trkpt>
      <trkpt lat="49.69564" lon="4.77228">
        <ele>145.75</ele>
        <time>2011-03-02T11:05:13Z</time>
      </trkpt>
      <trkpt lat="49.69565" lon="4.77228">
        <ele>145.41</ele>
        <time>2011-03-02T11:05:15Z</time>
      </trkpt>
      <trkpt lat="49.69565" lon="4.77228">
        <ele>145.26</ele>
        <time>2011-03-02T11:05:16Z</time>
      </trkpt>
      <trkpt lat="49.69565" lon="4.77228">
        <ele>145.15</ele>
        <time>2011-03-02T11:05:17Z</time>
      </trkpt>
    </trkseg>
  </trk>
</gpx>